Temperature & Humidity sensor readings

 Timestamp   Temperature   Relative humidity 
 2019-02-16 22:33:17  23 C   38 % 
 2019-02-16 21:25:44  23 C   39 % 
 2019-02-16 21:15:28  23 C   40 % 
 2019-02-16 20:36:28  23 C   40 % 
 2019-02-16 20:26:52  23 C   41 % 
 2019-02-16 20:17:05  23 C   40 % 
 2019-02-16 19:57:19  22 C   45 % 
 2019-02-16 19:47:42  22 C   45 % 
 2019-02-16 16:43:15  22 C   38 % 
 2019-02-16 15:25:29  22 C   39 % 
 2019-02-16 14:18:14  22 C   40 % 
 2019-02-16 13:39:34  21 C   41 % 
 2019-02-16 12:51:42  21 C   39 % 
 2019-02-16 12:41:28  21 C   38 % 
 2019-02-16 12:21:34  21 C   38 % 
 2019-02-16 12:11:56  21 C   38 % 
 2019-02-16 12:02:18  21 C   37 % 
 2019-02-16 11:52:42  21 C   37 % 
 2019-02-16 11:43:06  21 C   37 % 
 2019-02-16 11:33:31  21 C   37 % 
 2019-02-16 11:04:01  21 C   37 % 
 2019-02-16 10:54:25  21 C   37 % 
 2019-02-16 10:44:49  21 C   37 % 
 2019-02-16 10:25:34  21 C   37 % 
 2019-02-16 10:15:56  21 C   37 % 
 2019-02-16 09:56:41  21 C   37 % 
 2019-02-16 09:47:05  21 C   37 % 
 2019-02-16 09:37:29  21 C   37 % 
 2019-02-16 08:57:59  21 C   37 % 
 2019-02-16 04:55:43  22 C   37 % 
 2019-02-16 03:09:31  22 C   37 % 
 2019-02-16 01:41:51  23 C   37 % 
 2019-02-16 01:32:01  23 C   37 % 
 2019-02-16 01:02:43  23 C   37 % 
 2019-02-16 00:24:17  23 C   36 % 
 2019-02-16 00:14:09  23 C   36 % 
 2019-02-16 00:04:32  23 C   36 % 
 2019-02-15 23:54:46  23 C   36 % 
 2019-02-15 23:35:09  23 C   36 % 
 2019-02-15 23:25:38  23 C   36 % 
 2019-02-15 23:06:08  23 C   36 % 
 2019-02-15 22:56:25  23 C   36 % 
 2019-02-15 22:46:48  23 C   36 % 
 2019-02-15 22:26:59  23 C   36 % 
 2019-02-15 22:07:14  23 C   36 % 
 2019-02-15 21:47:58  24 C   36 % 
 2019-02-15 21:38:22  24 C   36 % 
 2019-02-15 21:28:46  24 C   36 % 
 2019-02-15 21:19:09  24 C   36 % 
 2019-02-15 21:09:32  24 C   36 % 
 2019-02-15 20:59:55  24 C   36 % 
 2019-02-15 20:50:18  24 C   35 % 
 2019-02-15 20:31:06  24 C   37 % 
 2019-02-15 20:21:29  24 C   37 % 
 2019-02-15 20:11:52  24 C   38 % 
 2019-02-15 20:02:16  24 C   39 % 
 2019-02-15 19:52:39  24 C   36 % 
 2019-02-15 19:43:02  24 C   37 % 
 2019-02-15 19:33:26  24 C   37 % 
 2019-02-15 19:23:48  24 C   36 % 
 2019-02-15 19:14:06  23 C   37 % 
 2019-02-15 19:04:30  23 C   36 % 
 2019-02-15 18:54:52  23 C   36 % 
 2019-02-15 18:35:44  23 C   36 % 
 2019-02-15 18:06:30  23 C   37 % 
 2019-02-15 17:37:37  23 C   37 % 
 2019-02-15 17:08:28  23 C   37 % 
 2019-02-15 16:29:44  23 C   37 % 
 2019-02-15 16:20:07  23 C   37 % 
 2019-02-15 16:10:31  23 C   36 % 
 2019-02-15 15:41:36  23 C   36 % 
 2019-02-15 15:32:07  23 C   36 % 
 2019-02-15 14:33:59  23 C   36 % 
 2019-02-15 13:55:18  23 C   37 % 
 2019-02-15 13:36:00  23 C   36 % 
 2019-02-15 13:16:48  23 C   36 % 
 2019-02-15 13:07:12  23 C   36 % 
 2019-02-15 12:57:37  23 C   36 % 
 2019-02-15 12:38:27  23 C   36 % 
 2019-02-15 12:28:49  23 C   37 % 
 2019-02-15 12:19:11  23 C   37 % 
 2019-02-15 11:40:47  23 C   36 % 
 2019-02-15 11:11:34  23 C   37 % 
 2019-02-15 10:23:23  23 C   37 % 
 2019-02-15 10:13:46  23 C   37 % 
 2019-02-15 09:54:17  23 C   37 % 
 2019-02-15 08:27:28  23 C   38 % 
 2019-02-15 07:20:00  23 C   38 % 
 2019-02-15 06:12:34  23 C   37 % 
 2019-02-15 06:02:47  23 C   37 % 
 2019-02-15 05:43:32  23 C   37 % 
 2019-02-15 04:34:46  23 C   37 % 
 2019-02-15 04:05:13  23 C   37 % 
 2019-02-15 03:45:29  23 C   37 % 
 2019-02-15 03:35:53  23 C   37 % 
 2019-02-15 03:06:58  23 C   37 % 
 2019-02-15 02:57:19  23 C   37 % 
 2019-02-15 02:38:06  23 C   37 % 
 2019-02-15 01:59:40  23 C   37 % 
 2019-02-15 01:11:29  23 C   37 % 
 2019-02-15 00:51:46  23 C   37 % 
 2019-02-15 00:42:19  23 C   37 % 
 2019-02-15 00:32:11  23 C   37 % 
 2019-02-15 00:22:40  24 C   37 % 
 2019-02-14 23:43:28  24 C   36 % 
 2019-02-14 23:33:52  24 C   36 % 
 2019-02-14 23:24:11  24 C   36 % 
 2019-02-14 23:04:59  24 C   35 % 
 2019-02-14 22:55:21  24 C   35 % 
 2019-02-14 22:26:29  24 C   36 % 
 2019-02-14 22:16:53  24 C   36 % 
 2019-02-14 22:07:16  24 C   36 % 
 2019-02-14 21:57:41  24 C   36 % 
 2019-02-14 21:48:01  24 C   36 % 
 2019-02-14 21:38:25  24 C   36 % 
 2019-02-14 21:28:49  24 C   36 % 
 2019-02-14 21:09:37  24 C   36 % 
 2019-02-14 20:59:50  24 C   36 % 
 2019-02-14 20:40:38  24 C   37 % 
 2019-02-14 20:11:06  24 C   35 % 
 2019-02-14 20:01:32  24 C   36 % 
 2019-02-14 19:51:51  23 C   36 % 
 2019-02-14 19:42:13  23 C   38 % 
 2019-02-14 19:23:00  23 C   41 % 
 2019-02-14 18:05:21  23 C   38 % 
 2019-02-14 16:18:34  23 C   37 % 
 2019-02-14 15:49:47  23 C   36 % 
 2019-02-14 15:20:49  23 C   36 % 
 2019-02-14 15:10:57  23 C   35 % 
 2019-02-14 14:32:18  24 C   35 % 
 2019-02-14 14:22:09  24 C   34 % 
 2019-02-14 14:12:43  24 C   34 % 
 2019-02-14 14:02:30  24 C   34 % 
 2019-02-14 13:52:57  24 C   34 % 
 2019-02-14 13:43:20  25 C   33 % 
 2019-02-14 13:33:45  25 C   33 % 
 2019-02-14 13:24:07  26 C   31 % 
 2019-02-14 13:14:34  28 C   28 % 
 2019-02-14 12:06:01  22 C   36 % 
 2019-02-14 11:46:36  22 C   36 % 
 2019-02-14 11:36:52  22 C   36 % 
 2019-02-14 11:16:52  22 C   35 % 
 2019-02-14 03:11:25  23 C   36 % 
 2019-02-14 02:42:08  23 C   36 % 
 2019-02-14 01:53:56  23 C   36 % 
 2019-02-14 01:25:04  23 C   36 % 
 2019-02-14 01:05:41  23 C   36 % 
 2019-02-13 23:46:33  23 C   36 % 
 2019-02-13 23:36:32  23 C   36 % 
 2019-02-13 23:26:55  23 C   36 % 
 2019-02-13 23:17:26  23 C   36 % 
 2019-02-13 22:56:54  23 C   36 % 
 2019-02-13 22:08:47  23 C   36 % 
 2019-02-13 21:58:54  23 C   36 % 
 2019-02-13 21:29:19  24 C   36 % 
 2019-02-13 21:19:42  24 C   36 % 
 2019-02-13 21:00:04  24 C   36 % 
 2019-02-13 20:40:31  24 C   36 % 
 2019-02-13 20:01:36  24 C   36 % 
 2019-02-13 19:51:57  24 C   36 % 
 2019-02-13 19:32:43  24 C   36 % 
 2019-02-13 19:22:54  24 C   35 % 
 2019-02-13 18:53:50  24 C   37 % 
 2019-02-13 18:44:14  24 C   37 % 
 2019-02-13 18:24:57  23 C   36 % 
 2019-02-13 18:15:23  23 C   37 % 
 2019-02-13 17:17:20  23 C   39 % 
 2019-02-13 16:38:41  23 C   37 % 
 2019-02-13 16:09:44  23 C   36 % 
 2019-02-13 15:31:08  23 C   37 % 
 2019-02-13 15:11:54  23 C   37 % 
 2019-02-13 14:52:46  23 C   37 % 
 2019-02-13 14:33:00  23 C   36 % 
 2019-02-13 14:04:03  23 C   37 % 
 2019-02-13 13:54:13  23 C   37 % 
 2019-02-13 13:34:14  23 C   37 % 
 2019-02-13 11:57:09  23 C   36 % 
 2019-02-13 11:08:50  23 C   36 % 
 2019-02-13 10:49:17  24 C   35 % 
 2019-02-13 10:39:41  24 C   35 % 
 2019-02-13 10:30:06  23 C   36 % 
 2019-02-13 09:41:09  22 C   39 % 
 2019-02-13 09:12:16  22 C   40 % 
 2019-02-13 07:05:12  22 C   36 % 
 2019-02-13 03:41:39  22 C   36 % 
 2019-02-13 03:22:25  22 C   36 % 
 2019-02-13 02:24:49  23 C   36 % 
 2019-02-13 02:14:49  23 C   36 % 
 2019-02-13 02:05:02  23 C   36 % 
 2019-02-13 01:35:34  23 C   36 % 
 2019-02-13 00:37:13  23 C   36 % 
 2019-02-12 23:39:35  23 C   36 % 
 2019-02-12 22:02:04  23 C   35 % 
 2019-02-12 21:52:27  23 C   35 % 
 2019-02-12 21:42:49  23 C   34 % 
 2019-02-12 21:33:15  23 C   34 % 
 2019-02-12 21:23:35  23 C   34 % 
 2019-02-12 21:04:09  23 C   34 % 
 2019-02-12 20:54:16  23 C   34 % 
 2019-02-12 20:44:36  24 C   34 % 
 2019-02-12 20:34:58  23 C   34 % 
 2019-02-12 20:15:31  23 C   34 % 
 2019-02-12 19:37:08  23 C   35 % 
 2019-02-12 19:27:30  23 C   35 % 
 2019-02-12 18:58:31  23 C   37 % 
 2019-02-12 18:39:18  23 C   38 % 
 2019-02-12 17:11:52  22 C   35 % 
 2019-02-12 14:08:42  24 C   33 % 
 2019-02-12 13:59:15  24 C   33 % 
 2019-02-12 13:00:22  23 C   35 % 
 2019-02-12 10:35:21  24 C   32 % 
 2019-02-12 10:25:47  24 C   32 % 
 2019-02-12 07:11:56  21 C   35 % 
 2019-02-12 05:54:34  22 C   35 % 
 2019-02-11 19:47:55  22 C   36 % 
 2019-02-11 18:59:25  22 C   38 % 
 2019-02-11 18:49:45  22 C   38 % 
 2019-02-11 18:30:33  22 C   37 % 
 2019-02-11 17:51:46  21 C   35 % 
 2019-02-11 17:12:14  22 C   35 % 
 2019-02-11 14:56:03  22 C   35 % 
 2019-02-11 07:12:34  22 C   33 % 
 2019-02-11 04:38:40  22 C   34 % 
 2019-02-10 20:25:43  22 C   35 % 
 2019-02-10 20:16:11  22 C   35 % 
 2019-02-10 19:37:25  22 C   36 % 
 2019-02-10 18:38:37  22 C   36 % 
 2019-02-10 18:09:03  22 C   35 % 
 2019-02-10 17:39:02  22 C   35 % 
 2019-02-10 16:40:21  22 C   36 % 
 2019-02-10 16:20:00  22 C   36 % 
 2019-02-10 14:33:39  22 C   34 % 
 2019-02-10 12:18:26  23 C   33 % 
 2019-02-10 11:00:39  25 C   31 % 
 2019-02-10 10:50:59  26 C   31 % 
 2019-02-10 10:31:50  25 C   33 % 
 2019-02-10 07:16:55  23 C   34 % 
 2019-02-10 06:47:35  23 C   34 % 
 2019-02-10 03:34:48  23 C   33 % 
 2019-02-10 03:24:36  23 C   33 % 
 2019-02-10 01:09:52  23 C   33 % 
 2019-02-09 21:47:59  23 C   35 % 
 2019-02-09 21:28:13  23 C   35 % 
 2019-02-09 21:18:31  23 C   34 % 
 2019-02-09 18:42:48  22 C   34 % 
 2019-02-09 18:23:19  21 C   34 % 
 2019-02-09 18:13:40  21 C   34 % 
 2019-02-09 18:04:04  21 C   33 % 
 2019-02-09 17:54:27  21 C   33 % 
 2019-02-09 17:44:50  21 C   33 % 
 2019-02-09 17:35:14  21 C   33 % 
 2019-02-09 17:25:38  21 C   33 % 
 2019-02-09 17:16:01  21 C   33 % 
 2019-02-09 17:06:25  21 C   34 % 
 2019-02-09 16:56:49  21 C   33 % 
 2019-02-09 16:47:13  21 C   33 % 
 2019-02-09 16:37:38  21 C   33 % 
 2019-02-09 16:28:01  21 C   33 % 
 2019-02-09 16:18:22  21 C   34 % 
 2019-02-09 16:08:46  21 C   34 % 
 2019-02-09 15:59:10  21 C   34 % 
 2019-02-09 15:49:34  21 C   34 % 
 2019-02-09 15:29:39  21 C   34 % 
 2019-02-09 15:10:20  21 C   34 % 
 2019-02-09 15:00:38  21 C   34 % 
 2019-02-09 14:51:02  21 C   34 % 
 2019-02-09 14:41:25  21 C   34 % 
 2019-02-09 14:31:49  21 C   35 % 
 2019-02-09 14:22:12  21 C   35 % 
 2019-02-09 14:12:37  21 C   35 % 
 2019-02-09 14:03:00  21 C   35 % 
 2019-02-09 13:53:24  21 C   35 % 
 2019-02-09 13:43:47  21 C   35 % 
 2019-02-09 13:34:11  21 C   36 % 
 2019-02-09 13:14:46  21 C   35 % 
 2019-02-09 13:05:09  21 C   35 % 
 2019-02-09 11:56:53  22 C   32 % 
 2019-02-09 11:47:16  22 C   33 % 
 2019-02-09 11:37:39  21 C   34 % 
 2019-02-09 11:28:02  21 C   34 % 
 2019-02-09 11:18:26  21 C   34 % 
 2019-02-09 11:08:50  21 C   34 % 
 2019-02-09 10:59:14  21 C   34 % 
 2019-02-09 10:49:38  21 C   34 % 
 2019-02-09 10:40:01  21 C   33 % 
 2019-02-09 10:30:25  21 C   33 % 
 2019-02-09 10:20:49  21 C   33 % 
 2019-02-09 10:11:12  21 C   33 % 
 2019-02-09 10:01:36  21 C   33 % 
 2019-02-09 09:52:00  21 C   33 % 
 2019-02-09 09:42:25  21 C   33 % 
 2019-02-09 09:32:47  21 C   33 % 
 2019-02-09 09:23:10  21 C   33 % 
 2019-02-09 09:13:35  21 C   33 % 
 2019-02-09 09:03:58  21 C   33 % 
 2019-02-09 08:54:22  21 C   33 % 
 2019-02-09 08:44:46  21 C   33 % 
 2019-02-09 08:35:14  21 C   33 % 
 2019-02-09 08:25:27  21 C   33 % 
 2019-02-09 08:15:51  21 C   33 % 
 2019-02-09 08:06:14  21 C   33 % 
 2019-02-09 07:56:38  21 C   33 % 
 2019-02-09 07:47:02  21 C   32 % 
 2019-02-09 07:37:26  21 C   32 % 
 2019-02-09 07:17:32  21 C   32 % 
 2019-02-09 07:07:55  21 C   32 % 
 2019-02-09 06:58:19  21 C   32 % 
 2019-02-09 06:48:41  21 C   32 % 
 2019-02-09 06:39:05  21 C   32 % 
 2019-02-09 06:29:30  21 C   32 % 
 2019-02-09 05:50:37  21 C   32 % 
 2019-02-09 05:41:01  21 C   32 % 
 2019-02-09 05:31:24  21 C   32 % 
 2019-02-09 05:21:48  21 C   32 % 
 2019-02-09 05:12:12  21 C   32 % 
 2019-02-09 05:02:39  21 C   32 % 
 2019-02-09 04:43:08  22 C   32 % 
 2019-02-09 03:54:26  22 C   32 % 
 2019-02-09 02:55:27  22 C   31 % 
 2019-02-09 02:45:51  22 C   31 % 
 2019-02-09 02:06:44  22 C   31 % 
 2019-02-09 00:20:48  22 C   31 % 
 2019-02-08 22:06:02  22 C   31 % 
 2019-02-08 19:12:15  21 C   32 % 
 2019-02-08 18:32:09  21 C   32 % 
 2019-02-08 18:22:33  21 C   32 % 
 2019-02-08 18:12:57  21 C   32 % 
 2019-02-08 17:43:39  21 C   32 % 
 2019-02-08 17:33:59  21 C   32 % 
 2019-02-08 17:24:22  21 C   31 % 
 2019-02-08 16:55:13  21 C   31 % 
 2019-02-08 16:16:07  21 C   31 % 
 2019-02-08 15:56:36  21 C   31 % 
 2019-02-08 15:16:57  21 C   31 % 
 2019-02-08 15:07:21  21 C   31 % 
 2019-02-08 14:57:43  21 C   31 % 
 2019-02-08 14:37:48  21 C   31 % 
 2019-02-08 14:28:08  21 C   31 % 
 2019-02-08 14:18:32  21 C   31 % 
 2019-02-08 14:08:55  21 C   32 % 
 2019-02-08 13:59:18  21 C   32 % 
 2019-02-08 13:49:41  21 C   32 % 
 2019-02-08 13:40:05  21 C   32 % 
 2019-02-08 13:30:28  21 C   32 % 
 2019-02-08 13:20:52  21 C   32 % 
 2019-02-08 13:11:16  21 C   32 % 
 2019-02-08 13:01:40  21 C   32 % 
 2019-02-08 12:52:03  21 C   32 % 
 2019-02-08 12:42:27  21 C   32 % 
 2019-02-08 12:32:50  21 C   32 % 
 2019-02-08 12:23:14  21 C   32 % 
 2019-02-08 12:13:37  21 C   33 % 
 2019-02-08 12:04:01  21 C   34 % 
 2019-02-08 11:54:25  21 C   32 % 
 2019-02-08 11:44:49  21 C   31 % 
 2019-02-08 11:35:14  21 C   31 % 
 2019-02-08 11:25:35  21 C   31 % 
 2019-02-08 11:15:59  21 C   31 % 
 2019-02-08 11:06:22  21 C   31 % 
 2019-02-08 10:56:46  21 C   31 % 
 2019-02-08 10:47:10  21 C   32 % 
 2019-02-08 10:37:33  20 C   32 % 
 2019-02-08 10:27:57  20 C   32 % 
 2019-02-08 10:18:20  20 C   32 % 
 2019-02-08 10:08:44  20 C   32 % 
 2019-02-08 09:59:08  20 C   32 % 
 2019-02-08 09:49:32  20 C   32 % 
 2019-02-08 09:39:56  20 C   32 % 
 2019-02-08 09:30:20  20 C   32 % 
 2019-02-08 09:20:44  20 C   32 % 
 2019-02-08 09:11:07  20 C   32 % 
 2019-02-08 09:01:32  20 C   32 % 
 2019-02-08 08:51:55  20 C   32 % 
 2019-02-08 08:42:19  20 C   32 % 
 2019-02-08 08:32:43  21 C   32 % 
 2019-02-08 08:23:07  21 C   32 % 
 2019-02-08 08:13:31  21 C   32 % 
 2019-02-08 08:03:55  21 C   32 % 
 2019-02-08 07:54:19  21 C   32 % 
 2019-02-08 07:44:43  21 C   32 % 
 2019-02-08 07:35:07  21 C   32 % 
 2019-02-08 07:25:31  21 C   32 % 
 2019-02-08 07:15:55  21 C   32 % 
 2019-02-08 07:06:19  21 C   32 % 
 2019-02-08 06:56:43  21 C   32 % 
 2019-02-08 06:47:07  21 C   32 % 
 2019-02-08 06:37:31  21 C   32 % 
 2019-02-08 06:27:55  21 C   32 % 
 2019-02-08 06:18:18  21 C   32 % 
 2019-02-08 06:08:43  21 C   32 % 
 2019-02-08 05:59:06  21 C   32 % 
 2019-02-08 05:49:30  21 C   32 % 
 2019-02-08 05:39:55  21 C   32 % 
 2019-02-08 05:30:18  21 C   32 % 
 2019-02-08 05:20:42  21 C   32 % 
 2019-02-08 05:11:05  21 C   32 % 
 2019-02-08 05:01:29  21 C   32 % 
 2019-02-08 04:51:53  21 C   32 % 
 2019-02-08 04:42:17  21 C   32 % 
 2019-02-08 04:32:42  21 C   32 % 
 2019-02-08 04:23:06  21 C   31 % 
 2019-02-08 04:03:38  21 C   31 % 
 2019-02-08 03:54:03  21 C   31 % 
 2019-02-08 03:44:26  21 C   31 % 
 2019-02-08 03:34:49  21 C   31 % 
 2019-02-08 03:25:14  21 C   31 % 
 2019-02-08 03:15:37  21 C   31 % 
 2019-02-08 03:06:01  21 C   31 % 
 2019-02-08 02:56:24  21 C   31 % 
 2019-02-08 02:46:48  21 C   31 % 
 2019-02-08 01:38:31  22 C   30 % 
 2019-02-07 23:03:22  22 C   30 % 
 2019-02-07 20:57:02  22 C   29 % 
 2019-02-07 20:08:23  22 C   30 % 
 2019-02-07 19:38:15  22 C   29 % 
 2019-02-07 18:19:35  22 C   30 % 
 2019-02-07 14:27:45  22 C   30 % 
 2019-02-07 13:58:56  22 C   30 % 
 2019-02-07 13:39:11  22 C   30 % 
 2019-02-07 13:29:27  22 C   30 % 
 2019-02-07 13:09:49  22 C   30 % 
 2019-02-07 12:02:00  21 C   30 % 
 2019-02-07 11:51:43  21 C   30 % 
 2019-02-07 11:31:04  21 C   30 % 
 2019-02-07 11:21:27  21 C   30 % 
 2019-02-07 11:11:51  21 C   30 % 
 2019-02-07 11:02:15  21 C   30 % 
 2019-02-07 10:52:39  21 C   30 % 
 2019-02-07 10:43:06  21 C   30 % 
 2019-02-07 10:33:23  21 C   30 % 
 2019-02-07 10:23:47  21 C   31 % 
 2019-02-07 10:14:11  21 C   37 % 
 2019-02-07 10:04:33  21 C   31 % 
 2019-02-07 09:54:57  20 C   30 % 
 2019-02-07 09:45:20  20 C   30 % 
 2019-02-07 09:35:44  20 C   30 % 
 2019-02-07 09:26:08  20 C   30 % 
 2019-02-07 09:16:32  20 C   30 % 
 2019-02-07 09:06:56  21 C   30 % 
 2019-02-07 08:57:21  21 C   29 % 
 2019-02-07 08:47:44  21 C   29 % 
 2019-02-07 08:38:08  21 C   30 % 
 2019-02-07 08:28:32  20 C   30 % 
 2019-02-07 08:18:55  20 C   30 % 
 2019-02-07 08:09:19  20 C   30 % 
 2019-02-07 07:59:43  20 C   30 % 
 2019-02-07 07:50:07  20 C   30 % 
 2019-02-07 07:40:31  20 C   30 % 
 2019-02-07 07:30:55  20 C   30 % 
 2019-02-07 07:21:18  20 C   30 % 
 2019-02-07 07:11:42  20 C   30 % 
 2019-02-07 07:02:06  21 C   30 % 
 2019-02-07 06:52:30  21 C   30 % 
 2019-02-07 06:42:54  21 C   30 % 
 2019-02-07 06:33:18  21 C   30 % 
 2019-02-07 06:23:42  21 C   30 % 
 2019-02-07 06:14:05  21 C   30 % 
 2019-02-07 06:04:29  21 C   30 % 
 2019-02-07 05:54:53  21 C   30 % 
 2019-02-07 05:45:17  21 C   30 % 
 2019-02-07 05:35:40  21 C   30 % 
 2019-02-07 05:26:04  21 C   30 % 
 2019-02-07 05:16:28  21 C   30 % 
 2019-02-07 05:06:51  21 C   30 % 
 2019-02-07 04:57:15  21 C   30 % 
 2019-02-07 04:47:40  21 C   30 % 
 2019-02-07 04:38:03  21 C   30 % 
 2019-02-07 04:28:28  21 C   30 % 
 2019-02-07 04:18:51  21 C   30 % 
 2019-02-07 04:09:15  21 C   29 % 
 2019-02-07 03:49:59  21 C   30 % 
 2019-02-07 03:40:23  21 C   30 % 
 2019-02-07 03:30:46  21 C   29 % 
 2019-02-07 03:21:10  21 C   29 % 
 2019-02-07 03:11:34  21 C   29 % 
 2019-02-07 02:51:48  21 C   29 % 
 2019-02-07 02:22:19  21 C   29 % 
 2019-02-07 02:12:45  21 C   29 % 
 2019-02-07 02:02:56  21 C   29 % 
 2019-02-07 01:53:21  21 C   29 % 
 2019-02-07 01:33:32  21 C   29 % 
 2019-02-07 01:04:30  21 C   29 % 
 2019-02-07 00:54:49  21 C   29 % 
 2019-02-07 00:45:11  21 C   29 % 
 2019-02-07 00:35:40  21 C   29 % 
 2019-02-07 00:25:55  21 C   29 % 
 2019-02-07 00:06:03  21 C   29 % 
 2019-02-06 23:56:17  22 C   29 % 
 2019-02-06 23:46:39  21 C   29 % 
 2019-02-06 23:27:25  21 C   29 % 
 2019-02-06 23:17:46  21 C   29 % 
 2019-02-06 23:08:10  21 C   29 % 
 2019-02-06 22:58:34  21 C   29 % 
 2019-02-06 22:48:58  21 C   29 % 
 2019-02-06 22:39:22  22 C   29 % 
 2019-02-06 22:10:30  22 C   29 % 
 2019-02-06 22:00:53  22 C   29 % 
 2019-02-06 21:12:18  21 C   29 % 
 2019-02-06 20:42:53  21 C   29 % 
 2019-02-06 20:33:16  21 C   29 % 
 2019-02-06 20:14:04  21 C   29 % 
 2019-02-06 20:04:38  21 C   29 % 
 2019-02-06 19:54:25  21 C   30 % 
 2019-02-06 19:35:09  21 C   30 % 
 2019-02-06 19:15:58  21 C   29 % 
 2019-02-06 18:36:48  22 C   29 % 
 2019-02-06 18:26:27  22 C   29 % 
 2019-02-06 17:17:53  22 C   29 % 
 2019-02-06 17:08:14  22 C   29 % 
 2019-02-06 15:20:41  22 C   29 % 
 2019-02-06 15:10:50  22 C   29 % 
 2019-02-06 14:51:33  22 C   29 % 
 2019-02-06 14:41:57  22 C   29 % 
 2019-02-06 13:53:24  22 C   29 % 
 2019-02-06 13:43:44  22 C   29 % 
 2019-02-06 13:34:09  22 C   29 % 
 2019-02-06 13:14:53  22 C   29 % 
 2019-02-06 13:05:16  21 C   29 % 
 2019-02-06 12:55:39  21 C   29 % 
 2019-02-06 12:46:02  21 C   29 % 
 2019-02-06 12:26:47  21 C   29 % 
 2019-02-06 12:17:11  21 C   29 % 
 2019-02-06 12:07:34  21 C   28 % 
 2019-02-06 11:38:36  21 C   29 % 
 2019-02-06 11:29:00  21 C   29 % 
 2019-02-06 11:19:25  21 C   29 % 
 2019-02-06 10:59:44  21 C   29 % 
 2019-02-06 10:50:09  21 C   29 % 
 2019-02-06 10:40:30  21 C   29 % 
 2019-02-06 10:30:52  21 C   29 % 
 2019-02-06 10:21:17  21 C   29 % 
 2019-02-06 10:11:40  21 C   29 % 
 2019-02-06 10:02:04  21 C   29 % 
 2019-02-06 09:52:28  21 C   29 % 
 2019-02-06 09:42:52  21 C   29 % 
 2019-02-06 09:33:14  21 C   29 % 
 2019-02-06 09:23:37  21 C   29 % 
 2019-02-06 09:14:02  21 C   29 % 
 2019-02-06 09:04:25  21 C   29 % 
 2019-02-06 08:54:49  21 C   29 % 
 2019-02-06 08:45:11  21 C   29 % 
 2019-02-06 08:35:35  21 C   32 % 
 2019-02-06 08:25:58  21 C   29 % 
 2019-02-06 08:16:22  21 C   29 % 
 2019-02-06 08:06:46  21 C   29 % 
 2019-02-06 07:57:09  21 C   29 % 
 2019-02-06 07:47:33  21 C   29 % 
 2019-02-06 07:37:56  21 C   29 % 
 2019-02-06 07:28:20  21 C   29 % 
 2019-02-06 07:18:44  21 C   29 % 
 2019-02-06 07:09:08  21 C   29 % 
 2019-02-06 06:59:31  21 C   29 % 
 2019-02-06 06:49:55  21 C   29 % 
 2019-02-06 06:40:19  21 C   29 % 
 2019-02-06 06:30:43  21 C   29 % 
 2019-02-06 06:21:06  21 C   30 % 
 2019-02-06 06:11:30  21 C   30 % 
 2019-02-06 06:01:54  21 C   30 % 
 2019-02-06 05:52:18  21 C   30 % 
 2019-02-06 05:42:42  21 C   30 % 
 2019-02-06 05:33:06  21 C   30 % 
 2019-02-06 05:23:30  21 C   30 % 
 2019-02-06 05:13:54  21 C   30 % 
 2019-02-06 05:04:18  21 C   30 % 
 2019-02-06 04:54:42  21 C   30 % 
 2019-02-06 04:45:06  21 C   30 % 
 2019-02-06 04:35:30  21 C   30 % 
 2019-02-06 04:25:53  21 C   30 % 
 2019-02-06 04:16:17  21 C   30 % 
 2019-02-06 04:06:40  21 C   30 % 
 2019-02-06 03:57:04  21 C   30 % 
 2019-02-06 03:47:28  21 C   30 % 
 2019-02-06 03:37:52  21 C   30 % 
 2019-02-06 03:18:06  21 C   30 % 
 2019-02-06 03:08:28  22 C   30 % 
 2019-02-06 02:58:46  22 C   30 % 
 2019-02-06 02:39:07  22 C   30 % 
 2019-02-06 02:29:27  22 C   30 % 
 2019-02-06 02:19:50  22 C   30 % 
 2019-02-06 02:10:16  22 C   30 % 
 2019-02-06 01:21:13  22 C   30 % 
 2019-02-05 22:45:39  22 C   30 % 
 2019-02-05 22:16:12  22 C   31 % 
 2019-02-05 19:50:28  22 C   30 % 
 2019-02-05 19:11:17  22 C   31 % 
 2019-02-05 17:54:04  22 C   31 % 
 2019-02-05 17:24:04  22 C   31 % 
 2019-02-05 17:14:29  22 C   31 % 
 2019-02-05 14:48:04  22 C   30 % 
 2019-02-05 13:40:06  22 C   31 % 
 2019-02-05 13:10:47  22 C   31 % 
 2019-02-05 12:41:33  22 C   30 % 
 2019-02-05 10:16:40  22 C   31 % 
 2019-02-05 08:01:12  22 C   32 % 
 2019-02-05 07:41:30  22 C   32 % 
 2019-02-05 07:31:50  22 C   31 % 
 2019-02-05 07:22:15  22 C   32 % 
 2019-02-05 07:12:37  21 C   32 % 
 2019-02-05 07:03:00  21 C   33 % 
 2019-02-05 06:53:25  21 C   33 % 
 2019-02-05 06:43:48  21 C   33 % 
 2019-02-05 06:34:12  21 C   31 % 
 2019-02-05 06:24:35  21 C   31 % 
 2019-02-05 06:04:44  21 C   31 % 
 2019-02-05 05:55:08  21 C   31 % 
 2019-02-05 05:26:02  22 C   31 % 
 2019-02-05 05:06:31  22 C   31 % 
 2019-02-05 04:08:16  22 C   30 % 
 2019-02-05 03:10:13  22 C   30 % 
 2019-02-05 03:00:38  22 C   30 % 
 2019-02-05 02:51:01  22 C   30 % 
 2019-02-04 23:57:24  22 C   30 % 
 2019-02-04 22:59:25  22 C   30 % 
 2019-02-04 22:19:40  22 C   30 % 
 2019-02-04 20:43:20  22 C   33 % 
 2019-02-04 17:47:26  22 C   29 % 
 2019-02-04 17:37:52  22 C   29 % 
 2019-02-04 16:01:28  21 C   31 % 
 2019-02-04 07:19:44  22 C   31 % 
 2019-02-04 02:21:52  23 C   30 % 
 2019-02-04 01:42:57  23 C   30 % 
 2019-02-04 01:23:43  23 C   30 % 
 2019-02-04 01:13:43  23 C   30 % 
 2019-02-04 01:04:09  23 C   30 % 
 2019-02-04 00:54:35  23 C   31 % 
 2019-02-04 00:34:49  24 C   31 % 
 2019-02-04 00:25:18  24 C   31 % 
 2019-02-04 00:05:34  24 C   31 % 
 2019-02-03 23:56:00  24 C   31 % 
 2019-02-03 23:46:25  24 C   31 % 
 2019-02-03 23:36:36  24 C   31 % 
 2019-02-03 23:27:04  24 C   31 % 
 2019-02-03 23:17:01  24 C   31 % 
 2019-02-03 22:38:38  24 C   32 % 
 2019-02-03 22:28:42  24 C   32 % 
 2019-02-03 22:09:14  24 C   32 % 
 2019-02-03 21:59:39  24 C   32 % 
 2019-02-03 21:40:22  24 C   32 % 
 2019-02-03 21:30:50  24 C   33 % 
 2019-02-03 21:21:03  24 C   33 % 
 2019-02-03 21:01:50  24 C   32 % 
 2019-02-03 20:52:15  24 C   31 % 
 2019-02-03 20:42:37  24 C   31 % 
 2019-02-03 20:13:43  24 C   31 % 
 2019-02-03 20:04:04  24 C   31 % 
 2019-02-03 19:45:00  24 C   32 % 
 2019-02-03 19:34:56  24 C   32 % 
 2019-02-03 19:15:38  24 C   33 % 
 2019-02-03 19:06:01  24 C   33 % 
 2019-02-03 18:56:23  23 C   31 % 
 2019-02-03 18:46:39  23 C   31 % 
 2019-02-03 17:20:08  23 C   32 % 
 2019-02-03 16:51:00  23 C   32 % 
 2019-02-03 14:44:17  23 C   32 % 
 2019-02-03 13:56:10  23 C   33 % 
 2019-02-03 13:17:09  23 C   34 % 
 2019-02-03 13:07:19  23 C   34 % 
 2019-02-03 12:19:08  22 C   32 % 
 2019-02-03 06:10:19  23 C   31 % 
 2019-02-03 05:21:40  23 C   31 % 
 2019-02-03 05:02:21  23 C   31 % 
 2019-02-03 04:52:45  23 C   31 % 
 2019-02-03 04:33:22  23 C   31 % 
 2019-02-03 04:13:44  24 C   31 % 
 2019-02-03 03:54:18  24 C   30 % 
 2019-02-03 03:05:14  24 C   30 % 
 2019-02-03 02:55:41  24 C   30 % 
 2019-02-03 02:36:13  24 C   30 % 
 2019-02-03 02:07:23  24 C   30 % 
 2019-02-03 01:57:36  24 C   30 % 
 2019-02-03 01:47:58  24 C   30 % 
 2019-02-03 00:50:07  24 C   30 % 
 2019-02-03 00:30:45  24 C   30 % 
 2019-02-03 00:21:07  25 C   30 % 
 2019-02-03 00:11:29  25 C   30 % 
 2019-02-03 00:01:51  25 C   30 % 
 2019-02-02 23:52:15  25 C   30 % 
 2019-02-02 23:42:39  24 C   30 % 
 2019-02-02 23:33:10  24 C   30 % 
 2019-02-02 23:23:04  24 C   30 % 
 2019-02-02 23:13:28  25 C   30 % 
 2019-02-02 23:03:47  24 C   30 % 
 2019-02-02 22:54:11  24 C   30 % 
 2019-02-02 22:44:37  24 C   30 % 
 2019-02-02 22:25:05  25 C   30 % 
 2019-02-02 21:45:52  26 C   29 % 
 2019-02-02 21:36:14  25 C   35 % 
 2019-02-02 21:16:27  24 C   32 % 
 2019-02-02 21:06:22  24 C   32 % 
 2019-02-02 20:56:44  24 C   32 % 
 2019-02-02 20:47:08  24 C   32 % 
 2019-02-02 20:37:30  24 C   33 % 
 2019-02-02 20:27:54  24 C   33 % 
 2019-02-02 20:08:37  24 C   32 % 
 2019-02-02 19:49:29  24 C   34 % 
 2019-02-02 19:39:40  24 C   45 % 
 2019-02-02 19:19:47  23 C   35 % 
 2019-02-02 19:10:03  23 C   31 % 
 2019-02-02 18:50:12  23 C   31 % 
 2019-02-02 18:40:39  23 C   31 % 
 2019-02-02 18:30:56  23 C   31 % 
 2019-02-02 17:33:27  23 C   31 % 
 2019-02-02 17:13:30  23 C   31 % 
 2019-02-02 17:04:01  23 C   31 % 
 2019-02-02 16:24:05  23 C   31 % 
 2019-02-02 15:45:25  23 C   31 % 
 2019-02-02 15:35:50  23 C   31 % 
 2019-02-02 14:56:55  23 C   31 % 
 2019-02-02 14:37:37  23 C   31 % 
 2019-02-02 14:28:07  23 C   31 % 
 2019-02-02 14:18:06  23 C   31 % 
 2019-02-02 13:58:50  23 C   31 % 
 2019-02-02 13:10:14  23 C   34 % 
 2019-02-02 12:41:21  23 C   31 % 
 2019-02-02 12:31:50  23 C   31 % 
 2019-02-02 10:35:07  22 C   32 % 
 2019-02-02 10:25:31  22 C   32 % 
 2019-02-02 09:46:58  23 C   32 % 
 2019-02-02 07:31:39  22 C   31 % 
 2019-02-02 07:21:47  22 C   31 % 
 2019-02-02 06:52:31  22 C   31 % 
 2019-02-02 06:22:50  22 C   31 % 
 2019-02-02 05:42:57  22 C   31 % 
 2019-02-02 05:33:21  22 C   31 % 
 2019-02-02 05:14:09  22 C   32 % 
 2019-02-02 05:04:28  22 C   32 % 
 2019-02-02 04:25:55  22 C   32 % 
 2019-02-02 03:45:57  22 C   32 % 
 2019-02-02 03:06:31  22 C   32 % 
 2019-02-02 02:37:20  22 C   31 % 
 2019-02-02 02:08:30  23 C   31 % 
 2019-02-02 01:10:06  23 C   31 % 
 2019-02-02 00:41:14  23 C   31 % 
 2019-02-01 23:52:15  23 C   31 % 
 2019-02-01 23:33:00  23 C   30 % 
 2019-02-01 23:23:19  23 C   30 % 
 2019-02-01 23:13:46  23 C   30 % 
 2019-02-01 22:54:24  23 C   30 % 
 2019-02-01 22:44:42  23 C   30 % 
 2019-02-01 22:35:05  23 C   30 % 
 2019-02-01 22:25:30  24 C   30 % 
 2019-02-01 22:15:53  24 C   30 % 
 2019-02-01 22:06:13  24 C   30 % 
 2019-02-01 21:56:35  24 C   30 % 
 2019-02-01 21:46:56  24 C   29 % 
 2019-02-01 21:37:20  24 C   29 % 
 2019-02-01 21:27:40  24 C   29 % 
 2019-02-01 21:18:04  24 C   29 % 
 2019-02-01 21:08:25  24 C   28 % 
 2019-02-01 20:58:49  24 C   27 % 
 2019-02-01 20:49:11  24 C   31 % 
 2019-02-01 20:39:34  24 C   31 % 
 2019-02-01 20:29:52  24 C   31 % 
 2019-02-01 20:20:15  24 C   31 % 
 2019-02-01 20:10:38  24 C   31 % 
 2019-02-01 20:01:04  24 C   33 % 
 2019-02-01 19:51:24  24 C   31 % 
 2019-02-01 19:41:44  23 C   30 % 
 2019-02-01 19:32:08  23 C   30 % 
 2019-02-01 19:22:34  23 C   31 % 
 2019-02-01 19:03:06  23 C   31 % 
 2019-02-01 18:53:36  23 C   32 % 
 2019-02-01 18:04:37  23 C   31 % 
 2019-02-01 17:44:54  23 C   31 % 
 2019-02-01 17:35:13  23 C   31 % 
 2019-02-01 17:25:37  23 C   31 % 
 2019-02-01 17:06:29  23 C   31 % 
 2019-02-01 16:56:29  23 C   31 % 
 2019-02-01 16:47:02  23 C   31 % 
 2019-02-01 16:27:12  23 C   31 % 
 2019-02-01 16:17:36  23 C   31 % 
 2019-02-01 16:08:01  23 C   31 % 
 2019-02-01 15:48:50  23 C   31 % 
 2019-02-01 14:50:56  23 C   31 % 
 2019-02-01 14:41:24  23 C   32 % 
 2019-02-01 14:22:00  23 C   33 % 
 2019-02-01 14:12:14  23 C   35 % 
 2019-02-01 13:33:47  23 C   31 % 
 2019-02-01 13:23:36  23 C   31 % 
 2019-02-01 13:04:23  23 C   31 % 
 2019-02-01 12:54:48  23 C   31 % 
 2019-02-01 12:25:52  23 C   31 % 
 2019-02-01 12:16:08  23 C   31 % 
 2019-02-01 12:06:27  23 C   31 % 
 2019-02-01 11:56:51  23 C   31 % 
 2019-02-01 11:47:17  23 C   32 % 
 2019-02-01 10:39:34  22 C   30 % 
 2019-02-01 09:21:47  22 C   31 % 
 2019-02-01 09:12:15  22 C   31 % 
 2019-02-01 06:28:15  22 C   31 % 
 2019-02-01 05:29:47  22 C   31 % 
 2019-02-01 03:52:53  22 C   30 % 
 2019-02-01 03:43:16  22 C   30 % 
 2019-02-01 02:35:53  23 C   30 % 
 2019-02-01 00:40:09  23 C   29 % 
 2019-01-31 21:55:02  23 C   32 % 
 2019-01-31 21:35:46  23 C   42 % 
 2019-01-31 20:08:19  22 C   30 % 
 2019-01-31 19:39:27  22 C   29 % 
 2019-01-31 19:10:34  22 C   29 % 
 2019-01-31 18:51:15  22 C   29 % 
 2019-01-31 18:32:03  22 C   29 % 
 2019-01-31 17:33:00  22 C   29 % 
 2019-01-31 17:13:45  22 C   29 % 
 2019-01-31 12:52:54  23 C   28 % 
 2019-01-31 06:45:22  21 C   30 % 
 2019-01-31 03:02:30  22 C   29 % 
 2019-01-30 23:19:02  22 C   28 % 
 2019-01-30 20:05:02  22 C   32 % 
 2019-01-30 19:16:55  22 C   29 % 
 2019-01-30 13:28:13  23 C   27 % 
 2019-01-30 13:18:36  23 C   27 % 
 2019-01-30 13:08:59  23 C   28 % 
 2019-01-30 12:59:24  22 C   28 % 
 2019-01-30 12:49:38  23 C   28 % 
 2019-01-30 12:40:01  23 C   28 % 
 2019-01-30 12:01:43  22 C   28 % 
 2019-01-30 11:31:43  22 C   28 % 
 2019-01-30 11:22:03  22 C   28 % 
 2019-01-30 11:12:24  22 C   28 % 
 2019-01-30 10:52:57  22 C   28 % 
 2019-01-30 09:06:30  22 C   29 % 
 2019-01-30 08:37:09  22 C   29 % 
 2019-01-30 06:39:44  21 C   29 % 
 2019-01-30 06:30:09  21 C   29 % 
 2019-01-30 06:20:31  21 C   29 % 
 2019-01-30 06:10:56  21 C   29 % 
 2019-01-30 05:41:18  21 C   29 % 
 2019-01-30 05:31:32  21 C   29 % 
 2019-01-30 05:12:27  21 C   29 % 
 2019-01-30 04:52:44  21 C   28 % 
 2019-01-30 04:13:58  21 C   28 % 
 2019-01-30 03:35:13  22 C   28 % 
 2019-01-30 02:46:50  22 C   29 % 
 2019-01-30 01:57:55  22 C   29 % 
 2019-01-30 01:38:40  22 C   29 % 
 2019-01-29 23:42:28  21 C   30 % 
 2019-01-29 23:04:04  21 C   29 % 
 2019-01-29 22:44:47  21 C   29 % 
 2019-01-29 22:24:14  21 C   30 % 
 2019-01-29 21:35:41  21 C   29 % 
 2019-01-29 21:15:43  21 C   29 % 
 2019-01-29 21:05:52  21 C   30 % 
 2019-01-29 20:55:52  21 C   30 % 
 2019-01-29 20:15:36  20 C   30 % 
 2019-01-29 20:06:04  20 C   30 % 
 2019-01-29 19:56:17  20 C   30 % 
 2019-01-29 19:46:40  20 C   30 % 
 2019-01-29 19:37:04  20 C   30 % 
 2019-01-29 19:27:27  20 C   30 % 
 2019-01-29 19:17:51  20 C   30 % 
 2019-01-29 19:08:15  19 C   30 % 
 2019-01-29 18:58:38  19 C   30 % 
 2019-01-29 18:49:02  19 C   30 % 
 2019-01-29 18:39:26  19 C   30 % 
 2019-01-29 18:29:50  19 C   30 % 
 2019-01-29 18:20:17  19 C   30 % 
 2019-01-29 18:10:39  19 C   30 % 
 2019-01-29 18:01:03  19 C   30 % 
 2019-01-29 17:51:27  19 C   30 % 
 2019-01-29 17:41:51  19 C   30 % 
 2019-01-29 17:32:15  19 C   30 % 
 2019-01-29 17:22:39  19 C   30 % 
 2019-01-29 17:13:03  19 C   30 % 
 2019-01-29 17:03:27  19 C   30 % 
 2019-01-29 16:53:50  18 C   30 % 
 2019-01-29 16:44:14  18 C   29 % 
 2019-01-29 16:34:38  18 C   29 % 
 2019-01-29 16:25:03  18 C   29 % 
 2019-01-29 16:15:27  18 C   29 % 
 2019-01-29 16:05:49  18 C   29 % 
 2019-01-29 15:56:13  18 C   29 % 
 2019-01-29 15:46:37  18 C   29 % 
 2019-01-29 15:37:01  18 C   29 % 
 2019-01-29 15:27:25  18 C   29 % 
 2019-01-29 15:17:49  18 C   29 % 
 2019-01-29 15:08:13  18 C   29 % 
 2019-01-29 14:58:36  18 C   29 % 
 2019-01-29 14:49:00  18 C   29 % 
 2019-01-29 14:39:24  18 C   29 % 
 2019-01-29 14:29:48  18 C   29 % 
 2019-01-29 14:20:12  19 C   29 % 
 2019-01-29 14:10:36  19 C   29 % 
 2019-01-29 14:01:00  19 C   29 % 
 2019-01-29 13:51:24  18 C   29 % 
 2019-01-29 13:41:49  18 C   29 % 
 2019-01-29 13:32:12  18 C   29 % 
 2019-01-29 13:22:36  18 C   29 % 
 2019-01-29 13:13:00  18 C   29 % 
 2019-01-29 13:03:25  18 C   29 % 
 2019-01-29 12:53:49  19 C   29 % 
 2019-01-29 12:44:12  19 C   29 % 
 2019-01-29 12:34:36  19 C   29 % 
 2019-01-29 12:25:00  19 C   29 % 
 2019-01-29 12:15:24  18 C   29 % 
 2019-01-29 12:05:49  18 C   29 % 
 2019-01-29 11:56:11  18 C   29 % 
 2019-01-29 11:46:36  19 C   29 % 
 2019-01-29 11:37:00  19 C   29 % 
 2019-01-29 11:27:24  19 C   29 % 
 2019-01-29 11:17:47  19 C   29 % 
 2019-01-29 11:08:12  19 C   29 % 
 2019-01-29 10:58:36  19 C   29 % 
 2019-01-29 10:49:00  19 C   29 % 
 2019-01-29 10:39:24  19 C   29 % 
 2019-01-29 10:29:48  19 C   29 % 
 2019-01-29 10:20:12  19 C   29 % 
 2019-01-29 10:10:36  19 C   29 % 
 2019-01-29 10:01:00  19 C   29 % 
 2019-01-29 09:51:24  19 C   29 % 
 2019-01-29 09:41:48  19 C   29 % 
 2019-01-29 09:32:12  19 C   29 % 
 2019-01-29 09:22:36  19 C   29 % 
 2019-01-29 09:13:00  19 C   29 % 
 2019-01-29 09:03:24  19 C   29 % 
 2019-01-29 08:53:48  19 C   29 % 
 2019-01-29 08:44:12  19 C   29 % 
 2019-01-29 08:34:36  19 C   29 % 
 2019-01-29 08:25:01  19 C   29 % 
 2019-01-29 08:15:25  19 C   29 % 
 2019-01-29 08:05:49  19 C   29 % 
 2019-01-29 07:56:13  19 C   29 % 
 2019-01-29 07:46:37  19 C   30 % 
 2019-01-29 07:37:01  19 C   30 % 
 2019-01-29 07:27:26  19 C   30 % 
 2019-01-29 07:17:50  19 C   30 % 
 2019-01-29 07:08:13  19 C   30 % 
 2019-01-29 06:58:37  19 C   30 % 
 2019-01-29 06:49:01  19 C   30 % 
 2019-01-29 06:39:25  19 C   30 % 
 2019-01-29 06:29:49  19 C   30 % 
 2019-01-29 06:20:13  19 C   30 % 
 2019-01-29 06:10:37  19 C   30 % 
 2019-01-29 06:01:01  19 C   30 % 
 2019-01-29 05:51:25  19 C   30 % 
 2019-01-29 05:41:49  19 C   30 % 
 2019-01-29 05:32:13  19 C   30 % 
 2019-01-29 05:22:37  19 C   30 % 
 2019-01-29 05:13:01  19 C   30 % 
 2019-01-29 05:03:26  19 C   30 % 
 2019-01-29 04:53:50  19 C   30 % 
 2019-01-29 04:44:14  19 C   30 % 
 2019-01-29 04:34:38  19 C   30 % 
 2019-01-29 04:25:02  19 C   30 % 
 2019-01-29 04:15:25  19 C   30 % 
 2019-01-29 04:05:49  19 C   30 % 
 2019-01-29 03:56:13  19 C   30 % 
 2019-01-29 03:46:37  19 C   30 % 
 2019-01-29 03:37:01  19 C   30 % 
 2019-01-29 03:27:25  19 C   30 % 
 2019-01-29 03:17:50  19 C   30 % 
 2019-01-29 03:08:13  19 C   30 % 
 2019-01-29 02:58:37  19 C   30 % 
 2019-01-29 02:49:01  19 C   30 % 
 2019-01-29 02:39:26  19 C   31 % 
 2019-01-29 02:29:50  19 C   30 % 
 2019-01-29 02:20:14  19 C   30 % 
 2019-01-29 02:10:37  19 C   30 % 
 2019-01-29 02:01:01  19 C   30 % 
 2019-01-29 01:51:25  19 C   31 % 
 2019-01-29 01:41:49  19 C   30 % 
 2019-01-29 01:22:35  19 C   31 % 
 2019-01-29 01:12:58  19 C   30 % 
 2019-01-29 01:03:22  19 C   31 % 
 2019-01-29 00:53:46  19 C   31 % 
 2019-01-29 00:44:10  19 C   31 % 
 2019-01-29 00:34:33  19 C   31 % 
 2019-01-29 00:24:58  19 C   31 % 
 2019-01-29 00:15:22  19 C   31 % 
 2019-01-29 00:05:46  19 C   31 % 
 2019-01-28 23:56:10  19 C   31 % 
 2019-01-28 23:46:33  19 C   31 % 
 2019-01-28 23:36:58  19 C   31 % 
 2019-01-28 23:27:21  19 C   31 % 
 2019-01-28 23:17:46  19 C   31 % 
 2019-01-28 23:08:10  19 C   31 % 
 2019-01-28 22:58:33  19 C   31 % 
 2019-01-28 22:48:57  19 C   31 % 
 2019-01-28 22:39:21  19 C   31 % 
 2019-01-28 22:29:45  19 C   31 % 
 2019-01-28 22:20:08  19 C   31 % 
 2019-01-28 22:10:32  19 C   31 % 
 2019-01-28 22:00:56  19 C   31 % 
 2019-01-28 21:51:19  19 C   31 % 
 2019-01-28 21:41:44  19 C   30 % 
 2019-01-28 21:32:08  19 C   31 % 
 2019-01-28 21:22:32  19 C   31 % 
 2019-01-28 21:12:56  19 C   31 % 
 2019-01-28 21:03:19  19 C   31 % 
 2019-01-28 20:53:43  19 C   31 % 
 2019-01-28 20:44:07  19 C   31 % 
 2019-01-28 20:34:31  19 C   31 % 
 2019-01-28 20:24:55  19 C   31 % 
 2019-01-28 20:15:19  19 C   31 % 
 2019-01-28 20:05:43  19 C   30 % 
 2019-01-28 19:56:07  19 C   31 % 
 2019-01-28 19:46:32  19 C   31 % 
 2019-01-28 19:36:55  19 C   31 % 
 2019-01-28 19:27:19  19 C   31 % 
 2019-01-28 19:17:43  19 C   31 % 
 2019-01-28 19:08:07  19 C   31 % 
 2019-01-28 18:58:31  19 C   31 % 
 2019-01-28 18:48:54  19 C   31 % 
 2019-01-28 18:39:18  19 C   30 % 
 2019-01-28 18:29:42  19 C   31 % 
 2019-01-28 18:20:06  19 C   30 % 
 2019-01-28 18:10:29  19 C   31 % 
 2019-01-28 18:00:53  19 C   31 % 
 2019-01-28 17:51:18  19 C   31 % 
 2019-01-28 17:41:41  19 C   31 % 
 2019-01-28 17:32:06  19 C   31 % 
 2019-01-28 17:22:30  19 C   31 % 
 2019-01-28 17:12:54  19 C   31 % 
 2019-01-28 17:03:18  19 C   31 % 
 2019-01-28 16:53:42  19 C   31 % 
 2019-01-28 16:44:06  19 C   31 % 
 2019-01-28 16:34:30  19 C   31 % 
 2019-01-28 16:24:54  19 C   31 % 
 2019-01-28 16:15:18  19 C   31 % 
 2019-01-28 16:05:42  19 C   31 % 
 2019-01-28 15:56:06  19 C   31 % 
 2019-01-28 15:46:31  19 C   31 % 
 2019-01-28 15:36:55  19 C   31 % 
 2019-01-28 15:27:18  19 C   31 % 
 2019-01-28 15:17:42  19 C   31 % 
 2019-01-28 15:08:06  19 C   31 % 
 2019-01-28 14:58:30  19 C   31 % 
 2019-01-28 14:48:55  19 C   31 % 
 2019-01-28 14:39:19  19 C   31 % 
 2019-01-28 14:29:43  19 C   31 % 
 2019-01-28 14:20:08  19 C   31 % 
 2019-01-28 14:10:31  19 C   31 % 
 2019-01-28 14:00:55  19 C   31 % 
 2019-01-28 13:51:19  19 C   31 % 
 2019-01-28 13:41:42  19 C   31 % 
 2019-01-28 13:32:07  19 C   31 % 
 2019-01-28 13:22:31  19 C   31 % 
 2019-01-28 13:12:54  19 C   31 % 
 2019-01-28 13:03:18  19 C   31 % 
 2019-01-28 12:53:42  19 C   31 % 
 2019-01-28 12:44:06  19 C   31 % 
 2019-01-28 12:34:31  19 C   31 % 
 2019-01-28 12:24:55  19 C   30 % 
 2019-01-28 12:15:18  19 C   31 % 
 2019-01-28 12:05:42  19 C   31 % 
 2019-01-28 11:56:07  19 C   31 % 
 2019-01-28 11:46:30  19 C   31 % 
 2019-01-28 11:36:54  19 C   31 % 
 2019-01-28 11:27:18  19 C   31 % 
 2019-01-28 11:17:42  19 C   30 % 
 2019-01-28 11:08:06  19 C   30 % 
 2019-01-28 10:58:30  19 C   30 % 
 2019-01-28 10:48:54  19 C   30 % 
 2019-01-28 10:39:18  19 C   30 % 
 2019-01-28 10:29:42  19 C   30 % 
 2019-01-28 10:20:06  19 C   31 % 
 2019-01-28 10:10:30  19 C   30 % 
 2019-01-28 10:00:54  19 C   30 % 
 2019-01-28 09:51:19  19 C   30 % 
 2019-01-28 09:41:43  19 C   30 % 
 2019-01-28 09:32:07  19 C   30 % 
 2019-01-28 09:22:31  19 C   30 % 
 2019-01-28 09:12:55  19 C   30 % 
 2019-01-28 09:03:19  19 C   30 % 
 2019-01-28 08:53:43  19 C   30 % 
 2019-01-28 08:44:07  19 C   30 % 
 2019-01-28 08:34:31  19 C   30 % 
 2019-01-28 08:24:55  19 C   30 % 
 2019-01-28 08:15:19  19 C   30 % 
 2019-01-28 08:05:43  19 C   30 % 
 2019-01-28 07:56:07  19 C   30 % 
 2019-01-28 07:46:31  19 C   30 % 
 2019-01-28 07:36:55  19 C   30 % 
 2019-01-28 07:27:19  19 C   30 % 
 2019-01-28 07:17:43  19 C   30 % 
 2019-01-28 07:08:07  19 C   30 % 
 2019-01-28 06:58:31  19 C   30 % 
 2019-01-28 06:48:55  19 C   30 % 
 2019-01-28 06:39:19  19 C   30 % 
 2019-01-28 06:29:42  19 C   30 % 
 2019-01-28 06:20:07  19 C   30 % 
 2019-01-28 06:10:30  19 C   30 % 
 2019-01-28 06:00:55  19 C   30 % 
 2019-01-28 05:51:19  19 C   30 % 
 2019-01-28 05:41:43  19 C   30 % 
 2019-01-28 05:32:07  19 C   30 % 
 2019-01-28 05:22:31  19 C   30 % 
 2019-01-28 05:12:55  19 C   30 % 
 2019-01-28 05:03:19  19 C   30 % 
 2019-01-28 04:53:43  19 C   30 % 
 2019-01-28 04:44:08  19 C   30 % 
 2019-01-28 04:34:31  19 C   31 % 
 2019-01-28 04:24:55  19 C   30 % 
 2019-01-28 04:15:19  19 C   30 % 
 2019-01-28 04:05:42  19 C   30 % 
 2019-01-28 03:56:06  19 C   30 % 
 2019-01-28 03:46:30  19 C   31 % 
 2019-01-28 03:36:54  19 C   30 % 
 2019-01-28 03:27:18  19 C   31 % 
 2019-01-28 03:17:42  19 C   31 % 
 2019-01-28 03:08:06  19 C   31 % 
 2019-01-28 02:58:30  19 C   31 % 
 2019-01-28 02:48:54  19 C   31 % 
 2019-01-28 02:39:17  19 C   31 % 
 2019-01-28 02:29:41  19 C   31 % 
 2019-01-28 02:20:05  19 C   31 % 
 2019-01-28 02:10:29  19 C   31 % 
 2019-01-28 02:00:53  19 C   30 % 
 2019-01-28 01:51:17  19 C   31 % 
 2019-01-28 01:41:41  19 C   31 % 
 2019-01-28 01:32:06  19 C   31 % 
 2019-01-28 01:22:30  19 C   31 % 
 2019-01-28 01:12:54  19 C   31 % 
 2019-01-28 01:03:18  19 C   31 % 
 2019-01-28 00:53:42  19 C   31 % 
 2019-01-28 00:44:06  19 C   31 % 
 2019-01-28 00:34:30  19 C   31 % 
 2019-01-28 00:24:54  19 C   31 % 
 2019-01-28 00:15:19  19 C   31 % 
 2019-01-28 00:05:43  19 C   31 % 
 2019-01-27 23:56:07  19 C   31 % 
 2019-01-27 23:46:31  19 C   31 % 
 2019-01-27 23:36:55  19 C   31 % 
 2019-01-27 23:27:19  19 C   31 % 
 2019-01-27 23:17:43  19 C   31 % 
 2019-01-27 23:08:07  19 C   31 % 
 2019-01-27 22:58:31  19 C   31 % 
 2019-01-27 22:48:55  19 C   31 % 
 2019-01-27 22:39:19  19 C   31 % 
 2019-01-27 22:29:43  19 C   31 % 
 2019-01-27 22:20:07  19 C   31 % 
 2019-01-27 22:10:32  19 C   31 % 
 2019-01-27 22:00:55  19 C   31 % 
 2019-01-27 21:51:19  19 C   31 % 
 2019-01-27 21:41:43  19 C   31 % 
 2019-01-27 21:32:06  19 C   31 % 
 2019-01-27 21:22:30  19 C   31 % 
 2019-01-27 21:12:54  19 C   31 % 
 2019-01-27 21:03:18  19 C   31 % 
 2019-01-27 20:53:42  19 C   31 % 
 2019-01-27 20:44:06  19 C   31 % 
 2019-01-27 20:34:30  19 C   31 % 
 2019-01-27 20:24:53  19 C   31 % 
 2019-01-27 20:15:17  19 C   31 % 
 2019-01-27 20:05:41  19 C   31 % 
 2019-01-27 19:56:05  19 C   31 % 
 2019-01-27 19:46:29  19 C   31 % 
 2019-01-27 19:36:53  19 C   31 % 
 2019-01-27 19:27:18  19 C   31 % 
 2019-01-27 19:17:41  19 C   31 % 
 2019-01-27 19:08:05  19 C   31 % 
 2019-01-27 18:58:29  19 C   31 % 
 2019-01-27 18:48:53  19 C   31 % 
 2019-01-27 18:39:16  19 C   31 % 
 2019-01-27 18:29:40  19 C   31 % 
 2019-01-27 18:20:04  19 C   31 % 
 2019-01-27 18:10:28  19 C   31 % 
 2019-01-27 18:00:52  19 C   31 % 
 2019-01-27 17:51:16  19 C   31 % 
 2019-01-27 17:41:39  19 C   31 % 
 2019-01-27 17:32:03  19 C   31 % 
 2019-01-27 17:22:27  19 C   31 % 
 2019-01-27 17:12:52  19 C   31 % 
 2019-01-27 17:03:15  19 C   31 % 
 2019-01-27 16:53:39  19 C   31 % 
 2019-01-27 16:44:03  19 C   31 % 
 2019-01-27 16:34:27  19 C   31 % 
 2019-01-27 16:24:51  19 C   31 % 
 2019-01-27 16:15:15  19 C   31 % 
 2019-01-27 16:05:39  19 C   31 % 
 2019-01-27 15:56:03  19 C   31 % 
 2019-01-27 15:46:27  19 C   31 % 
 2019-01-27 15:36:51  19 C   31 % 
 2019-01-27 15:27:15  19 C   31 % 
 2019-01-27 15:17:39  19 C   31 % 
 2019-01-27 15:08:03  19 C   31 % 
 2019-01-27 14:58:26  19 C   31 % 
 2019-01-27 14:48:50  19 C   31 % 
 2019-01-27 14:39:14  19 C   31 % 
 2019-01-27 14:29:38  19 C   31 % 
 2019-01-27 14:20:02  19 C   31 % 
 2019-01-27 14:10:26  19 C   31 % 
 2019-01-27 14:00:49  19 C   31 % 
 2019-01-27 13:51:13  19 C   31 % 
 2019-01-27 13:41:38  19 C   31 % 
 2019-01-27 13:32:03  19 C   31 % 
 2019-01-27 13:22:26  19 C   31 % 
 2019-01-27 13:12:50  19 C   31 % 
 2019-01-27 13:03:14  19 C   31 % 
 2019-01-27 12:53:38  19 C   31 % 
 2019-01-27 12:44:02  19 C   31 % 
 2019-01-27 12:34:25  19 C   31 % 
 2019-01-27 12:24:50  19 C   31 % 
 2019-01-27 12:15:14  19 C   31 % 
 2019-01-27 12:05:38  19 C   31 % 
 2019-01-27 11:56:02  19 C   31 % 
 2019-01-27 11:46:26  19 C   31 % 
 2019-01-27 11:36:50  19 C   31 % 
 2019-01-27 11:27:14  19 C   31 % 
 2019-01-27 11:17:38  19 C   31 % 
 2019-01-27 11:08:02  19 C   31 % 
 2019-01-27 10:58:25  19 C   31 % 
 2019-01-27 10:48:50  19 C   31 % 
 2019-01-27 10:39:13  19 C   31 % 
 2019-01-27 10:29:38  19 C   31 % 
 2019-01-27 10:20:01  19 C   31 % 
 2019-01-27 10:10:25  19 C   31 % 
 2019-01-27 10:00:49  19 C   31 % 
 2019-01-27 09:51:14  19 C   31 % 
 2019-01-27 09:41:38  19 C   31 % 
 2019-01-27 09:32:02  19 C   31 % 
 2019-01-27 09:22:26  19 C   31 % 
 2019-01-27 09:12:50  19 C   31 % 
 2019-01-27 09:03:13  19 C   31 % 
 2019-01-27 08:53:37  19 C   31 % 
 2019-01-27 08:44:02  19 C   31 % 
 2019-01-27 08:34:25  19 C   31 % 
 2019-01-27 08:24:49  19 C   31 % 
 2019-01-27 08:15:13  19 C   31 % 
 2019-01-27 08:05:37  19 C   31 % 
 2019-01-27 07:56:01  19 C   31 % 
 2019-01-27 07:46:25  19 C   31 % 
 2019-01-27 07:36:49  19 C   31 % 
 2019-01-27 07:27:12  19 C   31 % 
 2019-01-27 07:17:36  19 C   31 % 
 2019-01-27 07:08:00  19 C   31 % 
 2019-01-27 06:58:25  19 C   31 % 
 2019-01-27 06:48:49  19 C   31 % 
 2019-01-27 06:39:13  19 C   31 % 
 2019-01-27 06:29:36  19 C   31 % 
 2019-01-27 06:20:00  19 C   31 % 
 2019-01-27 06:10:24  19 C   31 % 
 2019-01-27 06:00:48  19 C   31 % 
 2019-01-27 05:51:12  19 C   31 % 
 2019-01-27 05:41:36  19 C   31 % 
 2019-01-27 05:32:00  19 C   31 % 
 2019-01-27 05:22:24  19 C   31 % 
 2019-01-27 05:12:48  19 C   31 % 
 2019-01-27 05:03:12  19 C   31 % 
 2019-01-27 04:53:36  19 C   31 % 
 2019-01-27 04:44:00  19 C   31 % 
 2019-01-27 04:34:24  19 C   32 % 
 2019-01-27 04:24:48  19 C   31 % 
 2019-01-27 04:15:12  19 C   31 % 
 2019-01-27 04:05:36  19 C   32 % 
 2019-01-27 03:56:00  19 C   31 % 
 2019-01-27 03:46:24  19 C   32 % 
 2019-01-27 03:36:48  19 C   31 % 
 2019-01-27 03:27:12  19 C   32 % 
 2019-01-27 03:17:37  19 C   32 % 
 2019-01-27 03:08:00  19 C   31 % 
 2019-01-27 02:58:24  19 C   32 % 
 2019-01-27 02:48:49  19 C   32 % 
 2019-01-27 02:39:12  19 C   32 % 
 2019-01-27 02:29:36  19 C   31 % 
 2019-01-27 02:20:00  19 C   31 % 
 2019-01-27 02:10:24  19 C   32 % 
 2019-01-27 02:00:48  19 C   32 % 
 2019-01-27 01:51:12  19 C   32 % 
 2019-01-27 01:41:36  19 C   32 % 
 2019-01-27 01:32:00  19 C   32 % 
 2019-01-27 01:22:24  19 C   32 % 
 2019-01-27 01:12:48  19 C   32 % 
 2019-01-27 01:03:12  19 C   32 % 
 2019-01-27 00:53:36  19 C   32 % 
 2019-01-27 00:44:01  19 C   32 % 
 2019-01-27 00:34:24  19 C   32 % 
 2019-01-27 00:24:48  19 C   32 % 
 2019-01-27 00:15:12  19 C   32 % 
 2019-01-27 00:05:36  19 C   32 % 
 2019-01-26 23:56:00  19 C   32 % 
 2019-01-26 23:46:24  19 C   32 % 
 2019-01-26 23:36:48  19 C   32 % 
 2019-01-26 23:27:11  19 C   32 % 
 2019-01-26 23:17:35  19 C   32 % 
 2019-01-26 23:07:59  19 C   32 % 
 2019-01-26 22:58:23  19 C   32 % 
 2019-01-26 22:48:47  19 C   32 % 
 2019-01-26 22:39:11  19 C   32 % 
 2019-01-26 22:29:35  19 C   32 % 
 2019-01-26 22:19:59  19 C   32 % 
 2019-01-26 22:10:23  19 C   32 % 
 2019-01-26 22:00:46  19 C   32 % 
 2019-01-26 21:51:10  19 C   32 % 
 2019-01-26 21:41:35  19 C   32 % 
 2019-01-26 21:31:59  19 C   32 % 
 2019-01-26 21:22:23  19 C   32 % 
 2019-01-26 21:12:47  19 C   32 % 
 2019-01-26 21:03:11  19 C   32 % 
 2019-01-26 20:53:35  19 C   32 % 
 2019-01-26 20:43:58  19 C   32 % 
 2019-01-26 20:34:22  19 C   32 % 
 2019-01-26 20:24:46  19 C   32 % 
 2019-01-26 20:15:10  19 C   32 % 
 2019-01-26 20:05:34  19 C   32 % 
 2019-01-26 19:55:58  19 C   32 % 
 2019-01-26 19:46:22  19 C   32 % 
 2019-01-26 19:36:45  19 C   32 % 
 2019-01-26 19:27:08  19 C   32 % 
 2019-01-26 19:17:32  19 C   32 % 
 2019-01-26 19:07:57  19 C   32 % 
 2019-01-26 18:58:20  19 C   32 % 
 2019-01-26 18:48:44  19 C   32 % 
 2019-01-26 18:39:07  19 C   32 % 
 2019-01-26 18:29:32  19 C   32 % 
 2019-01-26 18:19:55  19 C   32 % 
 2019-01-26 18:10:19  19 C   32 % 
 2019-01-26 18:00:43  19 C   32 % 
 2019-01-26 17:51:07  19 C   32 % 
 2019-01-26 17:41:32  19 C   32 % 
 2019-01-26 17:31:56  19 C   32 % 
 2019-01-26 17:22:20  19 C   32 % 
 2019-01-26 17:12:44  19 C   32 % 
 2019-01-26 17:03:09  19 C   32 % 
 2019-01-26 16:53:31  19 C   32 % 
 2019-01-26 16:43:54  19 C   32 % 
 2019-01-26 16:34:18  19 C   32 % 
 2019-01-26 16:24:42  19 C   32 % 
 2019-01-26 16:15:06  19 C   32 % 
 2019-01-26 16:05:30  19 C   32 % 
 2019-01-26 15:55:53  19 C   32 % 
 2019-01-26 15:46:18  19 C   32 % 
 2019-01-26 15:36:41  19 C   32 % 
 2019-01-26 15:27:04  19 C   32 % 
 2019-01-26 15:17:31  19 C   32 % 
 2019-01-26 15:07:51  19 C   32 % 
 2019-01-26 14:58:15  19 C   32 % 
 2019-01-26 14:48:39  19 C   32 % 
 2019-01-26 14:39:03  19 C   32 % 
 2019-01-26 14:29:28  19 C   32 % 
 2019-01-26 14:19:51  19 C   32 % 
 2019-01-26 14:10:15  19 C   32 % 
 2019-01-26 14:00:39  19 C   32 % 
 2019-01-26 13:51:03  19 C   32 % 
 2019-01-26 13:41:27  19 C   32 % 
 2019-01-26 13:31:51  19 C   32 % 
 2019-01-26 13:22:16  19 C   32 % 
 2019-01-26 13:12:39  19 C   32 % 
 2019-01-26 13:03:04  19 C   32 % 
 2019-01-26 12:53:28  19 C   32 % 
 2019-01-26 12:43:52  19 C   32 % 
 2019-01-26 12:34:15  19 C   32 % 
 2019-01-26 12:24:39  19 C   32 % 
 2019-01-26 12:15:03  19 C   32 % 
 2019-01-26 12:05:28  19 C   32 % 
 2019-01-26 11:55:51  19 C   32 % 
 2019-01-26 11:46:15  19 C   32 % 
 2019-01-26 11:36:39  19 C   32 % 
 2019-01-26 11:27:03  19 C   32 % 
 2019-01-26 11:17:27  19 C   32 % 
 2019-01-26 11:07:51  19 C   32 % 
 2019-01-26 10:58:14  19 C   32 % 
 2019-01-26 10:48:39  19 C   32 % 
 2019-01-26 10:39:02  19 C   32 % 
 2019-01-26 10:29:26  19 C   32 % 
 2019-01-26 10:19:50  19 C   32 % 
 2019-01-26 10:10:14  19 C   32 % 
 2019-01-26 10:00:39  19 C   32 % 
 2019-01-26 09:51:03  19 C   32 % 
 2019-01-26 09:41:27  19 C   32 % 
 2019-01-26 09:31:51  19 C   32 % 
 2019-01-26 09:22:14  19 C   32 % 
 2019-01-26 09:12:38  19 C   32 % 
 2019-01-26 09:03:03  19 C   32 % 
 2019-01-26 08:53:27  19 C   32 % 
 2019-01-26 08:43:51  19 C   32 % 
 2019-01-26 08:34:14  19 C   32 % 
 2019-01-26 08:24:38  19 C   32 % 
 2019-01-26 08:15:03  19 C   32 % 
 2019-01-26 08:05:27  19 C   32 % 
 2019-01-26 07:55:51  19 C   32 % 
 2019-01-26 07:46:14  19 C   32 % 
 2019-01-26 07:36:39  19 C   32 % 
 2019-01-26 07:27:04  19 C   32 % 
 2019-01-26 07:17:27  19 C   32 % 
 2019-01-26 07:07:51  19 C   32 % 
 2019-01-26 06:58:15  19 C   32 % 
 2019-01-26 06:48:39  19 C   32 % 
 2019-01-26 06:39:02  19 C   32 % 
 2019-01-26 06:29:26  19 C   32 % 
 2019-01-26 06:19:50  19 C   32 % 
 2019-01-26 06:10:14  19 C   32 % 
 2019-01-26 06:00:38  19 C   32 % 
 2019-01-26 05:51:02  19 C   32 % 
 2019-01-26 05:41:26  19 C   32 % 
 2019-01-26 05:31:50  19 C   32 % 
 2019-01-26 05:22:14  19 C   32 % 
 2019-01-26 05:12:37  19 C   32 % 
 2019-01-26 05:03:01  19 C   32 % 
 2019-01-26 04:53:26  19 C   32 % 
 2019-01-26 04:43:50  19 C   32 % 
 2019-01-26 04:34:14  19 C   32 % 
 2019-01-26 04:24:37  19 C   32 % 
 2019-01-26 04:15:01  19 C   32 % 
 2019-01-26 04:05:26  19 C   32 % 
 2019-01-26 03:55:50  19 C   32 % 
 2019-01-26 03:46:13  19 C   32 % 
 2019-01-26 03:36:38  19 C   32 % 
 2019-01-26 03:27:01  19 C   32 % 
 2019-01-26 03:17:25  19 C   32 % 
 2019-01-26 03:07:50  19 C   32 % 
 2019-01-26 02:58:13  19 C   32 % 
 2019-01-26 02:48:37  19 C   32 % 
 2019-01-26 02:39:01  19 C   32 % 
 2019-01-26 02:29:25  19 C   32 % 
 2019-01-26 02:19:48  19 C   32 % 
 2019-01-26 02:10:13  19 C   32 % 
 2019-01-26 02:00:37  19 C   32 % 
 2019-01-26 01:51:00  19 C   32 % 
 2019-01-26 01:41:24  19 C   32 % 
 2019-01-26 01:31:48  19 C   32 % 
 2019-01-26 01:22:12  19 C   32 % 
 2019-01-26 01:12:36  19 C   32 % 
 2019-01-26 01:03:00  20 C   32 % 
 2019-01-26 00:53:24  20 C   32 % 
 2019-01-26 00:43:48  20 C   32 % 
 2019-01-26 00:34:12  19 C   32 % 
 2019-01-26 00:24:36  19 C   32 % 
 2019-01-26 00:15:00  19 C   32 % 
 2019-01-26 00:05:24  19 C   32 % 
 2019-01-25 23:55:48  19 C   32 % 
 2019-01-25 23:46:11  19 C   32 % 
 2019-01-25 23:36:35  20 C   32 % 
 2019-01-25 23:27:00  20 C   32 % 
 2019-01-25 23:17:24  20 C   32 % 
 2019-01-25 23:07:48  20 C   32 % 
 2019-01-25 22:58:12  19 C   32 % 
 2019-01-25 22:48:36  19 C   32 % 
 2019-01-25 22:39:00  19 C   32 % 
 2019-01-25 22:29:23  20 C   32 % 
 2019-01-25 22:19:48  20 C   32 % 
 2019-01-25 22:10:11  20 C   32 % 
 2019-01-25 22:00:35  20 C   32 % 
 2019-01-25 21:50:59  20 C   32 % 
 2019-01-25 21:41:23  20 C   32 % 
 2019-01-25 21:31:47  20 C   32 % 
 2019-01-25 21:22:10  19 C   32 % 
 2019-01-25 21:12:34  20 C   32 % 
 2019-01-25 21:02:58  20 C   32 % 
 2019-01-25 20:53:22  20 C   32 % 
 2019-01-25 20:43:46  20 C   32 % 
 2019-01-25 20:34:10  20 C   32 % 
 2019-01-25 20:24:34  20 C   32 % 
 2019-01-25 20:14:58  20 C   32 % 
 2019-01-25 20:05:21  20 C   32 % 
 2019-01-25 19:55:45  19 C   32 % 
 2019-01-25 19:46:09  19 C   32 % 
 2019-01-25 19:36:33  20 C   32 % 
 2019-01-25 19:26:57  20 C   32 % 
 2019-01-25 19:17:21  20 C   32 % 
 2019-01-25 19:07:45  20 C   32 % 
 2019-01-25 18:58:09  20 C   32 % 
 2019-01-25 18:48:32  20 C   32 % 
 2019-01-25 18:38:56  20 C   32 % 
 2019-01-25 18:29:20  20 C   32 % 
 2019-01-25 18:19:44  20 C   32 % 
 2019-01-25 18:10:08  20 C   32 % 
 2019-01-25 18:00:32  20 C   32 % 
 2019-01-25 17:50:56  20 C   32 % 
 2019-01-25 17:41:20  20 C   32 % 
 2019-01-25 17:31:44  20 C   32 % 
 2019-01-25 17:22:08  20 C   32 % 
 2019-01-25 17:12:32  20 C   32 % 
 2019-01-25 17:02:55  20 C   32 % 
 2019-01-25 16:53:19  20 C   32 % 
 2019-01-25 16:43:43  20 C   33 % 
 2019-01-25 16:34:08  20 C   32 % 
 2019-01-25 16:24:32  20 C   32 % 
 2019-01-25 16:14:55  20 C   32 % 
 2019-01-25 16:05:20  20 C   32 % 
 2019-01-25 15:55:43  20 C   32 % 
 2019-01-25 15:46:07  20 C   32 % 
 2019-01-25 15:36:31  20 C   32 % 
 2019-01-25 15:26:55  20 C   33 % 
 2019-01-25 15:17:19  20 C   33 % 
 2019-01-25 15:07:43  20 C   33 % 
 2019-01-25 14:58:06  20 C   33 % 
 2019-01-25 14:48:31  20 C   33 % 
 2019-01-25 14:38:54  20 C   33 % 
 2019-01-25 14:29:18  20 C   33 % 
 2019-01-25 14:19:42  20 C   33 % 
 2019-01-25 14:10:10  20 C   33 % 
 2019-01-25 14:00:24  20 C   33 % 
 2019-01-25 13:50:48  20 C   33 % 
 2019-01-25 13:41:11  20 C   33 % 
 2019-01-25 13:31:35  20 C   33 % 
 2019-01-25 13:21:59  20 C   33 % 
 2019-01-25 13:12:22  20 C   32 % 
 2019-01-25 13:02:46  20 C   32 % 
 2019-01-25 12:43:32  20 C   32 % 
 2019-01-25 12:33:56  20 C   33 % 
 2019-01-25 12:24:20  19 C   33 % 
 2019-01-25 12:14:43  20 C   32 % 
 2019-01-25 12:05:07  20 C   32 % 
 2019-01-25 11:55:31  20 C   32 % 
 2019-01-25 11:45:55  20 C   32 % 
 2019-01-25 11:36:19  20 C   32 % 
 2019-01-25 11:26:42  20 C   32 % 
 2019-01-25 11:17:06  20 C   32 % 
 2019-01-25 11:07:30  20 C   32 % 
 2019-01-25 10:57:54  19 C   32 % 
 2019-01-25 10:48:18  19 C   32 % 
 2019-01-25 10:38:42  20 C   32 % 
 2019-01-25 10:29:06  20 C   32 % 
 2019-01-25 10:19:30  20 C   32 % 
 2019-01-25 10:09:54  20 C   32 % 
 2019-01-25 10:00:18  20 C   32 % 
 2019-01-25 09:50:43  20 C   32 % 
 2019-01-25 09:41:06  20 C   32 % 
 2019-01-25 09:31:30  19 C   32 % 
 2019-01-25 09:21:54  19 C   32 % 
 2019-01-25 09:12:18  20 C   32 % 
 2019-01-25 09:02:41  20 C   32 % 
 2019-01-25 08:53:05  20 C   32 % 
 2019-01-25 08:43:29  20 C   32 % 
 2019-01-25 08:33:53  20 C   32 % 
 2019-01-25 08:24:17  20 C   32 % 
 2019-01-25 08:14:40  20 C   32 % 
 2019-01-25 08:05:04  20 C   32 % 
 2019-01-25 07:55:28  20 C   32 % 
 2019-01-25 07:45:52  20 C   32 % 
 2019-01-25 07:36:16  19 C   32 % 
 2019-01-25 07:26:39  19 C   32 % 
 2019-01-25 07:17:02  20 C   32 % 
 2019-01-25 07:07:26  20 C   32 % 
 2019-01-25 06:57:51  20 C   32 % 
 2019-01-25 06:48:14  20 C   32 % 
 2019-01-25 06:38:38  20 C   32 % 
 2019-01-25 06:29:02  19 C   32 % 
 2019-01-25 06:19:25  19 C   32 % 
 2019-01-25 06:09:49  19 C   32 % 
 2019-01-25 06:00:14  19 C   32 % 
 2019-01-25 05:50:37  20 C   32 % 
 2019-01-25 05:41:01  20 C   32 % 
 2019-01-25 05:31:25  20 C   32 % 
 2019-01-25 05:21:50  20 C   32 % 
 2019-01-25 05:12:14  20 C   32 % 
 2019-01-25 05:02:38  20 C   32 % 
 2019-01-25 04:53:02  19 C   32 % 
 2019-01-25 04:43:25  20 C   32 % 
 2019-01-25 04:33:49  20 C   32 % 
 2019-01-25 04:24:13  20 C   32 % 
 2019-01-25 04:14:37  20 C   32 % 
 2019-01-25 04:05:01  20 C   32 % 
 2019-01-25 03:55:25  20 C   32 % 
 2019-01-25 03:45:49  20 C   32 % 
 2019-01-25 03:36:13  20 C   32 % 
 2019-01-25 03:26:36  19 C   32 % 
 2019-01-25 03:17:00  19 C   32 % 
 2019-01-25 03:07:25  20 C   32 % 
 2019-01-25 02:57:49  20 C   32 % 
 2019-01-25 02:48:12  20 C   32 % 
 2019-01-25 02:38:36  20 C   32 % 
 2019-01-25 02:29:00  20 C   32 % 
 2019-01-25 02:19:24  20 C   32 % 
 2019-01-25 02:09:48  20 C   32 % 
 2019-01-25 02:00:12  19 C   32 % 
 2019-01-25 01:50:35  19 C   32 % 
 2019-01-25 01:40:59  20 C   32 % 
 2019-01-25 01:31:23  20 C   32 % 
 2019-01-25 01:21:47  20 C   32 % 
 2019-01-25 01:12:11  20 C   32 % 
 2019-01-25 01:02:35  20 C   32 % 
 2019-01-25 00:52:59  20 C   32 % 
 2019-01-25 00:43:23  20 C   32 % 
 2019-01-25 00:33:46  20 C   32 % 
 2019-01-25 00:24:10  20 C   32 % 
 2019-01-25 00:14:34  20 C   32 % 
 2019-01-25 00:04:59  20 C   32 % 
 2019-01-24 23:55:22  20 C   32 % 
 2019-01-24 23:45:46  20 C   32 % 
 2019-01-24 23:36:10  20 C   32 % 
 2019-01-24 23:26:34  20 C   32 % 
 2019-01-24 23:16:58  20 C   32 % 
 2019-01-24 23:07:22  19 C   32 % 
 2019-01-24 22:57:46  19 C   32 % 
 2019-01-24 22:48:11  20 C   32 % 
 2019-01-24 22:38:35  20 C   32 % 
 2019-01-24 22:28:58  20 C   32 % 
 2019-01-24 22:19:22  20 C   32 % 
 2019-01-24 22:09:46  20 C   32 % 
 2019-01-24 22:00:10  20 C   32 % 
 2019-01-24 21:50:34  20 C   32 % 
 2019-01-24 21:40:58  20 C   32 % 
 2019-01-24 21:31:21  19 C   32 % 
 2019-01-24 21:21:46  19 C   32 % 
 2019-01-24 21:12:10  20 C   32 % 
 2019-01-24 21:02:33  20 C   32 % 
 2019-01-24 20:52:57  20 C   32 % 
 2019-01-24 20:43:21  20 C   32 % 
 2019-01-24 20:33:45  20 C   32 % 
 2019-01-24 20:24:09  20 C   32 % 
 2019-01-24 20:14:33  20 C   32 % 
 2019-01-24 20:04:57  20 C   32 % 
 2019-01-24 19:55:21  20 C   32 % 
 2019-01-24 19:45:45  19 C   32 % 
 2019-01-24 19:36:09  20 C   32 % 
 2019-01-24 19:26:33  20 C   32 % 
 2019-01-24 19:16:57  20 C   32 % 
 2019-01-24 19:07:21  20 C   32 % 
 2019-01-24 18:57:45  20 C   32 % 
 2019-01-24 18:48:08  20 C   32 % 
 2019-01-24 18:38:33  20 C   32 % 
 2019-01-24 18:28:57  19 C   32 % 
 2019-01-24 18:19:21  20 C   32 % 
 2019-01-24 18:09:45  20 C   32 % 
 2019-01-24 18:00:09  20 C   32 % 
 2019-01-24 17:50:33  20 C   32 % 
 2019-01-24 17:40:57  20 C   32 % 
 2019-01-24 17:31:21  20 C   32 % 
 2019-01-24 17:21:45  20 C   33 % 
 2019-01-24 17:12:08  20 C   33 % 
 2019-01-24 17:02:32  19 C   33 % 
 2019-01-24 16:52:56  20 C   33 % 
 2019-01-24 16:43:20  20 C   33 % 
 2019-01-24 16:33:44  20 C   33 % 
 2019-01-24 16:24:08  20 C   33 % 
 2019-01-24 16:14:32  20 C   33 % 
 2019-01-24 16:04:56  20 C   33 % 
 2019-01-24 15:55:20  20 C   33 % 
 2019-01-24 15:45:44  20 C   33 % 
 2019-01-24 15:36:08  20 C   33 % 
 2019-01-24 15:26:32  20 C   33 % 
 2019-01-24 15:16:57  20 C   33 % 
 2019-01-24 15:07:20  20 C   33 % 
 2019-01-24 14:57:44  20 C   33 % 
 2019-01-24 14:48:08  20 C   33 % 
 2019-01-24 14:38:32  20 C   33 % 
 2019-01-24 14:28:57  20 C   33 % 
 2019-01-24 14:19:20  20 C   33 % 
 2019-01-24 14:09:44  20 C   33 % 
 2019-01-24 14:00:08  20 C   33 % 
 2019-01-24 13:50:32  20 C   33 % 
 2019-01-24 13:40:56  20 C   33 % 
 2019-01-24 13:31:20  20 C   33 % 
 2019-01-24 13:21:44  20 C   33 % 
 2019-01-24 13:12:07  20 C   33 % 
 2019-01-24 13:02:31  20 C   33 % 
 2019-01-24 12:52:55  20 C   33 % 
 2019-01-24 12:43:19  20 C   33 % 
 2019-01-24 12:33:43  20 C   33 % 
 2019-01-24 12:24:06  20 C   33 % 
 2019-01-24 12:14:30  20 C   33 % 
 2019-01-24 12:04:55  20 C   33 % 
 2019-01-24 11:55:19  20 C   33 % 
 2019-01-24 11:45:44  20 C   33 % 
 2019-01-24 11:36:07  20 C   33 % 
 2019-01-24 11:26:31  20 C   33 % 
 2019-01-24 11:16:55  20 C   33 % 
 2019-01-24 11:07:19  20 C   33 % 
 2019-01-24 10:57:42  20 C   33 % 
 2019-01-24 10:48:07  20 C   33 % 
 2019-01-24 10:38:31  20 C   33 % 
 2019-01-24 10:28:54  20 C   33 % 
 2019-01-24 10:19:18  20 C   33 % 
 2019-01-24 10:09:42  20 C   33 % 
 2019-01-24 10:00:06  20 C   33 % 
 2019-01-24 09:50:30  20 C   33 % 
 2019-01-24 09:40:54  20 C   33 % 
 2019-01-24 09:31:18  20 C   33 % 
 2019-01-24 09:21:42  20 C   33 % 
 2019-01-24 09:12:06  20 C   33 % 
 2019-01-24 09:02:30  20 C   33 % 
 2019-01-24 08:52:54  20 C   33 % 
 2019-01-24 08:43:18  20 C   33 % 
 2019-01-24 08:33:42  20 C   33 % 
 2019-01-24 08:24:06  20 C   33 % 
 2019-01-24 08:14:30  20 C   33 % 
 2019-01-24 08:04:54  20 C   33 % 
 2019-01-24 07:55:18  20 C   33 % 
 2019-01-24 07:45:42  20 C   33 % 
 2019-01-24 07:36:06  20 C   33 % 
 2019-01-24 07:26:30  20 C   33 % 
 2019-01-24 07:16:53  20 C   33 % 
 2019-01-24 07:07:18  20 C   33 % 
 2019-01-24 06:57:42  20 C   33 % 
 2019-01-24 06:48:06  20 C   33 % 
 2019-01-24 06:38:30  20 C   33 % 
 2019-01-24 06:28:54  20 C   33 % 
 2019-01-24 06:19:18  20 C   33 % 
 2019-01-24 06:09:42  20 C   33 % 
 2019-01-24 06:00:06  20 C   33 % 
 2019-01-24 05:50:29  20 C   33 % 
 2019-01-24 05:40:53  20 C   33 % 
 2019-01-24 05:31:17  20 C   33 % 
 2019-01-24 05:21:41  20 C   33 % 
 2019-01-24 05:12:04  20 C   33 % 
 2019-01-24 05:02:28  20 C   33 % 
 2019-01-24 04:52:52  20 C   33 % 
 2019-01-24 04:43:16  20 C   33 % 
 2019-01-24 04:33:41  20 C   33 % 
 2019-01-24 04:24:04  20 C   33 % 
 2019-01-24 04:14:28  20 C   33 % 
 2019-01-24 04:04:52  20 C   33 % 
 2019-01-24 03:55:15  20 C   33 % 
 2019-01-24 03:45:40  20 C   33 % 
 2019-01-24 03:36:03  20 C   33 % 
 2019-01-24 03:26:27  20 C   33 % 
 2019-01-24 03:16:51  20 C   33 % 
 2019-01-24 03:07:15  20 C   33 % 
 2019-01-24 02:57:39  20 C   33 % 
 2019-01-24 02:48:03  20 C   33 % 
 2019-01-24 02:38:27  20 C   33 % 
 2019-01-24 02:28:51  20 C   33 % 
 2019-01-24 02:19:15  20 C   33 % 
 2019-01-24 02:09:38  20 C   33 % 
 2019-01-24 02:00:02  20 C   33 % 
 2019-01-24 01:50:26  20 C   33 % 
 2019-01-24 01:40:50  20 C   33 % 
 2019-01-24 01:31:14  20 C   33 % 
 2019-01-24 01:21:38  20 C   33 % 
 2019-01-24 01:12:02  20 C   33 % 
 2019-01-24 01:02:26  20 C   33 % 
 2019-01-24 00:52:49  20 C   33 % 
 2019-01-24 00:43:13  20 C   33 % 
 2019-01-24 00:33:37  20 C   33 % 
 2019-01-24 00:24:01  20 C   33 % 
 2019-01-24 00:14:24  20 C   33 % 
 2019-01-24 00:04:49  20 C   33 % 
 2019-01-23 23:55:12  20 C   33 % 
 2019-01-23 23:45:36  20 C   33 % 
 2019-01-23 23:36:00  20 C   33 % 
 2019-01-23 23:26:24  20 C   33 % 
 2019-01-23 23:16:48  20 C   33 % 
 2019-01-23 23:07:12  20 C   33 % 
 2019-01-23 22:57:35  20 C   33 % 
 2019-01-23 22:47:59  20 C   33 % 
 2019-01-23 22:38:23  20 C   33 % 
 2019-01-23 22:28:47  20 C   33 % 
 2019-01-23 22:19:11  20 C   33 % 
 2019-01-23 22:09:34  20 C   33 % 
 2019-01-23 21:59:58  20 C   33 % 
 2019-01-23 21:50:22  20 C   33 % 
 2019-01-23 21:40:45  20 C   33 % 
 2019-01-23 21:31:09  20 C   33 % 
 2019-01-23 21:21:34  20 C   33 % 
 2019-01-23 21:11:57  20 C   33 % 
 2019-01-23 21:02:21  20 C   33 % 
 2019-01-23 20:52:45  20 C   33 % 
 2019-01-23 20:43:09  20 C   33 % 
 2019-01-23 20:33:32  20 C   33 % 
 2019-01-23 20:23:56  20 C   33 % 
 2019-01-23 20:14:21  20 C   33 % 
 2019-01-23 20:04:45  20 C   33 % 
 2019-01-23 19:55:09  20 C   33 % 
 2019-01-23 19:45:33  20 C   33 % 
 2019-01-23 19:35:56  20 C   33 % 
 2019-01-23 19:26:21  20 C   33 % 
 2019-01-23 19:16:45  20 C   33 % 
 2019-01-23 19:07:09  20 C   33 % 
 2019-01-23 18:57:32  20 C   33 % 
 2019-01-23 18:47:56  20 C   33 % 
 2019-01-23 18:38:21  20 C   33 % 
 2019-01-23 18:28:44  20 C   33 % 
 2019-01-23 18:19:09  20 C   33 % 
 2019-01-23 18:09:33  20 C   33 % 
 2019-01-23 17:59:57  20 C   33 % 
 2019-01-23 17:50:20  20 C   33 % 
 2019-01-23 17:40:44  20 C   33 % 
 2019-01-23 17:31:09  20 C   33 % 
 2019-01-23 17:21:31  20 C   33 % 
 2019-01-23 17:11:55  20 C   33 % 
 2019-01-23 17:02:19  20 C   33 % 
 2019-01-23 16:52:42  20 C   33 % 
 2019-01-23 16:43:06  20 C   33 % 
 2019-01-23 16:33:30  20 C   33 % 
 2019-01-23 16:23:54  20 C   33 % 
 2019-01-23 16:14:18  20 C   33 % 
 2019-01-23 16:04:42  20 C   33 % 
 2019-01-23 15:55:06  20 C   33 % 
 2019-01-23 15:45:30  20 C   33 % 
 2019-01-23 15:35:54  20 C   33 % 
 2019-01-23 15:26:18  20 C   33 % 
 2019-01-23 15:16:42  20 C   33 % 
 2019-01-23 15:07:05  20 C   33 % 
 2019-01-23 14:57:29  20 C   33 % 
 2019-01-23 14:47:53  20 C   33 % 
 2019-01-23 14:38:17  20 C   33 % 
 2019-01-23 14:28:41  20 C   33 % 
 2019-01-23 14:19:05  20 C   33 % 
 2019-01-23 14:09:28  20 C   33 % 
 2019-01-23 13:59:52  20 C   33 % 
 2019-01-23 13:50:16  20 C   33 % 
 2019-01-23 13:40:40  20 C   33 % 
 2019-01-23 13:31:03  20 C   33 % 
 2019-01-23 13:21:27  20 C   33 % 
 2019-01-23 13:11:51  20 C   33 % 
 2019-01-23 13:02:15  20 C   33 % 
 2019-01-23 12:52:39  20 C   33 % 
 2019-01-23 12:43:03  20 C   33 % 
 2019-01-23 12:33:26  20 C   33 % 
 2019-01-23 12:23:50  20 C   33 % 
 2019-01-23 12:14:14  20 C   33 % 
 2019-01-23 11:54:59  20 C   33 % 
 2019-01-23 11:45:25  20 C   33 % 
 2019-01-23 11:35:45  20 C   33 % 
 2019-01-23 11:26:09  20 C   33 % 
 2019-01-23 11:16:33  20 C   33 % 
 2019-01-23 11:06:57  20 C   32 % 
 2019-01-23 10:57:21  20 C   32 % 
 2019-01-23 10:47:45  20 C   32 % 
 2019-01-23 10:38:09  20 C   32 % 
 2019-01-23 10:28:32  20 C   32 % 
 2019-01-23 10:18:56  20 C   32 % 
 2019-01-23 10:09:20  20 C   32 % 
 2019-01-23 09:59:44  20 C   32 % 
 2019-01-23 09:50:08  20 C   32 % 
 2019-01-23 09:40:32  20 C   32 % 
 2019-01-23 09:30:56  20 C   32 % 
 2019-01-23 09:21:21  20 C   32 % 
 2019-01-23 09:11:45  20 C   32 % 
 2019-01-23 09:02:09  20 C   32 % 
 2019-01-23 08:52:33  20 C   32 % 
 2019-01-23 08:42:56  20 C   32 % 
 2019-01-23 08:33:20  20 C   32 % 
 2019-01-23 08:23:44  20 C   32 % 
 2019-01-23 08:14:08  20 C   32 % 
 2019-01-23 08:04:32  20 C   32 % 
 2019-01-23 07:54:55  20 C   32 % 
 2019-01-23 07:45:19  20 C   32 % 
 2019-01-23 07:35:43  20 C   32 % 
 2019-01-23 07:26:07  20 C   32 % 
 2019-01-23 07:16:30  20 C   32 % 
 2019-01-23 07:06:54  20 C   32 % 
 2019-01-23 06:57:18  20 C   32 % 
 2019-01-23 06:47:42  20 C   32 % 
 2019-01-23 06:38:05  20 C   32 % 
 2019-01-23 06:28:29  20 C   32 % 
 2019-01-23 06:18:53  20 C   32 % 
 2019-01-23 06:09:17  20 C   32 % 
 2019-01-23 05:59:41  20 C   32 % 
 2019-01-23 05:50:05  20 C   32 % 
 2019-01-23 05:40:28  20 C   32 % 
 2019-01-23 05:30:52  20 C   32 % 
 2019-01-23 05:21:15  20 C   32 % 
 2019-01-23 05:11:39  20 C   32 % 
 2019-01-23 05:02:03  20 C   32 % 
 2019-01-23 04:52:27  20 C   32 % 
 2019-01-23 04:42:52  20 C   32 % 
 2019-01-23 04:33:16  20 C   32 % 
 2019-01-23 04:23:39  20 C   32 % 
 2019-01-23 04:14:04  20 C   32 % 
 2019-01-23 04:04:27  20 C   32 % 
 2019-01-23 03:54:51  20 C   32 % 
 2019-01-23 03:45:15  20 C   32 % 
 2019-01-23 03:35:39  20 C   32 % 
 2019-01-23 03:26:03  20 C   32 % 
 2019-01-23 03:16:27  20 C   32 % 
 2019-01-23 03:06:51  20 C   32 % 
 2019-01-23 02:57:14  20 C   32 % 
 2019-01-23 02:47:38  20 C   32 % 
 2019-01-23 02:38:04  20 C   32 % 
 2019-01-23 02:28:27  20 C   32 % 
 2019-01-23 02:18:51  20 C   32 % 
 2019-01-23 02:09:15  20 C   32 % 
 2019-01-23 01:59:38  20 C   32 % 
 2019-01-23 01:39:53  20 C   32 % 
 2019-01-23 01:30:16  20 C   32 % 
 2019-01-23 01:20:40  20 C   32 % 
 2019-01-23 01:11:03  20 C   32 % 
 2019-01-23 01:01:27  20 C   32 % 
 2019-01-23 00:51:51  20 C   32 % 
 2019-01-23 00:42:15  20 C   32 % 
 2019-01-23 00:32:42  20 C   32 % 
 2019-01-23 00:02:46  20 C   32 % 
 2019-01-22 23:23:58  20 C   32 % 
 2019-01-22 23:04:01  20 C   32 % 
 2019-01-22 22:54:28  20 C   32 % 
 2019-01-22 22:34:44  20 C   32 % 
 2019-01-22 22:25:08  20 C   32 % 
 2019-01-22 22:15:33  20 C   32 % 
 2019-01-22 21:36:09  21 C   32 % 
 2019-01-22 21:26:32  21 C   32 % 
 2019-01-22 21:07:17  21 C   32 % 
 2019-01-22 20:57:41  21 C   32 % 
 2019-01-22 20:37:50  21 C   32 % 
 2019-01-22 12:14:51  22 C   32 % 
 2019-01-22 11:55:38  22 C   32 % 
 2019-01-22 11:36:15  22 C   32 % 
 2019-01-22 11:16:57  22 C   32 % 
 2019-01-22 10:37:57  23 C   32 % 
 2019-01-22 09:57:57  23 C   32 % 
 2019-01-22 09:28:59  23 C   33 % 
 2019-01-22 09:09:41  23 C   33 % 
 2019-01-22 08:40:45  23 C   32 % 
 2019-01-22 08:02:21  23 C   33 % 
 2019-01-22 04:18:50  23 C   33 % 
 2019-01-22 03:40:21  24 C   32 % 
 2019-01-22 03:30:44  24 C   32 % 
 2019-01-22 02:42:32  24 C   32 % 
 2019-01-22 02:23:30  24 C   32 % 
 2019-01-22 01:24:46  24 C   32 % 
 2019-01-22 00:55:39  24 C   32 % 
 2019-01-22 00:17:04  24 C   32 % 
 2019-01-22 00:07:28  24 C   32 % 
 2019-01-21 23:57:52  25 C   32 % 
 2019-01-21 23:48:16  25 C   32 % 
 2019-01-21 23:38:39  25 C   32 % 
 2019-01-21 23:29:02  25 C   32 % 
 2019-01-21 23:09:49  24 C   32 % 
 2019-01-21 23:00:13  24 C   33 % 
 2019-01-21 22:50:37  24 C   33 % 
 2019-01-21 22:40:59  24 C   33 % 
 2019-01-21 22:31:16  24 C   33 % 
 2019-01-21 22:21:39  25 C   32 % 
 2019-01-21 22:12:04  25 C   32 % 
 2019-01-21 22:02:25  25 C   33 % 
 2019-01-21 21:43:15  25 C   33 % 
 2019-01-21 21:33:41  25 C   33 % 
 2019-01-21 21:13:59  25 C   35 % 
 2019-01-21 21:04:22  25 C   34 % 
 2019-01-21 20:54:46  25 C   34 % 
 2019-01-21 20:45:09  25 C   33 % 
 2019-01-21 20:35:34  24 C   32 % 
 2019-01-21 20:16:16  24 C   33 % 
 2019-01-21 20:06:41  24 C   33 % 
 2019-01-21 19:37:32  24 C   33 % 
 2019-01-21 19:18:14  24 C   34 % 
 2019-01-21 19:08:39  24 C   34 % 
 2019-01-21 18:59:00  24 C   34 % 
 2019-01-21 18:49:25  24 C   34 % 
 2019-01-21 18:39:47  24 C   34 % 
 2019-01-21 18:20:28  24 C   34 % 
 2019-01-21 18:10:50  24 C   34 % 
 2019-01-21 18:01:12  24 C   34 % 
 2019-01-21 17:42:01  25 C   34 % 
 2019-01-21 17:32:23  25 C   34 % 
 2019-01-21 17:03:33  27 C   31 % 
 2019-01-21 16:53:51  28 C   29 % 
 2019-01-21 16:33:53  24 C   38 % 
 2019-01-21 15:45:13  23 C   36 % 
 2019-01-21 15:35:37  23 C   36 % 
 2019-01-21 15:26:01  23 C   36 % 
 2019-01-21 15:06:22  23 C   37 % 
 2019-01-21 14:56:46  23 C   37 % 
 2019-01-21 14:47:09  23 C   37 % 
 2019-01-21 14:27:55  23 C   38 % 
 2019-01-21 14:18:17  23 C   37 % 
 2019-01-21 13:59:06  23 C   37 % 
 2019-01-21 13:39:05  23 C   36 % 
 2019-01-21 13:19:55  23 C   34 % 
 2019-01-21 13:00:46  23 C   33 % 
 2019-01-21 12:50:35  23 C   33 % 
 2019-01-21 12:02:33  23 C   33 % 
 2019-01-21 11:33:17  23 C   33 % 
 2019-01-21 11:13:46  23 C   33 % 
 2019-01-21 09:47:13  23 C   33 % 
 2019-01-21 09:37:24  23 C   33 % 
 2019-01-21 09:27:49  23 C   33 % 
 2019-01-21 08:58:57  23 C   33 % 
 2019-01-21 07:51:34  23 C   34 % 
 2019-01-21 07:31:44  22 C   35 % 
 2019-01-21 03:40:00  23 C   33 % 
 2019-01-21 02:22:53  23 C   34 % 
 2019-01-21 01:05:02  23 C   35 % 
 2019-01-21 00:07:20  23 C   35 % 
 2019-01-20 23:28:49  23 C   35 % 
 2019-01-20 23:19:20  23 C   35 % 
 2019-01-20 21:02:20  23 C   43 % 
 2019-01-20 15:43:01  23 C   30 % 
 2019-01-20 04:36:02  23 C   33 % 
 2019-01-20 04:16:13  23 C   33 % 
 2019-01-20 03:46:39  23 C   33 % 
 2019-01-20 02:07:59  23 C   33 % 
 2019-01-20 01:09:55  23 C   32 % 
 2019-01-20 00:50:43  23 C   32 % 
 2019-01-20 00:31:21  24 C   33 % 
 2019-01-20 00:01:54  24 C   32 % 
 2019-01-19 23:23:14  24 C   32 % 
 2019-01-19 22:25:22  24 C   32 % 
 2019-01-19 22:15:46  24 C   32 % 
 2019-01-19 22:06:08  24 C   32 % 
 2019-01-19 20:26:36  24 C   33 % 
 2019-01-19 20:07:22  24 C   33 % 
 2019-01-19 19:57:41  24 C   33 % 
 2019-01-19 19:48:04  24 C   32 % 
 2019-01-19 18:59:16  23 C   33 % 
 2019-01-19 18:29:59  23 C   33 % 
 2019-01-19 15:56:00  22 C   34 % 
 2019-01-19 15:36:19  22 C   35 % 
 2019-01-19 14:28:45  22 C   33 % 
 2019-01-19 14:19:08  22 C   33 % 
 2019-01-19 13:59:59  22 C   33 % 
 2019-01-19 08:59:12  21 C   32 % 
 2019-01-19 04:20:04  22 C   32 % 
 2019-01-19 04:10:30  23 C   32 % 
 2019-01-19 01:55:47  23 C   32 % 
 2019-01-19 01:36:01  23 C   32 % 
 2019-01-19 00:57:33  23 C   32 % 
 2019-01-18 22:13:39  23 C   33 % 
 2019-01-18 22:03:47  23 C   33 % 
 2019-01-18 21:34:18  23 C   34 % 
 2019-01-18 21:05:23  22 C   33 % 
 2019-01-18 18:30:59  22 C   33 % 
 2019-01-18 13:41:28  22 C   32 % 
 2019-01-18 11:55:25  23 C   32 % 
 2019-01-18 10:47:28  22 C   33 % 
 2019-01-18 10:28:14  23 C   33 % 
 2019-01-18 10:18:23  23 C   33 % 
 2019-01-18 10:08:50  23 C   34 % 
 2019-01-18 09:59:07  22 C   35 % 
 2019-01-18 09:30:15  22 C   32 % 
 2019-01-18 09:10:34  22 C   32 % 
 2019-01-18 08:51:15  22 C   32 % 
 2019-01-18 04:20:03  22 C   33 % 
 2019-01-18 04:10:18  22 C   33 % 
 2019-01-18 04:00:44  22 C   33 % 
 2019-01-18 03:41:24  22 C   33 % 
 2019-01-18 02:14:37  23 C   32 % 
 2019-01-18 01:16:34  23 C   33 % 
 2019-01-18 01:06:47  23 C   33 % 
 2019-01-18 00:57:12  23 C   33 % 
 2019-01-18 00:37:52  23 C   33 % 
 2019-01-18 00:17:53  23 C   32 % 
 2019-01-18 00:08:14  23 C   32 % 
 2019-01-17 23:58:36  23 C   32 % 
 2019-01-17 23:49:00  23 C   32 % 
 2019-01-17 23:20:06  23 C   33 % 
 2019-01-17 23:10:31  23 C   33 % 
 2019-01-17 23:00:53  23 C   33 % 
 2019-01-17 22:41:41  24 C   33 % 
 2019-01-17 22:22:16  23 C   33 % 
 2019-01-17 22:02:34  23 C   33 % 
 2019-01-17 21:53:01  23 C   34 % 
 2019-01-17 21:23:29  23 C   33 % 
 2019-01-17 20:44:55  23 C   34 % 
 2019-01-17 20:35:26  23 C   33 % 
 2019-01-17 20:25:24  23 C   33 % 
 2019-01-17 20:15:49  23 C   33 % 
 2019-01-17 20:06:10  23 C   33 % 
 2019-01-17 19:56:34  23 C   33 % 
 2019-01-17 19:46:55  23 C   34 % 
 2019-01-17 19:37:16  23 C   34 % 
 2019-01-17 19:18:03  23 C   34 % 
 2019-01-17 18:58:47  23 C   35 % 
 2019-01-17 18:49:09  23 C   35 % 
 2019-01-17 18:39:26  23 C   36 % 
 2019-01-17 18:20:11  23 C   37 % 
 2019-01-17 18:10:28  23 C   40 % 
 2019-01-17 17:01:46  23 C   34 % 
 2019-01-17 12:49:57  23 C   33 % 
 2019-01-17 12:30:08  23 C   34 % 
 2019-01-17 11:11:55  23 C   38 % 
 2019-01-17 10:41:45  23 C   34 % 
 2019-01-17 09:43:31  23 C   33 % 
 2019-01-17 09:33:48  23 C   33 % 
 2019-01-17 08:35:17  23 C   34 % 
 2019-01-17 07:56:45  23 C   35 % 
 2019-01-17 02:38:27  23 C   36 % 
 2019-01-17 02:28:39  23 C   36 % 
 2019-01-17 00:02:14  24 C   35 % 
 2019-01-16 23:33:20  24 C   35 % 
 2019-01-16 23:23:49  24 C   35 % 
 2019-01-16 22:53:29  24 C   35 % 
 2019-01-16 22:15:00  24 C   35 % 
 2019-01-16 21:26:45  24 C   35 % 
 2019-01-16 20:57:22  24 C   35 % 
 2019-01-16 20:28:15  24 C   35 % 
 2019-01-16 19:20:05  24 C   34 % 
 2019-01-16 19:00:49  24 C   35 % 
 2019-01-16 18:31:45  24 C   36 % 
 2019-01-16 17:52:21  23 C   37 % 
 2019-01-16 17:42:44  23 C   37 % 
 2019-01-16 17:23:35  23 C   38 % 
 2019-01-16 17:13:49  23 C   39 % 
 2019-01-16 16:54:27  23 C   38 % 
 2019-01-16 16:35:17  23 C   36 % 
 2019-01-16 16:15:47  23 C   36 % 
 2019-01-16 15:56:31  23 C   37 % 
 2019-01-16 14:58:28  23 C   37 % 
 2019-01-16 12:31:53  23 C   36 % 
 2019-01-16 12:22:18  23 C   36 % 
 2019-01-16 11:52:55  23 C   35 % 
 2019-01-16 11:33:29  23 C   36 % 
 2019-01-16 11:04:40  23 C   35 % 
 2019-01-16 10:55:06  23 C   34 % 
 2019-01-16 10:35:45  23 C   35 % 
 2019-01-16 10:16:11  23 C   35 % 
 2019-01-16 10:06:33  23 C   35 % 
 2019-01-16 08:57:09  24 C   36 % 
 2019-01-16 08:37:52  24 C   36 % 
 2019-01-16 08:28:13  24 C   36 % 
 2019-01-16 07:38:37  23 C   37 % 
 2019-01-16 06:31:14  23 C   36 % 
 2019-01-16 05:23:20  23 C   36 % 
 2019-01-16 05:13:33  23 C   36 % 
 2019-01-16 05:04:02  24 C   36 % 
 2019-01-16 04:24:24  24 C   35 % 
 2019-01-16 04:14:43  24 C   35 % 
 2019-01-16 04:05:13  24 C   35 % 
 2019-01-16 03:45:40  24 C   35 % 
 2019-01-16 03:25:52  24 C   34 % 
 2019-01-16 03:06:38  24 C   35 % 
 2019-01-16 02:37:28  24 C   35 % 
 2019-01-16 02:27:24  24 C   35 % 
 2019-01-16 02:07:45  24 C   35 % 
 2019-01-16 01:58:09  24 C   35 % 
 2019-01-16 01:48:34  24 C   35 % 
 2019-01-16 01:38:51  24 C   35 % 
 2019-01-16 01:29:00  24 C   35 % 
 2019-01-16 01:19:31  24 C   35 % 
 2019-01-16 01:09:27  24 C   35 % 
 2019-01-16 00:59:51  24 C   35 % 
 2019-01-16 00:50:10  24 C   35 % 
 2019-01-16 00:40:33  24 C   35 % 
 2019-01-16 00:30:58  24 C   35 % 
 2019-01-16 00:21:17  24 C   35 % 
 2019-01-16 00:11:41  24 C   35 % 
 2019-01-16 00:02:07  24 C   35 % 
 2019-01-15 23:52:25  24 C   35 % 
 2019-01-15 23:32:43  24 C   36 % 
 2019-01-15 23:23:03  24 C   36 % 
 2019-01-15 23:13:28  24 C   36 % 
 2019-01-15 23:03:49  24 C   36 % 
 2019-01-15 22:54:12  24 C   36 % 
 2019-01-15 22:44:36  24 C   36 % 
 2019-01-15 22:35:05  24 C   36 % 
 2019-01-15 22:05:55  24 C   36 % 
 2019-01-15 21:55:51  24 C   36 % 
 2019-01-15 21:46:15  25 C   36 % 
 2019-01-15 21:26:58  25 C   36 % 
 2019-01-15 21:07:46  25 C   36 % 
 2019-01-15 20:48:30  25 C   36 % 
 2019-01-15 20:38:50  25 C   36 % 
 2019-01-15 19:59:56  25 C   38 % 
 2019-01-15 19:10:55  24 C   40 % 
 2019-01-15 18:41:46  24 C   42 % 
 2019-01-15 18:22:29  24 C   38 % 
 2019-01-15 18:12:51  24 C   38 % 
 2019-01-15 18:03:09  24 C   39 % 
 2019-01-15 17:53:33  24 C   38 % 
 2019-01-15 17:34:18  24 C   38 % 
 2019-01-15 17:24:42  24 C   37 % 
 2019-01-15 17:15:09  24 C   38 % 
 2019-01-15 17:05:26  24 C   38 % 
 2019-01-15 16:55:39  24 C   38 % 
 2019-01-15 16:45:59  24 C   38 % 
 2019-01-15 16:36:20  24 C   38 % 
 2019-01-15 16:17:13  24 C   38 % 
 2019-01-15 16:07:16  24 C   38 % 
 2019-01-15 15:57:40  24 C   38 % 
 2019-01-15 15:48:06  24 C   38 % 
 2019-01-15 15:38:25  24 C   38 % 
 2019-01-15 15:19:11  24 C   38 % 
 2019-01-15 15:00:01  24 C   38 % 
 2019-01-15 14:40:42  24 C   38 % 
 2019-01-15 14:31:07  24 C   38 % 
 2019-01-15 14:21:28  24 C   38 % 
 2019-01-15 13:42:19  24 C   39 % 
 2019-01-15 13:32:44  24 C   39 % 
 2019-01-15 13:23:04  24 C   40 % 
 2019-01-15 13:13:29  24 C   39 % 
 2019-01-15 13:03:49  24 C   39 % 
 2019-01-15 12:54:12  24 C   39 % 
 2019-01-15 12:44:37  24 C   38 % 
 2019-01-15 12:35:01  24 C   38 % 
 2019-01-15 12:25:13  24 C   38 % 
 2019-01-15 12:06:01  24 C   39 % 
 2019-01-15 11:56:23  24 C   38 % 
 2019-01-15 11:46:42  24 C   39 % 
 2019-01-15 11:37:04  24 C   38 % 
 2019-01-15 11:17:55  24 C   38 % 
 2019-01-15 10:58:22  24 C   37 % 
 2019-01-15 10:38:25  24 C   38 % 
 2019-01-15 10:28:47  24 C   38 % 
 2019-01-15 10:09:35  24 C   38 % 
 2019-01-15 09:59:54  24 C   37 % 
 2019-01-15 09:50:16  24 C   37 % 
 2019-01-15 09:40:39  23 C   37 % 
 2019-01-15 09:31:00  23 C   37 % 
 2019-01-15 09:21:24  23 C   37 % 
 2019-01-15 08:51:46  23 C   37 % 
 2019-01-15 08:42:09  23 C   37 % 
 2019-01-15 08:22:57  23 C   38 % 
 2019-01-15 08:13:15  23 C   38 % 
 2019-01-15 08:03:48  23 C   40 % 
 2019-01-15 07:44:00  23 C   40 % 
 2019-01-15 07:34:04  23 C   39 % 
 2019-01-15 07:24:17  23 C   39 % 
 2019-01-15 07:04:40  23 C   37 % 
 2019-01-15 06:45:22  23 C   37 % 
 2019-01-15 05:38:00  23 C   37 % 
 2019-01-15 05:18:38  23 C   37 % 
 2019-01-15 05:09:04  23 C   37 % 
 2019-01-15 04:59:23  23 C   37 % 
 2019-01-15 04:39:39  23 C   37 % 
 2019-01-15 04:29:59  23 C   37 % 
 2019-01-15 04:20:22  23 C   37 % 
 2019-01-15 04:10:46  23 C   37 % 
 2019-01-15 03:41:47  24 C   37 % 
 2019-01-15 03:31:59  24 C   37 % 
 2019-01-15 03:02:24  24 C   36 % 
 2019-01-15 02:52:59  24 C   35 % 
 2019-01-15 02:42:45  24 C   35 % 
 2019-01-15 02:33:06  24 C   35 % 
 2019-01-15 02:23:28  24 C   35 % 
 2019-01-15 02:13:51  24 C   35 % 
 2019-01-15 02:04:09  24 C   35 % 
 2019-01-15 01:54:31  24 C   35 % 
 2019-01-15 01:44:56  24 C   35 % 
 2019-01-15 01:35:16  24 C   35 % 
 2019-01-15 01:25:39  24 C   34 % 
 2019-01-15 01:16:01  24 C   34 % 
 2019-01-15 00:56:44  24 C   34 % 
 2019-01-15 00:47:06  24 C   34 % 
 2019-01-15 00:37:29  24 C   34 % 
 2019-01-15 00:18:14  24 C   34 % 
 2019-01-15 00:08:34  24 C   34 % 
 2019-01-14 23:58:56  24 C   34 % 
 2019-01-14 23:49:21  24 C   34 % 
 2019-01-14 23:30:04  24 C   34 % 
 2019-01-14 23:20:29  24 C   33 % 
 2019-01-14 23:01:13  23 C   32 % 
 2019-01-14 22:31:52  24 C   36 % 
 2019-01-14 22:22:16  24 C   36 % 
 2019-01-14 22:12:39  24 C   36 % 
 2019-01-14 21:53:24  24 C   35 % 
 2019-01-14 21:33:42  24 C   34 % 
 2019-01-14 21:14:00  24 C   33 % 
 2019-01-14 21:04:24  24 C   33 % 
 2019-01-14 20:35:30  24 C   34 % 
 2019-01-14 20:25:54  24 C   34 % 
 2019-01-14 20:16:09  24 C   33 % 
 2019-01-14 20:06:29  24 C   33 % 
 2019-01-14 19:56:54  24 C   34 % 
 2019-01-14 19:37:37  25 C   40 % 
 2019-01-14 19:27:58  24 C   38 % 
 2019-01-14 19:18:21  24 C   37 % 
 2019-01-14 18:39:50  24 C   38 % 
 2019-01-14 18:30:13  24 C   38 % 
 2019-01-14 18:20:34  24 C   41 % 
 2019-01-14 18:01:19  24 C   36 % 
 2019-01-14 17:51:43  24 C   35 % 
 2019-01-14 17:42:06  24 C   36 % 
 2019-01-14 17:32:32  24 C   36 % 
 2019-01-14 17:22:56  24 C   36 % 
 2019-01-14 16:53:18  24 C   37 % 
 2019-01-14 16:34:00  24 C   36 % 
 2019-01-14 16:24:19  24 C   36 % 
 2019-01-14 15:45:48  23 C   36 % 
 2019-01-14 14:37:29  23 C   36 % 
 2019-01-14 13:58:28  23 C   37 % 
 2019-01-14 13:00:31  23 C   37 % 
 2019-01-14 12:50:55  23 C   37 % 
 2019-01-14 12:41:13  23 C   36 % 
 2019-01-14 11:43:25  23 C   33 % 
 2019-01-14 11:13:38  23 C   34 % 
 2019-01-14 10:44:33  23 C   37 % 
 2019-01-14 10:34:55  23 C   34 % 
 2019-01-14 10:05:33  23 C   35 % 
 2019-01-14 09:46:19  23 C   37 % 
 2019-01-14 09:27:03  23 C   35 % 
 2019-01-14 08:58:05  23 C   35 % 
 2019-01-14 08:09:16  23 C   33 % 
 2019-01-14 07:59:27  23 C   34 % 
 2019-01-14 07:40:17  23 C   36 % 
 2019-01-14 07:20:53  23 C   36 % 
 2019-01-14 07:11:15  23 C   35 % 
 2019-01-14 06:13:12  23 C   33 % 
 2019-01-14 05:53:59  23 C   32 % 
 2019-01-14 05:44:29  24 C   32 % 
 2019-01-14 05:34:32  24 C   32 % 
 2019-01-14 05:24:47  24 C   33 % 
 2019-01-14 05:15:05  24 C   34 % 
 2019-01-14 05:05:23  24 C   36 % 
 2019-01-14 04:55:47  24 C   36 % 
 2019-01-14 04:46:07  24 C   36 % 
 2019-01-14 04:26:53  24 C   36 % 
 2019-01-14 04:17:17  24 C   36 % 
 2019-01-14 04:07:46  24 C   36 % 
 2019-01-14 03:28:58  24 C   35 % 
 2019-01-14 03:19:20  24 C   35 % 
 2019-01-14 03:09:42  24 C   36 % 
 2019-01-14 03:00:15  24 C   36 % 
 2019-01-14 02:50:04  24 C   36 % 
 2019-01-14 02:40:31  24 C   36 % 
 2019-01-14 02:30:46  24 C   36 % 
 2019-01-14 02:10:48  24 C   35 % 
 2019-01-14 02:01:14  24 C   35 % 
 2019-01-14 01:51:35  25 C   35 % 
 2019-01-14 01:42:03  25 C   35 % 
 2019-01-14 01:32:06  25 C   35 % 
 2019-01-14 01:22:31  25 C   35 % 
 2019-01-14 01:12:55  25 C   34 % 
 2019-01-14 01:03:14  25 C   34 % 
 2019-01-14 00:53:37  25 C   34 % 
 2019-01-14 00:44:00  25 C   34 % 
 2019-01-14 00:34:24  25 C   34 % 
 2019-01-14 00:24:46  24 C   35 % 
 2019-01-14 00:05:36  24 C   35 % 
 2019-01-13 23:55:57  24 C   35 % 
 2019-01-13 23:46:25  25 C   35 % 
 2019-01-13 23:36:33  25 C   35 % 
 2019-01-13 23:26:56  25 C   33 % 
 2019-01-13 23:17:20  25 C   31 % 
 2019-01-13 23:07:45  25 C   37 % 
 2019-01-13 22:58:08  25 C   34 % 
 2019-01-13 22:48:33  25 C   31 % 
 2019-01-13 22:38:58  25 C   28 % 
 2019-01-13 22:29:12  26 C   39 % 
 2019-01-13 22:19:37  26 C   39 % 
 2019-01-13 22:00:20  26 C   39 % 
 2019-01-13 21:50:43  26 C   41 % 
 2019-01-13 21:41:07  26 C   42 % 
 2019-01-13 21:31:30  26 C   41 % 
 2019-01-13 21:21:54  27 C   41 % 
 2019-01-13 21:12:18  27 C   40 % 
 2019-01-13 21:02:41  27 C   39 % 
 2019-01-13 20:53:07  27 C   37 % 
 2019-01-13 20:43:27  27 C   37 % 
 2019-01-13 20:33:51  28 C   36 % 
 2019-01-13 20:24:15  28 C   36 % 
 2019-01-13 20:14:40  28 C   36 % 
 2019-01-13 20:05:05  29 C   35 % 
 2019-01-13 19:55:26  30 C   33 % 
 2019-01-13 19:07:09  24 C   40 % 
 2019-01-13 18:47:33  24 C   40 % 
 2019-01-13 17:29:13  23 C   38 % 
 2019-01-13 17:19:32  23 C   37 % 
 2019-01-13 17:09:57  23 C   35 % 
 2019-01-13 16:11:06  23 C   40 % 
 2019-01-13 15:11:47  23 C   41 % 
 2019-01-13 15:02:10  23 C   39 % 
 2019-01-13 14:42:57  22 C   41 % 
 2019-01-13 14:33:15  22 C   43 % 
 2019-01-13 13:05:56  22 C   38 % 
 2019-01-13 12:27:37  22 C   38 % 
 2019-01-13 12:17:15  22 C   38 % 
 2019-01-13 11:57:39  22 C   38 % 
 2019-01-13 11:37:44  22 C   36 % 
 2019-01-13 10:39:39  22 C   37 % 
 2019-01-13 08:52:29  22 C   34 % 
 2019-01-13 08:42:49  22 C   34 % 
 2019-01-13 07:44:25  22 C   33 % 
 2019-01-13 07:34:45  22 C   33 % 
 2019-01-13 07:04:57  22 C   33 % 
 2019-01-13 06:55:19  22 C   33 % 
 2019-01-13 06:36:05  22 C   33 % 
 2019-01-13 05:28:08  23 C   33 % 
 2019-01-13 04:40:01  23 C   32 % 
 2019-01-13 04:20:51  23 C   32 % 
 2019-01-13 03:41:57  23 C   32 % 
 2019-01-13 03:32:21  23 C   32 % 
 2019-01-13 01:14:36  23 C   33 % 
 2019-01-13 00:36:04  23 C   33 % 
 2019-01-13 00:16:24  23 C   33 % 
 2019-01-13 00:06:33  23 C   33 % 
 2019-01-12 23:56:57  24 C   33 % 
 2019-01-12 23:47:22  24 C   33 % 
 2019-01-12 23:37:46  24 C   33 % 
 2019-01-12 22:39:46  23 C   34 % 
 2019-01-12 20:51:46  23 C   34 % 
 2019-01-12 20:21:35  23 C   35 % 
 2019-01-12 20:12:00  23 C   35 % 
 2019-01-12 19:42:37  23 C   35 % 
 2019-01-12 18:15:16  23 C   35 % 
 2019-01-12 18:05:35  23 C   36 % 
 2019-01-12 17:46:27  23 C   36 % 
 2019-01-12 16:28:25  23 C   38 % 
 2019-01-12 15:48:50  23 C   37 % 
 2019-01-12 15:39:09  23 C   37 % 
 2019-01-12 14:20:31  23 C   40 % 
 2019-01-12 14:10:54  23 C   39 % 
 2019-01-12 14:01:16  23 C   40 % 
 2019-01-12 13:51:40  23 C   38 % 
 2019-01-12 13:42:04  23 C   36 % 
 2019-01-12 13:32:29  23 C   36 % 
 2019-01-12 13:13:12  23 C   36 % 
 2019-01-12 13:03:36  23 C   36 % 
 2019-01-12 12:54:00  23 C   36 % 
 2019-01-12 12:44:21  23 C   36 % 
 2019-01-12 12:34:45  23 C   36 % 
 2019-01-12 12:25:08  23 C   36 % 
 2019-01-12 12:15:33  24 C   36 % 
 2019-01-12 12:05:57  24 C   36 % 
 2019-01-12 11:56:23  24 C   36 % 
 2019-01-12 11:46:48  24 C   35 % 
 2019-01-12 10:58:14  23 C   41 % 
 2019-01-12 10:48:42  22 C   40 % 
 2019-01-12 10:38:51  22 C   41 % 
 2019-01-12 10:19:36  22 C   35 % 
 2019-01-12 10:00:18  22 C   35 % 
 2019-01-12 09:50:42  22 C   35 % 
 2019-01-12 09:41:11  22 C   35 % 
 2019-01-12 09:31:19  22 C   35 % 
 2019-01-12 09:21:42  22 C   35 % 
 2019-01-12 09:12:04  22 C   35 % 
 2019-01-12 09:02:29  22 C   35 % 
 2019-01-12 08:52:50  22 C   35 % 
 2019-01-12 08:43:12  22 C   35 % 
 2019-01-12 08:33:35  22 C   35 % 
 2019-01-12 08:23:58  22 C   35 % 
 2019-01-12 08:14:22  22 C   35 % 
 2019-01-12 08:04:45  22 C   35 % 
 2019-01-12 07:55:08  22 C   35 % 
 2019-01-12 07:45:32  22 C   35 % 
 2019-01-12 07:35:55  22 C   35 % 
 2019-01-12 07:26:19  22 C   35 % 
 2019-01-12 07:16:41  23 C   35 % 
 2019-01-12 07:07:06  22 C   35 % 
 2019-01-12 06:57:29  23 C   35 % 
 2019-01-12 06:47:52  23 C   35 % 
 2019-01-12 06:38:15  23 C   35 % 
 2019-01-12 06:28:39  23 C   35 % 
 2019-01-12 06:19:02  23 C   35 % 
 2019-01-12 06:09:25  23 C   35 % 
 2019-01-12 05:59:47  23 C   35 % 
 2019-01-12 05:50:12  23 C   35 % 
 2019-01-12 05:21:14  23 C   34 % 
 2019-01-12 05:11:38  23 C   34 % 
 2019-01-12 05:02:01  23 C   35 % 
 2019-01-12 04:52:25  23 C   34 % 
 2019-01-12 04:42:48  23 C   34 % 
 2019-01-12 04:33:11  23 C   34 % 
 2019-01-12 04:23:34  23 C   34 % 
 2019-01-12 04:13:58  23 C   34 % 
 2019-01-12 04:04:21  23 C   34 % 
 2019-01-12 03:54:45  23 C   34 % 
 2019-01-12 03:34:51  23 C   34 % 
 2019-01-12 03:25:14  23 C   34 % 
 2019-01-12 03:15:38  23 C   34 % 
 2019-01-12 03:06:01  24 C   34 % 
 2019-01-12 02:56:26  24 C   35 % 
 2019-01-12 02:46:54  24 C   35 % 
 2019-01-12 02:37:01  23 C   35 % 
 2019-01-12 02:27:25  23 C   35 % 
 2019-01-12 02:17:48  23 C   35 % 
 2019-01-12 02:08:12  23 C   36 % 
 2019-01-12 01:58:35  24 C   36 % 
 2019-01-12 01:48:59  24 C   36 % 
 2019-01-12 01:39:24  24 C   36 % 
 2019-01-12 01:29:46  24 C   36 % 
 2019-01-12 01:20:11  24 C   36 % 
 2019-01-12 01:10:33  24 C   36 % 
 2019-01-12 01:00:56  24 C   36 % 
 2019-01-12 00:51:19  24 C   36 % 
 2019-01-12 00:41:43  24 C   37 % 
 2019-01-12 00:32:07  24 C   37 % 
 2019-01-12 00:22:30  24 C   37 % 
 2019-01-12 00:12:53  24 C   37 % 
 2019-01-12 00:03:10  24 C   37 % 
 2019-01-11 23:53:33  24 C   37 % 
 2019-01-11 23:43:58  24 C   37 % 
 2019-01-11 23:34:21  24 C   37 % 
 2019-01-11 23:24:45  24 C   38 % 
 2019-01-11 23:05:27  24 C   37 % 
 2019-01-11 22:55:51  24 C   36 % 
 2019-01-11 22:46:19  24 C   36 % 
 2019-01-11 22:36:29  24 C   36 % 
 2019-01-11 22:17:13  24 C   37 % 
 2019-01-11 22:07:36  24 C   36 % 
 2019-01-11 21:48:03  24 C   37 % 
 2019-01-11 21:38:24  24 C   37 % 
 2019-01-11 21:19:11  24 C   38 % 
 2019-01-11 21:09:26  24 C   39 % 
 2019-01-11 20:59:50  24 C   37 % 
 2019-01-11 20:50:13  24 C   36 % 
 2019-01-11 20:40:37  24 C   36 % 
 2019-01-11 20:31:00  24 C   36 % 
 2019-01-11 20:02:07  23 C   37 % 
 2019-01-11 19:52:31  23 C   37 % 
 2019-01-11 19:42:55  23 C   38 % 
 2019-01-11 19:33:17  23 C   38 % 
 2019-01-11 19:14:04  23 C   37 % 
 2019-01-11 19:04:29  23 C   37 % 
 2019-01-11 18:54:53  23 C   37 % 
 2019-01-11 18:34:57  23 C   38 % 
 2019-01-11 18:25:21  23 C   38 % 
 2019-01-11 18:15:48  23 C   38 % 
 2019-01-11 18:06:03  23 C   39 % 
 2019-01-11 17:56:27  23 C   39 % 
 2019-01-11 17:46:51  23 C   39 % 
 2019-01-11 17:37:13  23 C   39 % 
 2019-01-11 17:27:37  23 C   39 % 
 2019-01-11 17:18:00  23 C   40 % 
 2019-01-11 17:08:22  23 C   40 % 
 2019-01-11 16:58:46  23 C   40 % 
 2019-01-11 16:49:09  23 C   40 % 
 2019-01-11 16:39:34  23 C   40 % 
 2019-01-11 16:29:57  23 C   39 % 
 2019-01-11 16:20:21  23 C   39 % 
 2019-01-11 16:10:49  23 C   39 % 
 2019-01-11 16:01:08  23 C   38 % 
 2019-01-11 15:41:20  23 C   38 % 
 2019-01-11 15:31:38  23 C   37 % 
 2019-01-11 15:22:03  23 C   38 % 
 2019-01-11 15:12:25  23 C   38 % 
 2019-01-11 15:02:54  23 C   38 % 
 2019-01-11 14:53:04  23 C   38 % 
 2019-01-11 14:43:28  23 C   38 % 
 2019-01-11 14:33:50  23 C   38 % 
 2019-01-11 14:24:13  23 C   38 % 
 2019-01-11 14:14:36  23 C   38 % 
 2019-01-11 14:05:00  23 C   38 % 
 2019-01-11 13:55:23  23 C   38 % 
 2019-01-11 13:45:47  22 C   39 % 
 2019-01-11 13:36:11  22 C   39 % 
 2019-01-11 13:26:34  22 C   39 % 
 2019-01-11 13:16:58  22 C   39 % 
 2019-01-11 13:07:21  22 C   39 % 
 2019-01-11 12:57:46  22 C   39 % 
 2019-01-11 12:48:16  22 C   38 % 
 2019-01-11 12:38:20  22 C   38 % 
 2019-01-11 12:28:42  22 C   38 % 
 2019-01-11 12:19:05  22 C   38 % 
 2019-01-11 12:09:28  22 C   38 % 
 2019-01-11 11:59:53  22 C   36 % 
 2019-01-11 11:50:15  22 C   39 % 
 2019-01-11 11:40:38  22 C   39 % 
 2019-01-11 11:31:02  22 C   38 % 
 2019-01-11 11:21:25  22 C   38 % 
 2019-01-11 11:11:48  22 C   38 % 
 2019-01-11 11:02:12  22 C   38 % 
 2019-01-11 10:52:35  22 C   38 % 
 2019-01-11 10:42:59  22 C   38 % 
 2019-01-11 10:33:23  22 C   37 % 
 2019-01-11 10:23:46  22 C   37 % 
 2019-01-11 10:14:10  22 C   37 % 
 2019-01-11 10:04:33  22 C   37 % 
 2019-01-11 09:54:57  22 C   37 % 
 2019-01-11 09:45:28  22 C   37 % 
 2019-01-11 09:35:31  22 C   37 % 
 2019-01-11 09:25:55  22 C   37 % 
 2019-01-11 09:16:18  22 C   37 % 
 2019-01-11 09:06:42  22 C   37 % 
 2019-01-11 08:57:05  22 C   37 % 
 2019-01-11 08:47:30  22 C   37 % 
 2019-01-11 08:37:53  22 C   37 % 
 2019-01-11 08:28:17  22 C   37 % 
 2019-01-11 08:18:41  22 C   37 % 
 2019-01-11 08:09:05  22 C   37 % 
 2019-01-11 07:59:28  22 C   37 % 
 2019-01-11 07:49:53  22 C   37 % 
 2019-01-11 07:40:16  22 C   37 % 
 2019-01-11 07:30:40  22 C   37 % 
 2019-01-11 07:21:03  22 C   37 % 
 2019-01-11 07:11:27  22 C   37 % 
 2019-01-11 07:01:51  22 C   37 % 
 2019-01-11 06:52:14  22 C   37 % 
 2019-01-11 06:42:38  22 C   37 % 
 2019-01-11 06:33:01  22 C   37 % 
 2019-01-11 06:23:25  22 C   37 % 
 2019-01-11 06:04:09  22 C   37 % 
 2019-01-11 05:54:34  22 C   36 % 
 2019-01-11 05:44:56  23 C   36 % 
 2019-01-11 05:35:20  23 C   36 % 
 2019-01-11 05:25:44  23 C   36 % 
 2019-01-11 05:16:07  23 C   36 % 
 2019-01-11 05:06:31  23 C   36 % 
 2019-01-11 04:56:54  23 C   36 % 
 2019-01-11 04:47:18  23 C   36 % 
 2019-01-11 04:37:42  23 C   36 % 
 2019-01-11 04:28:06  23 C   35 % 
 2019-01-11 04:18:29  23 C   35 % 
 2019-01-11 04:08:53  23 C   35 % 
 2019-01-11 03:59:16  23 C   35 % 
 2019-01-11 03:49:39  23 C   35 % 
 2019-01-11 03:40:03  23 C   35 % 
 2019-01-11 03:30:27  23 C   35 % 
 2019-01-11 03:20:51  23 C   35 % 
 2019-01-11 03:11:14  23 C   35 % 
 2019-01-11 03:01:38  23 C   35 % 
 2019-01-11 02:52:01  23 C   35 % 
 2019-01-11 02:42:24  23 C   35 % 
 2019-01-11 02:32:47  23 C   35 % 
 2019-01-11 02:23:10  23 C   35 % 
 2019-01-11 02:13:34  23 C   35 % 
 2019-01-11 02:03:58  23 C   35 % 
 2019-01-11 01:54:21  23 C   34 % 
 2019-01-11 01:44:45  23 C   34 % 
 2019-01-11 01:35:09  23 C   34 % 
 2019-01-11 01:25:32  23 C   34 % 
 2019-01-11 01:15:56  23 C   34 % 
 2019-01-11 01:06:19  23 C   34 % 
 2019-01-11 00:56:43  23 C   34 % 
 2019-01-11 00:47:06  23 C   34 % 
 2019-01-11 00:37:29  23 C   34 % 
 2019-01-11 00:27:53  23 C   34 % 
 2019-01-11 00:18:16  23 C   34 % 
 2019-01-11 00:08:40  23 C   34 % 
 2019-01-10 23:59:04  23 C   34 % 
 2019-01-10 23:49:27  23 C   34 % 
 2019-01-10 23:39:51  23 C   35 % 
 2019-01-10 23:30:15  23 C   34 % 
 2019-01-10 23:20:39  23 C   34 % 
 2019-01-10 23:11:02  23 C   34 % 
 2019-01-10 23:01:26  23 C   33 % 
 2019-01-10 22:51:53  23 C   33 % 
 2019-01-10 22:32:31  23 C   31 % 
 2019-01-10 22:22:56  23 C   31 % 
 2019-01-10 22:13:19  23 C   38 % 
 2019-01-10 22:03:42  23 C   38 % 
 2019-01-10 21:54:06  23 C   39 % 
 2019-01-10 21:44:30  23 C   39 % 
 2019-01-10 21:34:54  23 C   39 % 
 2019-01-10 21:25:17  23 C   38 % 
 2019-01-10 21:15:41  23 C   39 % 
 2019-01-10 21:06:04  23 C   38 % 
 2019-01-10 20:56:27  23 C   36 % 
 2019-01-10 20:37:04  23 C   36 % 
 2019-01-10 20:27:28  23 C   36 % 
 2019-01-10 20:17:51  23 C   36 % 
 2019-01-10 20:08:15  23 C   36 % 
 2019-01-10 19:58:38  23 C   36 % 
 2019-01-10 19:49:02  23 C   36 % 
 2019-01-10 19:39:26  23 C   36 % 
 2019-01-10 19:29:50  23 C   36 % 
 2019-01-10 19:20:12  23 C   36 % 
 2019-01-10 19:10:36  23 C   36 % 
 2019-01-10 19:00:59  23 C   35 % 
 2019-01-10 18:51:26  23 C   35 % 
 2019-01-10 18:41:44  23 C   35 % 
 2019-01-10 18:32:07  23 C   35 % 
 2019-01-10 18:22:30  23 C   35 % 
 2019-01-10 18:12:54  23 C   35 % 
 2019-01-10 18:03:18  23 C   36 % 
 2019-01-10 17:53:40  23 C   36 % 
 2019-01-10 17:44:04  23 C   36 % 
 2019-01-10 17:34:28  23 C   37 % 
 2019-01-10 17:24:53  23 C   37 % 
 2019-01-10 17:15:18  23 C   37 % 
 2019-01-10 17:05:41  23 C   38 % 
 2019-01-10 16:56:04  23 C   38 % 
 2019-01-10 16:46:28  23 C   38 % 
 2019-01-10 16:36:52  23 C   38 % 
 2019-01-10 16:27:15  23 C   36 % 
 2019-01-10 16:17:38  23 C   36 % 
 2019-01-10 16:08:01  23 C   35 % 
 2019-01-10 15:58:25  23 C   36 % 
 2019-01-10 15:48:47  23 C   36 % 
 2019-01-10 15:39:11  23 C   35 % 
 2019-01-10 15:29:34  23 C   34 % 
 2019-01-10 15:19:58  23 C   34 % 
 2019-01-10 15:10:21  23 C   33 % 
 2019-01-10 15:00:45  23 C   33 % 
 2019-01-10 14:51:13  23 C   33 % 
 2019-01-10 14:41:27  23 C   33 % 
 2019-01-10 14:31:52  23 C   33 % 
 2019-01-10 14:22:15  23 C   33 % 
 2019-01-10 14:12:39  23 C   33 % 
 2019-01-10 14:03:03  23 C   32 % 
 2019-01-10 13:34:12  23 C   32 % 
 2019-01-10 13:24:36  23 C   31 % 
 2019-01-10 13:15:05  23 C   31 % 
 2019-01-10 13:05:12  23 C   31 % 
 2019-01-10 12:55:36  22 C   30 % 
 2019-01-10 12:36:24  23 C   34 % 
 2019-01-10 12:26:48  23 C   33 % 
 2019-01-10 12:17:11  23 C   34 % 
 2019-01-10 12:07:35  23 C   34 % 
 2019-01-10 11:57:59  23 C   34 % 
 2019-01-10 11:48:22  23 C   34 % 
 2019-01-10 11:38:45  23 C   34 % 
 2019-01-10 11:29:09  23 C   34 % 
 2019-01-10 11:19:32  22 C   34 % 
 2019-01-10 11:10:03  22 C   34 % 
 2019-01-10 11:00:07  22 C   35 % 
 2019-01-10 10:50:31  22 C   35 % 
 2019-01-10 10:40:54  22 C   37 % 
 2019-01-10 10:31:18  22 C   35 % 
 2019-01-10 10:21:48  22 C   35 % 
 2019-01-10 10:11:54  22 C   36 % 
 2019-01-10 10:02:18  22 C   36 % 
 2019-01-10 09:52:43  21 C   36 % 
 2019-01-10 09:43:06  21 C   37 % 
 2019-01-10 09:33:26  21 C   38 % 
 2019-01-10 09:23:49  21 C   38 % 
 2019-01-10 09:14:12  21 C   37 % 
 2019-01-10 09:04:37  21 C   35 % 
 2019-01-10 08:54:57  21 C   35 % 
 2019-01-10 08:35:44  21 C   35 % 
 2019-01-10 08:25:59  21 C   35 % 
 2019-01-10 08:16:24  21 C   35 % 
 2019-01-10 07:57:04  21 C   35 % 
 2019-01-10 07:47:28  21 C   35 % 
 2019-01-10 07:37:50  21 C   35 % 
 2019-01-10 07:28:14  21 C   35 % 
 2019-01-10 07:18:36  21 C   35 % 
 2019-01-10 06:59:21  22 C   35 % 
 2019-01-10 06:49:44  22 C   35 % 
 2019-01-10 06:40:15  22 C   35 % 
 2019-01-10 06:30:19  22 C   35 % 
 2019-01-10 06:20:40  22 C   35 % 
 2019-01-10 06:11:04  22 C   35 % 
 2019-01-10 06:01:28  22 C   35 % 
 2019-01-10 05:42:06  22 C   35 % 
 2019-01-10 05:32:41  22 C   35 % 
 2019-01-10 05:22:15  22 C   35 % 
 2019-01-10 05:12:39  22 C   35 % 
 2019-01-10 04:53:16  22 C   35 % 
 2019-01-10 04:43:40  22 C   35 % 
 2019-01-10 04:34:06  22 C   35 % 
 2019-01-10 04:24:24  22 C   35 % 
 2019-01-10 04:14:48  22 C   35 % 
 2019-01-10 04:05:14  22 C   35 % 
 2019-01-10 03:55:25  22 C   35 % 
 2019-01-10 03:45:50  22 C   35 % 
 2019-01-10 03:36:13  22 C   35 % 
 2019-01-10 03:26:37  22 C   35 % 
 2019-01-10 03:17:01  22 C   35 % 
 2019-01-10 03:07:25  22 C   35 % 
 2019-01-10 02:57:48  22 C   35 % 
 2019-01-10 02:48:13  23 C   35 % 
 2019-01-10 02:38:36  23 C   35 % 
 2019-01-10 02:19:19  23 C   34 % 
 2019-01-10 02:09:44  23 C   34 % 
 2019-01-10 02:00:05  23 C   34 % 
 2019-01-10 01:50:29  23 C   34 % 
 2019-01-10 01:40:52  23 C   35 % 
 2019-01-10 01:31:16  23 C   35 % 
 2019-01-10 01:21:39  23 C   34 % 
 2019-01-10 01:12:03  23 C   34 % 
 2019-01-10 01:02:27  23 C   34 % 
 2019-01-10 00:52:51  23 C   34 % 
 2019-01-10 00:43:14  23 C   34 % 
 2019-01-10 00:33:38  23 C   34 % 
 2019-01-10 00:24:01  23 C   34 % 
 2019-01-10 00:14:25  23 C   34 % 
 2019-01-10 00:04:48  23 C   34 % 
 2019-01-09 23:55:12  24 C   34 % 
 2019-01-09 23:45:36  24 C   34 % 
 2019-01-09 23:35:59  24 C   33 % 
 2019-01-09 23:26:23  24 C   33 % 
 2019-01-09 23:16:47  24 C   33 % 
 2019-01-09 23:07:10  24 C   33 % 
 2019-01-09 22:57:34  24 C   33 % 
 2019-01-09 22:47:58  24 C   33 % 
 2019-01-09 22:38:21  24 C   33 % 
 2019-01-09 22:28:45  24 C   33 % 
 2019-01-09 22:19:08  24 C   33 % 
 2019-01-09 22:09:32  24 C   33 % 
 2019-01-09 21:50:18  24 C   34 % 
 2019-01-09 21:40:41  24 C   33 % 
 2019-01-09 21:31:05  24 C   33 % 
 2019-01-09 21:11:07  24 C   33 % 
 2019-01-09 21:01:31  24 C   32 % 
 2019-01-09 20:51:52  24 C   32 % 
 2019-01-09 20:42:17  24 C   33 % 
 2019-01-09 20:32:39  24 C   33 % 
 2019-01-09 20:23:02  23 C   34 % 
 2019-01-09 20:13:25  23 C   34 % 
 2019-01-09 20:03:49  23 C   34 % 
 2019-01-09 19:54:15  23 C   34 % 
 2019-01-09 19:44:37  23 C   34 % 
 2019-01-09 19:34:56  23 C   34 % 
 2019-01-09 19:25:19  23 C   34 % 
 2019-01-09 19:15:43  23 C   34 % 
 2019-01-09 19:06:05  23 C   34 % 
 2019-01-09 18:56:29  23 C   34 % 
 2019-01-09 18:46:52  23 C   34 % 
 2019-01-09 18:37:16  23 C   34 % 
 2019-01-09 18:27:39  23 C   34 % 
 2019-01-09 18:18:03  23 C   34 % 
 2019-01-09 18:08:26  23 C   34 % 
 2019-01-09 17:58:50  23 C   34 % 
 2019-01-09 17:49:14  23 C   34 % 
 2019-01-09 17:39:38  23 C   34 % 
 2019-01-09 17:30:01  23 C   34 % 
 2019-01-09 17:20:24  23 C   34 % 
 2019-01-09 17:10:48  23 C   34 % 
 2019-01-09 17:01:12  23 C   34 % 
 2019-01-09 16:41:59  23 C   34 % 
 2019-01-09 16:32:23  23 C   34 % 
 2019-01-09 16:22:44  23 C   34 % 
 2019-01-09 16:13:08  23 C   35 % 
 2019-01-09 16:03:32  22 C   35 % 
 2019-01-09 15:44:19  22 C   35 % 
 2019-01-09 15:34:43  22 C   35 % 
 2019-01-09 15:25:05  22 C   35 % 
 2019-01-09 15:15:29  22 C   35 % 
 2019-01-09 15:06:02  22 C   35 % 
 2019-01-09 14:55:55  22 C   35 % 
 2019-01-09 14:46:18  22 C   35 % 
 2019-01-09 14:36:44  22 C   35 % 
 2019-01-09 14:27:03  22 C   36 % 
 2019-01-09 14:17:24  22 C   37 % 
 2019-01-09 14:07:47  22 C   36 % 
 2019-01-09 13:38:58  22 C   36 % 
 2019-01-09 13:29:25  22 C   35 % 
 2019-01-09 13:19:36  22 C   35 % 
 2019-01-09 13:09:59  22 C   35 % 
 2019-01-09 13:00:19  22 C   35 % 
 2019-01-09 12:50:42  22 C   35 % 
 2019-01-09 12:41:05  22 C   35 % 
 2019-01-09 12:31:27  22 C   35 % 
 2019-01-09 12:02:37  22 C   35 % 
 2019-01-09 11:53:00  22 C   36 % 
 2019-01-09 11:43:21  22 C   35 % 
 2019-01-09 11:14:30  22 C   36 % 
 2019-01-09 11:04:55  22 C   36 % 
 2019-01-09 10:55:18  22 C   36 % 
 2019-01-09 10:45:41  22 C   36 % 
 2019-01-09 10:36:04  22 C   36 % 
 2019-01-09 10:26:26  22 C   36 % 
 2019-01-09 10:16:50  22 C   36 % 
 2019-01-09 10:07:12  22 C   36 % 
 2019-01-09 09:57:34  22 C   36 % 
 2019-01-09 09:47:57  22 C   36 % 
 2019-01-09 09:38:21  22 C   37 % 
 2019-01-09 09:28:44  22 C   37 % 
 2019-01-09 09:19:06  22 C   36 % 
 2019-01-09 09:09:30  22 C   35 % 
 2019-01-09 08:59:51  22 C   35 % 
 2019-01-09 08:50:15  22 C   35 % 
 2019-01-09 08:40:38  22 C   35 % 
 2019-01-09 08:31:00  22 C   35 % 
 2019-01-09 08:21:24  22 C   35 % 
 2019-01-09 08:11:47  22 C   35 % 
 2019-01-09 08:02:11  22 C   35 % 
 2019-01-09 07:52:36  22 C   35 % 
 2019-01-09 07:42:59  22 C   35 % 
 2019-01-09 07:33:22  22 C   35 % 
 2019-01-09 07:23:46  22 C   35 % 
 2019-01-09 07:14:10  22 C   35 % 
 2019-01-09 06:54:56  22 C   35 % 
 2019-01-09 06:35:42  22 C   35 % 
 2019-01-09 06:26:06  22 C   35 % 
 2019-01-09 06:16:29  22 C   35 % 
 2019-01-09 06:06:51  22 C   35 % 
 2019-01-09 05:57:15  22 C   35 % 
 2019-01-09 05:47:39  22 C   35 % 
 2019-01-09 05:38:07  22 C   35 % 
 2019-01-09 05:18:41  22 C   35 % 
 2019-01-09 05:09:05  23 C   35 % 
 2019-01-09 04:59:30  23 C   35 % 
 2019-01-09 04:49:50  23 C   35 % 
 2019-01-09 04:40:14  23 C   35 % 
 2019-01-09 04:30:37  23 C   35 % 
 2019-01-09 04:21:01  23 C   35 % 
 2019-01-09 04:11:25  23 C   35 % 
 2019-01-09 04:01:48  23 C   35 % 
 2019-01-09 03:52:11  23 C   35 % 
 2019-01-09 03:42:35  23 C   35 % 
 2019-01-09 03:32:58  23 C   35 % 
 2019-01-09 03:23:21  23 C   35 % 
 2019-01-09 03:13:44  23 C   35 % 
 2019-01-09 03:04:08  23 C   35 % 
 2019-01-09 02:54:32  23 C   35 % 
 2019-01-09 02:44:55  23 C   35 % 
 2019-01-09 02:35:18  23 C   34 % 
 2019-01-09 02:25:42  23 C   34 % 
 2019-01-09 02:16:06  23 C   34 % 
 2019-01-09 02:06:28  23 C   34 % 
 2019-01-09 01:56:52  23 C   34 % 
 2019-01-09 01:47:15  23 C   35 % 
 2019-01-09 01:37:40  23 C   34 % 
 2019-01-09 01:28:01  23 C   34 % 
 2019-01-09 01:18:25  23 C   34 % 
 2019-01-09 01:08:49  23 C   34 % 
 2019-01-09 00:59:13  23 C   34 % 
 2019-01-09 00:40:00  23 C   34 % 
 2019-01-09 00:30:24  23 C   34 % 
 2019-01-09 00:20:47  23 C   34 % 
 2019-01-09 00:11:10  23 C   34 % 
 2019-01-09 00:01:34  24 C   34 % 
 2019-01-08 23:51:58  24 C   34 % 
 2019-01-08 23:42:21  24 C   34 % 
 2019-01-08 23:32:45  24 C   34 % 
 2019-01-08 23:23:09  24 C   34 % 
 2019-01-08 23:13:32  23 C   34 % 
 2019-01-08 23:03:56  24 C   34 % 
 2019-01-08 22:54:20  24 C   34 % 
 2019-01-08 22:44:43  24 C   34 % 
 2019-01-08 22:35:06  24 C   33 % 
 2019-01-08 22:25:30  24 C   33 % 
 2019-01-08 22:15:54  24 C   33 % 
 2019-01-08 22:06:17  24 C   33 % 
 2019-01-08 21:56:40  23 C   31 % 
 2019-01-08 21:47:03  23 C   32 % 
 2019-01-08 21:37:28  23 C   34 % 
 2019-01-08 21:27:51  24 C   34 % 
 2019-01-08 21:18:14  24 C   34 % 
 2019-01-08 21:08:38  24 C   35 % 
 2019-01-08 20:59:01  23 C   35 % 
 2019-01-08 20:49:24  23 C   35 % 
 2019-01-08 20:39:49  23 C   35 % 
 2019-01-08 20:20:35  23 C   36 % 
 2019-01-08 20:11:00  23 C   36 % 
 2019-01-08 20:01:24  23 C   37 % 
 2019-01-08 19:51:45  23 C   37 % 
 2019-01-08 19:42:08  23 C   38 % 
 2019-01-08 19:32:31  23 C   38 % 
 2019-01-08 19:22:55  23 C   36 % 
 2019-01-08 19:13:18  23 C   37 % 
 2019-01-08 19:03:42  23 C   37 % 
 2019-01-08 18:54:05  23 C   37 % 
 2019-01-08 18:44:29  23 C   37 % 
 2019-01-08 18:34:53  23 C   37 % 
 2019-01-08 18:25:17  23 C   37 % 
 2019-01-08 18:15:40  23 C   37 % 
 2019-01-08 17:56:25  23 C   37 % 
 2019-01-08 17:46:49  22 C   38 % 
 2019-01-08 17:37:15  22 C   37 % 
 2019-01-08 17:27:33  22 C   38 % 
 2019-01-08 17:17:56  22 C   40 % 
 2019-01-08 17:08:21  22 C   40 % 
 2019-01-08 16:58:42  22 C   40 % 
 2019-01-08 16:49:07  23 C   40 % 
 2019-01-08 16:39:28  23 C   40 % 
 2019-01-08 16:29:51  23 C   40 % 
 2019-01-08 16:20:15  22 C   49 % 
 2019-01-08 16:10:39  21 C   37 % 
 2019-01-08 16:01:00  21 C   37 % 
 2019-01-08 15:51:24  21 C   37 % 
 2019-01-08 15:41:47  21 C   37 % 
 2019-01-08 15:32:10  21 C   37 % 
 2019-01-08 15:22:34  21 C   37 % 
 2019-01-08 15:12:57  21 C   37 % 
 2019-01-08 15:03:22  21 C   37 % 
 2019-01-08 14:53:45  21 C   37 % 
 2019-01-08 14:44:08  21 C   37 % 
 2019-01-08 14:25:01  21 C   37 % 
 2019-01-08 14:04:41  21 C   37 % 
 2019-01-08 13:55:04  21 C   38 % 
 2019-01-08 13:45:29  21 C   37 % 
 2019-01-08 13:35:52  21 C   37 % 
 2019-01-08 13:26:24  21 C   37 % 
 2019-01-08 13:16:21  21 C   37 % 
 2019-01-08 12:57:07  21 C   37 % 
 2019-01-08 12:28:08  21 C   35 % 
 2019-01-08 12:08:39  21 C   35 % 
 2019-01-08 11:59:05  21 C   35 % 
 2019-01-08 11:39:26  21 C   35 % 
 2019-01-08 11:29:51  21 C   35 % 
 2019-01-08 11:20:13  21 C   36 % 
 2019-01-08 11:10:37  21 C   36 % 
 2019-01-08 11:01:00  21 C   36 % 
 2019-01-08 10:51:25  21 C   36 % 
 2019-01-08 10:41:47  21 C   36 % 
 2019-01-08 10:32:11  21 C   36 % 
 2019-01-08 10:22:35  21 C   36 % 
 2019-01-08 10:12:59  21 C   36 % 
 2019-01-08 10:03:23  21 C   36 % 
 2019-01-08 09:53:46  21 C   36 % 
 2019-01-08 09:44:09  21 C   36 % 
 2019-01-08 09:34:33  21 C   36 % 
 2019-01-08 09:25:01  21 C   36 % 
 2019-01-08 09:15:12  22 C   36 % 
 2019-01-08 09:05:35  22 C   36 % 
 2019-01-08 08:46:28  22 C   36 % 
 2019-01-08 08:36:49  22 C   36 % 
 2019-01-08 08:27:16  22 C   36 % 
 2019-01-08 08:17:30  22 C   36 % 
 2019-01-08 08:07:54  22 C   36 % 
 2019-01-08 07:58:18  22 C   36 % 
 2019-01-08 07:48:45  22 C   36 % 
 2019-01-08 07:39:04  22 C   36 % 
 2019-01-08 07:29:30  22 C   36 % 
 2019-01-08 07:19:53  22 C   36 % 
 2019-01-08 07:10:18  22 C   36 % 
 2019-01-08 07:00:42  22 C   36 % 
 2019-01-08 06:51:08  22 C   36 % 
 2019-01-08 06:41:34  22 C   36 % 
 2019-01-08 06:31:57  22 C   36 % 
 2019-01-08 06:22:21  22 C   36 % 
 2019-01-08 06:12:46  22 C   35 % 
 2019-01-08 06:03:12  22 C   35 % 
 2019-01-08 05:53:37  22 C   35 % 
 2019-01-08 05:43:57  22 C   35 % 
 2019-01-08 05:34:23  22 C   35 % 
 2019-01-08 05:24:46  22 C   35 % 
 2019-01-08 05:15:12  22 C   35 % 
 2019-01-08 05:05:36  22 C   35 % 
 2019-01-08 04:56:00  22 C   35 % 
 2019-01-08 04:46:26  22 C   35 % 
 2019-01-08 04:36:52  22 C   35 % 
 2019-01-08 04:27:16  22 C   34 % 
 2019-01-08 04:17:42  22 C   34 % 
 2019-01-08 04:08:04  23 C   34 % 
 2019-01-08 03:58:28  23 C   34 % 
 2019-01-08 03:48:51  23 C   35 % 
 2019-01-08 03:39:16  23 C   34 % 
 2019-01-08 03:29:36  23 C   35 % 
 2019-01-08 03:20:00  23 C   35 % 
 2019-01-08 03:10:23  23 C   35 % 
 2019-01-08 02:51:02  23 C   35 % 
 2019-01-08 02:41:26  23 C   34 % 
 2019-01-08 02:31:51  23 C   34 % 
 2019-01-08 02:22:12  23 C   34 % 
 2019-01-08 02:12:36  23 C   34 % 
 2019-01-08 01:53:21  23 C   34 % 
 2019-01-08 01:43:46  23 C   34 % 
 2019-01-08 01:34:09  23 C   34 % 
 2019-01-08 01:24:33  23 C   34 % 
 2019-01-08 01:14:57  23 C   34 % 
 2019-01-08 01:05:22  23 C   34 % 
 2019-01-08 00:55:46  23 C   34 % 
 2019-01-08 00:46:03  23 C   34 % 
 2019-01-08 00:36:28  23 C   34 % 
 2019-01-08 00:26:52  23 C   34 % 
 2019-01-08 00:17:14  23 C   34 % 
 2019-01-08 00:07:37  23 C   34 % 
 2019-01-07 23:58:03  23 C   34 % 
 2019-01-07 23:48:27  23 C   34 % 
 2019-01-07 23:38:52  23 C   33 % 
 2019-01-07 23:19:25  23 C   33 % 
 2019-01-07 23:09:48  23 C   33 % 
 2019-01-07 23:00:18  23 C   32 % 
 2019-01-07 22:50:23  23 C   32 % 
 2019-01-07 22:40:49  23 C   33 % 
 2019-01-07 22:31:08  23 C   33 % 
 2019-01-07 22:21:32  23 C   33 % 
 2019-01-07 22:11:55  23 C   33 % 
 2019-01-07 22:02:19  23 C   33 % 
 2019-01-07 21:52:42  23 C   34 % 
 2019-01-07 21:43:06  23 C   34 % 
 2019-01-07 21:33:29  23 C   33 % 
 2019-01-07 21:23:53  24 C   34 % 
 2019-01-07 21:14:16  24 C   35 % 
 2019-01-07 21:04:40  24 C   34 % 
 2019-01-07 20:55:05  23 C   35 % 
 2019-01-07 20:45:25  22 C   38 % 
 2019-01-07 20:35:48  22 C   35 % 
 2019-01-07 20:26:11  22 C   35 % 
 2019-01-07 20:06:56  22 C   35 % 
 2019-01-07 19:57:19  22 C   35 % 
 2019-01-07 19:47:41  22 C   35 % 
 2019-01-07 19:38:05  22 C   35 % 
 2019-01-07 19:18:52  22 C   35 % 
 2019-01-07 19:09:12  22 C   35 % 
 2019-01-07 18:59:36  22 C   35 % 
 2019-01-07 18:50:00  22 C   35 % 
 2019-01-07 18:30:39  22 C   35 % 
 2019-01-07 18:21:02  22 C   35 % 
 2019-01-07 18:11:30  22 C   35 % 
 2019-01-07 17:42:20  22 C   35 % 
 2019-01-07 17:32:43  22 C   35 % 
 2019-01-07 17:23:06  22 C   35 % 
 2019-01-07 17:13:30  22 C   35 % 
 2019-01-07 17:03:51  22 C   35 % 
 2019-01-07 16:54:16  22 C   35 % 
 2019-01-07 16:44:48  22 C   35 % 
 2019-01-07 16:34:37  22 C   35 % 
 2019-01-07 16:25:00  22 C   35 % 
 2019-01-07 16:15:24  22 C   35 % 
 2019-01-07 16:05:47  22 C   35 % 
 2019-01-07 15:56:10  22 C   35 % 
 2019-01-07 15:36:53  22 C   35 % 
 2019-01-07 15:17:42  22 C   35 % 
 2019-01-07 15:07:56  22 C   35 % 
 2019-01-07 14:58:20  22 C   35 % 
 2019-01-07 14:09:58  22 C   35 % 
 2019-01-07 13:59:47  22 C   35 % 
 2019-01-07 13:50:20  22 C   36 % 
 2019-01-07 13:40:09  22 C   36 % 
 2019-01-07 13:20:52  21 C   36 % 
 2019-01-07 13:11:16  21 C   37 % 
 2019-01-07 13:01:40  21 C   37 % 
 2019-01-07 12:52:03  21 C   38 % 
 2019-01-07 12:42:25  21 C   38 % 
 2019-01-07 12:32:45  21 C   40 % 
 2019-01-07 12:23:10  21 C   36 % 
 2019-01-07 12:13:32  21 C   36 % 
 2019-01-07 12:03:54  21 C   36 % 
 2019-01-07 11:54:17  21 C   36 % 
 2019-01-07 11:44:41  22 C   36 % 
 2019-01-07 11:35:05  22 C   36 % 
 2019-01-07 11:25:28  22 C   36 % 
 2019-01-07 11:15:51  22 C   36 % 
 2019-01-07 11:06:12  22 C   36 % 
 2019-01-07 10:56:34  22 C   36 % 
 2019-01-07 10:47:00  22 C   36 % 
 2019-01-07 10:37:21  22 C   36 % 
 2019-01-07 10:27:43  22 C   36 % 
 2019-01-07 10:18:02  22 C   36 % 
 2019-01-07 10:08:22  22 C   35 % 
 2019-01-07 09:58:44  22 C   35 % 
 2019-01-07 09:49:06  22 C   35 % 
 2019-01-07 09:39:30  22 C   35 % 
 2019-01-07 09:29:51  22 C   35 % 
 2019-01-07 09:10:20  22 C   35 % 
 2019-01-07 08:41:09  22 C   35 % 
 2019-01-07 08:31:33  22 C   35 % 
 2019-01-07 08:21:55  22 C   35 % 
 2019-01-07 08:12:27  22 C   35 % 
 2019-01-07 08:02:22  22 C   35 % 
 2019-01-07 07:52:44  22 C   35 % 
 2019-01-07 07:43:08  22 C   35 % 
 2019-01-07 07:33:31  22 C   35 % 
 2019-01-07 07:14:16  22 C   35 % 
 2019-01-07 07:04:39  22 C   35 % 
 2019-01-07 06:55:04  22 C   35 % 
 2019-01-07 06:45:25  22 C   35 % 
 2019-01-07 06:26:01  22 C   35 % 
 2019-01-07 06:16:23  22 C   35 % 
 2019-01-07 06:06:45  22 C   35 % 
 2019-01-07 05:57:08  22 C   35 % 
 2019-01-07 05:37:52  22 C   35 % 
 2019-01-07 05:28:15  22 C   35 % 
 2019-01-07 05:18:39  22 C   36 % 
 2019-01-07 05:09:03  22 C   35 % 
 2019-01-07 04:49:46  22 C   36 % 
 2019-01-07 04:40:09  22 C   35 % 
 2019-01-07 04:30:36  22 C   35 % 
 2019-01-07 04:20:56  22 C   35 % 
 2019-01-07 04:11:23  22 C   35 % 
 2019-01-07 04:01:41  22 C   35 % 
 2019-01-07 03:52:04  22 C   35 % 
 2019-01-07 03:42:29  22 C   35 % 
 2019-01-07 03:32:38  22 C   35 % 
 2019-01-07 03:23:02  22 C   35 % 
 2019-01-07 03:13:32  22 C   35 % 
 2019-01-07 02:53:25  22 C   35 % 
 2019-01-07 02:34:09  22 C   35 % 
 2019-01-07 02:24:32  22 C   35 % 
 2019-01-07 02:14:55  22 C   35 % 
 2019-01-07 02:05:21  22 C   35 % 
 2019-01-07 01:55:39  22 C   35 % 
 2019-01-07 01:36:19  22 C   35 % 
 2019-01-07 01:26:43  22 C   35 % 
 2019-01-07 01:17:07  22 C   35 % 
 2019-01-07 01:07:30  22 C   35 % 
 2019-01-07 00:48:13  22 C   35 % 
 2019-01-07 00:38:36  22 C   35 % 
 2019-01-07 00:29:00  22 C   35 % 
 2019-01-07 00:19:24  22 C   35 % 
 2019-01-07 00:09:47  22 C   35 % 
 2019-01-07 00:00:11  22 C   35 % 
 2019-01-06 23:50:34  22 C   35 % 
 2019-01-06 23:40:54  22 C   35 % 
 2019-01-06 23:21:44  22 C   35 % 
 2019-01-06 23:12:04  22 C   35 % 
 2019-01-06 23:02:28  22 C   35 % 
 2019-01-06 22:33:31  22 C   35 % 
 2019-01-06 22:14:07  22 C   35 % 
 2019-01-06 21:54:54  22 C   35 % 
 2019-01-06 21:45:18  22 C   35 % 
 2019-01-06 21:35:41  22 C   35 % 
 2019-01-06 21:26:04  22 C   35 % 
 2019-01-06 21:16:26  22 C   35 % 
 2019-01-06 21:06:50  22 C   35 % 
 2019-01-06 20:57:23  22 C   36 % 
 2019-01-06 20:47:12  22 C   36 % 
 2019-01-06 20:37:33  22 C   36 % 
 2019-01-06 20:27:55  22 C   36 % 
 2019-01-06 20:18:18  22 C   36 % 
 2019-01-06 20:08:42  22 C   35 % 
 2019-01-06 19:59:14  22 C   35 % 
 2019-01-06 19:49:14  22 C   35 % 
 2019-01-06 19:39:39  22 C   35 % 
 2019-01-06 19:30:00  22 C   36 % 
 2019-01-06 19:20:24  22 C   36 % 
 2019-01-06 19:10:48  22 C   36 % 
 2019-01-06 19:01:09  22 C   36 % 
 2019-01-06 18:41:52  22 C   35 % 
 2019-01-06 18:32:14  22 C   36 % 
 2019-01-06 18:22:40  22 C   36 % 
 2019-01-06 17:43:34  22 C   36 % 
 2019-01-06 17:33:59  22 C   36 % 
 2019-01-06 17:24:23  22 C   36 % 
 2019-01-06 16:45:26  22 C   36 % 
 2019-01-06 16:35:49  22 C   38 % 
 2019-01-06 16:16:43  22 C   36 % 
 2019-01-06 16:06:43  22 C   36 % 
 2019-01-06 15:57:05  22 C   36 % 
 2019-01-06 15:47:31  22 C   36 % 
 2019-01-06 15:37:50  22 C   36 % 
 2019-01-06 15:28:14  22 C   36 % 
 2019-01-06 15:08:56  22 C   37 % 
 2019-01-06 14:59:19  22 C   37 % 
 2019-01-06 14:49:54  22 C   37 % 
 2019-01-06 14:30:04  22 C   37 % 
 2019-01-06 14:20:27  22 C   37 % 
 2019-01-06 14:11:01  22 C   37 % 
 2019-01-06 14:00:57  22 C   37 % 
 2019-01-06 13:31:46  21 C   38 % 
 2019-01-06 13:21:37  21 C   38 % 
 2019-01-06 13:11:59  21 C   38 % 
 2019-01-06 13:02:22  21 C   39 % 
 2019-01-06 12:52:48  21 C   38 % 
 2019-01-06 12:43:08  21 C   39 % 
 2019-01-06 12:33:32  21 C   39 % 
 2019-01-06 12:23:53  21 C   39 % 
 2019-01-06 12:14:17  21 C   39 % 
 2019-01-06 12:04:44  21 C   38 % 
 2019-01-06 11:54:57  21 C   36 % 
 2019-01-06 11:45:20  21 C   36 % 
 2019-01-06 11:25:28  21 C   36 % 
 2019-01-06 11:15:48  21 C   36 % 
 2019-01-06 11:06:13  21 C   36 % 
 2019-01-06 10:56:35  21 C   36 % 
 2019-01-06 10:46:59  21 C   36 % 
 2019-01-06 10:37:20  21 C   36 % 
 2019-01-06 10:27:43  21 C   36 % 
 2019-01-06 10:18:07  22 C   36 % 
 2019-01-06 10:08:34  22 C   36 % 
 2019-01-06 09:48:59  22 C   36 % 
 2019-01-06 09:39:21  22 C   36 % 
 2019-01-06 09:29:45  22 C   36 % 
 2019-01-06 08:51:08  22 C   36 % 
 2019-01-06 08:41:40  22 C   36 % 
 2019-01-06 08:31:34  22 C   36 % 
 2019-01-06 08:21:57  22 C   36 % 
 2019-01-06 08:12:19  22 C   36 % 
 2019-01-06 08:02:43  22 C   36 % 
 2019-01-06 07:53:06  22 C   36 % 
 2019-01-06 07:43:31  22 C   36 % 
 2019-01-06 07:33:51  22 C   36 % 
 2019-01-06 07:24:23  22 C   36 % 
 2019-01-06 07:14:17  22 C   36 % 
 2019-01-06 07:04:45  22 C   36 % 
 2019-01-06 06:54:34  22 C   36 % 
 2019-01-06 06:44:58  22 C   36 % 
 2019-01-06 06:35:19  22 C   36 % 
 2019-01-06 06:25:42  22 C   36 % 
 2019-01-06 06:16:04  22 C   36 % 
 2019-01-06 06:06:25  22 C   36 % 
 2019-01-06 05:56:50  22 C   36 % 
 2019-01-06 05:47:13  22 C   36 % 
 2019-01-06 05:37:34  22 C   36 % 
 2019-01-06 05:27:57  22 C   36 % 
 2019-01-06 05:18:19  23 C   36 % 
 2019-01-06 04:59:06  23 C   35 % 
 2019-01-06 04:49:29  23 C   35 % 
 2019-01-06 04:39:58  23 C   35 % 
 2019-01-06 04:30:01  23 C   35 % 
 2019-01-06 04:20:27  23 C   35 % 
 2019-01-06 04:10:50  23 C   35 % 
 2019-01-06 04:01:13  23 C   35 % 
 2019-01-06 03:51:39  23 C   35 % 
 2019-01-06 03:41:52  23 C   35 % 
 2019-01-06 03:32:15  23 C   35 % 
 2019-01-06 03:22:38  23 C   35 % 
 2019-01-06 03:13:01  23 C   35 % 
 2019-01-06 03:03:26  23 C   35 % 
 2019-01-06 02:53:50  23 C   35 % 
 2019-01-06 02:44:15  23 C   35 % 
 2019-01-06 02:34:31  23 C   35 % 
 2019-01-06 02:24:32  23 C   35 % 
 2019-01-06 02:14:56  23 C   35 % 
 2019-01-06 02:05:20  23 C   35 % 
 2019-01-06 01:55:42  23 C   35 % 
 2019-01-06 01:45:58  23 C   35 % 
 2019-01-06 01:36:23  23 C   35 % 
 2019-01-06 01:26:48  23 C   35 % 
 2019-01-06 01:17:10  23 C   35 % 
 2019-01-06 01:07:24  23 C   35 % 
 2019-01-06 00:57:47  23 C   35 % 
 2019-01-06 00:48:10  23 C   35 % 
 2019-01-06 00:38:33  23 C   35 % 
 2019-01-06 00:28:56  23 C   35 % 
 2019-01-06 00:19:21  23 C   35 % 
 2019-01-06 00:09:45  23 C   35 % 
 2019-01-05 23:50:39  23 C   35 % 
 2019-01-05 23:40:35  23 C   35 % 
 2019-01-05 23:30:59  24 C   35 % 
 2019-01-05 23:21:22  24 C   35 % 
 2019-01-05 23:11:46  24 C   35 % 
 2019-01-05 23:02:09  24 C   35 % 
 2019-01-05 22:52:32  23 C   35 % 
 2019-01-05 22:42:56  23 C   35 % 
 2019-01-05 22:33:19  23 C   35 % 
 2019-01-05 22:23:47  23 C   35 % 
 2019-01-05 22:14:01  23 C   35 % 
 2019-01-05 22:04:28  24 C   35 % 
 2019-01-05 21:54:47  23 C   35 % 
 2019-01-05 21:45:11  23 C   35 % 
 2019-01-05 21:35:34  23 C   35 % 
 2019-01-05 21:25:57  23 C   35 % 
 2019-01-05 21:16:21  23 C   35 % 
 2019-01-05 21:06:43  23 C   35 % 
 2019-01-05 20:57:07  23 C   36 % 
 2019-01-05 20:47:30  23 C   36 % 
 2019-01-05 20:37:54  23 C   36 % 
 2019-01-05 20:28:17  23 C   36 % 
 2019-01-05 20:18:39  23 C   36 % 
 2019-01-05 20:09:02  23 C   37 % 
 2019-01-05 19:59:25  23 C   37 % 
 2019-01-05 19:49:48  23 C   38 % 
 2019-01-05 19:40:13  23 C   38 % 
 2019-01-05 19:30:35  23 C   41 % 
 2019-01-05 19:20:59  22 C   43 % 
 2019-01-05 19:11:20  22 C   39 % 
 2019-01-05 19:01:43  22 C   40 % 
 2019-01-05 18:52:07  22 C   36 % 
 2019-01-05 18:32:58  22 C   36 % 
 2019-01-05 18:23:11  22 C   36 % 
 2019-01-05 18:13:35  22 C   36 % 
 2019-01-05 18:04:00  22 C   36 % 
 2019-01-05 17:54:30  22 C   36 % 
 2019-01-05 17:44:18  22 C   36 % 
 2019-01-05 17:34:40  22 C   36 % 
 2019-01-05 17:25:02  22 C   36 % 
 2019-01-05 17:05:41  22 C   36 % 
 2019-01-05 16:56:04  22 C   36 % 
 2019-01-05 16:46:29  22 C   36 % 
 2019-01-05 16:36:49  22 C   36 % 
 2019-01-05 16:27:11  22 C   36 % 
 2019-01-05 16:17:32  22 C   36 % 
 2019-01-05 16:08:00  22 C   36 % 
 2019-01-05 15:48:11  22 C   36 % 
 2019-01-05 15:38:36  22 C   36 % 
 2019-01-05 15:28:51  22 C   36 % 
 2019-01-05 15:19:11  22 C   36 % 
 2019-01-05 15:09:33  22 C   36 % 
 2019-01-05 15:00:04  22 C   36 % 
 2019-01-05 14:50:08  22 C   36 % 
 2019-01-05 14:40:23  22 C   36 % 
 2019-01-05 14:21:11  22 C   36 % 
 2019-01-05 14:11:34  22 C   36 % 
 2019-01-05 14:01:59  22 C   36 % 
 2019-01-05 13:52:19  22 C   36 % 
 2019-01-05 13:32:57  22 C   36 % 
 2019-01-05 13:23:20  22 C   36 % 
 2019-01-05 13:13:45  22 C   36 % 
 2019-01-05 13:04:08  22 C   36 % 
 2019-01-05 12:54:37  22 C   36 % 
 2019-01-05 12:44:41  22 C   36 % 
 2019-01-05 12:35:03  21 C   37 % 
 2019-01-05 12:25:27  21 C   37 % 
 2019-01-05 12:15:50  21 C   38 % 
 2019-01-05 12:06:13  21 C   38 % 
 2019-01-05 11:56:37  21 C   39 % 
 2019-01-05 11:47:01  21 C   38 % 
 2019-01-05 10:47:50  21 C   36 % 
 2019-01-05 10:38:14  22 C   37 % 
 2019-01-05 10:28:37  22 C   37 % 
 2019-01-05 10:09:22  22 C   36 % 
 2019-01-05 09:59:52  22 C   36 % 
 2019-01-05 09:49:57  22 C   36 % 
 2019-01-05 09:40:20  22 C   36 % 
 2019-01-05 09:30:44  22 C   36 % 
 2019-01-05 09:21:07  22 C   36 % 
 2019-01-05 09:11:30  22 C   36 % 
 2019-01-05 09:01:54  22 C   36 % 
 2019-01-05 08:52:18  22 C   36 % 
 2019-01-05 08:42:42  22 C   36 % 
 2019-01-05 08:33:05  22 C   36 % 
 2019-01-05 08:23:29  22 C   36 % 
 2019-01-05 08:13:53  22 C   36 % 
 2019-01-05 08:04:17  22 C   36 % 
 2019-01-05 07:54:40  22 C   36 % 
 2019-01-05 07:45:03  22 C   36 % 
 2019-01-05 07:35:27  22 C   36 % 
 2019-01-05 07:25:51  22 C   36 % 
 2019-01-05 07:16:14  22 C   36 % 
 2019-01-05 07:06:37  22 C   36 % 
 2019-01-05 06:57:01  22 C   36 % 
 2019-01-05 06:47:24  22 C   36 % 
 2019-01-05 06:37:48  22 C   36 % 
 2019-01-05 06:28:11  22 C   36 % 
 2019-01-05 06:18:34  22 C   36 % 
 2019-01-05 06:08:58  22 C   36 % 
 2019-01-05 05:59:22  22 C   35 % 
 2019-01-05 05:49:45  23 C   35 % 
 2019-01-05 05:40:08  23 C   35 % 
 2019-01-05 05:30:32  23 C   35 % 
 2019-01-05 05:20:55  23 C   35 % 
 2019-01-05 05:11:19  23 C   35 % 
 2019-01-05 05:01:42  22 C   36 % 
 2019-01-05 04:52:06  22 C   36 % 
 2019-01-05 04:42:29  22 C   36 % 
 2019-01-05 04:32:53  22 C   36 % 
 2019-01-05 04:23:17  23 C   35 % 
 2019-01-05 04:13:43  23 C   35 % 
 2019-01-05 04:04:06  23 C   35 % 
 2019-01-05 03:54:29  23 C   36 % 
 2019-01-05 03:44:52  22 C   36 % 
 2019-01-05 03:35:17  22 C   36 % 
 2019-01-05 03:25:40  22 C   36 % 
 2019-01-05 03:16:04  22 C   36 % 
 2019-01-05 03:06:27  22 C   36 % 
 2019-01-05 02:56:51  22 C   36 % 
 2019-01-05 02:47:14  22 C   36 % 
 2019-01-05 02:37:38  22 C   36 % 
 2019-01-05 02:28:01  22 C   36 % 
 2019-01-05 02:18:30  22 C   36 % 
 2019-01-05 02:08:43  22 C   36 % 
 2019-01-05 01:59:07  22 C   36 % 
 2019-01-05 01:49:31  22 C   36 % 
 2019-01-05 01:30:17  22 C   36 % 
 2019-01-05 01:11:05  22 C   37 % 
 2019-01-05 01:01:29  22 C   37 % 
 2019-01-05 00:51:51  22 C   37 % 
 2019-01-05 00:42:15  22 C   37 % 
 2019-01-05 00:32:38  22 C   37 % 
 2019-01-05 00:23:02  22 C   37 % 
 2019-01-05 00:13:26  22 C   37 % 
 2019-01-05 00:03:51  22 C   37 % 
 2019-01-04 23:54:11  22 C   37 % 
 2019-01-04 23:35:00  22 C   37 % 
 2019-01-04 23:25:23  22 C   37 % 
 2019-01-04 23:15:51  22 C   37 % 
 2019-01-04 23:06:05  22 C   36 % 
 2019-01-04 22:56:29  22 C   36 % 
 2019-01-04 22:46:52  22 C   36 % 
 2019-01-04 22:37:16  22 C   36 % 
 2019-01-04 22:27:40  23 C   36 % 
 2019-01-04 22:18:03  23 C   36 % 
 2019-01-04 22:08:27  23 C   36 % 
 2019-01-04 21:58:50  23 C   36 % 
 2019-01-04 21:49:13  23 C   36 % 
 2019-01-04 21:39:37  23 C   36 % 
 2019-01-04 21:30:01  23 C   36 % 
 2019-01-04 21:20:24  23 C   36 % 
 2019-01-04 21:10:48  23 C   36 % 
 2019-01-04 21:01:12  23 C   35 % 
 2019-01-04 20:51:35  23 C   35 % 
 2019-01-04 20:41:59  23 C   35 % 
 2019-01-04 20:32:23  23 C   35 % 
 2019-01-04 20:22:46  23 C   35 % 
 2019-01-04 20:13:10  23 C   35 % 
 2019-01-04 20:03:34  23 C   35 % 
 2019-01-04 19:53:57  23 C   35 % 
 2019-01-04 19:44:20  23 C   35 % 
 2019-01-04 19:34:45  24 C   35 % 
 2019-01-04 19:25:08  24 C   35 % 
 2019-01-04 19:15:32  24 C   35 % 
 2019-01-04 19:05:56  24 C   35 % 
 2019-01-04 18:56:19  24 C   34 % 
 2019-01-04 18:46:43  24 C   33 % 
 2019-01-04 18:37:07  24 C   33 % 
 2019-01-04 18:27:31  24 C   33 % 
 2019-01-04 18:17:55  25 C   33 % 
 2019-01-04 18:08:19  25 C   32 % 
 2019-01-04 17:58:42  25 C   32 % 
 2019-01-04 17:49:07  25 C   32 % 
 2019-01-04 17:39:31  25 C   32 % 
 2019-01-04 17:29:54  26 C   32 % 
 2019-01-04 17:20:18  26 C   32 % 
 2019-01-04 17:10:39  25 C   34 % 
 2019-01-04 17:01:01  22 C   37 % 
 2019-01-04 16:51:23  22 C   37 % 
 2019-01-04 16:41:46  22 C   37 % 
 2019-01-04 16:32:10  22 C   37 % 
 2019-01-04 16:22:33  22 C   37 % 
 2019-01-04 16:12:56  22 C   37 % 
 2019-01-04 16:03:20  22 C   37 % 
 2019-01-04 15:53:45  22 C   37 % 
 2019-01-04 15:44:05  22 C   37 % 
 2019-01-04 15:05:39  22 C   37 % 
 2019-01-04 14:56:08  22 C   37 % 
 2019-01-04 14:46:21  22 C   37 % 
 2019-01-04 14:27:06  22 C   37 % 
 2019-01-04 14:17:29  22 C   37 % 
 2019-01-04 14:07:50  22 C   37 % 
 2019-01-04 13:48:27  22 C   37 % 
 2019-01-04 13:29:12  22 C   37 % 
 2019-01-04 13:19:35  22 C   36 % 
 2019-01-04 13:00:21  22 C   36 % 
 2019-01-04 12:41:05  22 C   36 % 
 2019-01-04 12:31:28  22 C   36 % 
 2019-01-04 12:21:52  22 C   37 % 
 2019-01-04 12:12:16  22 C   36 % 
 2019-01-04 12:02:39  22 C   36 % 
 2019-01-04 11:53:02  22 C   36 % 
 2019-01-04 11:43:26  22 C   36 % 
 2019-01-04 11:33:50  22 C   36 % 
 2019-01-04 11:24:13  22 C   36 % 
 2019-01-04 11:14:38  22 C   36 % 
 2019-01-04 11:04:59  22 C   37 % 
 2019-01-04 10:55:21  22 C   37 % 
 2019-01-04 10:45:45  22 C   38 % 
 2019-01-04 10:36:08  22 C   36 % 
 2019-01-04 10:26:32  22 C   36 % 
 2019-01-04 10:16:55  22 C   36 % 
 2019-01-04 10:07:17  22 C   36 % 
 2019-01-04 09:57:41  22 C   36 % 
 2019-01-04 09:48:03  22 C   36 % 
 2019-01-04 09:38:26  22 C   36 % 
 2019-01-04 09:28:47  22 C   36 % 
 2019-01-04 09:19:11  22 C   37 % 
 2019-01-04 09:09:34  22 C   37 % 
 2019-01-04 08:59:59  22 C   37 % 
 2019-01-04 08:50:22  22 C   37 % 
 2019-01-04 08:40:46  22 C   37 % 
 2019-01-04 08:31:09  22 C   37 % 
 2019-01-04 08:21:33  22 C   37 % 
 2019-01-04 08:11:56  22 C   37 % 
 2019-01-04 07:52:44  22 C   38 % 
 2019-01-04 07:43:07  22 C   38 % 
 2019-01-04 07:33:34  22 C   38 % 
 2019-01-04 07:23:52  22 C   37 % 
 2019-01-04 07:14:15  22 C   37 % 
 2019-01-04 07:04:41  22 C   37 % 
 2019-01-04 06:55:02  22 C   37 % 
 2019-01-04 06:45:23  22 C   38 % 
 2019-01-04 06:35:45  22 C   37 % 
 2019-01-04 06:26:10  22 C   37 % 
 2019-01-04 06:16:33  22 C   37 % 
 2019-01-04 06:06:56  22 C   37 % 
 2019-01-04 05:57:20  22 C   37 % 
 2019-01-04 05:47:43  22 C   36 % 
 2019-01-04 05:38:07  22 C   37 % 
 2019-01-04 05:28:30  22 C   37 % 
 2019-01-04 05:18:54  22 C   37 % 
 2019-01-04 05:09:18  22 C   36 % 
 2019-01-04 04:59:41  22 C   36 % 
 2019-01-04 04:50:05  22 C   36 % 
 2019-01-04 04:40:28  23 C   36 % 
 2019-01-04 04:30:51  23 C   36 % 
 2019-01-04 04:21:16  23 C   36 % 
 2019-01-04 04:11:37  23 C   36 % 
 2019-01-04 04:02:01  23 C   36 % 
 2019-01-04 03:52:25  23 C   36 % 
 2019-01-04 03:42:48  23 C   36 % 
 2019-01-04 03:33:11  23 C   36 % 
 2019-01-04 03:23:35  23 C   36 % 
 2019-01-04 03:14:00  23 C   36 % 
 2019-01-04 03:04:23  23 C   36 % 
 2019-01-04 02:54:47  23 C   35 % 
 2019-01-04 02:45:10  23 C   35 % 
 2019-01-04 02:35:33  23 C   35 % 
 2019-01-04 02:25:57  23 C   35 % 
 2019-01-04 02:16:21  23 C   35 % 
 2019-01-04 02:06:44  23 C   35 % 
 2019-01-04 01:57:08  23 C   36 % 
 2019-01-04 01:47:31  23 C   35 % 
 2019-01-04 01:37:55  23 C   35 % 
 2019-01-04 01:28:19  23 C   35 % 
 2019-01-04 01:18:42  23 C   35 % 
 2019-01-04 01:09:06  23 C   35 % 
 2019-01-04 00:59:30  23 C   36 % 
 2019-01-04 00:49:53  23 C   36 % 
 2019-01-04 00:40:16  23 C   36 % 
 2019-01-04 00:30:40  23 C   36 % 
 2019-01-04 00:21:03  23 C   36 % 
 2019-01-04 00:11:26  23 C   36 % 
 2019-01-04 00:01:49  23 C   36 % 
 2019-01-03 23:52:13  23 C   36 % 
 2019-01-03 23:42:36  23 C   36 % 
 2019-01-03 23:33:00  23 C   36 % 
 2019-01-03 23:23:23  23 C   36 % 
 2019-01-03 23:13:47  23 C   37 % 
 2019-01-03 23:04:11  23 C   37 % 
 2019-01-03 22:54:34  23 C   37 % 
 2019-01-03 22:44:59  23 C   37 % 
 2019-01-03 22:35:22  23 C   37 % 
 2019-01-03 22:16:10  23 C   37 % 
 2019-01-03 22:06:33  23 C   37 % 
 2019-01-03 21:56:58  23 C   37 % 
 2019-01-03 21:47:21  23 C   37 % 
 2019-01-03 21:37:44  23 C   36 % 
 2019-01-03 21:28:08  23 C   37 % 
 2019-01-03 21:18:32  23 C   37 % 
 2019-01-03 21:08:55  23 C   37 % 
 2019-01-03 20:59:18  23 C   38 % 
 2019-01-03 20:49:42  23 C   37 % 
 2019-01-03 20:40:06  23 C   37 % 
 2019-01-03 20:30:29  23 C   38 % 
 2019-01-03 20:20:53  23 C   38 % 
 2019-01-03 20:11:18  23 C   38 % 
 2019-01-03 20:01:39  24 C   38 % 
 2019-01-03 19:52:04  23 C   38 % 
 2019-01-03 19:42:25  23 C   38 % 
 2019-01-03 19:32:48  23 C   37 % 
 2019-01-03 19:23:12  23 C   37 % 
 2019-01-03 19:13:35  23 C   37 % 
 2019-01-03 19:03:58  23 C   36 % 
 2019-01-03 18:54:22  23 C   35 % 
 2019-01-03 18:44:45  23 C   34 % 
 2019-01-03 18:35:08  23 C   34 % 
 2019-01-03 18:25:32  23 C   34 % 
 2019-01-03 18:15:55  23 C   34 % 
 2019-01-03 18:06:19  23 C   34 % 
 2019-01-03 17:56:43  24 C   34 % 
 2019-01-03 17:47:06  24 C   34 % 
 2019-01-03 17:37:29  24 C   34 % 
 2019-01-03 17:27:53  24 C   34 % 
 2019-01-03 17:18:17  24 C   34 % 
 2019-01-03 17:08:42  24 C   33 % 
 2019-01-03 16:59:07  25 C   33 % 
 2019-01-03 16:49:31  25 C   32 % 
 2019-01-03 16:39:55  25 C   32 % 
 2019-01-03 16:30:20  26 C   31 % 
 2019-01-03 16:20:45  27 C   30 % 
 2019-01-03 16:11:11  29 C   28 % 
 2019-01-03 16:01:39  32 C   25 % 
 2019-01-03 15:42:11  23 C   39 % 
 2019-01-03 15:32:40  22 C   36 % 
 2019-01-03 15:22:53  22 C   36 % 
 2019-01-03 15:13:01  22 C   36 % 
 2019-01-03 14:34:32  22 C   36 % 
 2019-01-03 14:24:58  22 C   36 % 
 2019-01-03 14:15:16  22 C   37 % 
 2019-01-03 14:05:39  22 C   37 % 
 2019-01-03 13:46:25  22 C   37 % 
 2019-01-03 13:36:52  22 C   37 % 
 2019-01-03 13:17:31  22 C   36 % 
 2019-01-03 12:58:20  22 C   36 % 
 2019-01-03 12:48:24  22 C   36 % 
 2019-01-03 12:38:47  22 C   36 % 
 2019-01-03 12:29:15  22 C   36 % 
 2019-01-03 12:19:12  22 C   36 % 
 2019-01-03 12:09:36  22 C   36 % 
 2019-01-03 12:00:00  22 C   36 % 
 2019-01-03 11:50:25  22 C   36 % 
 2019-01-03 11:31:04  22 C   36 % 
 2019-01-03 11:20:54  22 C   36 % 
 2019-01-03 11:11:16  23 C   36 % 
 2019-01-03 11:01:39  23 C   36 % 
 2019-01-03 10:52:03  23 C   36 % 
 2019-01-03 10:42:27  23 C   36 % 
 2019-01-03 10:32:51  23 C   36 % 
 2019-01-03 10:23:12  23 C   36 % 
 2019-01-03 10:13:39  23 C   36 % 
 2019-01-03 10:03:57  23 C   36 % 
 2019-01-03 09:54:19  23 C   36 % 
 2019-01-03 09:44:41  23 C   36 % 
 2019-01-03 09:35:05  23 C   36 % 
 2019-01-03 09:25:35  23 C   36 % 
 2019-01-03 09:15:25  23 C   36 % 
 2019-01-03 09:05:46  22 C   36 % 
 2019-01-03 08:56:10  22 C   37 % 
 2019-01-03 08:46:43  22 C   38 % 
 2019-01-03 08:26:42  22 C   38 % 
 2019-01-03 08:16:59  22 C   38 % 
 2019-01-03 08:07:29  22 C   38 % 
 2019-01-03 07:57:34  22 C   39 % 
 2019-01-03 07:47:55  22 C   38 % 
 2019-01-03 07:38:19  22 C   38 % 
 2019-01-03 07:09:33  22 C   37 % 
 2019-01-03 06:59:32  22 C   36 % 
 2019-01-03 06:49:30  22 C   36 % 
 2019-01-03 06:39:49  22 C   36 % 
 2019-01-03 06:01:05  23 C   36 % 
 2019-01-03 05:21:59  23 C   36 % 
 2019-01-03 04:42:19  23 C   36 % 
 2019-01-03 04:32:18  23 C   36 % 
 2019-01-03 04:22:14  23 C   36 % 
 2019-01-03 04:11:52  23 C   36 % 
 2019-01-03 03:04:00  23 C   37 % 
 2019-01-03 02:54:20  23 C   37 % 
 2019-01-03 02:44:40  23 C   37 % 
 2019-01-03 02:35:01  23 C   37 % 
 2019-01-03 02:25:16  23 C   37 % 
 2019-01-03 02:15:38  23 C   36 % 
 2019-01-03 02:05:55  23 C   36 % 
 2019-01-03 01:56:12  23 C   36 % 
 2019-01-03 01:46:38  23 C   36 % 
 2019-01-03 01:36:59  23 C   36 % 
 2019-01-03 01:27:14  23 C   36 % 
 2019-01-03 01:17:38  23 C   36 % 
 2019-01-03 01:07:51  23 C   36 % 
 2019-01-03 00:58:08  23 C   36 % 
 2019-01-03 00:48:28  23 C   36 % 
 2019-01-03 00:38:43  23 C   36 % 
 2019-01-03 00:29:04  24 C   36 % 
 2019-01-03 00:19:28  24 C   36 % 
 2019-01-03 00:09:37  23 C   37 % 
 2019-01-02 23:59:57  23 C   37 % 
 2019-01-02 23:50:20  23 C   37 % 
 2019-01-02 23:40:41  23 C   37 % 
 2019-01-02 23:30:55  23 C   37 % 
 2019-01-02 23:21:19  23 C   36 % 
 2019-01-02 23:11:38  23 C   36 % 
 2019-01-02 23:01:52  23 C   36 % 
 2019-01-02 22:51:59  23 C   37 % 
 2019-01-02 22:42:06  23 C   37 % 
 2019-01-02 22:32:28  23 C   37 % 
 2019-01-02 22:22:49  23 C   37 % 
 2019-01-02 22:13:03  23 C   37 % 
 2019-01-02 22:03:24  23 C   37 % 
 2019-01-02 21:53:46  24 C   37 % 
 2019-01-02 21:44:05  24 C   36 % 
 2019-01-02 21:34:22  23 C   36 % 
 2019-01-02 21:24:42  23 C   36 % 
 2019-01-02 21:15:06  23 C   36 % 
 2019-01-02 21:05:27  23 C   36 % 
 2019-01-02 20:55:44  23 C   36 % 
 2019-01-02 20:46:04  23 C   36 % 
 2019-01-02 20:36:29  23 C   36 % 
 2019-01-02 20:26:50  23 C   37 % 
 2019-01-02 20:17:09  23 C   37 % 
 2019-01-02 19:57:51  23 C   37 % 
 2019-01-02 19:38:36  23 C   36 % 
 2019-01-02 19:29:04  22 C   35 % 
 2019-01-02 19:19:06  22 C   36 % 
 2019-01-02 19:09:13  22 C   37 % 
 2019-01-02 18:59:36  23 C   39 % 
 2019-01-02 18:49:59  23 C   37 % 
 2019-01-02 18:40:20  23 C   36 % 
 2019-01-02 18:30:42  23 C   39 % 
 2019-01-02 18:21:06  23 C   38 % 
 2019-01-02 18:01:49  23 C   37 % 
 2019-01-02 17:52:11  23 C   37 % 
 2019-01-02 17:32:50  23 C   37 % 
 2019-01-02 17:23:12  22 C   38 % 
 2019-01-02 17:13:36  22 C   38 % 
 2019-01-02 17:04:00  22 C   38 % 
 2019-01-02 16:54:20  22 C   38 % 
 2019-01-02 16:44:47  22 C   38 % 
 2019-01-02 16:34:54  22 C   38 % 
 2019-01-02 16:25:11  22 C   38 % 
 2019-01-02 16:15:24  22 C   38 % 
 2019-01-02 16:05:49  22 C   37 % 
 2019-01-02 15:56:17  22 C   37 % 
 2019-01-02 15:46:25  22 C   37 % 
 2019-01-02 14:57:44  22 C   36 % 
 2019-01-02 14:28:55  22 C   36 % 
 2019-01-02 14:19:18  22 C   36 % 
 2019-01-02 13:11:43  22 C   37 % 
 2019-01-02 12:52:19  21 C   38 % 
 2019-01-02 12:22:35  21 C   38 % 
 2019-01-02 11:24:13  21 C   36 % 
 2019-01-02 11:14:25  21 C   36 % 
 2019-01-02 10:45:11  21 C   36 % 
 2019-01-02 08:39:38  22 C   36 % 
 2019-01-02 07:22:01  22 C   36 % 
 2019-01-02 07:02:09  22 C   36 % 
 2019-01-02 06:42:38  22 C   36 % 
 2019-01-02 06:31:56  22 C   36 % 
 2019-01-02 06:22:27  22 C   36 % 
 2019-01-02 05:24:27  22 C   36 % 
 2019-01-02 05:14:14  22 C   36 % 
 2019-01-02 05:04:04  22 C   36 % 
 2019-01-02 04:54:07  23 C   36 % 
 2019-01-02 04:44:24  23 C   36 % 
 2019-01-02 04:34:17  23 C   36 % 
 2019-01-02 03:55:43  23 C   36 % 
 2019-01-02 03:45:49  23 C   35 % 
 2019-01-02 03:36:01  23 C   35 % 
 2019-01-02 03:26:02  23 C   35 % 
 2019-01-02 03:06:41  23 C   35 % 
 2019-01-02 02:56:54  23 C   35 % 
 2019-01-02 02:47:11  23 C   35 % 
 2019-01-02 02:37:17  23 C   35 % 
 2019-01-02 02:27:38  23 C   35 % 
 2019-01-02 02:17:44  23 C   35 % 
 2019-01-02 01:58:12  23 C   35 % 
 2019-01-02 01:48:31  23 C   35 % 
 2019-01-02 01:38:48  23 C   35 % 
 2019-01-02 01:29:04  23 C   35 % 
 2019-01-02 01:19:29  23 C   35 % 
 2019-01-02 01:09:40  23 C   35 % 
 2019-01-02 00:59:56  23 C   35 % 
 2019-01-02 00:50:13  23 C   35 % 
 2019-01-02 00:40:22  23 C   35 % 
 2019-01-02 00:30:41  23 C   35 % 
 2019-01-02 00:11:30  23 C   35 % 
 2019-01-02 00:01:46  23 C   35 % 
 2019-01-01 23:52:00  23 C   35 % 
 2019-01-01 23:42:17  23 C   35 % 
 2019-01-01 23:32:37  23 C   35 % 
 2019-01-01 23:22:57  23 C   36 % 
 2019-01-01 23:13:21  23 C   35 % 
 2019-01-01 23:03:42  23 C   35 % 
 2019-01-01 22:54:02  23 C   34 % 
 2019-01-01 22:44:26  23 C   34 % 
 2019-01-01 22:34:54  23 C   32 % 
 2019-01-01 22:24:57  23 C   32 % 
 2019-01-01 22:15:17  23 C   36 % 
 2019-01-01 22:05:34  23 C   38 % 
 2019-01-01 21:55:57  23 C   38 % 
 2019-01-01 21:46:18  23 C   37 % 
 2019-01-01 21:36:42  23 C   37 % 
 2019-01-01 21:27:02  23 C   37 % 
 2019-01-01 21:17:24  23 C   37 % 
 2019-01-01 21:07:45  23 C   37 % 
 2019-01-01 20:58:08  23 C   37 % 
 2019-01-01 20:48:30  23 C   37 % 
 2019-01-01 20:38:52  23 C   37 % 
 2019-01-01 20:29:16  23 C   37 % 
 2019-01-01 20:19:38  23 C   37 % 
 2019-01-01 20:00:22  24 C   37 % 
 2019-01-01 19:50:44  24 C   37 % 
 2019-01-01 19:31:31  23 C   37 % 
 2019-01-01 19:21:54  23 C   37 % 
 2019-01-01 19:12:18  23 C   37 % 
 2019-01-01 19:02:41  23 C   37 % 
 2019-01-01 18:53:05  23 C   37 % 
 2019-01-01 18:43:24  23 C   36 % 
 2019-01-01 18:33:46  23 C   36 % 
 2019-01-01 18:24:08  23 C   37 % 
 2019-01-01 18:14:30  23 C   37 % 
 2019-01-01 18:04:51  23 C   37 % 
 2019-01-01 17:55:15  23 C   37 % 
 2019-01-01 17:45:36  23 C   37 % 
 2019-01-01 17:36:03  23 C   37 % 
 2019-01-01 17:26:13  23 C   38 % 
 2019-01-01 17:16:34  23 C   39 % 
 2019-01-01 17:07:00  23 C   40 % 
 2019-01-01 16:57:08  23 C   40 % 
 2019-01-01 16:37:50  23 C   41 % 
 2019-01-01 16:28:11  22 C   41 % 
 2019-01-01 16:18:31  22 C   42 % 
 2019-01-01 16:08:53  22 C   41 % 
 2019-01-01 15:59:19  22 C   40 % 
 2019-01-01 15:30:05  22 C   40 % 
 2019-01-01 15:10:57  22 C   40 % 
 2019-01-01 15:00:49  22 C   40 % 
 2019-01-01 14:51:11  22 C   40 % 
 2019-01-01 14:41:38  22 C   41 % 
 2019-01-01 14:31:48  22 C   41 % 
 2019-01-01 12:25:38  22 C   38 % 
 2019-01-01 12:06:16  22 C   38 % 
 2019-01-01 11:17:38  22 C   38 % 
 2019-01-01 10:37:44  22 C   38 % 
 2019-01-01 10:08:31  22 C   38 % 
 2019-01-01 09:58:31  22 C   38 % 
 2019-01-01 09:48:28  22 C   38 % 
 2019-01-01 09:38:16  22 C   38 % 
 2019-01-01 09:28:25  23 C   38 % 
 2019-01-01 08:49:36  23 C   38 % 
 2019-01-01 08:29:57  23 C   38 % 
 2019-01-01 08:19:41  23 C   38 % 
 2019-01-01 08:09:43  23 C   38 % 
 2019-01-01 07:40:24  23 C   38 % 
 2019-01-01 07:30:38  23 C   38 % 
 2019-01-01 06:41:47  23 C   38 % 
 2019-01-01 04:44:56  24 C   37 % 
 2019-01-01 04:14:24  24 C   37 % 
 2019-01-01 03:44:40  24 C   37 % 
 2019-01-01 03:34:46  24 C   37 % 
 2019-01-01 02:53:22  24 C   37 % 
 2019-01-01 02:24:21  24 C   37 % 
 2019-01-01 01:44:41  24 C   37 % 
 2019-01-01 01:34:53  24 C   37 % 
 2019-01-01 01:15:31  24 C   37 % 
 2019-01-01 01:05:57  24 C   37 % 
 2019-01-01 00:56:21  24 C   37 % 
 2019-01-01 00:27:08  24 C   37 % 
 2019-01-01 00:17:16  24 C   37 % 
 2019-01-01 00:07:34  24 C   37 % 
 2018-12-31 23:57:54  24 C   38 % 
 2018-12-31 23:48:06  24 C   38 % 
 2018-12-31 23:28:50  24 C   38 % 
 2018-12-31 22:59:59  24 C   37 % 
 2018-12-31 22:00:49  24 C   37 % 
 2018-12-31 21:51:13  24 C   37 % 
 2018-12-31 21:12:01  24 C   36 % 
 2018-12-31 20:52:23  24 C   40 % 
 2018-12-31 20:22:54  24 C   40 % 
 2018-12-31 20:13:14  24 C   41 % 
 2018-12-31 20:03:34  23 C   39 % 
 2018-12-31 19:34:45  23 C   39 % 
 2018-12-31 19:25:05  23 C   38 % 
 2018-12-31 19:05:50  23 C   38 % 
 2018-12-31 18:37:01  23 C   38 % 
 2018-12-31 18:07:42  23 C   37 % 
 2018-12-31 16:50:48  23 C   38 % 
 2018-12-31 16:21:37  23 C   38 % 
 2018-12-31 14:06:24  23 C   36 % 
 2018-12-31 13:56:41  24 C   35 % 
 2018-12-31 13:37:28  24 C   34 % 
 2018-12-31 13:18:12  25 C   33 % 
 2018-12-31 13:08:40  26 C   32 % 
 2018-12-31 07:06:49  22 C   36 % 
 2018-12-31 05:10:04  22 C   36 % 
 2018-12-31 05:00:04  22 C   36 % 
 2018-12-31 04:11:47  22 C   36 % 
 2018-12-31 04:01:50  22 C   36 % 
 2018-12-31 03:51:49  22 C   36 % 
 2018-12-31 03:42:02  23 C   36 % 
 2018-12-31 03:22:31  23 C   36 % 
 2018-12-31 03:12:52  23 C   36 % 
 2018-12-31 03:02:57  23 C   36 % 
 2018-12-31 02:43:31  23 C   36 % 
 2018-12-31 02:23:50  23 C   36 % 
 2018-12-31 02:14:10  23 C   36 % 
 2018-12-31 01:54:48  23 C   36 % 
 2018-12-31 01:45:02  23 C   36 % 
 2018-12-31 01:35:17  23 C   36 % 
 2018-12-31 00:56:21  23 C   36 % 
 2018-12-31 00:46:38  23 C   36 % 
 2018-12-31 00:27:16  23 C   36 % 
 2018-12-31 00:17:34  23 C   36 % 
 2018-12-31 00:07:56  23 C   36 % 
 2018-12-30 23:47:56  23 C   36 % 
 2018-12-30 23:28:40  24 C   36 % 
 2018-12-30 23:18:54  24 C   36 % 
 2018-12-30 23:09:19  24 C   36 % 
 2018-12-30 22:59:37  24 C   36 % 
 2018-12-30 22:49:36  24 C   36 % 
 2018-12-30 22:30:20  24 C   36 % 
 2018-12-30 22:20:42  24 C   36 % 
 2018-12-30 22:11:08  24 C   37 % 
 2018-12-30 22:01:25  24 C   37 % 
 2018-12-30 21:51:37  24 C   37 % 
 2018-12-30 21:41:50  24 C   37 % 
 2018-12-30 21:32:07  24 C   38 % 
 2018-12-30 21:22:20  24 C   41 % 
 2018-12-30 21:12:35  23 C   40 % 
 2018-12-30 21:02:58  23 C   45 % 
 2018-12-30 20:53:07  23 C   49 % 
 2018-12-30 20:43:27  23 C   46 % 
 2018-12-30 20:33:50  23 C   41 % 
 2018-12-30 20:24:15  23 C   39 % 
 2018-12-30 20:14:37  23 C   35 % 
 2018-12-30 20:05:01  23 C   35 % 
 2018-12-30 19:45:44  23 C   35 % 
 2018-12-30 19:36:04  23 C   35 % 
 2018-12-30 19:26:28  23 C   35 % 
 2018-12-30 19:16:49  23 C   35 % 
 2018-12-30 19:07:11  23 C   35 % 
 2018-12-30 18:57:36  23 C   35 % 
 2018-12-30 18:47:58  23 C   35 % 
 2018-12-30 18:38:20  23 C   35 % 
 2018-12-30 18:28:41  23 C   35 % 
 2018-12-30 18:19:06  23 C   35 % 
 2018-12-30 18:09:25  23 C   35 % 
 2018-12-30 17:59:47  23 C   36 % 
 2018-12-30 17:50:09  23 C   36 % 
 2018-12-30 17:40:31  23 C   36 % 
 2018-12-30 17:21:15  23 C   36 % 
 2018-12-30 17:11:38  23 C   36 % 
 2018-12-30 17:02:00  23 C   36 % 
 2018-12-30 16:52:21  23 C   36 % 
 2018-12-30 16:42:45  23 C   36 % 
 2018-12-30 16:33:10  22 C   36 % 
 2018-12-30 16:23:31  22 C   36 % 
 2018-12-30 16:13:53  22 C   36 % 
 2018-12-30 16:04:16  22 C   36 % 
 2018-12-30 15:54:40  22 C   35 % 
 2018-12-30 15:44:58  22 C   36 % 
 2018-12-30 15:35:21  23 C   37 % 
 2018-12-30 15:25:42  23 C   38 % 
 2018-12-30 15:06:32  23 C   44 % 
 2018-12-30 14:56:52  23 C   46 % 
 2018-12-30 14:47:15  23 C   45 % 
 2018-12-30 14:37:08  23 C   40 % 
 2018-12-30 14:27:24  22 C   38 % 
 2018-12-30 14:17:48  22 C   38 % 
 2018-12-30 14:07:54  22 C   38 % 
 2018-12-30 13:58:05  22 C   40 % 
 2018-12-30 13:38:34  22 C   36 % 
 2018-12-30 13:28:56  22 C   37 % 
 2018-12-30 13:19:20  22 C   38 % 
 2018-12-30 13:09:44  22 C   38 % 
 2018-12-30 13:00:09  22 C   39 % 
 2018-12-30 12:40:44  21 C   39 % 
 2018-12-30 12:01:00  21 C   38 % 
 2018-12-30 11:51:21  21 C   37 % 
 2018-12-30 11:41:47  21 C   37 % 
 2018-12-30 10:42:28  21 C   36 % 
 2018-12-30 10:23:18  21 C   36 % 
 2018-12-30 10:03:33  21 C   36 % 
 2018-12-30 09:53:42  21 C   36 % 
 2018-12-30 09:04:53  21 C   36 % 
 2018-12-30 08:55:05  21 C   36 % 
 2018-12-30 07:55:53  21 C   36 % 
 2018-12-30 07:36:23  22 C   36 % 
 2018-12-30 07:17:13  22 C   36 % 
 2018-12-30 07:06:56  22 C   36 % 
 2018-12-30 06:56:58  22 C   36 % 
 2018-12-30 06:46:58  22 C   36 % 
 2018-12-30 06:37:14  22 C   36 % 
 2018-12-30 06:17:27  22 C   36 % 
 2018-12-30 05:58:00  22 C   36 % 
 2018-12-30 05:48:12  22 C   36 % 
 2018-12-30 05:38:20  22 C   36 % 
 2018-12-30 05:09:21  22 C   36 % 
 2018-12-30 04:59:32  22 C   35 % 
 2018-12-30 04:39:37  22 C   35 % 
 2018-12-30 04:19:49  22 C   35 % 
 2018-12-30 04:09:58  22 C   35 % 
 2018-12-30 03:41:02  22 C   35 % 
 2018-12-30 03:30:54  22 C   35 % 
 2018-12-30 03:11:18  22 C   36 % 
 2018-12-30 02:51:59  22 C   36 % 
 2018-12-30 02:41:33  22 C   36 % 
 2018-12-30 02:32:00  22 C   36 % 
 2018-12-30 02:21:55  22 C   36 % 
 2018-12-30 02:11:40  22 C   36 % 
 2018-12-30 02:01:56  22 C   36 % 
 2018-12-30 01:52:08  22 C   36 % 
 2018-12-30 01:42:27  22 C   36 % 
 2018-12-30 01:23:04  23 C   36 % 
 2018-12-30 01:13:21  23 C   36 % 
 2018-12-30 01:03:36  23 C   36 % 
 2018-12-30 00:54:00  23 C   36 % 
 2018-12-30 00:44:14  23 C   36 % 
 2018-12-30 00:34:21  23 C   36 % 
 2018-12-30 00:24:46  23 C   36 % 
 2018-12-30 00:15:07  23 C   36 % 
 2018-12-30 00:05:33  23 C   36 % 
 2018-12-29 23:55:46  23 C   36 % 
 2018-12-29 23:46:11  23 C   36 % 
 2018-12-29 23:36:12  23 C   36 % 
 2018-12-29 23:26:34  23 C   36 % 
 2018-12-29 23:16:53  23 C   36 % 
 2018-12-29 23:07:14  22 C   37 % 
 2018-12-29 22:57:37  22 C   36 % 
 2018-12-29 22:48:00  22 C   36 % 
 2018-12-29 22:09:32  22 C   37 % 
 2018-12-29 21:59:53  22 C   36 % 
 2018-12-29 21:50:15  22 C   37 % 
 2018-12-29 21:40:41  22 C   37 % 
 2018-12-29 21:30:51  23 C   36 % 
 2018-12-29 21:21:14  23 C   37 % 
 2018-12-29 21:11:37  23 C   37 % 
 2018-12-29 21:02:00  23 C   36 % 
 2018-12-29 20:52:23  23 C   36 % 
 2018-12-29 20:42:39  22 C   36 % 
 2018-12-29 19:44:42  22 C   40 % 
 2018-12-29 19:25:29  22 C   38 % 
 2018-12-29 19:15:50  22 C   36 % 
 2018-12-29 18:46:36  22 C   36 % 
 2018-12-29 18:08:01  22 C   37 % 
 2018-12-29 17:10:16  22 C   36 % 
 2018-12-29 16:41:28  22 C   36 % 
 2018-12-29 16:31:52  22 C   36 % 
 2018-12-29 16:12:19  22 C   36 % 
 2018-12-29 16:02:47  22 C   36 % 
 2018-12-29 15:24:03  22 C   36 % 
 2018-12-29 15:14:26  22 C   36 % 
 2018-12-29 15:04:40  22 C   36 % 
 2018-12-29 14:55:06  22 C   36 % 
 2018-12-29 14:35:50  22 C   36 % 
 2018-12-29 13:56:46  22 C   36 % 
 2018-12-29 12:20:43  21 C   36 % 
 2018-12-29 03:11:30  23 C   37 % 
 2018-12-29 02:23:12  23 C   37 % 
 2018-12-29 02:03:43  23 C   37 % 
 2018-12-29 01:53:38  23 C   37 % 
 2018-12-29 01:15:13  23 C   36 % 
 2018-12-29 00:55:46  23 C   36 % 
 2018-12-28 22:59:46  24 C   35 % 
 2018-12-28 22:20:57  24 C   35 % 
 2018-12-28 22:11:22  24 C   35 % 
 2018-12-28 22:01:46  24 C   35 % 
 2018-12-28 21:13:42  23 C   37 % 
 2018-12-28 21:03:52  23 C   38 % 
 2018-12-28 20:54:07  24 C   42 % 
 2018-12-28 20:24:58  23 C   37 % 
 2018-12-28 20:15:19  23 C   40 % 
 2018-12-28 20:05:42  23 C   37 % 
 2018-12-28 19:56:06  23 C   37 % 
 2018-12-28 19:46:16  23 C   37 % 
 2018-12-28 19:16:42  23 C   36 % 
 2018-12-28 18:57:22  23 C   37 % 
 2018-12-28 18:38:10  23 C   37 % 
 2018-12-28 18:28:27  23 C   37 % 
 2018-12-28 17:39:21  23 C   37 % 
 2018-12-28 17:20:00  23 C   38 % 
 2018-12-28 17:10:22  23 C   38 % 
 2018-12-28 16:30:58  23 C   36 % 
 2018-12-28 16:21:21  23 C   36 % 
 2018-12-28 16:11:43  23 C   36 % 
 2018-12-28 15:52:29  23 C   36 % 
 2018-12-28 15:42:56  23 C   36 % 
 2018-12-28 15:33:01  23 C   36 % 
 2018-12-28 15:23:26  24 C   35 % 
 2018-12-28 15:13:43  24 C   35 % 
 2018-12-28 15:04:03  24 C   35 % 
 2018-12-28 14:54:23  24 C   35 % 
 2018-12-28 14:44:43  24 C   34 % 
 2018-12-28 14:35:07  25 C   34 % 
 2018-12-28 14:25:30  25 C   33 % 
 2018-12-28 14:15:52  26 C   31 % 
 2018-12-28 13:56:07  26 C   33 % 
 2018-12-28 13:46:28  23 C   35 % 
 2018-12-28 12:09:00  21 C   37 % 
 2018-12-28 11:58:56  21 C   37 % 
 2018-12-28 10:31:54  21 C   37 % 
 2018-12-28 08:07:02  22 C   38 % 
 2018-12-28 07:28:23  22 C   38 % 
 2018-12-28 06:49:29  22 C   38 % 
 2018-12-28 06:29:44  22 C   38 % 
 2018-12-28 06:00:34  22 C   38 % 
 2018-12-28 05:50:53  22 C   38 % 
 2018-12-28 05:31:19  22 C   38 % 
 2018-12-28 05:21:28  22 C   38 % 
 2018-12-28 05:11:33  22 C   38 % 
 2018-12-28 05:01:29  22 C   38 % 
 2018-12-28 04:51:35  22 C   38 % 
 2018-12-28 04:12:44  23 C   38 % 
 2018-12-28 04:02:55  23 C   38 % 
 2018-12-28 03:53:20  23 C   38 % 
 2018-12-28 03:43:24  23 C   38 % 
 2018-12-28 03:33:44  23 C   38 % 
 2018-12-28 03:23:57  23 C   38 % 
 2018-12-28 03:14:11  23 C   38 % 
 2018-12-28 03:04:35  23 C   38 % 
 2018-12-28 02:54:48  23 C   38 % 
 2018-12-28 02:45:10  23 C   38 % 
 2018-12-28 02:35:32  23 C   38 % 
 2018-12-28 02:25:48  23 C   38 % 
 2018-12-28 01:27:08  23 C   37 % 
 2018-12-28 00:36:58  23 C   37 % 
 2018-12-27 23:48:07  24 C   36 % 
 2018-12-27 23:28:12  24 C   35 % 
 2018-12-27 23:18:35  24 C   35 % 
 2018-12-27 23:09:00  25 C   35 % 
 2018-12-27 22:59:17  25 C   35 % 
 2018-12-27 22:49:46  25 C   34 % 
 2018-12-27 22:39:55  26 C   33 % 
 2018-12-27 22:30:09  26 C   33 % 
 2018-12-27 22:20:36  27 C   33 % 
 2018-12-27 22:10:49  27 C   33 % 
 2018-12-27 22:01:01  25 C   39 % 
 2018-12-27 21:51:23  22 C   38 % 
 2018-12-27 21:32:12  22 C   38 % 
 2018-12-27 21:22:28  22 C   39 % 
 2018-12-27 21:12:46  22 C   39 % 
 2018-12-27 21:02:54  22 C   39 % 
 2018-12-27 20:53:26  22 C   39 % 
 2018-12-27 20:33:45  22 C   39 % 
 2018-12-27 20:24:16  22 C   39 % 
 2018-12-27 20:14:21  22 C   39 % 
 2018-12-27 20:04:47  22 C   40 % 
 2018-12-27 19:35:25  22 C   40 % 
 2018-12-27 19:25:36  22 C   40 % 
 2018-12-27 19:16:00  22 C   41 % 
 2018-12-27 18:47:15  22 C   41 % 
 2018-12-27 18:27:52  22 C   41 % 
 2018-12-27 17:29:45  22 C   38 % 
 2018-12-27 17:20:07  22 C   38 % 
 2018-12-27 17:10:21  22 C   38 % 
 2018-12-27 16:41:09  22 C   38 % 
 2018-12-27 16:31:03  21 C   39 % 
 2018-12-27 15:33:21  21 C   39 % 
 2018-12-27 15:04:01  21 C   39 % 
 2018-12-27 14:25:02  21 C   39 % 
 2018-12-27 14:05:53  21 C   39 % 
 2018-12-27 13:16:15  21 C   39 % 
 2018-12-27 12:56:39  21 C   40 % 
 2018-12-27 12:46:46  21 C   40 % 
 2018-12-27 11:38:05  21 C   38 % 
 2018-12-27 11:28:26  21 C   38 % 
 2018-12-27 07:05:41  22 C   37 % 
 2018-12-27 06:45:52  22 C   37 % 
 2018-12-27 04:30:29  22 C   37 % 
 2018-12-27 04:11:10  22 C   37 % 
 2018-12-27 04:01:24  22 C   37 % 
 2018-12-27 03:41:52  22 C   37 % 
 2018-12-27 03:13:01  22 C   36 % 
 2018-12-27 02:53:21  22 C   37 % 
 2018-12-27 02:43:27  22 C   37 % 
 2018-12-27 01:54:46  22 C   37 % 
 2018-12-27 01:35:34  22 C   37 % 
 2018-12-27 00:27:32  22 C   37 % 
 2018-12-27 00:17:53  22 C   37 % 
 2018-12-26 23:49:07  22 C   37 % 
 2018-12-26 23:39:10  22 C   37 % 
 2018-12-26 23:19:59  23 C   37 % 
 2018-12-26 22:41:19  23 C   37 % 
 2018-12-26 22:31:38  23 C   37 % 
 2018-12-26 22:22:01  23 C   37 % 
 2018-12-26 22:12:25  23 C   37 % 
 2018-12-26 22:02:55  23 C   36 % 
 2018-12-26 21:53:09  23 C   36 % 
 2018-12-26 21:43:19  23 C   36 % 
 2018-12-26 21:33:28  23 C   36 % 
 2018-12-26 21:23:55  23 C   36 % 
 2018-12-26 21:14:17  23 C   36 % 
 2018-12-26 21:04:15  23 C   36 % 
 2018-12-26 20:54:43  23 C   36 % 
 2018-12-26 20:44:57  23 C   36 % 
 2018-12-26 20:35:21  23 C   36 % 
 2018-12-26 20:25:46  23 C   36 % 
 2018-12-26 20:06:38  23 C   37 % 
 2018-12-26 19:56:57  23 C   36 % 
 2018-12-26 19:47:21  23 C   35 % 
 2018-12-26 19:37:44  23 C   35 % 
 2018-12-26 19:28:07  23 C   35 % 
 2018-12-26 19:18:31  23 C   35 % 
 2018-12-26 19:08:57  23 C   35 % 
 2018-12-26 18:59:21  23 C   35 % 
 2018-12-26 18:49:46  23 C   35 % 
 2018-12-26 18:40:09  23 C   34 % 
 2018-12-26 18:30:34  23 C   34 % 
 2018-12-26 18:20:58  23 C   34 % 
 2018-12-26 18:11:24  24 C   34 % 
 2018-12-26 18:01:46  24 C   34 % 
 2018-12-26 17:52:19  24 C   33 % 
 2018-12-26 17:41:55  24 C   33 % 
 2018-12-26 17:32:20  24 C   33 % 
 2018-12-26 17:22:42  25 C   32 % 
 2018-12-26 17:13:08  25 C   32 % 
 2018-12-26 17:03:29  25 C   31 % 
 2018-12-26 16:53:58  26 C   31 % 
 2018-12-26 16:34:30  26 C   31 % 
 2018-12-26 16:24:47  25 C   36 % 
 2018-12-26 15:46:22  22 C   37 % 
 2018-12-26 15:17:39  21 C   37 % 
 2018-12-26 14:18:35  22 C   36 % 
 2018-12-26 14:08:59  22 C   36 % 
 2018-12-26 13:01:46  21 C   37 % 
 2018-12-26 10:54:32  21 C   36 % 
 2018-12-26 10:44:33  21 C   36 % 
 2018-12-26 10:34:45  21 C   36 % 
 2018-12-26 10:24:58  21 C   36 % 
 2018-12-26 09:55:26  21 C   36 % 
 2018-12-26 09:45:38  21 C   36 % 
 2018-12-26 09:25:46  21 C   36 % 
 2018-12-26 09:05:48  21 C   36 % 
 2018-12-26 08:27:04  21 C   36 % 
 2018-12-26 07:48:31  22 C   36 % 
 2018-12-26 07:38:43  22 C   36 % 
 2018-12-26 07:29:04  22 C   36 % 
 2018-12-26 07:19:23  22 C   36 % 
 2018-12-26 05:42:48  22 C   35 % 
 2018-12-26 05:33:08  22 C   35 % 
 2018-12-26 05:03:32  22 C   35 % 
 2018-12-26 04:53:53  22 C   35 % 
 2018-12-26 04:44:02  22 C   35 % 
 2018-12-26 04:05:29  22 C   35 % 
 2018-12-26 03:07:26  23 C   34 % 
 2018-12-26 02:47:50  23 C   34 % 
 2018-12-26 02:37:47  23 C   34 % 
 2018-12-26 02:28:12  23 C   34 % 
 2018-12-26 02:18:28  23 C   34 % 
 2018-12-26 01:59:13  23 C   33 % 
 2018-12-26 01:49:35  23 C   33 % 
 2018-12-26 01:39:57  23 C   33 % 
 2018-12-26 01:30:22  24 C   33 % 
 2018-12-26 01:20:41  24 C   32 % 
 2018-12-26 01:11:04  24 C   32 % 
 2018-12-26 01:01:28  24 C   32 % 
 2018-12-26 00:51:52  24 C   32 % 
 2018-12-26 00:42:17  24 C   31 % 
 2018-12-26 00:32:40  25 C   31 % 
 2018-12-26 00:23:04  25 C   31 % 
 2018-12-26 00:13:29  25 C   30 % 
 2018-12-26 00:03:53  26 C   30 % 
 2018-12-25 23:54:17  26 C   29 % 
 2018-12-25 23:44:41  27 C   29 % 
 2018-12-25 23:35:04  27 C   30 % 
 2018-12-25 23:25:19  23 C   42 % 
 2018-12-25 23:06:07  21 C   35 % 
 2018-12-25 21:38:54  21 C   35 % 
 2018-12-25 21:29:20  21 C   35 % 
 2018-12-25 20:40:41  20 C   36 % 
 2018-12-25 20:21:22  20 C   36 % 
 2018-12-25 20:11:46  20 C   36 % 
 2018-12-25 20:02:09  20 C   36 % 
 2018-12-25 19:52:33  19 C   36 % 
 2018-12-25 19:42:56  19 C   37 % 
 2018-12-25 19:33:20  19 C   37 % 
 2018-12-25 19:23:44  19 C   37 % 
 2018-12-25 19:14:08  19 C   36 % 
 2018-12-25 19:04:32  19 C   36 % 
 2018-12-25 18:54:56  19 C   36 % 
 2018-12-25 18:45:20  19 C   36 % 
 2018-12-25 18:35:44  19 C   36 % 
 2018-12-25 18:26:09  19 C   36 % 
 2018-12-25 18:16:33  19 C   36 % 
 2018-12-25 18:06:57  19 C   36 % 
 2018-12-25 17:57:21  19 C   36 % 
 2018-12-25 17:47:46  19 C   36 % 
 2018-12-25 17:38:09  19 C   36 % 
 2018-12-25 17:28:34  19 C   36 % 
 2018-12-25 17:18:57  19 C   37 % 
 2018-12-25 17:09:21  19 C   37 % 
 2018-12-25 16:59:45  19 C   37 % 
 2018-12-25 16:50:10  19 C   37 % 
 2018-12-25 16:40:34  19 C   36 % 
 2018-12-25 16:30:58  19 C   36 % 
 2018-12-25 16:21:22  19 C   36 % 
 2018-12-25 16:11:47  19 C   36 % 
 2018-12-25 16:02:11  19 C   36 % 
 2018-12-25 15:52:34  19 C   36 % 
 2018-12-25 15:42:58  19 C   36 % 
 2018-12-25 15:33:23  19 C   36 % 
 2018-12-25 15:23:47  19 C   36 % 
 2018-12-25 15:14:11  19 C   36 % 
 2018-12-25 15:04:35  19 C   36 % 
 2018-12-25 14:54:59  19 C   36 % 
 2018-12-25 14:45:23  19 C   36 % 
 2018-12-25 14:35:47  19 C   36 % 
 2018-12-25 14:26:11  19 C   36 % 
 2018-12-25 14:16:35  19 C   36 % 
 2018-12-25 14:06:59  19 C   36 % 
 2018-12-25 13:47:48  19 C   36 % 
 2018-12-25 13:28:35  19 C   36 % 
 2018-12-25 13:19:00  19 C   36 % 
 2018-12-25 13:09:24  19 C   36 % 
 2018-12-25 12:40:37  19 C   36 % 
 2018-12-25 12:31:01  19 C   36 % 
 2018-12-25 12:11:46  19 C   36 % 
 2018-12-25 12:02:11  19 C   36 % 
 2018-12-25 11:52:35  19 C   36 % 
 2018-12-25 11:42:59  19 C   35 % 
 2018-12-25 11:23:44  19 C   35 % 
 2018-12-25 11:14:08  19 C   35 % 
 2018-12-25 11:04:33  19 C   35 % 
 2018-12-25 10:54:57  19 C   35 % 
 2018-12-25 10:45:21  19 C   35 % 
 2018-12-25 10:35:45  19 C   35 % 
 2018-12-25 10:26:08  19 C   35 % 
 2018-12-25 10:16:33  19 C   35 % 
 2018-12-25 10:06:57  19 C   35 % 
 2018-12-25 09:57:21  19 C   35 % 
 2018-12-25 09:47:50  19 C   35 % 
 2018-12-25 09:38:00  19 C   35 % 
 2018-12-25 09:28:24  19 C   35 % 
 2018-12-25 09:18:48  19 C   35 % 
 2018-12-25 09:09:12  19 C   35 % 
 2018-12-25 08:59:36  20 C   35 % 
 2018-12-25 08:50:01  20 C   35 % 
 2018-12-25 08:40:24  20 C   35 % 
 2018-12-25 08:30:48  20 C   35 % 
 2018-12-25 08:21:12  20 C   35 % 
 2018-12-25 08:11:36  20 C   35 % 
 2018-12-25 08:02:00  20 C   35 % 
 2018-12-25 07:52:24  20 C   35 % 
 2018-12-25 07:42:48  20 C   35 % 
 2018-12-25 07:33:12  20 C   35 % 
 2018-12-25 07:23:36  20 C   35 % 
 2018-12-25 07:14:00  20 C   35 % 
 2018-12-25 07:04:25  20 C   35 % 
 2018-12-25 06:54:48  20 C   35 % 
 2018-12-25 06:45:12  20 C   35 % 
 2018-12-25 06:35:36  20 C   35 % 
 2018-12-25 06:26:01  20 C   35 % 
 2018-12-25 06:16:25  20 C   35 % 
 2018-12-25 06:06:49  20 C   35 % 
 2018-12-25 05:57:14  20 C   35 % 
 2018-12-25 05:47:36  20 C   35 % 
 2018-12-25 05:38:00  20 C   35 % 
 2018-12-25 05:28:24  20 C   35 % 
 2018-12-25 05:18:48  20 C   35 % 
 2018-12-25 05:09:13  20 C   35 % 
 2018-12-25 04:59:36  20 C   35 % 
 2018-12-25 04:50:01  20 C   35 % 
 2018-12-25 04:40:24  20 C   35 % 
 2018-12-25 04:30:48  20 C   35 % 
 2018-12-25 04:21:12  20 C   35 % 
 2018-12-25 04:11:36  20 C   35 % 
 2018-12-25 03:52:21  20 C   35 % 
 2018-12-25 03:42:46  20 C   35 % 
 2018-12-25 03:33:09  20 C   35 % 
 2018-12-25 03:23:34  20 C   35 % 
 2018-12-25 03:13:57  20 C   35 % 
 2018-12-25 03:04:22  20 C   35 % 
 2018-12-25 02:45:11  20 C   35 % 
 2018-12-25 02:35:32  20 C   35 % 
 2018-12-25 02:25:57  20 C   35 % 
 2018-12-25 02:06:44  20 C   35 % 
 2018-12-25 01:57:08  20 C   35 % 
 2018-12-25 01:47:32  21 C   35 % 
 2018-12-25 01:37:56  21 C   35 % 
 2018-12-25 01:28:21  21 C   35 % 
 2018-12-25 01:18:45  21 C   35 % 
 2018-12-25 01:09:11  21 C   35 % 
 2018-12-25 00:59:34  21 C   35 % 
 2018-12-25 00:49:55  21 C   35 % 
 2018-12-25 00:40:18  21 C   35 % 
 2018-12-25 00:30:43  21 C   35 % 
 2018-12-25 00:21:07  21 C   35 % 
 2018-12-24 23:52:08  21 C   35 % 
 2018-12-24 23:32:48  21 C   35 % 
 2018-12-24 22:34:16  21 C   35 % 
 2018-12-24 21:46:12  21 C   35 % 
 2018-12-24 20:58:04  22 C   35 % 
 2018-12-24 20:38:05  22 C   35 % 
 2018-12-24 19:39:32  22 C   36 % 
 2018-12-24 19:29:55  22 C   36 % 
 2018-12-24 19:20:20  22 C   36 % 
 2018-12-24 19:10:44  22 C   37 % 
 2018-12-24 18:51:25  22 C   37 % 
 2018-12-24 18:41:37  22 C   37 % 
 2018-12-24 18:32:05  22 C   37 % 
 2018-12-24 18:22:24  22 C   37 % 
 2018-12-24 18:12:47  23 C   37 % 
 2018-12-24 18:03:11  23 C   37 % 
 2018-12-24 17:53:35  23 C   37 % 
 2018-12-24 17:43:59  23 C   36 % 
 2018-12-24 17:34:23  23 C   35 % 
 2018-12-24 17:24:58  23 C   35 % 
 2018-12-24 17:14:46  23 C   34 % 
 2018-12-24 16:55:32  23 C   34 % 
 2018-12-24 16:26:33  22 C   34 % 
 2018-12-24 16:16:55  22 C   34 % 
 2018-12-24 16:07:25  22 C   34 % 
 2018-12-24 15:57:40  22 C   34 % 
 2018-12-24 15:47:52  22 C   34 % 
 2018-12-24 15:38:09  22 C   34 % 
 2018-12-24 15:18:54  22 C   34 % 
 2018-12-24 15:09:18  22 C   34 % 
 2018-12-24 14:59:43  22 C   34 % 
 2018-12-24 14:50:06  23 C   34 % 
 2018-12-24 14:40:36  23 C   33 % 
 2018-12-24 14:30:49  23 C   33 % 
 2018-12-24 14:21:15  23 C   33 % 
 2018-12-24 14:11:32  23 C   33 % 
 2018-12-24 13:52:21  23 C   33 % 
 2018-12-24 13:42:42  23 C   33 % 
 2018-12-24 13:33:05  23 C   34 % 
 2018-12-24 13:23:29  23 C   33 % 
 2018-12-24 13:13:53  23 C   33 % 
 2018-12-24 12:54:38  22 C   35 % 
 2018-12-24 12:45:02  22 C   35 % 
 2018-12-24 12:35:24  22 C   35 % 
 2018-12-24 12:25:47  21 C   35 % 
 2018-12-24 12:06:38  21 C   36 % 
 2018-12-24 11:56:50  21 C   36 % 
 2018-12-24 11:37:49  21 C   36 % 
 2018-12-24 09:58:42  20 C   35 % 
 2018-12-24 09:49:04  20 C   35 % 
 2018-12-24 09:39:27  20 C   35 % 
 2018-12-24 09:29:51  20 C   35 % 
 2018-12-24 09:20:15  20 C   35 % 
 2018-12-24 09:10:40  20 C   35 % 
 2018-12-24 09:01:03  20 C   35 % 
 2018-12-24 08:51:27  21 C   35 % 
 2018-12-24 08:01:50  21 C   35 % 
 2018-12-24 07:52:15  21 C   35 % 
 2018-12-24 07:33:07  21 C   35 % 
 2018-12-24 07:23:09  21 C   35 % 
 2018-12-24 07:13:26  21 C   35 % 
 2018-12-24 06:24:34  21 C   35 % 
 2018-12-24 05:46:00  21 C   35 % 
 2018-12-24 05:36:22  21 C   35 % 
 2018-12-24 04:19:16  22 C   35 % 
 2018-12-24 04:09:39  22 C   35 % 
 2018-12-24 03:59:58  22 C   35 % 
 2018-12-24 03:50:18  22 C   35 % 
 2018-12-24 03:40:40  22 C   35 % 
 2018-12-24 03:31:05  22 C   35 % 
 2018-12-24 03:21:29  22 C   35 % 
 2018-12-24 03:11:53  22 C   35 % 
 2018-12-24 03:02:19  22 C   35 % 
 2018-12-24 02:52:37  22 C   35 % 
 2018-12-24 02:33:15  22 C   35 % 
 2018-12-24 02:23:33  22 C   35 % 
 2018-12-24 02:13:27  22 C   35 % 
 2018-12-24 02:03:49  22 C   35 % 
 2018-12-24 01:54:12  22 C   35 % 
 2018-12-24 01:44:36  23 C   35 % 
 2018-12-24 01:35:00  23 C   35 % 
 2018-12-24 01:25:24  23 C   35 % 
 2018-12-24 01:15:46  23 C   35 % 
 2018-12-24 01:06:10  23 C   35 % 
 2018-12-24 00:56:34  23 C   35 % 
 2018-12-24 00:46:57  23 C   35 % 
 2018-12-24 00:37:20  23 C   35 % 
 2018-12-24 00:27:44  23 C   35 % 
 2018-12-24 00:18:08  23 C   35 % 
 2018-12-24 00:08:32  23 C   35 % 
 2018-12-23 23:58:56  23 C   35 % 
 2018-12-23 23:49:20  23 C   35 % 
 2018-12-23 23:39:43  23 C   35 % 
 2018-12-23 23:30:07  23 C   35 % 
 2018-12-23 23:20:31  23 C   35 % 
 2018-12-23 23:10:55  23 C   35 % 
 2018-12-23 23:01:24  23 C   35 % 
 2018-12-23 22:51:36  23 C   35 % 
 2018-12-23 22:42:00  23 C   35 % 
 2018-12-23 22:32:24  23 C   34 % 
 2018-12-23 22:22:48  23 C   34 % 
 2018-12-23 22:13:14  23 C   34 % 
 2018-12-23 21:53:59  23 C   35 % 
 2018-12-23 21:44:25  23 C   34 % 
 2018-12-23 21:34:47  23 C   33 % 
 2018-12-23 21:25:13  23 C   33 % 
 2018-12-23 21:15:29  23 C   32 % 
 2018-12-23 20:56:16  23 C   38 % 
 2018-12-23 20:46:40  22 C   38 % 
 2018-12-23 20:27:27  22 C   38 % 
 2018-12-23 20:17:51  22 C   41 % 
 2018-12-23 19:58:27  22 C   40 % 
 2018-12-23 19:48:50  22 C   42 % 
 2018-12-23 19:39:12  22 C   41 % 
 2018-12-23 19:29:36  22 C   37 % 
 2018-12-23 19:10:22  22 C   36 % 
 2018-12-23 19:00:45  22 C   36 % 
 2018-12-23 18:41:32  22 C   36 % 
 2018-12-23 18:12:38  22 C   36 % 
 2018-12-23 18:02:58  22 C   36 % 
 2018-12-23 17:43:49  22 C   37 % 
 2018-12-23 17:24:25  22 C   37 % 
 2018-12-23 17:05:08  22 C   37 % 
 2018-12-23 16:36:10  22 C   36 % 
 2018-12-23 16:17:02  22 C   36 % 
 2018-12-23 15:47:52  22 C   36 % 
 2018-12-23 15:38:19  22 C   36 % 
 2018-12-23 15:18:54  22 C   36 % 
 2018-12-23 15:09:19  22 C   36 % 
 2018-12-23 14:59:43  22 C   36 % 
 2018-12-23 14:50:13  22 C   37 % 
 2018-12-23 14:40:21  22 C   37 % 
 2018-12-23 14:30:49  22 C   37 % 
 2018-12-23 14:21:05  22 C   37 % 
 2018-12-23 13:52:12  22 C   39 % 
 2018-12-23 13:42:31  22 C   36 % 
 2018-12-23 13:32:52  22 C   36 % 
 2018-12-23 13:23:15  22 C   37 % 
 2018-12-23 13:13:38  22 C   37 % 
 2018-12-23 12:06:10  21 C   36 % 
 2018-12-23 11:26:55  21 C   36 % 
 2018-12-23 11:07:42  20 C   36 % 
 2018-12-23 10:38:40  21 C   36 % 
 2018-12-23 09:39:56  21 C   36 % 
 2018-12-23 06:46:06  21 C   36 % 
 2018-12-23 03:23:44  22 C   36 % 
 2018-12-23 02:54:47  22 C   36 % 
 2018-12-23 02:44:54  22 C   36 % 
 2018-12-23 02:35:19  22 C   36 % 
 2018-12-23 02:25:41  22 C   36 % 
 2018-12-23 02:16:12  22 C   36 % 
 2018-12-23 02:05:59  22 C   36 % 
 2018-12-23 01:56:24  22 C   36 % 
 2018-12-23 01:37:06  22 C   36 % 
 2018-12-23 00:29:06  23 C   35 % 
 2018-12-23 00:19:20  23 C   35 % 
 2018-12-23 00:09:43  23 C   35 % 
 2018-12-23 00:00:06  23 C   35 % 
 2018-12-22 23:50:33  23 C   35 % 
 2018-12-22 23:30:59  23 C   34 % 
 2018-12-22 23:11:42  23 C   34 % 
 2018-12-22 23:02:04  23 C   34 % 
 2018-12-22 22:42:44  23 C   34 % 
 2018-12-22 22:33:09  23 C   34 % 
 2018-12-22 22:23:29  23 C   33 % 
 2018-12-22 22:13:52  23 C   33 % 
 2018-12-22 22:04:14  23 C   33 % 
 2018-12-22 21:54:38  23 C   33 % 
 2018-12-22 21:45:01  23 C   34 % 
 2018-12-22 21:25:48  23 C   34 % 
 2018-12-22 21:06:37  23 C   35 % 
 2018-12-22 20:57:06  23 C   35 % 
 2018-12-22 20:47:14  23 C   34 % 
 2018-12-22 19:30:07  22 C   35 % 
 2018-12-22 19:10:42  22 C   35 % 
 2018-12-22 15:19:02  20 C   37 % 
 2018-12-22 15:09:28  20 C   38 % 
 2018-12-22 14:59:48  20 C   38 % 
 2018-12-22 14:50:13  20 C   38 % 
 2018-12-22 14:40:36  20 C   38 % 
 2018-12-22 14:30:59  19 C   38 % 
 2018-12-22 14:21:23  19 C   38 % 
 2018-12-22 14:11:48  19 C   38 % 
 2018-12-22 14:02:11  19 C   38 % 
 2018-12-22 13:52:35  19 C   38 % 
 2018-12-22 13:42:59  19 C   38 % 
 2018-12-22 13:23:47  19 C   38 % 
 2018-12-22 13:14:12  18 C   38 % 
 2018-12-22 13:04:35  18 C   38 % 
 2018-12-22 12:54:59  18 C   38 % 
 2018-12-22 12:45:23  18 C   38 % 
 2018-12-22 12:35:47  18 C   38 % 
 2018-12-22 12:26:10  18 C   38 % 
 2018-12-22 12:16:34  18 C   37 % 
 2018-12-22 12:06:57  17 C   38 % 
 2018-12-22 11:57:21  17 C   38 % 
 2018-12-22 11:47:44  17 C   38 % 
 2018-12-22 11:38:08  17 C   38 % 
 2018-12-22 11:28:32  17 C   38 % 
 2018-12-22 11:09:20  17 C   37 % 
 2018-12-22 10:59:44  17 C   37 % 
 2018-12-22 10:40:32  17 C   37 % 
 2018-12-22 10:30:56  17 C   37 % 
 2018-12-22 10:21:19  17 C   37 % 
 2018-12-22 10:11:43  17 C   37 % 
 2018-12-22 10:02:06  17 C   37 % 
 2018-12-22 09:52:31  17 C   37 % 
 2018-12-22 09:42:56  17 C   37 % 
 2018-12-22 09:33:12  17 C   37 % 
 2018-12-22 09:23:36  17 C   37 % 
 2018-12-22 09:14:00  17 C   37 % 
 2018-12-22 09:04:25  17 C   37 % 
 2018-12-22 08:54:49  17 C   37 % 
 2018-12-22 08:45:12  17 C   37 % 
 2018-12-22 08:35:36  17 C   37 % 
 2018-12-22 08:26:00  17 C   37 % 
 2018-12-22 08:16:24  17 C   37 % 
 2018-12-22 08:06:47  17 C   37 % 
 2018-12-22 07:57:11  17 C   37 % 
 2018-12-22 07:47:36  17 C   37 % 
 2018-12-22 07:38:00  17 C   37 % 
 2018-12-22 07:28:24  17 C   37 % 
 2018-12-22 07:18:47  17 C   37 % 
 2018-12-22 07:09:11  17 C   37 % 
 2018-12-22 06:59:35  17 C   37 % 
 2018-12-22 06:49:59  17 C   37 % 
 2018-12-22 06:40:22  17 C   37 % 
 2018-12-22 06:30:46  17 C   37 % 
 2018-12-22 06:21:10  17 C   37 % 
 2018-12-22 06:11:34  18 C   37 % 
 2018-12-22 06:01:58  18 C   37 % 
 2018-12-22 05:52:22  18 C   37 % 
 2018-12-22 05:42:46  18 C   37 % 
 2018-12-22 05:33:10  18 C   37 % 
 2018-12-22 05:23:34  18 C   37 % 
 2018-12-22 05:13:58  18 C   37 % 
 2018-12-22 05:04:22  18 C   37 % 
 2018-12-22 04:54:47  18 C   37 % 
 2018-12-22 04:45:11  18 C   37 % 
 2018-12-22 04:35:35  18 C   37 % 
 2018-12-22 04:25:59  18 C   37 % 
 2018-12-22 04:16:23  18 C   37 % 
 2018-12-22 04:06:47  18 C   37 % 
 2018-12-22 03:57:11  18 C   37 % 
 2018-12-22 03:47:34  18 C   37 % 
 2018-12-22 03:37:59  18 C   37 % 
 2018-12-22 03:28:23  18 C   37 % 
 2018-12-22 03:18:47  18 C   37 % 
 2018-12-22 03:09:11  18 C   37 % 
 2018-12-22 02:59:35  18 C   37 % 
 2018-12-22 02:49:59  18 C   37 % 
 2018-12-22 02:40:23  18 C   37 % 
 2018-12-22 02:30:48  18 C   37 % 
 2018-12-22 02:21:11  18 C   37 % 
 2018-12-22 02:11:36  18 C   37 % 
 2018-12-22 02:02:00  18 C   37 % 
 2018-12-22 01:52:23  18 C   37 % 
 2018-12-22 01:42:47  18 C   37 % 
 2018-12-22 01:33:11  18 C   37 % 
 2018-12-22 01:23:35  18 C   37 % 
 2018-12-22 01:13:59  18 C   37 % 
 2018-12-22 01:04:24  18 C   37 % 
 2018-12-22 00:54:47  18 C   37 % 
 2018-12-22 00:45:12  18 C   37 % 
 2018-12-22 00:35:36  18 C   37 % 
 2018-12-22 00:26:00  18 C   37 % 
 2018-12-22 00:16:24  18 C   37 % 
 2018-12-22 00:06:48  18 C   37 % 
 2018-12-21 23:57:13  18 C   37 % 
 2018-12-21 23:47:36  18 C   37 % 
 2018-12-21 23:38:01  18 C   37 % 
 2018-12-21 23:28:24  18 C   37 % 
 2018-12-21 23:18:52  18 C   37 % 
 2018-12-21 23:09:13  18 C   37 % 
 2018-12-21 22:59:37  18 C   37 % 
 2018-12-21 22:50:01  18 C   37 % 
 2018-12-21 22:40:25  18 C   37 % 
 2018-12-21 22:30:49  18 C   37 % 
 2018-12-21 22:21:13  18 C   37 % 
 2018-12-21 22:11:38  18 C   37 % 
 2018-12-21 22:02:02  18 C   37 % 
 2018-12-21 21:52:26  18 C   37 % 
 2018-12-21 21:42:50  18 C   37 % 
 2018-12-21 21:33:14  18 C   37 % 
 2018-12-21 21:23:38  18 C   37 % 
 2018-12-21 21:14:02  18 C   37 % 
 2018-12-21 21:04:25  18 C   37 % 
 2018-12-21 20:54:49  18 C   37 % 
 2018-12-21 20:45:14  18 C   37 % 
 2018-12-21 20:35:38  18 C   37 % 
 2018-12-21 20:26:01  18 C   37 % 
 2018-12-21 20:16:26  18 C   37 % 
 2018-12-21 20:06:50  18 C   37 % 
 2018-12-21 19:57:15  18 C   37 % 
 2018-12-21 19:47:39  18 C   37 % 
 2018-12-21 19:38:03  18 C   37 % 
 2018-12-21 19:28:27  18 C   37 % 
 2018-12-21 19:18:51  18 C   37 % 
 2018-12-21 19:09:15  18 C   37 % 
 2018-12-21 18:59:39  18 C   37 % 
 2018-12-21 18:50:03  18 C   37 % 
 2018-12-21 18:40:28  18 C   37 % 
 2018-12-21 18:30:51  18 C   37 % 
 2018-12-21 18:21:16  18 C   37 % 
 2018-12-21 18:11:40  18 C   37 % 
 2018-12-21 18:02:05  18 C   37 % 
 2018-12-21 17:52:29  18 C   37 % 
 2018-12-21 17:33:17  18 C   37 % 
 2018-12-21 17:23:41  18 C   37 % 
 2018-12-21 17:14:05  18 C   37 % 
 2018-12-21 17:04:30  18 C   37 % 
 2018-12-21 16:54:54  18 C   37 % 
 2018-12-21 16:45:18  18 C   37 % 
 2018-12-21 16:35:43  18 C   37 % 
 2018-12-21 16:26:07  18 C   37 % 
 2018-12-21 16:16:31  18 C   37 % 
 2018-12-21 16:06:55  18 C   37 % 
 2018-12-21 15:57:19  18 C   37 % 
 2018-12-21 15:47:44  18 C   37 % 
 2018-12-21 15:38:07  18 C   37 % 
 2018-12-21 15:28:31  18 C   37 % 
 2018-12-21 15:18:56  18 C   37 % 
 2018-12-21 15:09:20  18 C   37 % 
 2018-12-21 14:59:44  18 C   37 % 
 2018-12-21 14:50:08  18 C   37 % 
 2018-12-21 14:40:32  18 C   37 % 
 2018-12-21 14:30:56  18 C   37 % 
 2018-12-21 14:21:21  18 C   37 % 
 2018-12-21 14:11:46  18 C   38 % 
 2018-12-21 14:02:09  18 C   38 % 
 2018-12-21 13:52:32  18 C   37 % 
 2018-12-21 13:42:56  18 C   37 % 
 2018-12-21 13:33:21  18 C   37 % 
 2018-12-21 13:23:45  19 C   37 % 
 2018-12-21 13:14:09  19 C   37 % 
 2018-12-21 13:04:33  19 C   37 % 
 2018-12-21 12:54:58  19 C   37 % 
 2018-12-21 12:45:22  18 C   37 % 
 2018-12-21 12:35:46  19 C   37 % 
 2018-12-21 12:26:10  19 C   37 % 
 2018-12-21 12:16:34  19 C   37 % 
 2018-12-21 12:06:58  19 C   37 % 
 2018-12-21 11:57:22  19 C   38 % 
 2018-12-21 11:47:46  19 C   38 % 
 2018-12-21 11:38:11  19 C   38 % 
 2018-12-21 11:28:35  19 C   38 % 
 2018-12-21 11:18:59  19 C   38 % 
 2018-12-21 11:09:22  19 C   38 % 
 2018-12-21 10:59:47  19 C   38 % 
 2018-12-21 10:50:11  19 C   37 % 
 2018-12-21 10:40:35  19 C   37 % 
 2018-12-21 10:30:59  19 C   37 % 
 2018-12-21 10:21:23  19 C   37 % 
 2018-12-21 10:02:11  19 C   37 % 
 2018-12-21 09:52:36  19 C   37 % 
 2018-12-21 09:43:02  19 C   37 % 
 2018-12-21 09:33:22  19 C   37 % 
 2018-12-21 09:23:47  19 C   37 % 
 2018-12-21 09:14:11  19 C   37 % 
 2018-12-21 09:04:35  19 C   37 % 
 2018-12-21 08:55:00  19 C   37 % 
 2018-12-21 08:45:24  19 C   37 % 
 2018-12-21 08:35:48  19 C   37 % 
 2018-12-21 08:26:12  19 C   37 % 
 2018-12-21 08:16:36  19 C   37 % 
 2018-12-21 08:07:00  19 C   37 % 
 2018-12-21 07:57:24  19 C   37 % 
 2018-12-21 07:47:49  19 C   37 % 
 2018-12-21 07:38:12  19 C   37 % 
 2018-12-21 07:28:36  19 C   37 % 
 2018-12-21 07:19:00  19 C   37 % 
 2018-12-21 07:09:24  19 C   37 % 
 2018-12-21 06:59:48  19 C   37 % 
 2018-12-21 06:50:13  19 C   37 % 
 2018-12-21 06:40:37  19 C   37 % 
 2018-12-21 06:31:01  19 C   38 % 
 2018-12-21 06:21:26  19 C   37 % 
 2018-12-21 06:11:48  19 C   37 % 
 2018-12-21 06:02:12  19 C   37 % 
 2018-12-21 05:52:36  19 C   37 % 
 2018-12-21 05:43:01  19 C   37 % 
 2018-12-21 05:33:25  19 C   37 % 
 2018-12-21 05:23:49  19 C   37 % 
 2018-12-21 05:14:13  19 C   37 % 
 2018-12-21 05:04:37  19 C   37 % 
 2018-12-21 04:55:01  19 C   37 % 
 2018-12-21 04:45:25  19 C   37 % 
 2018-12-21 04:35:49  19 C   37 % 
 2018-12-21 04:26:13  19 C   38 % 
 2018-12-21 04:16:37  19 C   38 % 
 2018-12-21 04:07:01  19 C   38 % 
 2018-12-21 03:57:24  19 C   38 % 
 2018-12-21 03:47:48  19 C   38 % 
 2018-12-21 03:28:15  19 C   38 % 
 2018-12-21 03:18:40  19 C   38 % 
 2018-12-21 03:09:04  19 C   38 % 
 2018-12-21 02:59:28  19 C   38 % 
 2018-12-21 02:49:52  20 C   38 % 
 2018-12-21 02:40:15  19 C   38 % 
 2018-12-21 02:30:40  20 C   38 % 
 2018-12-21 02:21:04  20 C   38 % 
 2018-12-21 02:11:28  20 C   38 % 
 2018-12-21 02:01:52  20 C   38 % 
 2018-12-21 01:52:16  20 C   38 % 
 2018-12-21 01:42:41  20 C   38 % 
 2018-12-21 01:33:09  20 C   38 % 
 2018-12-21 01:13:32  20 C   38 % 
 2018-12-21 01:03:56  20 C   38 % 
 2018-12-21 00:54:20  20 C   38 % 
 2018-12-21 00:44:45  20 C   38 % 
 2018-12-21 00:35:09  20 C   38 % 
 2018-12-21 00:25:34  20 C   38 % 
 2018-12-21 00:15:58  20 C   38 % 
 2018-12-20 23:56:15  20 C   38 % 
 2018-12-20 23:46:40  20 C   38 % 
 2018-12-20 23:26:52  20 C   38 % 
 2018-12-20 23:07:10  20 C   38 % 
 2018-12-20 22:57:34  20 C   38 % 
 2018-12-20 22:47:58  20 C   37 % 
 2018-12-20 22:28:08  20 C   38 % 
 2018-12-20 21:49:12  20 C   38 % 
 2018-12-20 21:38:47  20 C   38 % 
 2018-12-20 21:19:33  20 C   38 % 
 2018-12-20 20:59:46  20 C   38 % 
 2018-12-20 20:50:05  20 C   38 % 
 2018-12-20 20:40:20  20 C   38 % 
 2018-12-20 19:50:36  20 C   38 % 
 2018-12-20 19:31:29  20 C   38 % 
 2018-12-20 19:21:07  20 C   38 % 
 2018-12-20 19:11:33  20 C   38 % 
 2018-12-20 19:02:01  20 C   38 % 
 2018-12-20 18:32:32  21 C   38 % 
 2018-12-20 18:22:59  21 C   38 % 
 2018-12-20 17:44:39  21 C   38 % 
 2018-12-20 17:15:22  21 C   38 % 
 2018-12-20 17:05:45  21 C   38 % 
 2018-12-20 16:46:28  21 C   38 % 
 2018-12-20 11:37:56  22 C   38 % 
 2018-12-20 11:28:15  21 C   38 % 
 2018-12-20 11:18:25  21 C   38 % 
 2018-12-20 10:30:13  21 C   38 % 
 2018-12-20 10:20:37  21 C   38 % 
 2018-12-20 09:22:56  21 C   37 % 
 2018-12-20 08:44:30  21 C   36 % 
 2018-12-20 07:36:58  22 C   36 % 
 2018-12-20 05:31:34  22 C   36 % 
 2018-12-20 05:21:53  22 C   36 % 
 2018-12-20 05:12:09  22 C   36 % 
 2018-12-20 05:02:33  22 C   36 % 
 2018-12-20 04:43:23  22 C   36 % 
 2018-12-20 04:23:20  22 C   36 % 
 2018-12-20 04:13:53  22 C   36 % 
 2018-12-20 03:54:05  22 C   36 % 
 2018-12-20 03:44:31  22 C   35 % 
 2018-12-20 03:34:49  22 C   35 % 
 2018-12-20 03:25:07  22 C   35 % 
 2018-12-20 03:15:33  23 C   35 % 
 2018-12-20 03:05:54  23 C   35 % 
 2018-12-20 02:46:19  23 C   35 % 
 2018-12-20 02:36:39  23 C   35 % 
 2018-12-20 02:17:28  23 C   35 % 
 2018-12-20 02:07:55  23 C   35 % 
 2018-12-20 01:57:58  23 C   35 % 
 2018-12-20 01:38:12  23 C   35 % 
 2018-12-20 01:28:36  23 C   35 % 
 2018-12-20 00:59:35  22 C   35 % 
 2018-12-20 00:30:34  22 C   35 % 
 2018-12-20 00:20:53  23 C   35 % 
 2018-12-20 00:11:24  23 C   35 % 
 2018-12-20 00:01:37  22 C   35 % 
 2018-12-19 23:51:37  22 C   35 % 
 2018-12-19 23:32:25  22 C   35 % 
 2018-12-19 23:22:50  22 C   35 % 
 2018-12-19 22:44:27  22 C   35 % 
 2018-12-19 22:34:35  22 C   35 % 
 2018-12-19 22:15:11  22 C   35 % 
 2018-12-19 22:05:31  22 C   35 % 
 2018-12-19 21:46:16  22 C   35 % 
 2018-12-19 21:26:50  22 C   35 % 
 2018-12-19 21:07:34  22 C   35 % 
 2018-12-19 20:58:03  22 C   35 % 
 2018-12-19 20:09:46  22 C   36 % 
 2018-12-19 19:50:26  22 C   35 % 
 2018-12-19 19:31:14  22 C   36 % 
 2018-12-19 19:11:54  22 C   35 % 
 2018-12-19 18:52:41  22 C   35 % 
 2018-12-19 18:43:05  22 C   35 % 
 2018-12-19 18:33:33  22 C   35 % 
 2018-12-19 18:23:46  22 C   35 % 
 2018-12-19 17:54:54  22 C   35 % 
 2018-12-19 17:45:20  22 C   35 % 
 2018-12-19 17:35:50  22 C   35 % 
 2018-12-19 17:25:39  22 C   35 % 
 2018-12-19 17:16:00  22 C   35 % 
 2018-12-19 17:06:24  22 C   36 % 
 2018-12-19 16:56:46  22 C   36 % 
 2018-12-19 16:47:11  22 C   36 % 
 2018-12-19 16:37:33  22 C   36 % 
 2018-12-19 16:27:56  22 C   36 % 
 2018-12-19 16:08:43  22 C   37 % 
 2018-12-19 15:39:01  22 C   36 % 
 2018-12-19 15:29:19  22 C   35 % 
 2018-12-19 13:52:49  22 C   35 % 
 2018-12-19 13:43:08  22 C   35 % 
 2018-12-19 10:30:17  21 C   34 % 
 2018-12-19 10:11:06  21 C   34 % 
 2018-12-19 10:01:07  21 C   34 % 
 2018-12-19 06:48:24  21 C   35 % 
 2018-12-19 05:41:01  21 C   35 % 
 2018-12-19 05:11:58  22 C   35 % 
 2018-12-19 03:45:13  22 C   35 % 
 2018-12-19 03:35:37  22 C   34 % 
 2018-12-19 03:16:33  22 C   34 % 
 2018-12-19 02:56:46  22 C   34 % 
 2018-12-19 02:47:11  22 C   34 % 
 2018-12-19 02:37:33  22 C   34 % 
 2018-12-19 02:18:15  22 C   34 % 
 2018-12-19 01:59:03  22 C   34 % 
 2018-12-19 01:29:10  22 C   34 % 
 2018-12-19 01:19:33  22 C   34 % 
 2018-12-19 00:50:42  22 C   34 % 
 2018-12-19 00:40:54  22 C   34 % 
 2018-12-19 00:31:21  22 C   34 % 
 2018-12-19 00:21:35  22 C   34 % 
 2018-12-19 00:12:10  22 C   34 % 
 2018-12-18 23:52:02  22 C   34 % 
 2018-12-18 23:32:49  22 C   34 % 
 2018-12-18 23:04:06  22 C   34 % 
 2018-12-18 22:25:16  22 C   34 % 
 2018-12-18 22:06:03  22 C   34 % 
 2018-12-18 21:37:00  22 C   34 % 
 2018-12-18 21:17:49  22 C   34 % 
 2018-12-18 20:29:43  21 C   35 % 
 2018-12-18 20:00:47  22 C   35 % 
 2018-12-18 19:02:58  22 C   36 % 
 2018-12-18 18:53:26  22 C   36 % 
 2018-12-18 18:34:05  22 C   37 % 
 2018-12-18 18:24:27  22 C   37 % 
 2018-12-18 18:14:50  22 C   37 % 
 2018-12-18 17:55:39  22 C   37 % 
 2018-12-18 17:36:16  22 C   37 % 
 2018-12-18 17:17:00  22 C   36 % 
 2018-12-18 16:57:50  22 C   36 % 
 2018-12-18 16:48:12  22 C   36 % 
 2018-12-18 16:38:37  22 C   35 % 
 2018-12-18 16:28:49  22 C   35 % 
 2018-12-18 16:19:13  22 C   35 % 
 2018-12-18 16:09:36  22 C   35 % 
 2018-12-18 15:50:24  22 C   35 % 
 2018-12-18 15:40:38  22 C   35 % 
 2018-12-18 15:21:28  22 C   35 % 
 2018-12-18 15:11:49  22 C   36 % 
 2018-12-18 15:02:11  22 C   36 % 
 2018-12-18 14:52:26  22 C   36 % 
 2018-12-18 14:42:49  22 C   36 % 
 2018-12-18 14:33:13  22 C   37 % 
 2018-12-18 14:13:54  22 C   39 % 
 2018-12-18 14:04:19  22 C   45 % 
 2018-12-18 13:54:42  23 C   35 % 
 2018-12-18 13:35:30  22 C   36 % 
 2018-12-18 13:16:17  22 C   35 % 
 2018-12-18 13:06:42  22 C   35 % 
 2018-12-18 12:47:17  22 C   35 % 
 2018-12-18 12:37:42  22 C   35 % 
 2018-12-18 12:18:10  22 C   35 % 
 2018-12-18 12:08:29  22 C   35 % 
 2018-12-18 11:39:44  22 C   35 % 
 2018-12-18 11:10:39  22 C   36 % 
 2018-12-18 10:41:37  22 C   35 % 
 2018-12-18 10:22:19  21 C   36 % 
 2018-12-18 09:43:57  21 C   37 % 
 2018-12-18 08:26:50  21 C   36 % 
 2018-12-18 06:12:12  21 C   37 % 
 2018-12-18 06:02:38  21 C   37 % 
 2018-12-18 04:34:54  22 C   37 % 
 2018-12-18 04:25:09  22 C   37 % 
 2018-12-18 03:36:40  22 C   37 % 
 2018-12-18 03:27:07  22 C   37 % 
 2018-12-18 02:58:11  22 C   37 % 
 2018-12-18 02:38:58  22 C   37 % 
 2018-12-18 02:29:20  22 C   37 % 
 2018-12-18 02:19:43  22 C   37 % 
 2018-12-18 02:00:21  22 C   36 % 
 2018-12-18 01:50:19  22 C   36 % 
 2018-12-18 01:30:59  22 C   36 % 
 2018-12-18 01:21:22  22 C   36 % 
 2018-12-18 01:11:55  22 C   36 % 
 2018-12-18 01:01:43  22 C   36 % 
 2018-12-18 00:52:17  22 C   36 % 
 2018-12-18 00:42:06  22 C   36 % 
 2018-12-18 00:32:38  22 C   36 % 
 2018-12-18 00:12:55  22 C   36 % 
 2018-12-18 00:03:21  22 C   36 % 
 2018-12-17 23:43:59  22 C   36 % 
 2018-12-17 23:34:24  22 C   36 % 
 2018-12-17 23:24:48  22 C   36 % 
 2018-12-17 23:15:11  22 C   36 % 
 2018-12-17 23:05:34  22 C   36 % 
 2018-12-17 22:55:53  22 C   36 % 
 2018-12-17 22:46:14  22 C   36 % 
 2018-12-17 22:36:38  22 C   36 % 
 2018-12-17 22:17:23  22 C   36 % 
 2018-12-17 22:07:45  22 C   36 % 
 2018-12-17 21:58:17  22 C   36 % 
 2018-12-17 21:38:38  21 C   36 % 
 2018-12-17 21:09:49  21 C   36 % 
 2018-12-17 20:41:02  22 C   37 % 
 2018-12-17 20:31:21  21 C   38 % 
 2018-12-17 19:13:48  21 C   36 % 
 2018-12-17 18:54:42  21 C   36 % 
 2018-12-17 18:34:56  21 C   36 % 
 2018-12-17 17:26:56  21 C   36 % 
 2018-12-17 16:48:28  21 C   36 % 
 2018-12-17 16:38:41  21 C   36 % 
 2018-12-17 15:50:32  21 C   36 % 
 2018-12-17 15:40:51  21 C   36 % 
 2018-12-17 15:21:19  21 C   36 % 
 2018-12-17 15:11:45  22 C   36 % 
 2018-12-17 14:42:51  22 C   36 % 
 2018-12-17 14:04:30  22 C   35 % 
 2018-12-17 13:54:34  22 C   35 % 
 2018-12-17 13:44:50  22 C   35 % 
 2018-12-17 13:35:14  22 C   35 % 
 2018-12-17 13:25:43  22 C   35 % 
 2018-12-17 13:15:52  22 C   35 % 
 2018-12-17 13:06:18  22 C   35 % 
 2018-12-17 12:56:33  22 C   35 % 
 2018-12-17 12:46:57  22 C   35 % 
 2018-12-17 12:37:19  22 C   35 % 
 2018-12-17 12:27:40  22 C   35 % 
 2018-12-17 12:18:01  22 C   35 % 
 2018-12-17 11:58:51  22 C   35 % 
 2018-12-17 11:49:14  22 C   35 % 
 2018-12-17 11:39:26  22 C   35 % 
 2018-12-17 11:29:47  22 C   35 % 
 2018-12-17 11:20:14  22 C   35 % 
 2018-12-17 10:51:05  21 C   35 % 
 2018-12-17 09:43:31  21 C   36 % 
 2018-12-17 08:26:36  21 C   35 % 
 2018-12-17 07:47:56  22 C   35 % 
 2018-12-17 07:28:09  22 C   35 % 
 2018-12-17 07:18:30  22 C   35 % 
 2018-12-17 07:08:47  22 C   35 % 
 2018-12-17 06:59:04  22 C   35 % 
 2018-12-17 06:49:27  22 C   35 % 
 2018-12-17 06:39:45  22 C   35 % 
 2018-12-17 06:01:16  22 C   35 % 
 2018-12-17 05:51:40  22 C   35 % 
 2018-12-17 05:42:01  22 C   35 % 
 2018-12-17 05:32:25  22 C   35 % 
 2018-12-17 05:13:08  22 C   35 % 
 2018-12-17 05:03:34  22 C   35 % 
 2018-12-17 04:43:57  22 C   35 % 
 2018-12-17 04:34:11  22 C   35 % 
 2018-12-17 04:24:26  22 C   35 % 
 2018-12-17 04:14:50  22 C   35 % 
 2018-12-17 03:55:17  23 C   35 % 
 2018-12-17 03:45:40  23 C   35 % 
 2018-12-17 01:39:43  23 C   34 % 
 2018-12-17 01:20:27  23 C   33 % 
 2018-12-17 01:10:50  23 C   33 % 
 2018-12-17 01:01:12  23 C   33 % 
 2018-12-17 00:51:38  23 C   33 % 
 2018-12-17 00:41:59  23 C   33 % 
 2018-12-17 00:32:24  23 C   33 % 
 2018-12-17 00:13:06  24 C   33 % 
 2018-12-17 00:03:30  24 C   33 % 
 2018-12-16 23:44:13  24 C   33 % 
 2018-12-16 23:24:32  24 C   33 % 
 2018-12-16 22:45:59  24 C   33 % 
 2018-12-16 22:36:24  24 C   33 % 
 2018-12-16 22:26:44  24 C   33 % 
 2018-12-16 22:17:09  23 C   34 % 
 2018-12-16 22:07:32  23 C   33 % 
 2018-12-16 21:57:57  23 C   33 % 
 2018-12-16 21:48:18  23 C   33 % 
 2018-12-16 21:38:44  24 C   33 % 
 2018-12-16 21:29:05  24 C   33 % 
 2018-12-16 21:19:26  24 C   33 % 
 2018-12-16 21:09:51  24 C   33 % 
 2018-12-16 21:00:14  24 C   32 % 
 2018-12-16 20:50:38  24 C   32 % 
 2018-12-16 20:41:00  24 C   32 % 
 2018-12-16 20:31:23  24 C   32 % 
 2018-12-16 20:21:46  24 C   32 % 
 2018-12-16 20:12:08  24 C   32 % 
 2018-12-16 20:02:32  24 C   32 % 
 2018-12-16 19:52:56  24 C   32 % 
 2018-12-16 19:43:20  23 C   33 % 
 2018-12-16 19:23:26  23 C   33 % 
 2018-12-16 19:13:50  23 C   33 % 
 2018-12-16 19:04:12  23 C   33 % 
 2018-12-16 18:54:37  23 C   34 % 
 2018-12-16 18:44:57  23 C   36 % 
 2018-12-16 18:35:19  23 C   37 % 
 2018-12-16 18:25:40  23 C   37 % 
 2018-12-16 18:16:06  23 C   33 % 
 2018-12-16 18:06:26  23 C   33 % 
 2018-12-16 17:56:50  23 C   33 % 
 2018-12-16 17:47:14  23 C   34 % 
 2018-12-16 17:37:37  22 C   34 % 
 2018-12-16 17:28:02  22 C   34 % 
 2018-12-16 17:08:43  22 C   34 % 
 2018-12-16 16:49:27  22 C   34 % 
 2018-12-16 16:39:47  22 C   34 % 
 2018-12-16 16:10:24  22 C   34 % 
 2018-12-16 15:50:00  22 C   34 % 
 2018-12-16 15:40:13  22 C   34 % 
 2018-12-16 15:01:10  22 C   34 % 
 2018-12-16 14:41:32  22 C   34 % 
 2018-12-16 14:32:00  22 C   34 % 
 2018-12-16 14:22:12  22 C   34 % 
 2018-12-16 14:12:36  22 C   34 % 
 2018-12-16 13:53:25  22 C   34 % 
 2018-12-16 13:43:43  22 C   34 % 
 2018-12-16 13:05:13  22 C   34 % 
 2018-12-16 12:46:00  21 C   34 % 
 2018-12-16 12:16:58  21 C   35 % 
 2018-12-16 11:28:55  21 C   34 % 
 2018-12-16 10:50:03  21 C   34 % 
 2018-12-16 10:40:25  21 C   34 % 
 2018-12-16 10:21:07  21 C   34 % 
 2018-12-16 10:11:36  22 C   34 % 
 2018-12-16 09:32:57  22 C   34 % 
 2018-12-16 09:23:15  22 C   34 % 
 2018-12-16 09:13:43  22 C   34 % 
 2018-12-16 09:03:52  22 C   34 % 
 2018-12-16 08:34:43  22 C   34 % 
 2018-12-16 08:25:10  22 C   34 % 
 2018-12-16 08:15:25  22 C   34 % 
 2018-12-16 08:05:37  22 C   34 % 
 2018-12-16 07:55:44  22 C   34 % 
 2018-12-16 07:46:06  22 C   33 % 
 2018-12-16 07:36:28  22 C   33 % 
 2018-12-16 07:17:12  22 C   33 % 
 2018-12-16 07:07:35  22 C   33 % 
 2018-12-16 06:58:05  22 C   33 % 
 2018-12-16 06:48:13  22 C   33 % 
 2018-12-16 06:38:37  22 C   33 % 
 2018-12-16 06:29:01  23 C   33 % 
 2018-12-16 06:19:22  23 C   33 % 
 2018-12-16 06:09:46  23 C   33 % 
 2018-12-16 06:00:10  23 C   33 % 
 2018-12-16 05:50:37  23 C   33 % 
 2018-12-16 05:40:49  23 C   33 % 
 2018-12-16 05:31:12  23 C   33 % 
 2018-12-16 05:21:37  23 C   33 % 
 2018-12-16 05:12:01  23 C   33 % 
 2018-12-16 05:02:11  23 C   32 % 
 2018-12-16 04:52:27  23 C   32 % 
 2018-12-16 04:12:54  23 C   32 % 
 2018-12-16 04:03:28  23 C   32 % 
 2018-12-16 03:43:34  23 C   32 % 
 2018-12-16 03:34:00  23 C   32 % 
 2018-12-16 03:24:21  23 C   32 % 
 2018-12-16 02:55:11  23 C   32 % 
 2018-12-16 02:25:46  23 C   33 % 
 2018-12-16 02:16:09  23 C   33 % 
 2018-12-16 02:06:32  23 C   33 % 
 2018-12-16 01:56:55  23 C   33 % 
 2018-12-16 01:47:20  23 C   33 % 
 2018-12-16 01:28:03  23 C   33 % 
 2018-12-16 01:18:26  23 C   33 % 
 2018-12-16 01:08:51  23 C   32 % 
 2018-12-16 00:59:09  23 C   33 % 
 2018-12-16 00:39:55  23 C   33 % 
 2018-12-16 00:30:19  23 C   33 % 
 2018-12-16 00:20:43  23 C   33 % 
 2018-12-16 00:11:06  23 C   33 % 
 2018-12-16 00:01:31  23 C   33 % 
 2018-12-15 23:51:54  23 C   33 % 
 2018-12-15 23:23:01  23 C   33 % 
 2018-12-15 22:54:15  23 C   33 % 
 2018-12-15 22:44:22  23 C   33 % 
 2018-12-15 22:34:40  23 C   33 % 
 2018-12-15 22:25:03  23 C   33 % 
 2018-12-15 21:46:21  23 C   33 % 
 2018-12-15 21:17:36  23 C   33 % 
 2018-12-15 21:07:31  23 C   33 % 
 2018-12-15 20:57:50  23 C   33 % 
 2018-12-15 20:38:20  23 C   33 % 
 2018-12-15 20:18:54  23 C   33 % 
 2018-12-15 20:09:18  23 C   33 % 
 2018-12-15 19:59:40  23 C   34 % 
 2018-12-15 19:50:04  23 C   34 % 
 2018-12-15 19:40:26  23 C   34 % 
 2018-12-15 19:30:50  23 C   34 % 
 2018-12-15 19:21:19  23 C   34 % 
 2018-12-15 19:11:30  23 C   34 % 
 2018-12-15 19:01:48  23 C   34 % 
 2018-12-15 18:52:13  23 C   34 % 
 2018-12-15 18:42:36  23 C   34 % 
 2018-12-15 18:33:01  23 C   34 % 
 2018-12-15 18:13:45  23 C   34 % 
 2018-12-15 18:04:07  23 C   34 % 
 2018-12-15 17:44:52  22 C   34 % 
 2018-12-15 17:35:17  22 C   35 % 
 2018-12-15 17:25:38  22 C   35 % 
 2018-12-15 17:16:03  22 C   35 % 
 2018-12-15 17:06:25  22 C   35 % 
 2018-12-15 16:56:49  22 C   35 % 
 2018-12-15 16:28:00  22 C   35 % 
 2018-12-15 16:18:16  22 C   36 % 
 2018-12-15 16:08:38  22 C   36 % 
 2018-12-15 15:49:18  22 C   36 % 
 2018-12-15 15:20:29  22 C   34 % 
 2018-12-15 15:10:50  22 C   34 % 
 2018-12-15 14:41:58  22 C   33 % 
 2018-12-15 14:32:16  22 C   33 % 
 2018-12-15 14:22:35  22 C   33 % 
 2018-12-15 14:12:57  22 C   33 % 
 2018-12-15 13:43:59  21 C   33 % 
 2018-12-15 13:15:10  21 C   33 % 
 2018-12-15 12:36:45  21 C   43 % 
 2018-12-15 09:32:06  21 C   33 % 
 2018-12-15 07:46:14  21 C   32 % 
 2018-12-15 06:38:55  21 C   33 % 
 2018-12-15 06:09:54  22 C   33 % 
 2018-12-15 05:50:26  22 C   33 % 
 2018-12-15 05:31:12  22 C   33 % 
 2018-12-15 05:21:33  22 C   33 % 
 2018-12-15 04:52:42  22 C   33 % 
 2018-12-15 04:42:49  22 C   33 % 
 2018-12-15 04:33:13  22 C   32 % 
 2018-12-15 04:13:56  22 C   32 % 
 2018-12-15 03:35:31  23 C   33 % 
 2018-12-15 03:25:05  23 C   33 % 
 2018-12-15 03:15:29  23 C   33 % 
 2018-12-15 02:56:11  23 C   32 % 
 2018-12-15 02:36:59  23 C   32 % 
 2018-12-15 02:27:23  23 C   32 % 
 2018-12-15 02:17:48  23 C   32 % 
 2018-12-15 02:08:13  23 C   32 % 
 2018-12-15 01:58:37  23 C   32 % 
 2018-12-15 01:49:00  23 C   32 % 
 2018-12-15 01:39:24  23 C   32 % 
 2018-12-15 01:29:47  23 C   32 % 
 2018-12-15 01:20:13  24 C   32 % 
 2018-12-15 01:10:33  24 C   32 % 
 2018-12-15 01:00:57  24 C   32 % 
 2018-12-15 00:51:25  24 C   32 % 
 2018-12-15 00:41:40  24 C   32 % 
 2018-12-15 00:32:03  24 C   32 % 
 2018-12-14 23:24:08  24 C   32 % 
 2018-12-14 23:14:31  24 C   33 % 
 2018-12-14 23:04:56  24 C   33 % 
 2018-12-14 22:55:19  24 C   33 % 
 2018-12-14 22:45:43  24 C   33 % 
 2018-12-14 22:36:06  24 C   34 % 
 2018-12-14 22:26:29  24 C   34 % 
 2018-12-14 22:16:52  24 C   38 % 
 2018-12-14 22:07:16  24 C   37 % 
 2018-12-14 21:47:57  23 C   32 % 
 2018-12-14 21:38:21  23 C   32 % 
 2018-12-14 21:28:43  23 C   32 % 
 2018-12-14 21:19:07  23 C   32 % 
 2018-12-14 21:09:30  23 C   32 % 
 2018-12-14 20:59:53  23 C   32 % 
 2018-12-14 20:50:19  23 C   32 % 
 2018-12-14 20:40:39  23 C   32 % 
 2018-12-14 20:31:02  23 C   32 % 
 2018-12-14 20:21:25  23 C   32 % 
 2018-12-14 20:11:47  23 C   32 % 
 2018-12-14 20:02:11  23 C   32 % 
 2018-12-14 19:52:35  23 C   32 % 
 2018-12-14 19:42:57  23 C   33 % 
 2018-12-14 19:33:21  23 C   33 % 
 2018-12-14 19:23:42  23 C   33 % 
 2018-12-14 19:14:06  23 C   33 % 
 2018-12-14 19:04:28  23 C   33 % 
 2018-12-14 18:54:52  23 C   33 % 
 2018-12-14 18:45:14  23 C   33 % 
 2018-12-14 18:35:38  23 C   33 % 
 2018-12-14 18:26:02  23 C   33 % 
 2018-12-14 18:16:25  22 C   33 % 
 2018-12-14 17:57:11  22 C   32 % 
 2018-12-14 17:47:34  23 C   32 % 
 2018-12-14 17:37:59  23 C   32 % 
 2018-12-14 17:18:41  23 C   32 % 
 2018-12-14 17:09:05  23 C   33 % 
 2018-12-14 16:59:27  22 C   33 % 
 2018-12-14 16:40:11  22 C   33 % 
 2018-12-14 16:30:34  22 C   33 % 
 2018-12-14 16:21:00  23 C   33 % 
 2018-12-14 16:11:22  23 C   33 % 
 2018-12-14 16:01:46  23 C   33 % 
 2018-12-14 15:52:08  23 C   33 % 
 2018-12-14 15:42:32  22 C   33 % 
 2018-12-14 15:32:52  22 C   33 % 
 2018-12-14 15:23:16  22 C   33 % 
 2018-12-14 15:13:41  22 C   33 % 
 2018-12-14 14:54:17  22 C   33 % 
 2018-12-14 14:44:41  22 C   34 % 
 2018-12-14 14:35:05  22 C   34 % 
 2018-12-14 14:15:46  22 C   34 % 
 2018-12-14 13:56:09  22 C   34 % 
 2018-12-14 13:27:08  22 C   34 % 
 2018-12-14 12:58:11  22 C   34 % 
 2018-12-14 12:29:23  22 C   34 % 
 2018-12-14 12:10:00  22 C   34 % 
 2018-12-14 12:00:18  22 C   34 % 
 2018-12-14 11:50:34  22 C   34 % 
 2018-12-14 11:40:47  22 C   34 % 
 2018-12-14 11:21:32  22 C   36 % 
 2018-12-14 11:11:55  22 C   36 % 
 2018-12-14 10:52:38  22 C   33 % 
 2018-12-14 10:43:00  22 C   33 % 
 2018-12-14 10:33:12  22 C   33 % 
 2018-12-14 09:54:45  22 C   33 % 
 2018-12-14 08:18:39  22 C   34 % 
 2018-12-14 07:30:30  22 C   34 % 
 2018-12-14 07:11:15  22 C   34 % 
 2018-12-14 06:42:21  22 C   34 % 
 2018-12-14 06:32:50  22 C   34 % 
 2018-12-14 06:22:39  22 C   34 % 
 2018-12-14 06:03:30  22 C   34 % 
 2018-12-14 05:53:45  22 C   34 % 
 2018-12-14 05:44:09  22 C   34 % 
 2018-12-14 05:34:31  22 C   34 % 
 2018-12-14 05:24:54  22 C   34 % 
 2018-12-14 05:15:19  23 C   34 % 
 2018-12-14 05:05:42  23 C   34 % 
 2018-12-14 04:56:09  23 C   34 % 
 2018-12-14 04:46:10  23 C   34 % 
 2018-12-14 04:36:34  23 C   34 % 
 2018-12-14 04:27:05  23 C   34 % 
 2018-12-14 04:17:06  23 C   34 % 
 2018-12-14 04:07:31  23 C   34 % 
 2018-12-14 03:57:53  23 C   34 % 
 2018-12-14 03:48:15  23 C   34 % 
 2018-12-14 03:38:42  23 C   33 % 
 2018-12-14 03:29:00  23 C   33 % 
 2018-12-14 03:19:24  23 C   33 % 
 2018-12-14 03:09:47  23 C   33 % 
 2018-12-14 03:00:13  23 C   33 % 
 2018-12-14 02:50:33  23 C   33 % 
 2018-12-14 02:40:57  23 C   33 % 
 2018-12-14 02:31:22  23 C   33 % 
 2018-12-14 02:21:43  23 C   33 % 
 2018-12-14 02:02:30  23 C   33 % 
 2018-12-14 01:52:54  23 C   33 % 
 2018-12-14 01:43:17  23 C   33 % 
 2018-12-14 01:33:40  23 C   34 % 
 2018-12-14 01:04:48  23 C   34 % 
 2018-12-14 00:45:32  23 C   33 % 
 2018-12-14 00:35:56  23 C   33 % 
 2018-12-14 00:26:20  23 C   33 % 
 2018-12-14 00:16:42  23 C   34 % 
 2018-12-14 00:07:04  23 C   34 % 
 2018-12-13 23:57:28  23 C   34 % 
 2018-12-13 23:47:52  23 C   34 % 
 2018-12-13 23:38:17  23 C   34 % 
 2018-12-13 23:28:37  23 C   34 % 
 2018-12-13 23:19:00  23 C   34 % 
 2018-12-13 23:09:23  23 C   34 % 
 2018-12-13 22:59:47  23 C   34 % 
 2018-12-13 22:50:11  23 C   34 % 
 2018-12-13 22:40:34  23 C   35 % 
 2018-12-13 22:30:57  23 C   35 % 
 2018-12-13 22:21:20  23 C   35 % 
 2018-12-13 22:01:48  23 C   35 % 
 2018-12-13 21:42:33  23 C   36 % 
 2018-12-13 21:33:07  23 C   37 % 
 2018-12-13 21:22:57  23 C   44 % 
 2018-12-13 21:13:15  23 C   35 % 
 2018-12-13 21:03:39  23 C   35 % 
 2018-12-13 20:44:25  23 C   35 % 
 2018-12-13 20:05:17  23 C   34 % 
 2018-12-13 19:45:59  23 C   34 % 
 2018-12-13 19:17:11  23 C   34 % 
 2018-12-13 19:07:10  23 C   34 % 
 2018-12-13 18:57:36  23 C   35 % 
 2018-12-13 18:47:58  23 C   35 % 
 2018-12-13 18:38:21  23 C   35 % 
 2018-12-13 18:19:07  23 C   35 % 
 2018-12-13 17:59:41  22 C   35 % 
 2018-12-13 17:50:04  22 C   35 % 
 2018-12-13 17:40:28  22 C   35 % 
 2018-12-13 17:20:43  22 C   35 % 
 2018-12-13 17:11:05  22 C   35 % 
 2018-12-13 17:01:28  22 C   35 % 
 2018-12-13 16:42:10  22 C   35 % 
 2018-12-13 16:32:34  22 C   35 % 
 2018-12-13 16:22:56  22 C   35 % 
 2018-12-13 16:13:19  22 C   35 % 
 2018-12-13 16:03:37  22 C   35 % 
 2018-12-13 15:54:00  22 C   35 % 
 2018-12-13 15:44:25  22 C   35 % 
 2018-12-13 15:34:51  22 C   35 % 
 2018-12-13 15:25:08  22 C   35 % 
 2018-12-13 15:15:32  22 C   35 % 
 2018-12-13 15:05:56  22 C   35 % 
 2018-12-13 14:56:19  22 C   35 % 
 2018-12-13 14:46:38  22 C   35 % 
 2018-12-13 14:17:48  22 C   35 % 
 2018-12-13 12:40:50  21 C   36 % 
 2018-12-13 08:21:17  21 C   35 % 
 2018-12-13 08:11:12  21 C   35 % 
 2018-12-13 07:03:25  22 C   35 % 
 2018-12-13 06:44:12  22 C   35 % 
 2018-12-13 06:34:33  22 C   35 % 
 2018-12-13 06:05:40  22 C   35 % 
 2018-12-13 05:56:08  22 C   35 % 
 2018-12-13 05:46:20  22 C   35 % 
 2018-12-13 05:36:46  22 C   35 % 
 2018-12-13 05:27:07  22 C   35 % 
 2018-12-13 05:17:31  22 C   35 % 
 2018-12-13 04:58:10  22 C   35 % 
 2018-12-13 04:38:33  22 C   35 % 
 2018-12-13 04:28:56  22 C   35 % 
 2018-12-13 03:59:50  22 C   35 % 
 2018-12-13 03:50:05  22 C   35 % 
 2018-12-13 03:40:30  22 C   35 % 
 2018-12-13 03:20:32  23 C   35 % 
 2018-12-13 03:11:04  23 C   35 % 
 2018-12-13 03:01:00  23 C   35 % 
 2018-12-13 02:41:46  23 C   35 % 
 2018-12-13 02:32:08  23 C   35 % 
 2018-12-13 02:22:34  23 C   35 % 
 2018-12-13 02:12:54  23 C   35 % 
 2018-12-13 02:03:22  23 C   35 % 
 2018-12-13 01:43:55  23 C   35 % 
 2018-12-13 01:34:20  23 C   35 % 
 2018-12-13 01:15:10  23 C   35 % 
 2018-12-13 00:55:50  23 C   35 % 
 2018-12-13 00:36:33  23 C   35 % 
 2018-12-13 00:26:57  23 C   35 % 
 2018-12-13 00:17:22  23 C   34 % 
 2018-12-12 23:57:44  23 C   34 % 
 2018-12-12 23:48:07  23 C   34 % 
 2018-12-12 23:28:56  23 C   35 % 
 2018-12-12 23:19:19  23 C   35 % 
 2018-12-12 23:09:43  23 C   35 % 
 2018-12-12 23:00:06  23 C   35 % 
 2018-12-12 22:50:34  24 C   35 % 
 2018-12-12 22:31:10  24 C   34 % 
 2018-12-12 22:21:32  24 C   33 % 
 2018-12-12 22:11:52  24 C   33 % 
 2018-12-12 22:02:16  24 C   33 % 
 2018-12-12 21:52:38  24 C   32 % 
 2018-12-12 21:43:02  24 C   35 % 
 2018-12-12 21:33:28  24 C   34 % 
 2018-12-12 21:23:41  24 C   34 % 
 2018-12-12 21:14:08  24 C   34 % 
 2018-12-12 20:54:43  24 C   36 % 
 2018-12-12 20:35:26  23 C   35 % 
 2018-12-12 20:16:14  23 C   35 % 
 2018-12-12 20:06:35  23 C   35 % 
 2018-12-12 19:56:58  23 C   35 % 
 2018-12-12 19:47:21  23 C   35 % 
 2018-12-12 19:37:45  23 C   36 % 
 2018-12-12 19:28:07  23 C   36 % 
 2018-12-12 19:18:30  23 C   37 % 
 2018-12-12 19:08:51  23 C   38 % 
 2018-12-12 18:59:15  23 C   35 % 
 2018-12-12 18:49:38  23 C   35 % 
 2018-12-12 18:40:01  23 C   35 % 
 2018-12-12 18:30:23  23 C   35 % 
 2018-12-12 18:20:48  23 C   35 % 
 2018-12-12 18:11:09  23 C   35 % 
 2018-12-12 18:01:32  23 C   36 % 
 2018-12-12 17:51:54  23 C   36 % 
 2018-12-12 17:42:18  23 C   36 % 
 2018-12-12 17:32:39  23 C   36 % 
 2018-12-12 17:23:04  23 C   36 % 
 2018-12-12 17:13:27  23 C   36 % 
 2018-12-12 17:03:49  23 C   36 % 
 2018-12-12 16:54:14  23 C   36 % 
 2018-12-12 16:44:38  23 C   36 % 
 2018-12-12 16:34:59  23 C   36 % 
 2018-12-12 16:25:21  23 C   36 % 
 2018-12-12 16:15:43  23 C   36 % 
 2018-12-12 16:06:07  23 C   36 % 
 2018-12-12 15:56:29  23 C   36 % 
 2018-12-12 15:46:49  23 C   36 % 
 2018-12-12 15:37:10  23 C   36 % 
 2018-12-12 15:27:39  23 C   37 % 
 2018-12-12 15:17:49  23 C   37 % 
 2018-12-12 15:07:52  23 C   36 % 
 2018-12-12 14:58:17  23 C   36 % 
 2018-12-12 14:28:42  23 C   36 % 
 2018-12-12 14:19:06  23 C   36 % 
 2018-12-12 14:09:29  23 C   37 % 
 2018-12-12 13:59:52  23 C   37 % 
 2018-12-12 13:50:12  23 C   37 % 
 2018-12-12 13:40:35  23 C   37 % 
 2018-12-12 13:30:59  23 C   37 % 
 2018-12-12 13:21:18  23 C   37 % 
 2018-12-12 13:02:03  23 C   37 % 
 2018-12-12 12:52:30  23 C   36 % 
 2018-12-12 12:42:40  22 C   36 % 
 2018-12-12 12:33:08  22 C   36 % 
 2018-12-12 12:13:27  22 C   36 % 
 2018-12-12 12:03:49  22 C   36 % 
 2018-12-12 11:54:13  22 C   36 % 
 2018-12-12 11:34:56  22 C   36 % 
 2018-12-12 11:15:41  22 C   36 % 
 2018-12-12 10:56:01  22 C   36 % 
 2018-12-12 10:46:25  22 C   36 % 
 2018-12-12 10:27:12  22 C   37 % 
 2018-12-12 10:17:31  22 C   37 % 
 2018-12-12 10:08:02  21 C   37 % 
 2018-12-12 09:48:29  21 C   37 % 
 2018-12-12 07:42:42  22 C   36 % 
 2018-12-12 06:34:09  22 C   36 % 
 2018-12-12 06:24:33  22 C   36 % 
 2018-12-12 06:14:59  22 C   36 % 
 2018-12-12 06:05:04  22 C   36 % 
 2018-12-12 05:55:26  22 C   36 % 
 2018-12-12 05:45:50  22 C   36 % 
 2018-12-12 05:36:12  22 C   36 % 
 2018-12-12 05:16:58  22 C   36 % 
 2018-12-12 04:57:18  22 C   36 % 
 2018-12-12 04:47:39  23 C   36 % 
 2018-12-12 04:28:33  23 C   37 % 
 2018-12-12 04:18:39  23 C   36 % 
 2018-12-12 03:59:05  23 C   36 % 
 2018-12-12 03:49:26  23 C   36 % 
 2018-12-12 03:39:51  23 C   36 % 
 2018-12-12 03:30:10  23 C   36 % 
 2018-12-12 03:10:56  23 C   36 % 
 2018-12-12 03:01:20  23 C   36 % 
 2018-12-12 02:51:41  23 C   36 % 
 2018-12-12 02:42:07  23 C   36 % 
 2018-12-12 02:22:44  23 C   36 % 
 2018-12-12 02:13:07  23 C   36 % 
 2018-12-12 02:03:27  23 C   36 % 
 2018-12-12 01:53:50  23 C   36 % 
 2018-12-12 01:44:15  23 C   36 % 
 2018-12-12 01:34:39  23 C   36 % 
 2018-12-12 01:25:10  23 C   36 % 
 2018-12-12 01:05:22  23 C   36 % 
 2018-12-12 00:55:44  24 C   36 % 
 2018-12-12 00:46:09  24 C   36 % 
 2018-12-12 00:36:32  24 C   36 % 
 2018-12-12 00:17:11  24 C   36 % 
 2018-12-11 23:58:01  24 C   36 % 
 2018-12-11 23:29:04  24 C   36 % 
 2018-12-11 23:19:18  24 C   36 % 
 2018-12-11 23:09:45  24 C   36 % 
 2018-12-11 23:00:04  24 C   36 % 
 2018-12-11 22:50:27  24 C   36 % 
 2018-12-11 22:40:51  24 C   36 % 
 2018-12-11 22:31:16  24 C   36 % 
 2018-12-11 22:11:57  24 C   36 % 
 2018-12-11 22:02:21  24 C   36 % 
 2018-12-11 21:52:43  24 C   36 % 
 2018-12-11 21:43:07  24 C   36 % 
 2018-12-11 21:33:35  24 C   36 % 
 2018-12-11 21:13:29  24 C   36 % 
 2018-12-11 21:03:53  24 C   37 % 
 2018-12-11 20:44:38  24 C   37 % 
 2018-12-11 20:35:07  24 C   37 % 
 2018-12-11 20:25:14  24 C   35 % 
 2018-12-11 20:15:37  24 C   35 % 
 2018-12-11 20:06:01  24 C   35 % 
 2018-12-11 19:56:24  25 C   35 % 
 2018-12-11 19:46:48  25 C   35 % 
 2018-12-11 19:37:12  25 C   35 % 
 2018-12-11 19:27:42  25 C   35 % 
 2018-12-11 19:17:45  25 C   34 % 
 2018-12-11 19:08:09  25 C   34 % 
 2018-12-11 18:58:33  26 C   34 % 
 2018-12-11 18:48:56  26 C   33 % 
 2018-12-11 18:39:20  26 C   33 % 
 2018-12-11 18:29:46  26 C   33 % 
 2018-12-11 18:20:07  27 C   33 % 
 2018-12-11 18:10:31  27 C   32 % 
 2018-12-11 18:00:54  27 C   32 % 
 2018-12-11 17:51:18  28 C   31 % 
 2018-12-11 17:32:05  29 C   29 % 
 2018-12-11 17:12:05  30 C   29 % 
 2018-12-11 16:52:43  27 C   53 % 
 2018-12-11 16:43:05  24 C   36 % 
 2018-12-11 16:23:43  24 C   36 % 
 2018-12-11 16:14:06  24 C   36 % 
 2018-12-11 16:04:30  24 C   36 % 
 2018-12-11 15:35:39  24 C   36 % 
 2018-12-11 15:26:01  24 C   36 % 
 2018-12-11 15:06:48  24 C   36 % 
 2018-12-11 14:57:14  24 C   36 % 
 2018-12-11 14:47:36  24 C   36 % 
 2018-12-11 14:28:20  25 C   36 % 
 2018-12-11 14:18:44  25 C   36 % 
 2018-12-11 14:09:09  25 C   36 % 
 2018-12-11 13:59:32  25 C   36 % 
 2018-12-11 13:40:02  25 C   36 % 
 2018-12-11 13:30:24  24 C   36 % 
 2018-12-11 13:20:49  24 C   36 % 
 2018-12-11 13:11:12  25 C   36 % 
 2018-12-11 13:01:36  25 C   36 % 
 2018-12-11 12:51:58  25 C   36 % 
 2018-12-11 12:42:22  25 C   36 % 
 2018-12-11 12:32:45  24 C   36 % 
 2018-12-11 12:23:08  24 C   36 % 
 2018-12-11 12:13:31  24 C   36 % 
 2018-12-11 11:44:38  25 C   36 % 
 2018-12-11 11:34:59  25 C   36 % 
 2018-12-11 11:15:12  25 C   36 % 
 2018-12-11 11:05:34  25 C   36 % 
 2018-12-11 10:55:58  25 C   36 % 
 2018-12-11 10:26:23  24 C   36 % 
 2018-12-11 10:16:46  24 C   36 % 
 2018-12-11 10:07:11  24 C   37 % 
 2018-12-11 09:47:37  24 C   37 % 
 2018-12-11 09:37:59  24 C   39 % 
 2018-12-11 09:18:15  24 C   36 % 
 2018-12-11 09:08:41  24 C   36 % 
 2018-12-11 08:59:01  24 C   36 % 
 2018-12-11 08:39:35  24 C   36 % 
 2018-12-11 08:29:57  24 C   36 % 
 2018-12-11 08:20:20  24 C   36 % 
 2018-12-11 08:10:46  24 C   36 % 
 2018-12-11 08:01:05  24 C   36 % 
 2018-12-11 07:51:29  24 C   36 % 
 2018-12-11 07:41:55  24 C   36 % 
 2018-12-11 07:32:13  24 C   36 % 
 2018-12-11 07:22:38  24 C   36 % 
 2018-12-11 07:13:00  24 C   36 % 
 2018-12-11 07:03:24  24 C   36 % 
 2018-12-11 06:53:47  24 C   36 % 
 2018-12-11 06:34:31  24 C   36 % 
 2018-12-11 06:14:43  24 C   36 % 
 2018-12-11 06:05:06  24 C   36 % 
 2018-12-11 05:55:30  24 C   36 % 
 2018-12-11 05:36:11  24 C   36 % 
 2018-12-11 05:26:34  24 C   36 % 
 2018-12-11 05:07:16  24 C   36 % 
 2018-12-11 04:57:41  24 C   36 % 
 2018-12-11 04:48:02  24 C   36 % 
 2018-12-11 04:38:29  24 C   36 % 
 2018-12-11 04:19:07  24 C   36 % 
 2018-12-11 04:09:30  24 C   36 % 
 2018-12-11 03:59:54  24 C   36 % 
 2018-12-11 03:50:17  24 C   36 % 
 2018-12-11 03:40:40  24 C   36 % 
 2018-12-11 03:20:50  24 C   36 % 
 2018-12-11 03:11:13  24 C   36 % 
 2018-12-11 02:51:56  24 C   36 % 
 2018-12-11 02:42:19  24 C   36 % 
 2018-12-11 02:32:43  24 C   36 % 
 2018-12-11 02:12:59  24 C   36 % 
 2018-12-11 02:03:22  24 C   36 % 
 2018-12-11 01:53:46  24 C   36 % 
 2018-12-11 01:44:10  24 C   36 % 
 2018-12-11 01:34:33  24 C   36 % 
 2018-12-11 01:24:57  24 C   36 % 
 2018-12-11 01:15:22  24 C   36 % 
 2018-12-11 01:05:43  24 C   36 % 
 2018-12-11 00:56:07  24 C   36 % 
 2018-12-11 00:46:32  24 C   36 % 
 2018-12-11 00:36:56  24 C   36 % 
 2018-12-11 00:27:20  24 C   36 % 
 2018-12-11 00:07:35  24 C   36 % 
 2018-12-10 23:57:58  24 C   36 % 
 2018-12-10 23:48:23  24 C   36 % 
 2018-12-10 23:38:47  24 C   36 % 
 2018-12-10 23:29:08  24 C   36 % 
 2018-12-10 23:19:30  24 C   36 % 
 2018-12-10 23:00:15  24 C   35 % 
 2018-12-10 22:50:38  24 C   35 % 
 2018-12-10 22:41:05  24 C   36 % 
 2018-12-10 22:31:22  24 C   36 % 
 2018-12-10 22:21:46  24 C   36 % 
 2018-12-10 22:12:07  24 C   35 % 
 2018-12-10 22:02:36  24 C   35 % 
 2018-12-10 21:52:49  24 C   35 % 
 2018-12-10 21:43:13  24 C   35 % 
 2018-12-10 21:33:28  24 C   35 % 
 2018-12-10 21:23:52  24 C   35 % 
 2018-12-10 21:14:15  24 C   35 % 
 2018-12-10 21:04:39  24 C   35 % 
 2018-12-10 20:55:02  24 C   35 % 
 2018-12-10 20:45:27  24 C   35 % 
 2018-12-10 20:35:50  24 C   35 % 
 2018-12-10 20:26:13  24 C   35 % 
 2018-12-10 20:16:36  24 C   35 % 
 2018-12-10 19:57:20  24 C   35 % 
 2018-12-10 19:47:43  24 C   35 % 
 2018-12-10 19:28:32  24 C   35 % 
 2018-12-10 19:18:45  24 C   35 % 
 2018-12-10 19:09:08  24 C   35 % 
 2018-12-10 18:59:25  24 C   35 % 
 2018-12-10 18:49:49  24 C   35 % 
 2018-12-10 18:40:13  24 C   35 % 
 2018-12-10 18:30:34  24 C   35 % 
 2018-12-10 18:20:56  24 C   36 % 
 2018-12-10 18:11:20  24 C   36 % 
 2018-12-10 18:01:42  24 C   36 % 
 2018-12-10 17:52:07  24 C   36 % 
 2018-12-10 17:42:29  24 C   36 % 
 2018-12-10 17:32:53  24 C   36 % 
 2018-12-10 17:23:18  24 C   37 % 
 2018-12-10 17:13:39  24 C   37 % 
 2018-12-10 17:04:02  24 C   37 % 
 2018-12-10 16:54:25  24 C   38 % 
 2018-12-10 16:44:48  24 C   37 % 
 2018-12-10 16:35:11  24 C   37 % 
 2018-12-10 16:25:35  24 C   36 % 
 2018-12-10 16:15:59  24 C   36 % 
 2018-12-10 16:06:21  24 C   36 % 
 2018-12-10 15:56:50  24 C   36 % 
 2018-12-10 15:47:03  24 C   36 % 
 2018-12-10 15:27:47  24 C   36 % 
 2018-12-10 15:18:10  24 C   36 % 
 2018-12-10 15:08:34  24 C   36 % 
 2018-12-10 14:58:58  24 C   36 % 
 2018-12-10 14:49:22  24 C   36 % 
 2018-12-10 14:39:45  24 C   36 % 
 2018-12-10 14:30:09  24 C   36 % 
 2018-12-10 14:20:34  24 C   36 % 
 2018-12-10 14:10:54  24 C   36 % 
 2018-12-10 14:01:17  24 C   36 % 
 2018-12-10 13:51:41  24 C   36 % 
 2018-12-10 13:42:03  24 C   36 % 
 2018-12-10 13:32:27  24 C   36 % 
 2018-12-10 13:22:50  24 C   35 % 
 2018-12-10 13:13:13  24 C   34 % 
 2018-12-10 13:03:37  24 C   34 % 
 2018-12-10 12:54:00  24 C   39 % 
 2018-12-10 12:44:23  24 C   38 % 
 2018-12-10 12:34:47  24 C   38 % 
 2018-12-10 12:25:12  24 C   37 % 
 2018-12-10 12:15:35  24 C   37 % 
 2018-12-10 12:05:58  24 C   36 % 
 2018-12-10 11:56:21  24 C   36 % 
 2018-12-10 11:46:45  24 C   36 % 
 2018-12-10 11:37:08  24 C   36 % 
 2018-12-10 11:27:31  24 C   36 % 
 2018-12-10 11:07:41  24 C   36 % 
 2018-12-10 10:48:24  24 C   37 % 
 2018-12-10 10:38:48  24 C   36 % 
 2018-12-10 10:29:11  24 C   36 % 
 2018-12-10 10:19:34  24 C   36 % 
 2018-12-10 10:00:22  24 C   36 % 
 2018-12-10 09:50:47  24 C   36 % 
 2018-12-10 09:30:58  24 C   36 % 
 2018-12-10 09:21:24  24 C   36 % 
 2018-12-10 09:11:43  24 C   36 % 
 2018-12-10 09:02:05  24 C   36 % 
 2018-12-10 08:52:29  24 C   36 % 
 2018-12-10 08:42:52  24 C   37 % 
 2018-12-10 08:33:15  24 C   37 % 
 2018-12-10 08:23:39  24 C   37 % 
 2018-12-10 08:14:02  24 C   37 % 
 2018-12-10 08:04:26  24 C   37 % 
 2018-12-10 07:54:52  24 C   37 % 
 2018-12-10 07:45:11  24 C   37 % 
 2018-12-10 07:35:33  24 C   37 % 
 2018-12-10 07:25:56  24 C   38 % 
 2018-12-10 07:16:20  23 C   38 % 
 2018-12-10 07:06:45  23 C   38 % 
 2018-12-10 06:57:06  23 C   38 % 
 2018-12-10 06:47:29  24 C   39 % 
 2018-12-10 06:37:53  24 C   37 % 
 2018-12-10 06:28:17  24 C   37 % 
 2018-12-10 06:18:40  24 C   36 % 
 2018-12-10 06:09:03  24 C   36 % 
 2018-12-10 05:59:26  24 C   37 % 
 2018-12-10 05:49:50  24 C   37 % 
 2018-12-10 05:40:13  24 C   37 % 
 2018-12-10 05:30:38  24 C   36 % 
 2018-12-10 05:21:00  24 C   36 % 
 2018-12-10 05:11:23  24 C   36 % 
 2018-12-10 05:01:47  24 C   36 % 
 2018-12-10 04:52:17  24 C   36 % 
 2018-12-10 04:42:25  24 C   36 % 
 2018-12-10 04:22:54  24 C   36 % 
 2018-12-10 04:13:17  24 C   36 % 
 2018-12-10 04:03:41  24 C   36 % 
 2018-12-10 03:54:04  24 C   35 % 
 2018-12-10 03:44:27  25 C   35 % 
 2018-12-10 03:34:50  25 C   35 % 
 2018-12-10 03:25:14  25 C   36 % 
 2018-12-10 03:15:37  25 C   36 % 
 2018-12-10 03:06:02  25 C   36 % 
 2018-12-10 02:56:23  25 C   36 % 
 2018-12-10 02:46:46  25 C   36 % 
 2018-12-10 02:37:09  25 C   36 % 
 2018-12-10 02:27:32  25 C   36 % 
 2018-12-10 02:17:58  25 C   36 % 
 2018-12-10 02:08:17  25 C   36 % 
 2018-12-10 01:58:40  25 C   36 % 
 2018-12-10 01:49:05  25 C   36 % 
 2018-12-10 01:39:26  25 C   36 % 
 2018-12-10 01:29:51  25 C   36 % 
 2018-12-10 01:20:12  25 C   36 % 
 2018-12-10 01:10:36  25 C   35 % 
 2018-12-10 01:01:00  25 C   35 % 
 2018-12-10 00:51:23  25 C   35 % 
 2018-12-10 00:41:47  25 C   35 % 
 2018-12-10 00:32:10  25 C   35 % 
 2018-12-10 00:22:34  25 C   35 % 
 2018-12-10 00:12:57  25 C   35 % 
 2018-12-10 00:03:21  25 C   34 % 
 2018-12-09 23:53:45  25 C   33 % 
 2018-12-09 23:44:08  25 C   33 % 
 2018-12-09 23:34:32  25 C   33 % 
 2018-12-09 23:24:54  25 C   34 % 
 2018-12-09 23:15:18  25 C   34 % 
 2018-12-09 23:05:41  25 C   34 % 
 2018-12-09 22:46:19  24 C   35 % 
 2018-12-09 22:36:43  24 C   35 % 
 2018-12-09 22:27:06  24 C   36 % 
 2018-12-09 22:17:30  25 C   36 % 
 2018-12-09 22:07:43  25 C   36 % 
 2018-12-09 21:58:11  25 C   36 % 
 2018-12-09 21:38:49  25 C   39 % 
 2018-12-09 21:29:12  25 C   39 % 
 2018-12-09 21:19:35  25 C   39 % 
 2018-12-09 21:10:00  25 C   39 % 
 2018-12-09 21:00:21  25 C   39 % 
 2018-12-09 20:50:44  25 C   40 % 
 2018-12-09 20:41:07  25 C   40 % 
 2018-12-09 20:11:36  25 C   39 % 
 2018-12-09 19:51:55  25 C   38 % 
 2018-12-09 19:42:19  24 C   38 % 
 2018-12-09 19:32:41  24 C   38 % 
 2018-12-09 19:23:06  24 C   50 % 
 2018-12-09 19:03:27  24 C   37 % 
 2018-12-09 18:54:01  24 C   37 % 
 2018-12-09 18:33:38  24 C   37 % 
 2018-12-09 18:23:58  24 C   37 % 
 2018-12-09 18:14:21  24 C   37 % 
 2018-12-09 18:04:46  24 C   37 % 
 2018-12-09 17:55:07  24 C   37 % 
 2018-12-09 17:45:34  24 C   37 % 
 2018-12-09 17:35:52  24 C   37 % 
 2018-12-09 17:26:14  24 C   37 % 
 2018-12-09 17:16:39  24 C   37 % 
 2018-12-09 17:07:00  24 C   37 % 
 2018-12-09 16:57:24  24 C   37 % 
 2018-12-09 16:47:54  24 C   36 % 
 2018-12-09 16:37:58  24 C   36 % 
 2018-12-09 16:28:21  24 C   36 % 
 2018-12-09 16:18:50  24 C   36 % 
 2018-12-09 15:49:12  24 C   35 % 
 2018-12-09 15:29:56  24 C   36 % 
 2018-12-09 15:20:19  24 C   36 % 
 2018-12-09 14:50:55  24 C   36 % 
 2018-12-09 14:11:23  23 C   43 % 
 2018-12-09 14:01:42  23 C   43 % 
 2018-12-09 13:52:06  23 C   39 % 
 2018-12-09 13:42:30  23 C   38 % 
 2018-12-09 13:32:52  23 C   38 % 
 2018-12-09 13:23:17  23 C   38 % 
 2018-12-09 13:13:37  23 C   38 % 
 2018-12-09 13:04:01  23 C   38 % 
 2018-12-09 12:54:24  23 C   38 % 
 2018-12-09 12:44:43  23 C   38 % 
 2018-12-09 12:35:03  23 C   38 % 
 2018-12-09 12:25:27  23 C   38 % 
 2018-12-09 12:15:52  23 C   38 % 
 2018-12-09 12:06:12  23 C   38 % 
 2018-12-09 11:46:57  23 C   38 % 
 2018-12-09 11:37:21  23 C   38 % 
 2018-12-09 11:27:45  23 C   39 % 
 2018-12-09 11:18:08  23 C   37 % 
 2018-12-09 11:08:31  23 C   37 % 
 2018-12-09 10:58:55  23 C   37 % 
 2018-12-09 10:49:19  23 C   37 % 
 2018-12-09 10:39:39  23 C   38 % 
 2018-12-09 10:30:03  23 C   38 % 
 2018-12-09 10:20:26  23 C   38 % 
 2018-12-09 10:10:51  23 C   38 % 
 2018-12-09 10:01:18  23 C   38 % 
 2018-12-09 09:51:20  22 C   38 % 
 2018-12-09 09:41:43  22 C   38 % 
 2018-12-09 09:32:06  22 C   38 % 
 2018-12-09 09:22:30  22 C   38 % 
 2018-12-09 09:12:56  22 C   38 % 
 2018-12-09 08:53:10  22 C   39 % 
 2018-12-09 08:43:28  22 C   39 % 
 2018-12-09 08:04:39  22 C   39 % 
 2018-12-09 07:54:58  22 C   39 % 
 2018-12-09 07:45:24  22 C   38 % 
 2018-12-09 07:25:31  22 C   38 % 
 2018-12-09 07:15:53  22 C   38 % 
 2018-12-09 07:06:17  22 C   38 % 
 2018-12-09 06:56:40  23 C   38 % 
 2018-12-09 06:47:03  23 C   38 % 
 2018-12-09 06:37:29  23 C   38 % 
 2018-12-09 06:08:09  23 C   38 % 
 2018-12-09 05:58:31  23 C   38 % 
 2018-12-09 05:48:55  23 C   38 % 
 2018-12-09 05:39:16  23 C   38 % 
 2018-12-09 05:29:41  23 C   38 % 
 2018-12-09 05:20:03  23 C   38 % 
 2018-12-09 05:10:24  23 C   38 % 
 2018-12-09 05:00:47  23 C   38 % 
 2018-12-09 04:51:10  23 C   38 % 
 2018-12-09 04:41:33  23 C   38 % 
 2018-12-09 04:31:57  23 C   38 % 
 2018-12-09 04:22:19  23 C   38 % 
 2018-12-09 04:12:41  23 C   38 % 
 2018-12-09 04:03:06  23 C   37 % 
 2018-12-09 03:53:28  23 C   37 % 
 2018-12-09 03:34:07  23 C   37 % 
 2018-12-09 03:24:30  23 C   36 % 
 2018-12-09 03:14:53  23 C   36 % 
 2018-12-09 03:05:16  23 C   36 % 
 2018-12-09 02:55:41  23 C   36 % 
 2018-12-09 02:46:04  23 C   36 % 
 2018-12-09 02:36:29  23 C   36 % 
 2018-12-09 02:26:50  23 C   36 % 
 2018-12-09 02:17:14  24 C   36 % 
 2018-12-09 02:07:38  24 C   36 % 
 2018-12-09 01:48:26  24 C   35 % 
 2018-12-09 01:38:43  24 C   35 % 
 2018-12-09 01:19:30  24 C   35 % 
 2018-12-09 00:59:43  24 C   35 % 
 2018-12-09 00:49:57  24 C   34 % 
 2018-12-09 00:40:21  24 C   34 % 
 2018-12-09 00:30:44  24 C   34 % 
 2018-12-09 00:21:07  23 C   34 % 
 2018-12-09 00:11:31  23 C   34 % 
 2018-12-08 23:42:44  23 C   34 % 
 2018-12-08 23:32:48  23 C   35 % 
 2018-12-08 23:23:19  23 C   36 % 
 2018-12-08 23:03:32  23 C   36 % 
 2018-12-08 22:44:22  23 C   35 % 
 2018-12-08 22:34:41  23 C   35 % 
 2018-12-08 22:25:05  23 C   35 % 
 2018-12-08 22:15:29  23 C   35 % 
 2018-12-08 22:05:53  23 C   35 % 
 2018-12-08 21:56:16  23 C   35 % 
 2018-12-08 21:46:38  23 C   36 % 
 2018-12-08 21:37:03  23 C   37 % 
 2018-12-08 21:27:31  23 C   37 % 
 2018-12-08 21:17:34  23 C   39 % 
 2018-12-08 21:07:55  23 C   42 % 
 2018-12-08 20:58:18  23 C   37 % 
 2018-12-08 20:48:44  23 C   39 % 
 2018-12-08 20:39:01  23 C   36 % 
 2018-12-08 20:29:27  23 C   36 % 
 2018-12-08 20:19:47  23 C   36 % 
 2018-12-08 20:10:12  23 C   36 % 
 2018-12-08 20:00:30  23 C   37 % 
 2018-12-08 19:50:52  23 C   38 % 
 2018-12-08 19:31:18  23 C   40 % 
 2018-12-08 19:12:02  23 C   41 % 
 2018-12-08 19:02:26  23 C   41 % 
 2018-12-08 18:52:49  23 C   41 % 
 2018-12-08 18:33:35  23 C   38 % 
 2018-12-08 18:23:58  23 C   38 % 
 2018-12-08 18:14:17  23 C   38 % 
 2018-12-08 18:04:42  23 C   38 % 
 2018-12-08 17:55:06  23 C   38 % 
 2018-12-08 17:45:30  23 C   38 % 
 2018-12-08 17:26:22  23 C   38 % 
 2018-12-08 17:16:35  23 C   38 % 
 2018-12-08 17:07:00  23 C   38 % 
 2018-12-08 16:57:24  23 C   38 % 
 2018-12-08 16:47:46  23 C   38 % 
 2018-12-08 16:38:12  23 C   38 % 
 2018-12-08 16:28:23  23 C   38 % 
 2018-12-08 16:18:48  23 C   38 % 
 2018-12-08 16:09:09  23 C   38 % 
 2018-12-08 15:59:33  23 C   38 % 
 2018-12-08 15:49:58  24 C   38 % 
 2018-12-08 15:40:23  24 C   38 % 
 2018-12-08 15:30:44  24 C   37 % 
 2018-12-08 15:11:28  24 C   38 % 
 2018-12-08 15:01:51  24 C   37 % 
 2018-12-08 14:52:16  24 C   37 % 
 2018-12-08 14:42:40  24 C   37 % 
 2018-12-08 14:33:04  25 C   37 % 
 2018-12-08 14:23:34  25 C   37 % 
 2018-12-08 14:13:30  25 C   36 % 
 2018-12-08 14:03:50  25 C   36 % 
 2018-12-08 13:54:16  25 C   35 % 
 2018-12-08 13:15:20  27 C   35 % 
 2018-12-08 13:05:44  28 C   35 % 
 2018-12-08 12:46:31  29 C   31 % 
 2018-12-08 12:36:59  28 C   36 % 
 2018-12-08 12:26:59  25 C   45 % 
 2018-12-08 12:17:07  22 C   39 % 
 2018-12-08 12:07:31  22 C   38 % 
 2018-12-08 11:57:56  22 C   38 % 
 2018-12-08 11:48:16  22 C   38 % 
 2018-12-08 11:38:42  22 C   38 % 
 2018-12-08 11:29:04  22 C   38 % 
 2018-12-08 11:19:31  22 C   38 % 
 2018-12-08 11:09:48  22 C   38 % 
 2018-12-08 11:00:02  22 C   38 % 
 2018-12-08 10:50:25  22 C   38 % 
 2018-12-08 10:40:49  22 C   38 % 
 2018-12-08 10:31:12  22 C   38 % 
 2018-12-08 10:11:48  22 C   38 % 
 2018-12-08 10:02:12  22 C   38 % 
 2018-12-08 09:52:37  22 C   38 % 
 2018-12-08 09:43:00  23 C   38 % 
 2018-12-08 09:33:07  23 C   38 % 
 2018-12-08 09:13:12  23 C   38 % 
 2018-12-08 09:03:36  23 C   38 % 
 2018-12-08 08:54:00  23 C   38 % 
 2018-12-08 08:44:21  23 C   38 % 
 2018-12-08 08:34:45  23 C   38 % 
 2018-12-08 08:25:14  23 C   38 % 
 2018-12-08 08:05:42  23 C   38 % 
 2018-12-08 07:55:58  23 C   38 % 
 2018-12-08 07:26:32  23 C   38 % 
 2018-12-08 07:16:48  23 C   38 % 
 2018-12-08 07:07:13  23 C   38 % 
 2018-12-08 06:37:21  23 C   38 % 
 2018-12-08 06:27:37  23 C   38 % 
 2018-12-08 06:07:49  24 C   38 % 
 2018-12-08 05:48:11  24 C   38 % 
 2018-12-08 05:38:34  24 C   38 % 
 2018-12-08 05:29:05  24 C   38 % 
 2018-12-08 05:19:01  24 C   38 % 
 2018-12-08 05:09:26  24 C   38 % 
 2018-12-08 04:50:07  24 C   38 % 
 2018-12-08 04:30:18  24 C   38 % 
 2018-12-08 04:20:41  24 C   38 % 
 2018-12-08 04:11:05  24 C   38 % 
 2018-12-08 03:31:38  24 C   37 % 
 2018-12-08 03:11:50  24 C   37 % 
 2018-12-08 03:02:09  24 C   37 % 
 2018-12-08 02:52:32  24 C   36 % 
 2018-12-08 02:33:20  25 C   36 % 
 2018-12-08 02:04:16  25 C   35 % 
 2018-12-08 01:54:36  25 C   35 % 
 2018-12-08 01:44:54  25 C   35 % 
 2018-12-08 01:25:14  25 C   35 % 
 2018-12-08 01:15:34  25 C   35 % 
 2018-12-08 01:05:57  24 C   35 % 
 2018-12-08 00:56:21  24 C   35 % 
 2018-12-08 00:37:08  24 C   35 % 
 2018-12-08 00:27:32  24 C   35 % 
 2018-12-08 00:17:55  24 C   35 % 
 2018-12-07 23:58:00  24 C   36 % 
 2018-12-07 23:48:23  24 C   37 % 
 2018-12-07 23:38:46  24 C   37 % 
 2018-12-07 23:29:11  24 C   36 % 
 2018-12-07 23:19:33  24 C   35 % 
 2018-12-07 23:09:57  24 C   35 % 
 2018-12-07 23:00:20  24 C   35 % 
 2018-12-07 22:50:43  24 C   35 % 
 2018-12-07 22:21:13  24 C   35 % 
 2018-12-07 22:11:40  24 C   35 % 
 2018-12-07 22:02:04  24 C   35 % 
 2018-12-07 21:52:27  24 C   34 % 
 2018-12-07 21:42:51  24 C   36 % 
 2018-12-07 21:13:11  24 C   37 % 
 2018-12-07 21:03:28  24 C   37 % 
 2018-12-07 20:53:52  24 C   38 % 
 2018-12-07 20:34:38  24 C   37 % 
 2018-12-07 20:25:01  24 C   37 % 
 2018-12-07 20:15:25  24 C   37 % 
 2018-12-07 20:05:53  24 C   37 % 
 2018-12-07 19:56:05  24 C   37 % 
 2018-12-07 19:46:27  24 C   37 % 
 2018-12-07 19:36:48  24 C   37 % 
 2018-12-07 19:27:10  24 C   37 % 
 2018-12-07 19:17:35  24 C   37 % 
 2018-12-07 19:07:46  24 C   37 % 
 2018-12-07 18:58:09  24 C   37 % 
 2018-12-07 18:48:42  23 C   38 % 
 2018-12-07 18:18:29  23 C   39 % 
 2018-12-07 18:08:53  23 C   39 % 
 2018-12-07 17:49:20  23 C   39 % 
 2018-12-07 17:39:44  23 C   39 % 
 2018-12-07 17:30:07  23 C   38 % 
 2018-12-07 17:20:30  23 C   38 % 
 2018-12-07 17:10:53  23 C   38 % 
 2018-12-07 16:50:55  23 C   38 % 
 2018-12-07 16:41:21  23 C   38 % 
 2018-12-07 16:31:41  23 C   38 % 
 2018-12-07 16:22:04  23 C   38 % 
 2018-12-07 16:12:28  23 C   38 % 
 2018-12-07 16:02:53  23 C   38 % 
 2018-12-07 15:53:13  23 C   38 % 
 2018-12-07 15:43:36  23 C   38 % 
 2018-12-07 15:34:07  23 C   38 % 
 2018-12-07 15:24:14  23 C   37 % 
 2018-12-07 15:14:38  23 C   37 % 
 2018-12-07 15:04:59  23 C   37 % 
 2018-12-07 14:55:23  23 C   37 % 
 2018-12-07 14:45:46  23 C   37 % 
 2018-12-07 14:36:08  23 C   37 % 
 2018-12-07 14:26:31  24 C   37 % 
 2018-12-07 14:16:56  24 C   37 % 
 2018-12-07 14:07:20  24 C   37 % 
 2018-12-07 13:57:42  24 C   37 % 
 2018-12-07 13:48:06  24 C   37 % 
 2018-12-07 13:38:27  24 C   37 % 
 2018-12-07 13:28:51  24 C   37 % 
 2018-12-07 13:09:38  24 C   37 % 
 2018-12-07 13:00:02  24 C   37 % 
 2018-12-07 12:50:31  24 C   36 % 
 2018-12-07 12:40:24  24 C   36 % 
 2018-12-07 12:30:48  24 C   36 % 
 2018-12-07 12:11:28  24 C   36 % 
 2018-12-07 12:02:00  24 C   36 % 
 2018-12-07 11:51:57  24 C   36 % 
 2018-12-07 11:42:20  24 C   36 % 
 2018-12-07 11:32:46  24 C   36 % 
 2018-12-07 11:23:05  24 C   36 % 
 2018-12-07 11:13:27  24 C   36 % 
 2018-12-07 11:03:39  24 C   36 % 
 2018-12-07 10:54:03  24 C   36 % 
 2018-12-07 10:44:25  24 C   37 % 
 2018-12-07 10:34:50  24 C   37 % 
 2018-12-07 10:15:28  24 C   37 % 
 2018-12-07 10:05:51  24 C   36 % 
 2018-12-07 09:56:15  24 C   36 % 
 2018-12-07 09:36:49  24 C   36 % 
 2018-12-07 09:17:02  24 C   37 % 
 2018-12-07 09:07:25  24 C   37 % 
 2018-12-07 08:57:49  24 C   37 % 
 2018-12-07 08:48:13  24 C   38 % 
 2018-12-07 08:38:37  25 C   38 % 
 2018-12-07 08:09:03  25 C   39 % 
 2018-12-07 07:49:47  24 C   41 % 
 2018-12-07 07:40:13  24 C   39 % 
 2018-12-07 07:30:34  24 C   39 % 
 2018-12-07 07:20:58  24 C   41 % 
 2018-12-07 06:51:24  24 C   39 % 
 2018-12-07 06:41:47  24 C   38 % 
 2018-12-07 06:32:10  24 C   38 % 
 2018-12-07 06:22:34  24 C   38 % 
 2018-12-07 06:12:56  24 C   38 % 
 2018-12-07 06:03:20  24 C   38 % 
 2018-12-07 05:34:13  24 C   38 % 
 2018-12-07 05:24:37  24 C   38 % 
 2018-12-07 05:15:02  24 C   38 % 
 2018-12-07 04:55:24  24 C   38 % 
 2018-12-07 04:45:48  24 C   37 % 
 2018-12-07 04:36:12  24 C   37 % 
 2018-12-07 04:26:35  24 C   37 % 
 2018-12-07 04:16:59  25 C   37 % 
 2018-12-07 04:07:23  25 C   37 % 
 2018-12-07 03:57:47  25 C   37 % 
 2018-12-07 02:59:01  25 C   37 % 
 2018-12-07 02:20:01  25 C   36 % 
 2018-12-07 00:33:07  25 C   36 % 
 2018-12-07 00:23:30  25 C   36 % 
 2018-12-06 23:44:26  25 C   36 % 
 2018-12-06 23:24:32  25 C   36 % 
 2018-12-06 22:54:50  25 C   36 % 
 2018-12-06 22:15:43  26 C   36 % 
 2018-12-06 21:46:22  25 C   36 % 
 2018-12-06 21:36:04  25 C   36 % 
 2018-12-06 21:26:22  25 C   36 % 
 2018-12-06 20:56:49  25 C   36 % 
 2018-12-06 20:47:08  25 C   36 % 
 2018-12-06 20:27:49  25 C   36 % 
 2018-12-06 20:18:12  25 C   36 % 
 2018-12-06 19:29:36  25 C   36 % 
 2018-12-06 19:19:59  25 C   35 % 
 2018-12-06 19:10:23  25 C   35 % 
 2018-12-06 19:00:45  25 C   35 % 
 2018-12-06 18:41:24  24 C   35 % 
 2018-12-06 18:31:49  24 C   35 % 
 2018-12-06 18:12:34  24 C   35 % 
 2018-12-06 18:03:02  24 C   35 % 
 2018-12-06 17:53:13  24 C   35 % 
 2018-12-06 17:43:37  24 C   35 % 
 2018-12-06 17:34:02  24 C   35 % 
 2018-12-06 17:24:24  24 C   34 % 
 2018-12-06 17:14:48  24 C   36 % 
 2018-12-06 17:05:13  24 C   40 % 
 2018-12-06 16:45:57  24 C   36 % 
 2018-12-06 16:16:35  24 C   37 % 
 2018-12-06 15:56:40  24 C   37 % 
 2018-12-06 15:07:56  23 C   37 % 
 2018-12-06 14:58:15  23 C   37 % 
 2018-12-06 14:28:57  24 C   37 % 
 2018-12-06 13:39:34  24 C   36 % 
 2018-12-06 13:29:57  24 C   36 % 
 2018-12-06 13:10:39  24 C   37 % 
 2018-12-06 13:01:04  24 C   37 % 
 2018-12-06 12:51:27  24 C   37 % 
 2018-12-06 12:41:50  24 C   37 % 
 2018-12-06 12:32:14  24 C   37 % 
 2018-12-06 12:02:38  24 C   37 % 
 2018-12-06 11:43:14  24 C   37 % 
 2018-12-06 11:23:43  24 C   37 % 
 2018-12-06 11:14:09  24 C   37 % 
 2018-12-06 11:04:29  24 C   37 % 
 2018-12-06 10:54:53  24 C   37 % 
 2018-12-06 10:45:11  24 C   37 % 
 2018-12-06 10:35:33  24 C   38 % 
 2018-12-06 10:25:56  23 C   38 % 
 2018-12-06 10:16:19  23 C   41 % 
 2018-12-06 10:06:43  23 C   41 % 
 2018-12-06 09:57:07  23 C   40 % 
 2018-12-06 09:47:29  23 C   40 % 
 2018-12-06 09:37:54  23 C   40 % 
 2018-12-06 09:28:16  23 C   40 % 
 2018-12-06 09:18:39  24 C   40 % 
 2018-12-06 09:09:02  24 C   41 % 
 2018-12-06 08:59:26  24 C   41 % 
 2018-12-06 08:49:49  24 C   41 % 
 2018-12-06 08:40:11  24 C   41 % 
 2018-12-06 08:30:38  24 C   41 % 
 2018-12-06 08:20:55  24 C   41 % 
 2018-12-06 08:01:27  24 C   40 % 
 2018-12-06 07:51:49  24 C   41 % 
 2018-12-06 07:42:12  24 C   40 % 
 2018-12-06 07:32:36  24 C   40 % 
 2018-12-06 07:23:00  24 C   40 % 
 2018-12-06 07:03:11  24 C   41 % 
 2018-12-06 06:53:22  24 C   41 % 
 2018-12-06 06:43:45  24 C   38 % 
 2018-12-06 06:34:08  24 C   38 % 
 2018-12-06 06:24:32  24 C   38 % 
 2018-12-06 06:14:57  24 C   38 % 
 2018-12-06 05:55:40  24 C   38 % 
 2018-12-06 05:46:04  24 C   38 % 
 2018-12-06 05:26:29  24 C   38 % 
 2018-12-06 05:16:53  24 C   38 % 
 2018-12-06 05:07:16  24 C   38 % 
 2018-12-06 04:57:44  24 C   38 % 
 2018-12-06 04:47:58  24 C   38 % 
 2018-12-06 04:09:25  25 C   37 % 
 2018-12-06 03:59:49  25 C   37 % 
 2018-12-06 03:40:18  25 C   37 % 
 2018-12-06 03:30:41  25 C   37 % 
 2018-12-06 03:21:04  25 C   37 % 
 2018-12-06 02:03:33  25 C   37 % 
 2018-12-06 01:53:56  25 C   37 % 
 2018-12-06 01:34:31  25 C   37 % 
 2018-12-06 01:24:53  25 C   37 % 
 2018-12-06 01:15:16  25 C   37 % 
 2018-12-06 00:56:00  25 C   37 % 
 2018-12-06 00:46:24  25 C   37 % 
 2018-12-06 00:27:58  25 C   37 % 
 2018-12-06 00:17:29  25 C   37 % 
 2018-12-05 23:58:20  25 C   37 % 
 2018-12-05 23:28:26  25 C   37 % 
 2018-12-05 23:18:46  25 C   37 % 
 2018-12-05 23:09:10  25 C   37 % 
 2018-12-05 22:49:26  25 C   36 % 
 2018-12-05 22:10:11  25 C   36 % 
 2018-12-05 21:30:21  25 C   37 % 
 2018-12-05 21:20:47  25 C   37 % 
 2018-12-05 21:11:06  25 C   37 % 
 2018-12-05 20:42:04  26 C   37 % 
 2018-12-05 20:32:29  26 C   37 % 
 2018-12-05 19:53:23  25 C   41 % 
 2018-12-05 19:33:51  25 C   37 % 
 2018-12-05 19:24:22  25 C   37 % 
 2018-12-05 19:14:25  25 C   37 % 
 2018-12-05 19:04:51  25 C   37 % 
 2018-12-05 18:45:16  25 C   38 % 
 2018-12-05 18:35:36  25 C   38 % 
 2018-12-05 18:16:20  25 C   39 % 
 2018-12-05 18:06:45  25 C   40 % 
 2018-12-05 17:46:55  25 C   40 % 
 2018-12-05 17:17:59  24 C   42 % 
 2018-12-05 17:08:23  24 C   38 % 
 2018-12-05 16:58:44  24 C   38 % 
 2018-12-05 16:49:09  24 C   38 % 
 2018-12-05 16:39:32  24 C   38 % 
 2018-12-05 16:29:57  24 C   38 % 
 2018-12-05 16:20:29  24 C   37 % 
 2018-12-05 16:10:03  24 C   37 % 
 2018-12-05 16:00:28  24 C   37 % 
 2018-12-05 15:50:55  24 C   38 % 
 2018-12-05 15:41:04  24 C   38 % 
 2018-12-05 15:31:28  24 C   38 % 
 2018-12-05 15:21:54  24 C   38 % 
 2018-12-05 15:02:34  24 C   37 % 
 2018-12-05 14:53:04  24 C   37 % 
 2018-12-05 14:43:07  24 C   37 % 
 2018-12-05 14:33:32  24 C   37 % 
 2018-12-05 14:23:54  24 C   38 % 
 2018-12-05 14:14:13  24 C   38 % 
 2018-12-05 14:04:37  24 C   38 % 
 2018-12-05 13:45:23  24 C   38 % 
 2018-12-05 13:35:50  24 C   38 % 
 2018-12-05 13:26:08  24 C   37 % 
 2018-12-05 13:16:33  23 C   38 % 
 2018-12-05 13:06:56  23 C   38 % 
 2018-12-05 12:57:20  23 C   38 % 
 2018-12-05 12:47:43  23 C   37 % 
 2018-12-05 12:38:07  23 C   37 % 
 2018-12-05 12:28:32  23 C   37 % 
 2018-12-05 12:18:53  23 C   37 % 
 2018-12-05 12:09:16  23 C   36 % 
 2018-12-05 11:59:40  23 C   36 % 
 2018-12-05 11:50:04  23 C   35 % 
 2018-12-05 11:40:26  23 C   35 % 
 2018-12-05 11:30:49  23 C   36 % 
 2018-12-05 11:21:13  23 C   37 % 
 2018-12-05 11:11:36  23 C   37 % 
 2018-12-05 11:01:59  23 C   38 % 
 2018-12-05 10:52:23  23 C   39 % 
 2018-12-05 10:42:47  23 C   40 % 
 2018-12-05 10:33:09  23 C   40 % 
 2018-12-05 10:23:33  23 C   40 % 
 2018-12-05 10:13:56  23 C   40 % 
 2018-12-05 10:04:24  23 C   40 % 
 2018-12-05 09:54:38  23 C   40 % 
 2018-12-05 09:45:02  23 C   40 % 
 2018-12-05 09:25:25  23 C   40 % 
 2018-12-05 09:15:48  23 C   39 % 
 2018-12-05 09:06:12  23 C   40 % 
 2018-12-05 08:56:36  23 C   40 % 
 2018-12-05 08:46:58  23 C   40 % 
 2018-12-05 08:37:23  23 C   40 % 
 2018-12-05 08:27:44  24 C   40 % 
 2018-12-05 08:18:09  24 C   41 % 
 2018-12-05 08:08:31  23 C   42 % 
 2018-12-05 07:58:53  23 C   42 % 
 2018-12-05 07:49:16  23 C   42 % 
 2018-12-05 07:39:39  23 C   41 % 
 2018-12-05 07:30:03  23 C   41 % 
 2018-12-05 07:20:25  23 C   42 % 
 2018-12-05 07:10:49  23 C   43 % 
 2018-12-05 07:01:12  23 C   43 % 
 2018-12-05 06:51:35  23 C   41 % 
 2018-12-05 06:41:59  23 C   40 % 
 2018-12-05 06:32:24  23 C   40 % 
 2018-12-05 06:13:04  23 C   40 % 
 2018-12-05 06:03:28  23 C   40 % 
 2018-12-05 05:53:52  23 C   40 % 
 2018-12-05 05:24:34  23 C   40 % 
 2018-12-05 05:04:45  23 C   40 % 
 2018-12-05 04:55:06  23 C   40 % 
 2018-12-05 04:45:38  23 C   39 % 
 2018-12-05 04:35:33  23 C   39 % 
 2018-12-05 04:25:40  23 C   39 % 
 2018-12-05 04:16:05  23 C   39 % 
 2018-12-05 04:06:29  23 C   39 % 
 2018-12-05 03:47:10  24 C   39 % 
 2018-12-05 03:37:34  24 C   39 % 
 2018-12-05 03:27:58  24 C   39 % 
 2018-12-05 03:08:42  24 C   39 % 
 2018-12-05 02:48:55  24 C   39 % 
 2018-12-05 02:39:18  24 C   39 % 
 2018-12-05 02:20:00  24 C   39 % 
 2018-12-05 02:10:22  24 C   39 % 
 2018-12-05 02:00:46  24 C   39 % 
 2018-12-05 01:51:09  24 C   39 % 
 2018-12-05 01:41:34  24 C   39 % 
 2018-12-05 01:31:58  24 C   39 % 
 2018-12-05 01:12:27  24 C   39 % 
 2018-12-05 01:02:54  24 C   39 % 
 2018-12-05 00:53:07  24 C   39 % 
 2018-12-05 00:43:32  25 C   39 % 
 2018-12-05 00:33:55  25 C   39 % 
 2018-12-05 00:24:17  25 C   39 % 
 2018-12-05 00:14:40  25 C   39 % 
 2018-12-05 00:05:03  25 C   39 % 
 2018-12-04 23:06:34  25 C   38 % 
 2018-12-04 22:47:18  25 C   38 % 
 2018-12-04 22:37:42  25 C   37 % 
 2018-12-04 22:18:25  25 C   37 % 
 2018-12-04 22:08:48  25 C   37 % 
 2018-12-04 21:59:12  25 C   37 % 
 2018-12-04 21:49:36  25 C   37 % 
 2018-12-04 21:39:59  25 C   37 % 
 2018-12-04 21:20:22  25 C   36 % 
 2018-12-04 21:00:42  25 C   35 % 
 2018-12-04 20:50:56  25 C   35 % 
 2018-12-04 20:41:11  25 C   34 % 
 2018-12-04 20:21:28  25 C   32 % 
 2018-12-04 20:11:49  25 C   32 % 
 2018-12-04 20:02:15  25 C   32 % 
 2018-12-04 19:52:32  25 C   33 % 
 2018-12-04 19:13:50  26 C   40 % 
 2018-12-04 19:04:14  25 C   41 % 
 2018-12-04 18:44:55  25 C   38 % 
 2018-12-04 18:16:01  25 C   38 % 
 2018-12-04 18:06:21  25 C   38 % 
 2018-12-04 17:16:57  25 C   38 % 
 2018-12-04 17:07:26  25 C   38 % 
 2018-12-04 16:57:35  24 C   38 % 
 2018-12-04 16:38:20  24 C   39 % 
 2018-12-04 16:28:43  24 C   39 % 
 2018-12-04 16:19:07  24 C   38 % 
 2018-12-04 15:50:02  24 C   38 % 
 2018-12-04 15:30:28  24 C   37 % 
 2018-12-04 15:20:50  24 C   36 % 
 2018-12-04 15:11:12  24 C   34 % 
 2018-12-04 15:01:37  24 C   33 % 
 2018-12-04 14:52:00  24 C   34 % 
 2018-12-04 14:42:24  24 C   34 % 
 2018-12-04 14:23:02  24 C   36 % 
 2018-12-04 14:13:29  24 C   38 % 
 2018-12-04 14:03:41  24 C   41 % 
 2018-12-04 13:53:59  24 C   40 % 
 2018-12-04 13:34:43  24 C   40 % 
 2018-12-04 13:25:07  24 C   40 % 
 2018-12-04 13:15:29  24 C   40 % 
 2018-12-04 13:05:52  25 C   40 % 
 2018-12-04 12:56:20  25 C   41 % 
 2018-12-04 12:36:02  25 C   41 % 
 2018-12-04 12:16:50  24 C   41 % 
 2018-12-04 12:07:11  24 C   41 % 
 2018-12-04 11:47:53  24 C   41 % 
 2018-12-04 11:28:16  24 C   41 % 
 2018-12-04 11:18:40  24 C   41 % 
 2018-12-04 11:09:01  24 C   41 % 
 2018-12-04 10:59:24  24 C   41 % 
 2018-12-04 10:49:50  24 C   41 % 
 2018-12-04 10:40:08  24 C   41 % 
 2018-12-04 10:30:31  24 C   41 % 
 2018-12-04 10:21:00  24 C   41 % 
 2018-12-04 10:11:12  24 C   42 % 
 2018-12-04 10:01:18  24 C   43 % 
 2018-12-04 09:51:39  24 C   43 % 
 2018-12-04 09:32:24  24 C   43 % 
 2018-12-04 09:22:47  24 C   43 % 
 2018-12-04 09:13:10  24 C   43 % 
 2018-12-04 09:03:33  24 C   43 % 
 2018-12-04 08:53:57  24 C   43 % 
 2018-12-04 08:34:36  24 C   43 % 
 2018-12-04 08:25:04  24 C   44 % 
 2018-12-04 08:15:16  24 C   44 % 
 2018-12-04 07:25:44  24 C   44 % 
 2018-12-04 07:16:17  24 C   45 % 
 2018-12-04 07:05:51  24 C   45 % 
 2018-12-04 06:46:26  24 C   43 % 
 2018-12-04 06:36:50  24 C   42 % 
 2018-12-04 06:17:20  24 C   42 % 
 2018-12-04 06:07:33  24 C   42 % 
 2018-12-04 05:57:58  24 C   42 % 
 2018-12-04 05:48:17  24 C   42 % 
 2018-12-04 05:38:33  24 C   42 % 
 2018-12-04 05:28:58  24 C   42 % 
 2018-12-04 05:08:58  24 C   42 % 
 2018-12-04 04:59:18  24 C   42 % 
 2018-12-04 04:49:43  25 C   41 % 
 2018-12-04 04:40:10  25 C   41 % 
 2018-12-04 04:11:07  25 C   41 % 
 2018-12-04 04:01:18  25 C   41 % 
 2018-12-04 03:51:46  25 C   41 % 
 2018-12-04 03:41:58  25 C   41 % 
 2018-12-04 03:22:41  25 C   41 % 
 2018-12-04 03:13:05  25 C   41 % 
 2018-12-04 02:53:11  25 C   41 % 
 2018-12-04 02:43:34  25 C   41 % 
 2018-12-04 02:14:47  25 C   41 % 
 2018-12-04 01:55:29  25 C   41 % 
 2018-12-04 01:26:35  25 C   41 % 
 2018-12-04 01:16:55  25 C   42 % 
 2018-12-04 00:57:42  25 C   42 % 
 2018-12-04 00:09:37  25 C   42 % 
 2018-12-03 23:59:57  25 C   42 % 
 2018-12-03 23:50:21  24 C   42 % 
 2018-12-03 23:40:50  24 C   42 % 
 2018-12-03 23:30:48  24 C   42 % 
 2018-12-03 23:21:11  24 C   42 % 
 2018-12-03 23:11:33  24 C   42 % 
 2018-12-03 22:52:07  24 C   42 % 
 2018-12-03 22:32:10  24 C   42 % 
 2018-12-03 22:03:20  25 C   42 % 
 2018-12-03 21:44:12  25 C   41 % 
 2018-12-03 20:26:06  25 C   41 % 
 2018-12-03 19:56:10  25 C   42 % 
 2018-12-03 19:36:23  25 C   42 % 
 2018-12-03 19:06:42  25 C   41 % 
 2018-12-03 17:38:26  24 C   42 % 
 2018-12-03 17:28:44  24 C   41 % 
 2018-12-03 17:09:28  23 C   41 % 
 2018-12-03 16:59:51  23 C   42 % 
 2018-12-03 16:50:14  23 C   41 % 
 2018-12-03 16:40:42  23 C   40 % 
 2018-12-03 16:30:43  23 C   40 % 
 2018-12-03 15:52:08  24 C   41 % 
 2018-12-03 15:42:31  24 C   41 % 
 2018-12-03 15:32:58  24 C   41 % 
 2018-12-03 15:23:15  24 C   41 % 
 2018-12-03 14:53:43  24 C   41 % 
 2018-12-03 14:44:03  24 C   41 % 
 2018-12-03 14:34:27  24 C   41 % 
 2018-12-03 14:24:52  24 C   42 % 
 2018-12-03 14:05:31  24 C   42 % 
 2018-12-03 13:55:55  24 C   42 % 
 2018-12-03 13:36:13  24 C   42 % 
 2018-12-03 13:26:37  24 C   42 % 
 2018-12-03 13:17:00  23 C   42 % 
 2018-12-03 13:07:24  23 C   42 % 
 2018-12-03 12:57:47  23 C   41 % 
 2018-12-03 12:48:12  23 C   41 % 
 2018-12-03 12:38:37  23 C   41 % 
 2018-12-03 12:28:55  23 C   41 % 
 2018-12-03 11:50:06  23 C   41 % 
 2018-12-03 11:30:46  23 C   41 % 
 2018-12-03 11:21:13  23 C   41 % 
 2018-12-03 11:11:11  23 C   41 % 
 2018-12-03 11:01:35  23 C   41 % 
 2018-12-03 10:51:59  23 C   41 % 
 2018-12-03 10:42:21  23 C   41 % 
 2018-12-03 10:32:47  23 C   42 % 
 2018-12-03 10:13:25  23 C   41 % 
 2018-12-03 10:03:48  23 C   42 % 
 2018-12-03 09:54:14  23 C   42 % 
 2018-12-03 09:44:34  23 C   42 % 
 2018-12-03 09:35:00  23 C   42 % 
 2018-12-03 09:25:19  23 C   45 % 
 2018-12-03 09:15:43  23 C   42 % 
 2018-12-03 09:06:08  23 C   42 % 
 2018-12-03 08:56:31  23 C   42 % 
 2018-12-03 08:46:50  23 C   42 % 
 2018-12-03 08:37:15  23 C   42 % 
 2018-12-03 08:27:38  23 C   42 % 
 2018-12-03 08:17:57  23 C   42 % 
 2018-12-03 08:08:21  23 C   42 % 
 2018-12-03 07:58:47  23 C   42 % 
 2018-12-03 07:49:04  23 C   42 % 
 2018-12-03 07:39:28  23 C   42 % 
 2018-12-03 07:29:51  23 C   42 % 
 2018-12-03 07:20:15  23 C   42 % 
 2018-12-03 07:10:39  23 C   42 % 
 2018-12-03 06:50:51  23 C   41 % 
 2018-12-03 06:41:19  23 C   41 % 
 2018-12-03 06:31:09  23 C   41 % 
 2018-12-03 06:21:28  23 C   41 % 
 2018-12-03 06:11:52  23 C   41 % 
 2018-12-03 06:02:17  23 C   41 % 
 2018-12-03 05:52:37  23 C   41 % 
 2018-12-03 05:43:01  23 C   41 % 
 2018-12-03 05:33:24  23 C   41 % 
 2018-12-03 05:23:48  23 C   41 % 
 2018-12-03 05:14:11  23 C   41 % 
 2018-12-03 05:04:34  23 C   41 % 
 2018-12-03 04:54:55  23 C   41 % 
 2018-12-03 04:35:38  23 C   41 % 
 2018-12-03 04:26:01  23 C   41 % 
 2018-12-03 04:16:25  24 C   41 % 
 2018-12-03 03:56:29  24 C   41 % 
 2018-12-03 03:46:51  24 C   41 % 
 2018-12-03 03:37:14  24 C   41 % 
 2018-12-03 03:27:37  24 C   41 % 
 2018-12-03 03:18:00  24 C   41 % 
 2018-12-03 02:48:56  24 C   40 % 
 2018-12-03 02:39:18  24 C   40 % 
 2018-12-03 02:29:43  24 C   40 % 
 2018-12-03 02:20:06  24 C   40 % 
 2018-12-03 02:00:55  24 C   40 % 
 2018-12-03 01:22:26  24 C   40 % 
 2018-12-03 01:12:47  24 C   40 % 
 2018-12-03 01:03:10  24 C   40 % 
 2018-12-03 00:44:00  24 C   40 % 
 2018-12-03 00:34:23  24 C   40 % 
 2018-12-03 00:24:40  24 C   40 % 
 2018-12-03 00:05:08  24 C   40 % 
 2018-12-02 23:55:33  24 C   40 % 
 2018-12-02 23:45:51  24 C   40 % 
 2018-12-02 23:16:18  23 C   40 % 
 2018-12-02 23:06:36  23 C   40 % 
 2018-12-02 22:57:04  23 C   40 % 
 2018-12-02 22:47:19  23 C   40 % 
 2018-12-02 22:37:41  23 C   41 % 
 2018-12-02 22:28:03  23 C   41 % 
 2018-12-02 22:18:32  23 C   41 % 
 2018-12-02 22:08:41  23 C   41 % 
 2018-12-02 21:39:47  23 C   41 % 
 2018-12-02 21:30:07  23 C   41 % 
 2018-12-02 21:20:32  23 C   41 % 
 2018-12-02 21:10:54  23 C   41 % 
 2018-12-02 21:01:16  23 C   41 % 
 2018-12-02 20:32:28  23 C   41 % 
 2018-12-02 20:22:42  24 C   41 % 
 2018-12-02 20:13:06  24 C   41 % 
 2018-12-02 19:53:45  24 C   40 % 
 2018-12-02 19:44:03  24 C   40 % 
 2018-12-02 19:34:27  24 C   40 % 
 2018-12-02 19:24:56  24 C   40 % 
 2018-12-02 19:15:06  24 C   40 % 
 2018-12-02 19:05:26  24 C   40 % 
 2018-12-02 18:55:50  24 C   39 % 
 2018-12-02 18:36:35  24 C   39 % 
 2018-12-02 18:26:58  24 C   39 % 
 2018-12-02 18:17:21  24 C   39 % 
 2018-12-02 18:07:45  24 C   39 % 
 2018-12-02 17:58:11  24 C   39 % 
 2018-12-02 17:48:29  24 C   39 % 
 2018-12-02 17:19:27  25 C   38 % 
 2018-12-02 17:09:52  25 C   38 % 
 2018-12-02 17:00:14  25 C   38 % 
 2018-12-02 16:50:39  25 C   38 % 
 2018-12-02 16:41:01  25 C   38 % 
 2018-12-02 16:31:25  25 C   38 % 
 2018-12-02 16:21:49  25 C   38 % 
 2018-12-02 16:02:37  26 C   37 % 
 2018-12-02 15:53:01  26 C   37 % 
 2018-12-02 15:43:26  26 C   37 % 
 2018-12-02 15:33:49  26 C   37 % 
 2018-12-02 15:14:37  27 C   36 % 
 2018-12-02 14:45:42  28 C   34 % 
 2018-12-02 14:26:02  29 C   33 % 
 2018-12-02 14:16:15  30 C   31 % 
 2018-12-02 14:06:38  31 C   30 % 
 2018-12-02 13:57:03  32 C   28 % 
 2018-12-02 13:47:29  35 C   26 % 
 2018-12-02 13:37:48  35 C   27 % 
 2018-12-02 13:27:57  25 C   44 % 
 2018-12-02 13:08:44  24 C   40 % 
 2018-12-02 12:59:14  24 C   40 % 
 2018-12-02 12:28:53  24 C   41 % 
 2018-12-02 12:19:15  24 C   41 % 
 2018-12-02 12:09:43  24 C   40 % 
 2018-12-02 11:39:38  24 C   40 % 
 2018-12-02 11:30:01  24 C   41 % 
 2018-12-02 11:20:22  24 C   41 % 
 2018-12-02 11:10:45  24 C   41 % 
 2018-12-02 11:01:07  24 C   41 % 
 2018-12-02 10:51:33  24 C   41 % 
 2018-12-02 10:41:56  24 C   41 % 
 2018-12-02 10:32:07  23 C   41 % 
 2018-12-02 10:22:31  24 C   41 % 
 2018-12-02 10:12:55  24 C   41 % 
 2018-12-02 09:53:34  24 C   41 % 
 2018-12-02 09:34:18  24 C   40 % 
 2018-12-02 09:24:42  24 C   40 % 
 2018-12-02 09:15:05  24 C   40 % 
 2018-12-02 09:05:29  24 C   40 % 
 2018-12-02 08:55:51  24 C   40 % 
 2018-12-02 08:46:15  24 C   40 % 
 2018-12-02 08:36:40  24 C   40 % 
 2018-12-02 08:06:51  24 C   40 % 
 2018-12-02 07:57:15  24 C   40 % 
 2018-12-02 07:47:41  24 C   40 % 
 2018-12-02 07:37:59  24 C   40 % 
 2018-12-02 07:28:23  24 C   40 % 
 2018-12-02 07:18:48  24 C   40 % 
 2018-12-02 06:58:50  24 C   40 % 
 2018-12-02 06:49:13  24 C   40 % 
 2018-12-02 06:29:44  24 C   40 % 
 2018-12-02 06:20:07  24 C   40 % 
 2018-12-02 06:10:31  24 C   40 % 
 2018-12-02 06:00:55  24 C   40 % 
 2018-12-02 05:51:16  24 C   40 % 
 2018-12-02 05:41:44  25 C   40 % 
 2018-12-02 05:21:49  25 C   40 % 
 2018-12-02 05:01:46  25 C   40 % 
 2018-12-02 04:52:15  25 C   40 % 
 2018-12-02 04:42:27  25 C   40 % 
 2018-12-02 04:32:35  25 C   40 % 
 2018-12-02 04:22:59  25 C   39 % 
 2018-12-02 03:53:27  25 C   39 % 
 2018-12-02 03:43:48  25 C   39 % 
 2018-12-02 03:34:11  25 C   40 % 
 2018-12-02 03:24:37  25 C   40 % 
 2018-12-02 02:55:12  25 C   40 % 
 2018-12-02 02:45:34  25 C   40 % 
 2018-12-02 02:35:56  25 C   40 % 
 2018-12-02 02:16:39  25 C   40 % 
 2018-12-02 02:06:57  25 C   40 % 
 2018-12-02 01:47:06  25 C   40 % 
 2018-12-02 01:37:30  25 C   40 % 
 2018-12-02 01:27:53  24 C   40 % 
 2018-12-02 01:18:12  24 C   40 % 
 2018-12-02 01:08:36  24 C   40 % 
 2018-12-02 00:58:59  24 C   40 % 
 2018-12-02 00:49:25  24 C   40 % 
 2018-12-02 00:30:10  24 C   40 % 
 2018-12-02 00:20:35  24 C   40 % 
 2018-12-02 00:01:13  24 C   40 % 
 2018-12-01 23:51:38  24 C   40 % 
 2018-12-01 23:42:01  24 C   40 % 
 2018-12-01 23:22:50  24 C   40 % 
 2018-12-01 23:03:20  24 C   40 % 
 2018-12-01 22:53:47  24 C   40 % 
 2018-12-01 22:13:29  24 C   39 % 
 2018-12-01 21:54:17  24 C   39 % 
 2018-12-01 21:35:05  24 C   40 % 
 2018-12-01 21:15:09  24 C   40 % 
 2018-12-01 21:05:31  24 C   40 % 
 2018-12-01 20:55:55  24 C   41 % 
 2018-12-01 20:26:59  24 C   41 % 
 2018-12-01 20:17:21  24 C   41 % 
 2018-12-01 20:07:46  24 C   41 % 
 2018-12-01 19:58:11  24 C   41 % 
 2018-12-01 19:38:54  24 C   41 % 
 2018-12-01 19:09:53  23 C   41 % 
 2018-12-01 18:40:51  23 C   42 % 
 2018-12-01 18:31:15  23 C   42 % 
 2018-12-01 18:02:23  23 C   42 % 
 2018-12-01 17:52:46  23 C   42 % 
 2018-12-01 17:32:52  23 C   42 % 
 2018-12-01 17:23:16  23 C   42 % 
 2018-12-01 17:13:40  23 C   42 % 
 2018-12-01 17:04:01  23 C   42 % 
 2018-12-01 16:54:25  23 C   42 % 
 2018-12-01 16:44:49  23 C   42 % 
 2018-12-01 16:35:13  23 C   42 % 
 2018-12-01 16:25:34  23 C   42 % 
 2018-12-01 16:15:57  23 C   42 % 
 2018-12-01 15:56:15  24 C   42 % 
 2018-12-01 15:46:40  24 C   42 % 
 2018-12-01 15:27:22  24 C   42 % 
 2018-12-01 15:17:47  24 C   42 % 
 2018-12-01 14:47:45  23 C   41 % 
 2018-12-01 14:38:09  23 C   41 % 
 2018-12-01 14:28:34  24 C   41 % 
 2018-12-01 14:18:56  24 C   41 % 
 2018-12-01 14:09:21  24 C   41 % 
 2018-12-01 13:59:42  24 C   41 % 
 2018-12-01 13:50:08  24 C   41 % 
 2018-12-01 13:30:30  23 C   41 % 
 2018-12-01 13:11:18  23 C   41 % 
 2018-12-01 12:42:05  23 C   41 % 
 2018-12-01 12:32:28  23 C   41 % 
 2018-12-01 12:23:01  23 C   42 % 
 2018-12-01 12:12:55  23 C   42 % 
 2018-12-01 12:03:21  23 C   42 % 
 2018-12-01 11:53:41  23 C   42 % 
 2018-12-01 11:44:06  23 C   41 % 
 2018-12-01 11:34:35  23 C   41 % 
 2018-12-01 11:14:34  23 C   42 % 
 2018-12-01 11:04:39  23 C   41 % 
 2018-12-01 10:35:04  22 C   40 % 
 2018-12-01 10:15:15  22 C   39 % 
 2018-12-01 10:05:36  22 C   39 % 
 2018-12-01 09:55:59  22 C   39 % 
 2018-12-01 09:36:44  22 C   39 % 
 2018-12-01 09:27:06  22 C   39 % 
 2018-12-01 09:17:30  22 C   39 % 
 2018-12-01 09:07:51  22 C   39 % 
 2018-12-01 08:58:16  23 C   39 % 
 2018-12-01 08:38:41  23 C   39 % 
 2018-12-01 08:19:26  23 C   39 % 
 2018-12-01 08:09:50  23 C   39 % 
 2018-12-01 08:00:10  23 C   39 % 
 2018-12-01 07:50:33  23 C   39 % 
 2018-12-01 07:40:55  23 C   39 % 
 2018-12-01 07:31:18  23 C   39 % 
 2018-12-01 07:21:42  23 C   39 % 
 2018-12-01 07:12:01  23 C   39 % 
 2018-12-01 07:02:25  23 C   38 % 
 2018-12-01 06:52:55  23 C   38 % 
 2018-12-01 06:43:04  23 C   38 % 
 2018-12-01 06:33:24  23 C   38 % 
 2018-12-01 06:23:48  23 C   38 % 
 2018-12-01 06:14:13  23 C   38 % 
 2018-12-01 05:44:19  23 C   38 % 
 2018-12-01 05:34:44  23 C   38 % 
 2018-12-01 04:54:56  24 C   38 % 
 2018-12-01 04:45:20  24 C   38 % 
 2018-12-01 04:35:42  24 C   38 % 
 2018-12-01 04:26:06  24 C   38 % 
 2018-12-01 04:06:34  24 C   38 % 
 2018-12-01 03:56:58  24 C   38 % 
 2018-12-01 03:47:21  24 C   38 % 
 2018-12-01 03:37:47  24 C   39 % 
 2018-12-01 03:17:48  24 C   38 % 
 2018-12-01 03:08:08  24 C   39 % 
 2018-12-01 02:28:59  24 C   39 % 
 2018-12-01 01:50:26  25 C   39 % 
 2018-12-01 01:31:09  25 C   39 % 
 2018-12-01 01:21:33  25 C   39 % 
 2018-12-01 00:52:45  25 C   39 % 
 2018-12-01 00:43:10  25 C   39 % 
 2018-12-01 00:33:32  25 C   39 % 
 2018-11-30 23:44:26  25 C   39 % 
 2018-11-30 23:14:53  25 C   39 % 
 2018-11-30 22:17:13  25 C   39 % 
 2018-11-30 22:07:37  25 C   38 % 
 2018-11-30 21:47:35  25 C   37 % 
 2018-11-30 21:38:00  26 C   38 % 
 2018-11-30 20:40:26  26 C   42 % 
 2018-11-30 20:30:19  26 C   42 % 
 2018-11-30 20:11:02  26 C   41 % 
 2018-11-30 19:41:40  26 C   40 % 
 2018-11-30 18:33:49  25 C   38 % 
 2018-11-30 18:24:10  25 C   39 % 
 2018-11-30 17:25:37  26 C   38 % 
 2018-11-30 17:15:33  26 C   37 % 
 2018-11-30 17:05:52  26 C   37 % 
 2018-11-30 16:56:14  27 C   37 % 
 2018-11-30 16:37:00  27 C   36 % 
 2018-11-30 16:17:54  28 C   35 % 
 2018-11-30 16:07:47  28 C   34 % 
 2018-11-30 15:58:13  29 C   34 % 
 2018-11-30 15:38:43  30 C   33 % 
 2018-11-30 15:28:58  28 C   38 % 
 2018-11-30 15:19:19  24 C   40 % 
 2018-11-30 14:49:40  24 C   40 % 
 2018-11-30 14:30:27  24 C   40 % 
 2018-11-30 14:20:51  24 C   40 % 
 2018-11-30 14:11:12  24 C   40 % 
 2018-11-30 13:42:04  24 C   40 % 
 2018-11-30 13:32:28  24 C   40 % 
 2018-11-30 13:22:51  24 C   40 % 
 2018-11-30 13:03:39  24 C   40 % 
 2018-11-30 12:54:02  24 C   40 % 
 2018-11-30 12:44:26  24 C   40 % 
 2018-11-30 12:34:49  24 C   40 % 
 2018-11-30 12:05:39  24 C   39 % 
 2018-11-30 11:45:42  24 C   40 % 
 2018-11-30 11:36:05  23 C   40 % 
 2018-11-30 11:26:26  23 C   40 % 
 2018-11-30 11:06:34  23 C   40 % 
 2018-11-30 10:47:18  23 C   40 % 
 2018-11-30 10:37:42  23 C   42 % 
 2018-11-30 10:17:44  23 C   40 % 
 2018-11-30 09:57:55  23 C   41 % 
 2018-11-30 09:48:18  23 C   41 % 
 2018-11-30 09:38:42  23 C   41 % 
 2018-11-30 09:09:28  23 C   41 % 
 2018-11-30 08:50:12  23 C   41 % 
 2018-11-30 08:30:15  23 C   42 % 
 2018-11-30 08:20:41  23 C   42 % 
 2018-11-30 07:51:14  23 C   42 % 
 2018-11-30 07:31:11  23 C   41 % 
 2018-11-30 07:21:35  23 C   40 % 
 2018-11-30 07:11:58  23 C   40 % 
 2018-11-30 06:52:25  23 C   40 % 
 2018-11-30 05:42:14  23 C   39 % 
 2018-11-30 05:12:52  23 C   39 % 
 2018-11-30 04:53:34  23 C   39 % 
 2018-11-30 04:43:55  23 C   39 % 
 2018-11-30 04:05:19  23 C   39 % 
 2018-11-30 03:55:44  23 C   39 % 
 2018-11-30 03:35:58  23 C   39 % 
 2018-11-30 03:16:03  23 C   39 % 
 2018-11-30 02:56:30  23 C   39 % 
 2018-11-30 02:46:16  24 C   39 % 
 2018-11-30 02:36:41  24 C   39 % 
 2018-11-30 02:27:05  24 C   39 % 
 2018-11-30 02:17:28  24 C   38 % 
 2018-11-30 02:07:54  24 C   38 % 
 2018-11-30 01:38:20  24 C   38 % 
 2018-11-30 01:28:41  24 C   38 % 
 2018-11-30 00:39:22  24 C   38 % 
 2018-11-29 23:11:19  24 C   38 % 
 2018-11-29 21:24:04  24 C   38 % 
 2018-11-29 21:14:11  24 C   38 % 
 2018-11-29 19:55:54  24 C   38 % 
 2018-11-29 19:36:30  24 C   39 % 
 2018-11-29 19:16:31  24 C   38 % 
 2018-11-29 19:06:57  24 C   38 % 
 2018-11-29 18:57:12  24 C   39 % 
 2018-11-29 18:47:35  24 C   38 % 
 2018-11-29 18:37:53  23 C   39 % 
 2018-11-29 18:08:18  23 C   42 % 
 2018-11-29 17:49:02  23 C   47 % 
 2018-11-29 17:39:26  23 C   52 % 
 2018-11-29 17:09:28  23 C   38 % 
 2018-11-29 16:50:12  22 C   38 % 
 2018-11-29 16:30:22  22 C   39 % 
 2018-11-29 16:20:42  22 C   38 % 
 2018-11-29 16:11:05  22 C   38 % 
 2018-11-29 16:01:29  22 C   38 % 
 2018-11-29 15:51:51  22 C   38 % 
 2018-11-29 15:42:14  22 C   38 % 
 2018-11-29 15:32:35  22 C   38 % 
 2018-11-29 15:22:59  21 C   38 % 
 2018-11-29 15:13:22  21 C   38 % 
 2018-11-29 15:03:46  21 C   38 % 
 2018-11-29 14:54:10  21 C   38 % 
 2018-11-29 14:34:53  21 C   39 % 
 2018-11-29 08:54:25  19 C   37 % 
 2018-11-29 08:34:43  19 C   37 % 
 2018-11-28 21:22:50  19 C   37 % 
 2018-11-28 20:53:56  19 C   36 % 
 2018-11-28 20:34:10  19 C   37 % 
 2018-11-28 19:35:17  19 C   37 % 
 2018-11-28 18:18:22  19 C   37 % 
 2018-11-28 15:50:57  19 C   37 % 
 2018-11-28 15:00:45  19 C   37 % 
 2018-11-28 14:00:52  19 C   37 % 
 2018-11-28 09:16:19  19 C   36 % 
 2018-11-28 02:26:33  19 C   37 % 
 2018-11-27 22:43:24  19 C   37 % 
 2018-11-27 22:23:47  19 C   37 % 
 2018-11-27 22:04:13  19 C   37 % 
 2018-11-27 21:25:29  19 C   37 % 
 2018-11-27 20:27:00  19 C   37 % 
 2018-11-27 20:07:34  19 C   37 % 
 2018-11-27 18:29:36  19 C   38 % 
 2018-11-27 18:00:46  19 C   38 % 
 2018-11-27 17:41:27  19 C   38 % 
 2018-11-27 17:02:55  19 C   38 % 
 2018-11-27 15:06:21  19 C   38 % 
 2018-11-27 12:39:27  19 C   38 % 
 2018-11-27 04:54:48  19 C   38 % 
 2018-11-26 22:16:01  19 C   39 % 
 2018-11-26 18:02:44  19 C   39 % 
 2018-11-26 17:43:31  19 C   39 % 
 2018-11-26 17:04:51  19 C   39 % 
 2018-11-26 16:35:41  20 C   39 % 
 2018-11-26 15:17:41  20 C   39 % 
 2018-11-26 13:30:13  20 C   39 % 
 2018-11-26 12:31:52  20 C   39 % 
 2018-11-26 10:07:17  20 C   39 % 
 2018-11-26 08:58:52  20 C   39 % 
 2018-11-26 08:01:08  20 C   39 % 
 2018-11-26 07:51:01  20 C   39 % 
 2018-11-26 07:22:03  20 C   39 % 
 2018-11-26 05:17:03  20 C   40 % 
 2018-11-26 04:19:21  20 C   40 % 
 2018-11-26 03:01:55  20 C   40 % 
 2018-11-26 01:34:36  20 C   40 % 
 2018-11-25 19:17:00  20 C   40 % 
 2018-11-25 16:41:10  20 C   40 % 
 2018-11-25 15:52:20  20 C   40 % 
 2018-11-25 15:42:42  20 C   40 % 
 2018-11-25 15:33:00  20 C   40 % 
 2018-11-25 15:13:52  20 C   40 % 
 2018-11-25 15:03:59  20 C   40 % 
 2018-11-25 14:53:52  20 C   40 % 
 2018-11-25 14:24:56  20 C   40 % 
 2018-11-25 14:15:14  20 C   40 % 
 2018-11-25 13:46:26  20 C   40 % 
 2018-11-25 13:27:09  20 C   40 % 
 2018-11-25 13:17:02  20 C   40 % 
 2018-11-25 10:13:27  20 C   39 % 
 2018-11-25 10:03:45  20 C   39 % 
 2018-11-25 09:34:57  20 C   39 % 
 2018-11-25 09:25:11  20 C   39 % 
 2018-11-25 09:15:23  20 C   39 % 
 2018-11-25 08:46:39  20 C   39 % 
 2018-11-25 06:41:12  20 C   39 % 
 2018-11-25 05:52:56  20 C   39 % 
 2018-11-25 04:44:59  20 C   39 % 
 2018-11-25 04:06:28  20 C   39 % 
 2018-11-25 03:08:17  20 C   39 % 
 2018-11-25 02:49:05  20 C   39 % 
 2018-11-25 02:29:20  20 C   39 % 
 2018-11-25 01:31:03  21 C   39 % 
 2018-11-25 01:21:16  20 C   39 % 
 2018-11-25 00:42:28  21 C   39 % 
 2018-11-25 00:33:00  21 C   39 % 
 2018-11-25 00:22:54  21 C   39 % 
 2018-11-25 00:13:16  21 C   39 % 
 2018-11-25 00:03:39  21 C   39 % 
 2018-11-24 23:44:18  21 C   39 % 
 2018-11-24 23:34:44  21 C   39 % 
 2018-11-24 23:15:32  21 C   39 % 
 2018-11-24 23:05:44  21 C   39 % 
 2018-11-24 22:55:46  21 C   39 % 
 2018-11-24 22:46:03  21 C   39 % 
 2018-11-24 22:17:17  21 C   39 % 
 2018-11-24 22:07:02  21 C   39 % 
 2018-11-24 21:47:43  21 C   39 % 
 2018-11-24 21:38:04  21 C   38 % 
 2018-11-24 21:18:52  21 C   38 % 
 2018-11-24 21:09:16  21 C   38 % 
 2018-11-24 20:59:39  21 C   38 % 
 2018-11-24 20:49:52  21 C   38 % 
 2018-11-24 20:39:58  21 C   38 % 
 2018-11-24 20:20:46  21 C   38 % 
 2018-11-24 20:11:12  21 C   38 % 
 2018-11-24 19:41:21  21 C   38 % 
 2018-11-24 19:31:44  21 C   38 % 
 2018-11-24 18:33:18  21 C   38 % 
 2018-11-24 18:13:33  21 C   38 % 
 2018-11-24 17:54:19  21 C   38 % 
 2018-11-24 17:35:05  21 C   38 % 
 2018-11-24 17:25:26  21 C   38 % 
 2018-11-24 17:06:11  21 C   39 % 
 2018-11-24 16:26:32  21 C   39 % 
 2018-11-24 16:16:50  21 C   39 % 
 2018-11-24 16:07:22  21 C   39 % 
 2018-11-24 15:47:34  22 C   39 % 
 2018-11-24 15:38:08  22 C   39 % 
 2018-11-24 15:28:01  22 C   39 % 
 2018-11-24 15:18:16  22 C   39 % 
 2018-11-24 15:08:43  22 C   39 % 
 2018-11-24 14:58:49  22 C   39 % 
 2018-11-24 14:39:37  22 C   39 % 
 2018-11-24 14:20:01  22 C   39 % 
 2018-11-24 14:10:30  22 C   39 % 
 2018-11-24 14:00:33  22 C   39 % 
 2018-11-24 13:50:55  22 C   39 % 
 2018-11-24 13:41:19  22 C   39 % 
 2018-11-24 13:31:46  22 C   39 % 
 2018-11-24 13:12:27  22 C   39 % 
 2018-11-24 13:02:50  22 C   39 % 
 2018-11-24 12:53:12  22 C   39 % 
 2018-11-24 12:43:36  22 C   39 % 
 2018-11-24 12:34:00  22 C   39 % 
 2018-11-24 12:24:24  22 C   39 % 
 2018-11-24 12:14:47  22 C   39 % 
 2018-11-24 12:05:10  22 C   39 % 
 2018-11-24 11:55:35  22 C   39 % 
 2018-11-24 11:46:00  22 C   39 % 
 2018-11-24 11:36:22  22 C   39 % 
 2018-11-24 11:07:05  22 C   39 % 
 2018-11-24 10:57:28  22 C   39 % 
 2018-11-24 10:47:53  22 C   39 % 
 2018-11-24 10:38:13  22 C   39 % 
 2018-11-24 10:28:41  22 C   39 % 
 2018-11-24 09:48:40  23 C   39 % 
 2018-11-24 09:28:48  23 C   39 % 
 2018-11-24 09:09:27  23 C   39 % 
 2018-11-24 08:59:51  23 C   39 % 
 2018-11-24 08:50:15  23 C   39 % 
 2018-11-24 08:40:46  23 C   39 % 
 2018-11-24 08:30:46  23 C   39 % 
 2018-11-24 08:21:11  23 C   39 % 
 2018-11-24 08:11:34  23 C   39 % 
 2018-11-24 08:01:55  23 C   39 % 
 2018-11-24 07:52:18  23 C   39 % 
 2018-11-24 07:42:42  23 C   39 % 
 2018-11-24 07:33:03  23 C   39 % 
 2018-11-24 07:23:28  23 C   39 % 
 2018-11-24 07:13:50  23 C   40 % 
 2018-11-24 07:04:15  23 C   40 % 
 2018-11-24 06:54:37  23 C   40 % 
 2018-11-24 06:45:01  23 C   40 % 
 2018-11-24 06:25:12  24 C   40 % 
 2018-11-24 06:05:36  24 C   39 % 
 2018-11-24 05:55:59  24 C   39 % 
 2018-11-24 05:46:23  24 C   39 % 
 2018-11-24 05:36:48  24 C   39 % 
 2018-11-24 05:27:10  24 C   39 % 
 2018-11-24 05:17:31  24 C   39 % 
 2018-11-24 05:07:54  24 C   39 % 
 2018-11-24 04:58:18  24 C   39 % 
 2018-11-24 04:48:42  24 C   39 % 
 2018-11-24 04:39:06  24 C   39 % 
 2018-11-24 04:29:29  24 C   39 % 
 2018-11-24 04:19:52  24 C   39 % 
 2018-11-24 04:10:16  24 C   39 % 
 2018-11-24 04:00:40  24 C   39 % 
 2018-11-24 03:51:06  24 C   39 % 
 2018-11-24 03:41:22  24 C   39 % 
 2018-11-24 03:31:47  24 C   39 % 
 2018-11-24 03:22:08  24 C   39 % 
 2018-11-24 03:12:32  25 C   38 % 
 2018-11-24 02:43:18  25 C   39 % 
 2018-11-24 02:33:37  25 C   39 % 
 2018-11-24 02:23:59  25 C   39 % 
 2018-11-24 02:04:03  25 C   38 % 
 2018-11-24 01:34:27  25 C   41 % 
 2018-11-24 01:24:52  25 C   42 % 
 2018-11-24 01:15:13  25 C   38 % 
 2018-11-24 00:45:23  25 C   39 % 
 2018-11-24 00:35:46  25 C   39 % 
 2018-11-24 00:26:10  25 C   39 % 
 2018-11-24 00:16:34  24 C   39 % 
 2018-11-24 00:06:56  24 C   39 % 
 2018-11-23 23:47:41  24 C   39 % 
 2018-11-23 23:28:05  24 C   37 % 
 2018-11-23 23:18:28  24 C   38 % 
 2018-11-23 23:08:55  24 C   38 % 
 2018-11-23 22:59:12  24 C   38 % 
 2018-11-23 22:49:37  24 C   38 % 
 2018-11-23 22:39:57  24 C   38 % 
 2018-11-23 22:30:20  24 C   38 % 
 2018-11-23 22:20:43  24 C   38 % 
 2018-11-23 22:11:09  24 C   38 % 
 2018-11-23 22:01:30  24 C   38 % 
 2018-11-23 21:42:16  24 C   39 % 
 2018-11-23 21:32:40  24 C   39 % 
 2018-11-23 21:23:05  24 C   39 % 
 2018-11-23 21:03:48  24 C   39 % 
 2018-11-23 20:54:12  24 C   39 % 
 2018-11-23 20:44:35  24 C   39 % 
 2018-11-23 20:34:57  24 C   40 % 
 2018-11-23 20:15:21  24 C   41 % 
 2018-11-23 20:05:30  24 C   40 % 
 2018-11-23 19:55:54  24 C   40 % 
 2018-11-23 19:46:18  23 C   39 % 
 2018-11-23 19:36:41  24 C   41 % 
 2018-11-23 19:27:04  23 C   40 % 
 2018-11-23 19:17:28  23 C   39 % 
 2018-11-23 19:07:51  23 C   39 % 
 2018-11-23 18:58:14  23 C   40 % 
 2018-11-23 18:48:38  23 C   40 % 
 2018-11-23 18:39:03  23 C   40 % 
 2018-11-23 18:29:24  23 C   40 % 
 2018-11-23 18:19:48  23 C   40 % 
 2018-11-23 18:10:11  23 C   39 % 
 2018-11-23 18:00:34  23 C   39 % 
 2018-11-23 17:50:59  23 C   40 % 
 2018-11-23 17:41:21  23 C   40 % 
 2018-11-23 17:31:43  23 C   39 % 
 2018-11-23 17:22:08  23 C   39 % 
 2018-11-23 17:12:31  23 C   39 % 
 2018-11-23 17:02:54  23 C   39 % 
 2018-11-23 16:53:18  23 C   39 % 
 2018-11-23 16:43:41  23 C   39 % 
 2018-11-23 16:34:05  23 C   39 % 
 2018-11-23 16:24:21  23 C   39 % 
 2018-11-23 16:14:44  23 C   39 % 
 2018-11-23 16:05:09  23 C   39 % 
 2018-11-23 15:55:30  23 C   39 % 
 2018-11-23 15:45:55  23 C   39 % 
 2018-11-23 15:36:18  23 C   39 % 
 2018-11-23 15:26:42  23 C   39 % 
 2018-11-23 15:17:05  23 C   39 % 
 2018-11-23 15:07:29  23 C   39 % 
 2018-11-23 14:57:52  23 C   38 % 
 2018-11-23 14:48:13  23 C   38 % 
 2018-11-23 14:38:45  23 C   40 % 
 2018-11-23 14:28:44  23 C   39 % 
 2018-11-23 14:19:08  23 C   39 % 
 2018-11-23 14:09:32  23 C   39 % 
 2018-11-23 13:49:58  23 C   39 % 
 2018-11-23 13:40:21  23 C   39 % 
 2018-11-23 13:30:44  23 C   39 % 
 2018-11-23 13:21:08  23 C   39 % 
 2018-11-23 13:11:33  23 C   39 % 
 2018-11-23 13:01:56  23 C   39 % 
 2018-11-23 12:52:19  23 C   39 % 
 2018-11-23 12:42:38  23 C   39 % 
 2018-11-23 12:33:00  23 C   39 % 
 2018-11-23 12:23:24  23 C   39 % 
 2018-11-23 12:13:47  23 C   39 % 
 2018-11-23 12:04:10  23 C   39 % 
 2018-11-23 11:54:30  23 C   39 % 
 2018-11-23 11:44:53  23 C   39 % 
 2018-11-23 11:35:13  23 C   39 % 
 2018-11-23 11:25:36  23 C   39 % 
 2018-11-23 11:06:22  23 C   39 % 
 2018-11-23 10:56:45  23 C   39 % 
 2018-11-23 10:37:33  23 C   39 % 
 2018-11-23 10:27:56  23 C   39 % 
 2018-11-23 10:18:20  23 C   39 % 
 2018-11-23 10:08:42  24 C   39 % 
 2018-11-23 09:59:05  24 C   40 % 
 2018-11-23 09:49:29  24 C   40 % 
 2018-11-23 09:39:52  24 C   40 % 
 2018-11-23 09:30:15  23 C   39 % 
 2018-11-23 09:20:39  23 C   39 % 
 2018-11-23 09:11:03  23 C   39 % 
 2018-11-23 09:01:26  23 C   40 % 
 2018-11-23 08:51:50  23 C   40 % 
 2018-11-23 08:42:14  23 C   40 % 
 2018-11-23 08:32:37  23 C   40 % 
 2018-11-23 08:23:01  23 C   40 % 
 2018-11-23 08:13:25  23 C   40 % 
 2018-11-23 08:03:47  23 C   41 % 
 2018-11-23 07:54:12  23 C   41 % 
 2018-11-23 07:34:35  22 C   41 % 
 2018-11-23 07:24:57  22 C   41 % 
 2018-11-23 07:15:22  22 C   41 % 
 2018-11-23 07:05:46  22 C   42 % 
 2018-11-23 06:56:08  22 C   42 % 
 2018-11-23 06:46:30  22 C   42 % 
 2018-11-23 06:36:55  22 C   41 % 
 2018-11-23 06:27:17  22 C   41 % 
 2018-11-23 06:17:41  22 C   41 % 
 2018-11-23 06:08:06  22 C   41 % 
 2018-11-23 05:58:27  22 C   41 % 
 2018-11-23 05:48:50  23 C   41 % 
 2018-11-23 05:39:13  23 C   40 % 
 2018-11-23 05:29:37  23 C   40 % 
 2018-11-23 05:20:04  23 C   41 % 
 2018-11-23 05:10:23  23 C   41 % 
 2018-11-23 05:00:44  23 C   41 % 
 2018-11-23 04:51:08  23 C   41 % 
 2018-11-23 04:41:33  23 C   40 % 
 2018-11-23 04:31:55  23 C   40 % 
 2018-11-23 04:22:19  23 C   40 % 
 2018-11-23 04:12:42  23 C   40 % 
 2018-11-23 04:03:05  23 C   40 % 
 2018-11-23 03:53:30  23 C   40 % 
 2018-11-23 03:43:52  23 C   40 % 
 2018-11-23 03:34:15  23 C   40 % 
 2018-11-23 03:24:40  23 C   40 % 
 2018-11-23 03:05:05  23 C   40 % 
 2018-11-23 02:55:28  23 C   40 % 
 2018-11-23 02:45:53  23 C   40 % 
 2018-11-23 02:36:15  23 C   40 % 
 2018-11-23 02:26:39  24 C   40 % 
 2018-11-23 02:17:02  24 C   40 % 
 2018-11-23 02:07:25  24 C   40 % 
 2018-11-23 01:57:50  24 C   40 % 
 2018-11-23 01:48:13  24 C   40 % 
 2018-11-23 01:38:27  24 C   40 % 
 2018-11-23 01:28:50  24 C   40 % 
 2018-11-23 01:19:13  24 C   40 % 
 2018-11-23 01:09:30  24 C   40 % 
 2018-11-23 00:59:58  24 C   40 % 
 2018-11-23 00:50:10  24 C   39 % 
 2018-11-23 00:40:34  24 C   39 % 
 2018-11-23 00:31:03  24 C   39 % 
 2018-11-23 00:21:12  24 C   39 % 
 2018-11-23 00:11:34  24 C   39 % 
 2018-11-23 00:01:57  24 C   39 % 
 2018-11-22 23:52:21  24 C   39 % 
 2018-11-22 23:33:04  24 C   39 % 
 2018-11-22 23:23:26  24 C   39 % 
 2018-11-22 23:13:49  24 C   39 % 
 2018-11-22 23:04:20  24 C   39 % 
 2018-11-22 22:54:25  24 C   39 % 
 2018-11-22 22:44:46  24 C   38 % 
 2018-11-22 22:35:08  24 C   38 % 
 2018-11-22 22:25:32  24 C   38 % 
 2018-11-22 22:16:01  24 C   38 % 
 2018-11-22 22:06:07  24 C   38 % 
 2018-11-22 21:56:32  24 C   38 % 
 2018-11-22 21:46:52  24 C   37 % 
 2018-11-22 21:27:00  24 C   37 % 
 2018-11-22 21:07:14  24 C   38 % 
 2018-11-22 20:57:37  24 C   39 % 
 2018-11-22 20:38:22  25 C   39 % 
 2018-11-22 20:28:46  25 C   39 % 
 2018-11-22 20:19:11  25 C   39 % 
 2018-11-22 20:09:32  25 C   39 % 
 2018-11-22 19:59:54  24 C   39 % 
 2018-11-22 19:31:03  24 C   40 % 
 2018-11-22 19:11:37  24 C   40 % 
 2018-11-22 18:52:24  24 C   39 % 
 2018-11-22 18:42:47  24 C   38 % 
 2018-11-22 18:03:44  24 C   37 % 
 2018-11-22 17:44:21  24 C   36 % 
 2018-11-22 17:34:45  24 C   35 % 
 2018-11-22 17:15:14  24 C   35 % 
 2018-11-22 16:25:40  25 C   36 % 
 2018-11-22 15:46:03  26 C   38 % 
 2018-11-22 15:36:14  24 C   66 % 
 2018-11-22 15:26:37  23 C   40 % 
 2018-11-22 15:17:00  23 C   40 % 
 2018-11-22 14:57:46  23 C   41 % 
 2018-11-22 14:48:02  23 C   41 % 
 2018-11-22 14:38:20  23 C   41 % 
 2018-11-22 14:28:44  23 C   41 % 
 2018-11-22 14:19:07  23 C   40 % 
 2018-11-22 14:09:31  23 C   40 % 
 2018-11-22 13:59:53  23 C   41 % 
 2018-11-22 13:50:17  23 C   41 % 
 2018-11-22 13:40:41  23 C   41 % 
 2018-11-22 13:21:34  23 C   40 % 
 2018-11-22 13:11:24  23 C   40 % 
 2018-11-22 13:01:45  23 C   40 % 
 2018-11-22 12:52:17  23 C   40 % 
 2018-11-22 12:42:31  23 C   40 % 
 2018-11-22 12:22:58  23 C   40 % 
 2018-11-22 12:13:23  23 C   40 % 
 2018-11-22 12:03:44  23 C   40 % 
 2018-11-22 11:54:09  23 C   40 % 
 2018-11-22 11:44:32  23 C   40 % 
 2018-11-22 11:34:54  23 C   40 % 
 2018-11-22 11:25:18  23 C   40 % 
 2018-11-22 11:06:03  23 C   40 % 
 2018-11-22 10:56:28  23 C   40 % 
 2018-11-22 10:46:48  23 C   40 % 
 2018-11-22 10:37:16  23 C   40 % 
 2018-11-22 10:27:28  23 C   40 % 
 2018-11-22 10:17:49  23 C   40 % 
 2018-11-22 09:58:36  23 C   40 % 
 2018-11-22 09:48:59  23 C   40 % 
 2018-11-22 09:39:23  23 C   40 % 
 2018-11-22 09:29:48  23 C   40 % 
 2018-11-22 09:20:17  23 C   40 % 
 2018-11-22 09:00:40  23 C   39 % 
 2018-11-22 08:51:00  23 C   37 % 
 2018-11-22 08:41:26  23 C   36 % 
 2018-11-22 08:31:40  23 C   43 % 
 2018-11-22 08:22:03  23 C   43 % 
 2018-11-22 07:53:11  24 C   43 % 
 2018-11-22 07:33:04  23 C   44 % 
 2018-11-22 07:23:29  23 C   44 % 
 2018-11-22 07:13:46  23 C   44 % 
 2018-11-22 07:04:09  23 C   44 % 
 2018-11-22 06:54:33  23 C   44 % 
 2018-11-22 06:44:58  23 C   43 % 
 2018-11-22 06:35:21  23 C   42 % 
 2018-11-22 06:16:07  23 C   42 % 
 2018-11-22 06:06:29  23 C   42 % 
 2018-11-22 05:56:51  23 C   42 % 
 2018-11-22 05:47:15  23 C   42 % 
 2018-11-22 05:37:38  23 C   42 % 
 2018-11-22 05:28:03  23 C   42 % 
 2018-11-22 05:18:25  23 C   42 % 
 2018-11-22 04:59:13  23 C   42 % 
 2018-11-22 04:49:35  23 C   42 % 
 2018-11-22 04:39:55  23 C   42 % 
 2018-11-22 04:30:18  23 C   42 % 
 2018-11-22 04:01:08  23 C   42 % 
 2018-11-22 03:51:33  23 C   42 % 
 2018-11-22 03:41:57  23 C   42 % 
 2018-11-22 03:32:21  23 C   42 % 
 2018-11-22 03:22:45  24 C   42 % 
 2018-11-22 03:13:07  24 C   42 % 
 2018-11-22 03:03:30  24 C   42 % 
 2018-11-22 02:53:50  24 C   42 % 
 2018-11-22 02:44:15  24 C   42 % 
 2018-11-22 02:34:39  24 C   42 % 
 2018-11-22 02:25:01  24 C   42 % 
 2018-11-22 02:15:24  24 C   42 % 
 2018-11-22 02:05:49  24 C   42 % 
 2018-11-22 01:35:46  24 C   42 % 
 2018-11-22 01:26:07  24 C   42 % 
 2018-11-22 01:16:31  24 C   42 % 
 2018-11-22 00:47:38  24 C   41 % 
 2018-11-22 00:38:01  24 C   42 % 
 2018-11-22 00:18:49  24 C   42 % 
 2018-11-21 23:59:32  24 C   42 % 
 2018-11-21 23:49:56  24 C   42 % 
 2018-11-21 23:20:58  24 C   42 % 
 2018-11-21 23:11:21  24 C   42 % 
 2018-11-21 23:01:44  24 C   42 % 
 2018-11-21 22:42:30  24 C   42 % 
 2018-11-21 22:32:50  24 C   42 % 
 2018-11-21 22:23:24  24 C   42 % 
 2018-11-21 22:13:08  24 C   42 % 
 2018-11-21 22:03:31  24 C   42 % 
 2018-11-21 21:53:56  24 C   42 % 
 2018-11-21 21:44:21  24 C   42 % 
 2018-11-21 21:34:39  24 C   41 % 
 2018-11-21 21:25:06  24 C   41 % 
 2018-11-21 21:15:30  24 C   41 % 
 2018-11-21 21:05:29  24 C   41 % 
 2018-11-21 20:55:37  24 C   41 % 
 2018-11-21 20:36:18  24 C   41 % 
 2018-11-21 20:26:43  24 C   41 % 
 2018-11-21 20:17:07  24 C   41 % 
 2018-11-21 20:07:22  24 C   41 % 
 2018-11-21 19:57:46  24 C   41 % 
 2018-11-21 19:48:09  24 C   41 % 
 2018-11-21 19:38:33  24 C   40 % 
 2018-11-21 19:28:56  24 C   41 % 
 2018-11-21 18:49:19  24 C   41 % 
 2018-11-21 18:19:47  24 C   42 % 
 2018-11-21 18:10:15  24 C   42 % 
 2018-11-21 17:40:24  23 C   47 % 
 2018-11-21 17:21:06  23 C   42 % 
 2018-11-21 17:11:32  23 C   41 % 
 2018-11-21 16:52:10  22 C   42 % 
 2018-11-21 16:22:51  22 C   42 % 
 2018-11-21 15:34:00  22 C   42 % 
 2018-11-21 15:24:24  22 C   42 % 
 2018-11-21 15:05:11  22 C   42 % 
 2018-11-21 14:55:35  22 C   42 % 
 2018-11-21 14:36:22  22 C   42 % 
 2018-11-21 14:26:52  22 C   42 % 
 2018-11-21 14:16:54  22 C   42 % 
 2018-11-21 14:07:18  22 C   42 % 
 2018-11-21 13:57:42  22 C   42 % 
 2018-11-21 13:48:06  22 C   42 % 
 2018-11-21 13:18:39  22 C   42 % 
 2018-11-21 13:09:01  23 C   42 % 
 2018-11-21 12:59:30  23 C   42 % 
 2018-11-21 12:49:36  23 C   42 % 
 2018-11-21 12:30:00  23 C   42 % 
 2018-11-21 12:00:36  23 C   41 % 
 2018-11-21 11:40:50  23 C   41 % 
 2018-11-21 11:31:10  23 C   41 % 
 2018-11-21 10:51:26  23 C   41 % 
 2018-11-21 10:41:49  23 C   41 % 
 2018-11-21 10:32:12  23 C   41 % 
 2018-11-21 10:12:40  23 C   41 % 
 2018-11-21 10:03:05  23 C   41 % 
 2018-11-21 09:13:08  23 C   42 % 
 2018-11-21 09:03:30  23 C   42 % 
 2018-11-21 08:53:53  23 C   42 % 
 2018-11-21 08:34:39  23 C   42 % 
 2018-11-21 08:04:57  23 C   42 % 
 2018-11-21 07:55:22  23 C   43 % 
 2018-11-21 07:25:59  23 C   44 % 
 2018-11-21 07:06:25  23 C   44 % 
 2018-11-21 06:46:50  23 C   44 % 
 2018-11-21 06:08:01  23 C   43 % 
 2018-11-21 05:58:26  23 C   43 % 
 2018-11-21 05:48:54  23 C   43 % 
 2018-11-21 05:09:05  23 C   43 % 
 2018-11-21 04:59:32  23 C   43 % 
 2018-11-21 04:39:52  23 C   43 % 
 2018-11-21 04:30:21  23 C   43 % 
 2018-11-21 04:20:31  23 C   43 % 
 2018-11-21 04:00:50  23 C   43 % 
 2018-11-21 03:40:59  23 C   43 % 
 2018-11-21 03:31:22  23 C   43 % 
 2018-11-21 02:52:11  23 C   43 % 
 2018-11-21 02:42:37  23 C   43 % 
 2018-11-21 02:23:20  23 C   43 % 
 2018-11-21 01:54:04  23 C   42 % 
 2018-11-21 01:24:59  23 C   43 % 
 2018-11-21 00:55:23  23 C   43 % 
 2018-11-21 00:25:51  24 C   42 % 
 2018-11-21 00:06:11  24 C   42 % 
 2018-11-20 23:36:50  24 C   42 % 
 2018-11-20 23:27:12  24 C   42 % 
 2018-11-20 23:17:40  24 C   42 % 
 2018-11-20 23:07:54  24 C   42 % 
 2018-11-20 22:48:40  24 C   42 % 
 2018-11-20 22:39:04  24 C   42 % 
 2018-11-20 21:50:11  24 C   42 % 
 2018-11-20 21:30:58  24 C   43 % 
 2018-11-20 20:52:14  24 C   43 % 
 2018-11-20 20:32:20  24 C   42 % 
 2018-11-20 20:13:05  24 C   43 % 
 2018-11-20 19:53:53  24 C   43 % 
 2018-11-20 19:44:17  24 C   43 % 
 2018-11-20 19:34:41  24 C   43 % 
 2018-11-20 18:06:18  24 C   43 % 
 2018-11-20 17:56:42  24 C   42 % 
 2018-11-20 17:27:52  23 C   42 % 
 2018-11-20 17:18:21  23 C   42 % 
 2018-11-20 17:08:38  23 C   42 % 
 2018-11-20 16:58:41  23 C   42 % 
 2018-11-20 16:49:04  23 C   42 % 
 2018-11-20 16:29:50  23 C   42 % 
 2018-11-20 16:20:12  23 C   42 % 
 2018-11-20 16:10:37  23 C   42 % 
 2018-11-20 16:00:59  23 C   44 % 
 2018-11-20 15:51:25  23 C   41 % 
 2018-11-20 15:41:45  23 C   41 % 
 2018-11-20 15:32:09  23 C   41 % 
 2018-11-20 14:52:25  23 C   42 % 
 2018-11-20 14:22:58  23 C   42 % 
 2018-11-20 14:13:22  23 C   42 % 
 2018-11-20 13:53:53  23 C   42 % 
 2018-11-20 13:44:11  23 C   42 % 
 2018-11-20 13:34:34  23 C   42 % 
 2018-11-20 13:24:58  23 C   42 % 
 2018-11-20 13:05:31  23 C   42 % 
 2018-11-20 12:55:54  23 C   42 % 
 2018-11-20 12:46:18  23 C   41 % 
 2018-11-20 12:16:40  23 C   41 % 
 2018-11-20 12:07:03  23 C   41 % 
 2018-11-20 11:57:27  23 C   41 % 
 2018-11-20 11:47:51  23 C   42 % 
 2018-11-20 11:28:30  23 C   41 % 
 2018-11-20 11:18:58  23 C   41 % 
 2018-11-20 10:59:32  23 C   42 % 
 2018-11-20 10:49:51  23 C   41 % 
 2018-11-20 10:40:15  23 C   41 % 
 2018-11-20 10:20:48  23 C   42 % 
 2018-11-20 10:01:32  23 C   42 % 
 2018-11-20 09:51:51  23 C   42 % 
 2018-11-20 09:42:14  23 C   42 % 
 2018-11-20 09:32:38  23 C   42 % 
 2018-11-20 09:23:01  23 C   42 % 
 2018-11-20 09:03:13  23 C   42 % 
 2018-11-20 08:53:37  23 C   42 % 
 2018-11-20 08:44:00  24 C   42 % 
 2018-11-20 08:34:24  24 C   42 % 
 2018-11-20 08:24:48  24 C   42 % 
 2018-11-20 08:15:07  24 C   42 % 
 2018-11-20 07:55:48  23 C   44 % 
 2018-11-20 07:46:10  23 C   44 % 
 2018-11-20 07:26:31  23 C   43 % 
 2018-11-20 07:06:39  23 C   44 % 
 2018-11-20 06:57:06  23 C   43 % 
 2018-11-20 06:37:36  23 C   43 % 
 2018-11-20 06:28:00  23 C   43 % 
 2018-11-20 06:18:23  23 C   43 % 
 2018-11-20 06:08:47  23 C   43 % 
 2018-11-20 05:48:58  23 C   43 % 
 2018-11-20 05:39:21  23 C   43 % 
 2018-11-20 05:29:46  23 C   43 % 
 2018-11-20 05:00:47  23 C   43 % 
 2018-11-20 04:51:07  23 C   43 % 
 2018-11-20 04:31:24  23 C   43 % 
 2018-11-20 04:21:48  23 C   43 % 
 2018-11-20 04:02:24  23 C   43 % 
 2018-11-20 03:52:48  23 C   43 % 
 2018-11-20 03:33:21  23 C   43 % 
 2018-11-20 03:23:42  23 C   43 % 
 2018-11-20 03:14:05  23 C   43 % 
 2018-11-20 02:44:44  23 C   43 % 
 2018-11-20 02:14:51  23 C   43 % 
 2018-11-20 02:05:12  23 C   43 % 
 2018-11-20 01:25:56  23 C   42 % 
 2018-11-20 01:06:43  24 C   42 % 
 2018-11-20 00:17:10  23 C   43 % 
 2018-11-20 00:07:32  23 C   43 % 
 2018-11-19 23:57:59  24 C   42 % 
 2018-11-19 23:18:46  23 C   43 % 
 2018-11-19 22:58:55  23 C   42 % 
 2018-11-19 22:29:24  24 C   42 % 
 2018-11-19 22:19:49  24 C   42 % 
 2018-11-19 22:09:33  24 C   42 % 
 2018-11-19 21:30:18  24 C   42 % 
 2018-11-19 21:20:46  23 C   42 % 
 2018-11-19 20:51:33  23 C   43 % 
 2018-11-19 20:41:55  23 C   43 % 
 2018-11-19 20:32:13  23 C   43 % 
 2018-11-19 19:53:10  23 C   43 % 
 2018-11-19 19:43:30  23 C   43 % 
 2018-11-19 19:33:54  23 C   44 % 
 2018-11-19 19:24:18  23 C   44 % 
 2018-11-19 19:14:43  23 C   44 % 
 2018-11-19 18:55:13  22 C   46 % 
 2018-11-19 18:45:36  22 C   47 % 
 2018-11-19 18:36:01  22 C   45 % 
 2018-11-19 18:26:22  22 C   43 % 
 2018-11-19 18:16:44  21 C   43 % 
 2018-11-19 18:07:08  21 C   44 % 
 2018-11-19 17:47:53  21 C   44 % 
 2018-11-19 17:38:16  21 C   44 % 
 2018-11-19 17:18:34  21 C   43 % 
 2018-11-19 17:08:56  21 C   44 % 
 2018-11-19 16:59:21  21 C   44 % 
 2018-11-19 16:49:44  21 C   44 % 
 2018-11-19 16:40:08  21 C   44 % 
 2018-11-19 16:30:27  21 C   44 % 
 2018-11-19 16:20:51  21 C   44 % 
 2018-11-19 16:11:14  21 C   44 % 
 2018-11-19 16:01:37  21 C   44 % 
 2018-11-19 15:52:00  21 C   44 % 
 2018-11-19 15:42:24  21 C   44 % 
 2018-11-19 15:32:45  21 C   44 % 
 2018-11-19 15:23:08  21 C   44 % 
 2018-11-19 15:13:33  21 C   44 % 
 2018-11-19 15:03:55  21 C   44 % 
 2018-11-19 14:54:16  21 C   44 % 
 2018-11-19 14:44:45  21 C   45 % 
 2018-11-19 14:34:56  21 C   45 % 
 2018-11-19 14:25:19  21 C   45 % 
 2018-11-19 14:15:43  21 C   45 % 
 2018-11-19 14:06:07  21 C   45 % 
 2018-11-19 13:56:31  21 C   45 % 
 2018-11-19 13:46:58  21 C   45 % 
 2018-11-19 13:37:15  21 C   45 % 
 2018-11-19 13:27:29  21 C   45 % 
 2018-11-19 13:17:51  21 C   46 % 
 2018-11-19 13:08:19  21 C   46 % 
 2018-11-19 12:58:33  21 C   46 % 
 2018-11-19 12:48:56  21 C   46 % 
 2018-11-19 12:39:20  21 C   46 % 
 2018-11-19 12:29:51  21 C   46 % 
 2018-11-19 12:19:45  21 C   46 % 
 2018-11-19 12:10:08  21 C   45 % 
 2018-11-19 12:00:32  21 C   45 % 
 2018-11-19 11:50:56  21 C   45 % 
 2018-11-19 11:41:18  21 C   45 % 
 2018-11-19 11:31:37  21 C   45 % 
 2018-11-19 11:22:00  21 C   45 % 
 2018-11-19 11:12:23  21 C   46 % 
 2018-11-19 11:02:46  21 C   45 % 
 2018-11-19 10:53:10  21 C   46 % 
 2018-11-19 10:43:23  21 C   46 % 
 2018-11-19 10:33:46  21 C   45 % 
 2018-11-19 10:24:09  21 C   45 % 
 2018-11-19 10:14:33  21 C   45 % 
 2018-11-19 10:04:56  21 C   45 % 
 2018-11-19 09:55:16  21 C   45 % 
 2018-11-19 09:45:43  21 C   45 % 
 2018-11-19 09:36:04  21 C   45 % 
 2018-11-19 09:26:25  21 C   45 % 
 2018-11-19 09:16:49  21 C   45 % 
 2018-11-19 09:07:10  21 C   45 % 
 2018-11-19 08:57:33  21 C   45 % 
 2018-11-19 08:47:55  21 C   45 % 
 2018-11-19 08:38:20  21 C   45 % 
 2018-11-19 08:28:43  21 C   45 % 
 2018-11-19 08:19:04  21 C   45 % 
 2018-11-19 07:59:48  21 C   45 % 
 2018-11-19 07:50:11  21 C   45 % 
 2018-11-19 07:40:34  21 C   45 % 
 2018-11-19 07:30:57  21 C   45 % 
 2018-11-19 07:21:20  21 C   45 % 
 2018-11-19 07:01:29  21 C   45 % 
 2018-11-19 06:51:43  21 C   45 % 
 2018-11-19 06:42:10  21 C   45 % 
 2018-11-19 06:32:21  21 C   45 % 
 2018-11-19 06:22:46  21 C   45 % 
 2018-11-19 06:13:08  21 C   45 % 
 2018-11-19 06:03:25  21 C   45 % 
 2018-11-19 05:53:50  21 C   45 % 
 2018-11-19 05:44:12  21 C   45 % 
 2018-11-19 05:34:34  21 C   45 % 
 2018-11-19 05:24:58  21 C   46 % 
 2018-11-19 05:15:22  21 C   46 % 
 2018-11-19 05:05:45  21 C   46 % 
 2018-11-19 04:56:09  21 C   46 % 
 2018-11-19 04:46:31  21 C   46 % 
 2018-11-19 04:36:55  21 C   46 % 
 2018-11-19 04:27:16  22 C   46 % 
 2018-11-19 04:17:41  21 C   46 % 
 2018-11-19 04:08:05  21 C   46 % 
 2018-11-19 03:58:38  21 C   46 % 
 2018-11-19 03:48:14  22 C   46 % 
 2018-11-19 03:38:41  22 C   46 % 
 2018-11-19 03:28:53  22 C   46 % 
 2018-11-19 03:19:14  22 C   46 % 
 2018-11-19 03:09:36  22 C   46 % 
 2018-11-19 02:50:23  22 C   46 % 
 2018-11-19 02:40:48  22 C   46 % 
 2018-11-19 02:31:11  22 C   46 % 
 2018-11-19 02:11:35  22 C   46 % 
 2018-11-19 02:02:00  22 C   46 % 
 2018-11-19 01:52:23  22 C   46 % 
 2018-11-19 01:42:44  22 C   46 % 
 2018-11-19 01:33:05  22 C   46 % 
 2018-11-19 01:23:30  22 C   46 % 
 2018-11-19 01:04:16  22 C   46 % 
 2018-11-19 00:44:44  22 C   46 % 
 2018-11-19 00:35:06  22 C   46 % 
 2018-11-19 00:15:53  22 C   46 % 
 2018-11-19 00:06:17  22 C   46 % 
 2018-11-18 23:56:41  22 C   46 % 
 2018-11-18 23:47:06  22 C   46 % 
 2018-11-18 23:37:27  22 C   46 % 
 2018-11-18 23:27:52  22 C   46 % 
 2018-11-18 23:18:12  22 C   46 % 
 2018-11-18 23:08:36  22 C   46 % 
 2018-11-18 22:39:41  22 C   46 % 
 2018-11-18 22:30:05  22 C   46 % 
 2018-11-18 22:20:31  22 C   47 % 
 2018-11-18 22:10:38  22 C   47 % 
 2018-11-18 22:01:03  22 C   47 % 
 2018-11-18 21:51:24  22 C   47 % 
 2018-11-18 21:41:55  22 C   47 % 
 2018-11-18 21:31:53  22 C   48 % 
 2018-11-18 21:22:17  22 C   48 % 
 2018-11-18 21:12:42  22 C   46 % 
 2018-11-18 21:03:00  22 C   47 % 
 2018-11-18 20:53:23  22 C   47 % 
 2018-11-18 20:43:47  22 C   47 % 
 2018-11-18 20:34:16  22 C   47 % 
 2018-11-18 20:24:30  22 C   47 % 
 2018-11-18 20:14:49  22 C   47 % 
 2018-11-18 20:05:16  22 C   46 % 
 2018-11-18 19:55:34  22 C   46 % 
 2018-11-18 19:45:58  22 C   46 % 
 2018-11-18 19:36:21  22 C   46 % 
 2018-11-18 19:26:46  22 C   46 % 
 2018-11-18 19:17:08  22 C   46 % 
 2018-11-18 19:07:31  22 C   46 % 
 2018-11-18 18:48:20  22 C   46 % 
 2018-11-18 18:38:43  22 C   46 % 
 2018-11-18 18:29:08  22 C   45 % 
 2018-11-18 18:19:30  22 C   45 % 
 2018-11-18 18:09:48  23 C   45 % 
 2018-11-18 17:10:43  24 C   42 % 
 2018-11-18 16:31:41  29 C   34 % 
 2018-11-18 16:22:07  32 C   30 % 
 2018-11-18 16:12:37  37 C   25 % 
 2018-11-18 16:02:45  34 C   32 % 
 2018-11-18 15:52:52  22 C   51 % 
 2018-11-18 15:43:15  21 C   49 % 
 2018-11-18 15:33:41  21 C   49 % 
 2018-11-18 15:23:59  21 C   49 % 
 2018-11-18 15:14:24  21 C   49 % 
 2018-11-18 14:55:09  21 C   49 % 
 2018-11-18 14:35:36  21 C   49 % 
 2018-11-18 14:15:59  21 C   49 % 
 2018-11-18 14:06:22  21 C   49 % 
 2018-11-18 13:56:45  21 C   49 % 
 2018-11-18 13:37:30  21 C   49 % 
 2018-11-18 13:27:52  21 C   49 % 
 2018-11-18 13:18:17  21 C   49 % 
 2018-11-18 12:58:51  21 C   49 % 
 2018-11-18 12:49:14  21 C   50 % 
 2018-11-18 12:39:38  21 C   50 % 
 2018-11-18 12:30:00  21 C   50 % 
 2018-11-18 12:20:24  21 C   50 % 
 2018-11-18 12:10:49  21 C   50 % 
 2018-11-18 12:01:12  22 C   49 % 
 2018-11-18 11:51:35  22 C   49 % 
 2018-11-18 11:32:22  21 C   49 % 
 2018-11-18 11:22:42  21 C   49 % 
 2018-11-18 11:13:02  21 C   48 % 
 2018-11-18 11:03:33  21 C   48 % 
 2018-11-18 10:53:37  21 C   48 % 
 2018-11-18 10:44:03  21 C   48 % 
 2018-11-18 10:24:46  21 C   48 % 
 2018-11-18 10:15:10  21 C   48 % 
 2018-11-18 10:05:34  21 C   48 % 
 2018-11-18 09:55:58  21 C   48 % 
 2018-11-18 09:46:22  21 C   48 % 
 2018-11-18 09:36:36  21 C   48 % 
 2018-11-18 09:27:00  21 C   48 % 
 2018-11-18 09:17:26  21 C   48 % 
 2018-11-18 08:57:20  21 C   48 % 
 2018-11-18 08:47:41  21 C   48 % 
 2018-11-18 08:38:05  21 C   48 % 
 2018-11-18 08:28:31  21 C   48 % 
 2018-11-18 08:18:49  22 C   48 % 
 2018-11-18 08:09:13  22 C   48 % 
 2018-11-18 07:59:39  22 C   48 % 
 2018-11-18 07:50:01  22 C   48 % 
 2018-11-18 07:40:23  22 C   48 % 
 2018-11-18 07:30:49  22 C   48 % 
 2018-11-18 07:21:06  22 C   48 % 
 2018-11-18 07:01:51  22 C   48 % 
 2018-11-18 06:52:13  22 C   48 % 
 2018-11-18 06:42:38  22 C   48 % 
 2018-11-18 06:32:59  22 C   48 % 
 2018-11-18 06:23:21  22 C   48 % 
 2018-11-18 06:13:50  22 C   48 % 
 2018-11-18 06:03:58  22 C   48 % 
 2018-11-18 05:54:20  22 C   48 % 
 2018-11-18 05:44:36  22 C   48 % 
 2018-11-18 05:34:58  22 C   48 % 
 2018-11-18 05:25:21  22 C   48 % 
 2018-11-18 05:15:45  22 C   48 % 
 2018-11-18 05:06:07  22 C   48 % 
 2018-11-18 04:56:30  22 C   48 % 
 2018-11-18 04:46:55  22 C   48 % 
 2018-11-18 04:37:15  22 C   48 % 
 2018-11-18 04:27:39  22 C   48 % 
 2018-11-18 04:18:02  22 C   48 % 
 2018-11-18 04:08:27  22 C   48 % 
 2018-11-18 03:58:47  22 C   48 % 
 2018-11-18 03:49:17  22 C   48 % 
 2018-11-18 03:39:26  22 C   48 % 
 2018-11-18 03:29:50  22 C   48 % 
 2018-11-18 03:20:14  22 C   48 % 
 2018-11-18 03:10:37  22 C   48 % 
 2018-11-18 03:01:00  22 C   48 % 
 2018-11-18 02:51:23  22 C   48 % 
 2018-11-18 02:41:47  22 C   48 % 
 2018-11-18 02:32:10  22 C   48 % 
 2018-11-18 02:22:35  22 C   48 % 
 2018-11-18 02:12:56  22 C   48 % 
 2018-11-18 02:03:21  22 C   48 % 
 2018-11-18 01:53:43  22 C   48 % 
 2018-11-18 01:44:05  22 C   48 % 
 2018-11-18 01:24:10  22 C   48 % 
 2018-11-18 01:14:39  22 C   48 % 
 2018-11-18 01:04:46  22 C   48 % 
 2018-11-18 00:55:10  22 C   48 % 
 2018-11-18 00:45:33  22 C   48 % 
 2018-11-18 00:35:59  22 C   48 % 
 2018-11-18 00:26:18  22 C   48 % 
 2018-11-18 00:16:42  22 C   48 % 
 2018-11-18 00:07:06  22 C   48 % 
 2018-11-17 23:57:30  22 C   48 % 
 2018-11-17 23:47:53  22 C   48 % 
 2018-11-17 23:38:17  22 C   48 % 
 2018-11-17 23:28:41  22 C   48 % 
 2018-11-17 22:20:27  22 C   48 % 
 2018-11-17 21:41:24  23 C   48 % 
 2018-11-17 21:31:46  23 C   48 % 
 2018-11-17 21:22:12  23 C   48 % 
 2018-11-17 21:12:29  23 C   48 % 
 2018-11-17 21:02:58  23 C   48 % 
 2018-11-17 20:43:09  23 C   48 % 
 2018-11-17 20:13:42  23 C   48 % 
 2018-11-17 19:25:35  22 C   48 % 
 2018-11-17 19:15:57  22 C   48 % 
 2018-11-17 18:47:06  22 C   48 % 
 2018-11-17 18:37:30  22 C   48 % 
 2018-11-17 18:27:56  22 C   48 % 
 2018-11-17 18:18:17  22 C   48 % 
 2018-11-17 18:08:41  22 C   48 % 
 2018-11-17 17:59:13  22 C   49 % 
 2018-11-17 17:19:58  22 C   49 % 
 2018-11-17 17:10:21  22 C   49 % 
 2018-11-17 16:51:05  22 C   49 % 
 2018-11-17 16:41:39  22 C   50 % 
 2018-11-17 16:31:29  22 C   49 % 
 2018-11-17 16:21:53  22 C   49 % 
 2018-11-17 16:12:23  22 C   49 % 
 2018-11-17 15:04:30  22 C   50 % 
 2018-11-17 14:55:00  22 C   50 % 
 2018-11-17 14:45:03  22 C   50 % 
 2018-11-17 14:35:28  22 C   50 % 
 2018-11-17 14:26:01  22 C   50 % 
 2018-11-17 13:26:13  22 C   49 % 
 2018-11-17 12:28:33  22 C   50 % 
 2018-11-17 12:18:55  22 C   49 % 
 2018-11-17 12:09:20  22 C   49 % 
 2018-11-17 11:59:43  22 C   50 % 
 2018-11-17 11:50:05  22 C   49 % 
 2018-11-17 11:40:23  22 C   49 % 
 2018-11-17 10:52:12  22 C   49 % 
 2018-11-17 10:23:17  22 C   49 % 
 2018-11-17 10:13:41  22 C   49 % 
 2018-11-17 09:43:34  22 C   49 % 
 2018-11-17 09:34:01  22 C   49 % 
 2018-11-17 08:55:23  22 C   49 % 
 2018-11-17 08:45:47  22 C   49 % 
 2018-11-17 08:16:36  22 C   49 % 
 2018-11-17 07:57:14  22 C   49 % 
 2018-11-17 07:47:40  22 C   49 % 
 2018-11-17 07:38:00  22 C   49 % 
 2018-11-17 07:18:49  22 C   49 % 
 2018-11-17 06:49:56  22 C   49 % 
 2018-11-17 06:40:18  22 C   49 % 
 2018-11-17 06:30:44  22 C   49 % 
 2018-11-17 06:11:26  22 C   49 % 
 2018-11-17 05:42:38  22 C   49 % 
 2018-11-17 05:32:58  22 C   49 % 
 2018-11-17 05:23:20  22 C   49 % 
 2018-11-17 04:43:57  22 C   49 % 
 2018-11-17 04:34:21  22 C   49 % 
 2018-11-17 03:55:34  22 C   49 % 
 2018-11-17 03:46:02  22 C   49 % 
 2018-11-17 03:06:06  22 C   49 % 
 2018-11-17 02:46:41  22 C   49 % 
 2018-11-17 02:27:26  22 C   49 % 
 2018-11-17 02:17:53  22 C   49 % 
 2018-11-17 01:09:58  23 C   49 % 
 2018-11-17 01:00:22  23 C   49 % 
 2018-11-17 00:30:34  22 C   49 % 
 2018-11-16 23:51:55  22 C   49 % 
 2018-11-16 23:42:19  22 C   49 % 
 2018-11-16 23:22:47  22 C   49 % 
 2018-11-16 23:13:10  22 C   50 % 
 2018-11-16 22:44:21  22 C   49 % 
 2018-11-16 22:25:03  22 C   50 % 
 2018-11-16 22:15:18  22 C   50 % 
 2018-11-16 22:05:40  22 C   50 % 
 2018-11-16 21:56:04  22 C   50 % 
 2018-11-16 21:36:16  22 C   50 % 
 2018-11-16 21:17:00  22 C   50 % 
 2018-11-16 20:37:50  22 C   50 % 
 2018-11-16 20:07:40  22 C   50 % 
 2018-11-16 19:58:07  22 C   50 % 
 2018-11-16 19:48:28  22 C   50 % 
 2018-11-16 19:38:55  22 C   50 % 
 2018-11-16 19:29:12  22 C   50 % 
 2018-11-16 19:19:36  22 C   51 % 
 2018-11-16 19:10:00  22 C   51 % 
 2018-11-16 19:00:24  22 C   51 % 
 2018-11-16 18:50:47  23 C   51 % 
 2018-11-16 18:41:09  23 C   51 % 
 2018-11-16 18:31:33  23 C   51 % 
 2018-11-16 18:12:05  22 C   51 % 
 2018-11-16 18:02:28  22 C   51 % 
 2018-11-16 17:52:51  22 C   51 % 
 2018-11-16 17:43:15  23 C   51 % 
 2018-11-16 17:33:39  22 C   51 % 
 2018-11-16 17:24:02  22 C   51 % 
 2018-11-16 17:14:28  22 C   51 % 
 2018-11-16 17:04:51  22 C   51 % 
 2018-11-16 16:55:14  22 C   51 % 
 2018-11-16 16:45:39  22 C   51 % 
 2018-11-16 16:36:02  22 C   51 % 
 2018-11-16 16:26:26  22 C   51 % 
 2018-11-16 16:16:49  22 C   50 % 
 2018-11-16 16:07:15  22 C   50 % 
 2018-11-16 15:57:44  22 C   50 % 
 2018-11-16 15:47:38  22 C   50 % 
 2018-11-16 15:38:05  22 C   50 % 
 2018-11-16 15:28:20  22 C   50 % 
 2018-11-16 15:18:44  22 C   50 % 
 2018-11-16 15:09:07  22 C   50 % 
 2018-11-16 14:59:31  22 C   50 % 
 2018-11-16 14:30:21  22 C   50 % 
 2018-11-16 14:20:45  22 C   50 % 
 2018-11-16 13:41:57  22 C   49 % 
 2018-11-16 13:32:21  22 C   48 % 
 2018-11-16 13:22:44  22 C   48 % 
 2018-11-16 13:13:08  22 C   50 % 
 2018-11-16 13:03:33  22 C   51 % 
 2018-11-16 12:53:56  22 C   50 % 
 2018-11-16 12:44:20  22 C   51 % 
 2018-11-16 12:25:07  22 C   51 % 
 2018-11-16 12:15:26  22 C   51 % 
 2018-11-16 12:05:49  22 C   51 % 
 2018-11-16 11:56:14  22 C   50 % 
 2018-11-16 11:46:37  22 C   50 % 
 2018-11-16 11:36:58  22 C   51 % 
 2018-11-16 11:27:22  22 C   50 % 
 2018-11-16 11:17:45  22 C   49 % 
 2018-11-16 11:08:10  22 C   49 % 
 2018-11-16 10:48:54  22 C   49 % 
 2018-11-16 10:39:19  22 C   50 % 
 2018-11-16 10:29:41  22 C   50 % 
 2018-11-16 10:10:28  22 C   50 % 
 2018-11-16 10:00:53  22 C   50 % 
 2018-11-16 09:51:16  22 C   50 % 
 2018-11-16 09:41:49  22 C   50 % 
 2018-11-16 09:31:48  22 C   50 % 
 2018-11-16 09:22:12  22 C   49 % 
 2018-11-16 09:12:35  22 C   50 % 
 2018-11-16 09:02:58  22 C   50 % 
 2018-11-16 08:53:23  22 C   50 % 
 2018-11-16 08:43:47  22 C   50 % 
 2018-11-16 08:34:09  22 C   49 % 
 2018-11-16 08:15:01  22 C   49 % 
 2018-11-16 08:05:14  22 C   49 % 
 2018-11-16 07:45:17  22 C   49 % 
 2018-11-16 07:35:41  22 C   50 % 
 2018-11-16 07:26:04  22 C   50 % 
 2018-11-16 07:16:29  22 C   50 % 
 2018-11-16 07:06:53  22 C   49 % 
 2018-11-16 06:57:16  22 C   49 % 
 2018-11-16 06:47:40  22 C   49 % 
 2018-11-16 06:38:03  22 C   49 % 
 2018-11-16 06:18:30  22 C   49 % 
 2018-11-16 06:08:54  22 C   50 % 
 2018-11-16 05:59:17  22 C   50 % 
 2018-11-16 05:49:41  22 C   50 % 
 2018-11-16 05:40:05  22 C   49 % 
 2018-11-16 05:30:30  22 C   49 % 
 2018-11-16 05:11:12  22 C   49 % 
 2018-11-16 05:01:34  22 C   49 % 
 2018-11-16 04:51:59  22 C   50 % 
 2018-11-16 04:42:26  22 C   50 % 
 2018-11-16 04:22:55  22 C   49 % 
 2018-11-16 04:13:19  22 C   49 % 
 2018-11-16 04:03:42  22 C   49 % 
 2018-11-16 03:54:03  22 C   50 % 
 2018-11-16 03:44:32  22 C   49 % 
 2018-11-16 03:25:03  22 C   49 % 
 2018-11-16 03:15:27  22 C   49 % 
 2018-11-16 03:05:51  22 C   49 % 
 2018-11-16 02:56:14  22 C   49 % 
 2018-11-16 02:27:11  22 C   49 % 
 2018-11-16 02:17:35  22 C   49 % 
 2018-11-16 02:07:57  22 C   49 % 
 2018-11-16 01:58:23  22 C   49 % 
 2018-11-16 01:48:48  22 C   49 % 
 2018-11-16 01:39:00  22 C   49 % 
 2018-11-16 01:29:24  22 C   49 % 
 2018-11-16 01:19:47  22 C   49 % 
 2018-11-16 01:10:10  23 C   49 % 
 2018-11-16 01:00:33  23 C   49 % 
 2018-11-16 00:41:00  23 C   49 % 
 2018-11-16 00:31:29  23 C   49 % 
 2018-11-15 23:52:11  23 C   49 % 
 2018-11-15 23:42:34  23 C   49 % 
 2018-11-15 23:32:55  23 C   49 % 
 2018-11-15 23:03:21  23 C   48 % 
 2018-11-15 22:53:45  23 C   48 % 
 2018-11-15 22:24:39  23 C   48 % 
 2018-11-15 22:05:13  23 C   47 % 
 2018-11-15 21:55:34  23 C   47 % 
 2018-11-15 21:36:22  24 C   47 % 
 2018-11-15 21:26:46  24 C   47 % 
 2018-11-15 20:57:25  24 C   46 % 
 2018-11-15 20:18:59  25 C   44 % 
 2018-11-15 19:49:44  26 C   42 % 
 2018-11-15 19:30:28  27 C   42 % 
 2018-11-15 19:20:45  24 C   54 % 
 2018-11-15 19:11:14  22 C   50 % 
 2018-11-15 19:01:35  22 C   50 % 
 2018-11-15 18:51:48  22 C   50 % 
 2018-11-15 18:42:13  22 C   50 % 
 2018-11-15 18:32:42  22 C   50 % 
 2018-11-15 18:22:40  22 C   50 % 
 2018-11-15 18:13:03  22 C   50 % 
 2018-11-15 18:03:29  22 C   50 % 
 2018-11-15 17:44:11  22 C   50 % 
 2018-11-15 17:24:53  22 C   50 % 
 2018-11-15 17:15:16  22 C   50 % 
 2018-11-15 17:05:39  22 C   50 % 
 2018-11-15 16:56:04  22 C   50 % 
 2018-11-15 16:46:25  22 C   50 % 
 2018-11-15 16:36:49  22 C   50 % 
 2018-11-15 16:27:14  22 C   50 % 
 2018-11-15 16:17:35  22 C   50 % 
 2018-11-15 16:07:58  22 C   50 % 
 2018-11-15 15:39:07  22 C   50 % 
 2018-11-15 15:29:33  22 C   50 % 
 2018-11-15 15:19:51  22 C   50 % 
 2018-11-15 15:10:16  22 C   50 % 
 2018-11-15 14:51:00  22 C   50 % 
 2018-11-15 14:41:24  22 C   51 % 
 2018-11-15 14:31:45  22 C   50 % 
 2018-11-15 14:12:33  22 C   50 % 
 2018-11-15 14:03:01  22 C   50 % 
 2018-11-15 13:53:16  22 C   50 % 
 2018-11-15 13:43:36  22 C   50 % 
 2018-11-15 13:33:57  22 C   50 % 
 2018-11-15 13:24:17  22 C   50 % 
 2018-11-15 13:14:42  22 C   50 % 
 2018-11-15 12:55:27  22 C   50 % 
 2018-11-15 12:45:52  22 C   50 % 
 2018-11-15 12:36:14  22 C   50 % 
 2018-11-15 12:26:38  22 C   50 % 
 2018-11-15 12:17:01  22 C   50 % 
 2018-11-15 12:07:26  22 C   51 % 
 2018-11-15 11:57:46  22 C   49 % 
 2018-11-15 11:48:06  22 C   49 % 
 2018-11-15 11:38:28  22 C   49 % 
 2018-11-15 11:19:15  22 C   49 % 
 2018-11-15 11:09:37  22 C   49 % 
 2018-11-15 10:40:42  22 C   49 % 
 2018-11-15 10:31:08  22 C   49 % 
 2018-11-15 10:21:30  22 C   49 % 
 2018-11-15 10:11:55  22 C   49 % 
 2018-11-15 10:02:08  22 C   48 % 
 2018-11-15 09:42:39  22 C   49 % 
 2018-11-15 09:32:37  22 C   49 % 
 2018-11-15 09:03:42  22 C   49 % 
 2018-11-15 08:54:06  22 C   49 % 
 2018-11-15 08:44:29  22 C   48 % 
 2018-11-15 08:34:56  22 C   48 % 
 2018-11-15 08:25:13  22 C   49 % 
 2018-11-15 08:05:26  22 C   48 % 
 2018-11-15 07:45:46  22 C   48 % 
 2018-11-15 07:35:57  22 C   48 % 
 2018-11-15 07:26:18  22 C   48 % 
 2018-11-15 07:16:40  22 C   48 % 
 2018-11-15 07:07:04  22 C   48 % 
 2018-11-15 06:57:23  22 C   49 % 
 2018-11-15 06:47:46  22 C   48 % 
 2018-11-15 06:38:09  22 C   48 % 
 2018-11-15 06:18:44  22 C   48 % 
 2018-11-15 06:08:55  22 C   48 % 
 2018-11-15 05:49:33  22 C   48 % 
 2018-11-15 05:39:56  22 C   48 % 
 2018-11-15 05:30:21  22 C   48 % 
 2018-11-15 05:20:42  22 C   48 % 
 2018-11-15 05:11:03  22 C   48 % 
 2018-11-15 05:01:23  22 C   48 % 
 2018-11-15 04:51:48  22 C   48 % 
 2018-11-15 04:42:12  22 C   48 % 
 2018-11-15 04:32:31  22 C   48 % 
 2018-11-15 04:13:09  22 C   48 % 
 2018-11-15 03:53:52  22 C   48 % 
 2018-11-15 03:44:15  22 C   48 % 
 2018-11-15 03:34:37  22 C   48 % 
 2018-11-15 03:25:02  22 C   48 % 
 2018-11-15 02:55:56  22 C   48 % 
 2018-11-15 02:46:19  22 C   48 % 
 2018-11-15 02:36:44  22 C   48 % 
 2018-11-15 02:17:26  22 C   48 % 
 2018-11-15 02:07:49  22 C   48 % 
 2018-11-15 01:28:49  22 C   48 % 
 2018-11-15 01:19:13  22 C   48 % 
 2018-11-15 00:59:48  22 C   48 % 
 2018-11-15 00:50:10  22 C   48 % 
 2018-11-15 00:40:33  22 C   48 % 
 2018-11-15 00:30:57  22 C   48 % 
 2018-11-15 00:21:20  22 C   48 % 
 2018-11-15 00:11:43  22 C   48 % 
 2018-11-15 00:02:08  22 C   48 % 
 2018-11-14 23:52:39  22 C   48 % 
 2018-11-14 23:42:37  22 C   48 % 
 2018-11-14 23:13:25  22 C   48 % 
 2018-11-14 23:03:50  22 C   48 % 
 2018-11-14 22:54:11  22 C   48 % 
 2018-11-14 22:44:36  22 C   48 % 
 2018-11-14 22:15:20  22 C   48 % 
 2018-11-14 22:05:44  22 C   48 % 
 2018-11-14 21:56:08  22 C   48 % 
 2018-11-14 21:46:33  22 C   48 % 
 2018-11-14 21:37:01  22 C   48 % 
 2018-11-14 21:17:41  22 C   48 % 
 2018-11-14 21:07:59  22 C   48 % 
 2018-11-14 20:58:23  22 C   48 % 
 2018-11-14 20:48:51  22 C   48 % 
 2018-11-14 20:39:04  22 C   48 % 
 2018-11-14 20:19:51  22 C   48 % 
 2018-11-14 20:00:11  22 C   48 % 
 2018-11-14 19:50:29  22 C   48 % 
 2018-11-14 19:30:33  22 C   49 % 
 2018-11-14 19:20:57  22 C   49 % 
 2018-11-14 19:11:24  22 C   49 % 
 2018-11-14 19:01:40  22 C   49 % 
 2018-11-14 18:52:04  22 C   49 % 
 2018-11-14 18:42:19  22 C   49 % 
 2018-11-14 18:22:49  22 C   49 % 
 2018-11-14 17:23:53  22 C   49 % 
 2018-11-14 17:14:19  22 C   49 % 
 2018-11-14 17:04:41  22 C   48 % 
 2018-11-14 16:45:20  22 C   49 % 
 2018-11-14 16:35:44  22 C   49 % 
 2018-11-14 16:16:36  22 C   49 % 
 2018-11-14 16:06:49  22 C   49 % 
 2018-11-14 15:47:03  22 C   49 % 
 2018-11-14 15:37:28  22 C   49 % 
 2018-11-14 15:27:48  22 C   49 % 
 2018-11-14 15:18:11  22 C   49 % 
 2018-11-14 15:08:35  22 C   49 % 
 2018-11-14 14:58:59  22 C   48 % 
 2018-11-14 14:39:25  22 C   48 % 
 2018-11-14 14:29:54  22 C   48 % 
 2018-11-14 14:00:48  22 C   48 % 
 2018-11-14 13:51:06  22 C   48 % 
 2018-11-14 13:41:27  22 C   48 % 
 2018-11-14 13:31:53  22 C   48 % 
 2018-11-14 13:22:13  22 C   48 % 
 2018-11-14 13:12:36  22 C   48 % 
 2018-11-14 13:03:01  22 C   48 % 
 2018-11-14 12:53:24  22 C   48 % 
 2018-11-14 12:43:48  22 C   49 % 
 2018-11-14 12:34:10  22 C   49 % 
 2018-11-14 12:14:36  22 C   49 % 
 2018-11-14 12:05:02  22 C   49 % 
 2018-11-14 11:24:52  22 C   49 % 
 2018-11-14 11:15:16  22 C   49 % 
 2018-11-14 11:05:44  22 C   49 % 
 2018-11-14 10:55:58  22 C   49 % 
 2018-11-14 10:46:19  22 C   49 % 
 2018-11-14 10:27:08  22 C   48 % 
 2018-11-14 10:17:27  22 C   48 % 
 2018-11-14 10:07:50  22 C   48 % 
 2018-11-14 09:48:05  22 C   49 % 
 2018-11-14 09:38:28  22 C   49 % 
 2018-11-14 09:28:53  22 C   49 % 
 2018-11-14 09:09:38  22 C   49 % 
 2018-11-14 09:00:01  22 C   48 % 
 2018-11-14 08:30:50  22 C   49 % 
 2018-11-14 08:21:12  22 C   49 % 
 2018-11-14 08:02:00  22 C   49 % 
 2018-11-14 07:52:21  22 C   49 % 
 2018-11-14 07:33:08  22 C   49 % 
 2018-11-14 07:23:32  22 C   49 % 
 2018-11-14 06:53:51  22 C   49 % 
 2018-11-14 06:44:15  22 C   49 % 
 2018-11-14 06:34:39  22 C   49 % 
 2018-11-14 06:04:49  22 C   49 % 
 2018-11-14 05:55:12  22 C   49 % 
 2018-11-14 05:45:35  22 C   49 % 
 2018-11-14 05:35:59  22 C   49 % 
 2018-11-14 05:26:22  22 C   49 % 
 2018-11-14 05:07:14  22 C   49 % 
 2018-11-14 04:57:26  22 C   49 % 
 2018-11-14 04:47:49  22 C   49 % 
 2018-11-14 04:38:11  22 C   49 % 
 2018-11-14 04:28:36  22 C   49 % 
 2018-11-14 04:18:58  22 C   49 % 
 2018-11-14 03:49:33  22 C   49 % 
 2018-11-14 03:30:15  22 C   49 % 
 2018-11-14 03:20:39  22 C   49 % 
 2018-11-14 03:11:02  22 C   49 % 
 2018-11-14 02:51:27  22 C   49 % 
 2018-11-14 02:41:46  22 C   49 % 
 2018-11-14 02:32:09  22 C   49 % 
 2018-11-14 02:12:49  22 C   49 % 
 2018-11-14 02:03:13  22 C   49 % 
 2018-11-14 01:43:59  22 C   49 % 
 2018-11-14 01:34:24  22 C   49 % 
 2018-11-14 01:24:37  22 C   49 % 
 2018-11-14 01:14:59  22 C   49 % 
 2018-11-14 01:05:27  22 C   49 % 
 2018-11-14 00:55:39  22 C   49 % 
 2018-11-14 00:36:12  22 C   49 % 
 2018-11-14 00:26:27  22 C   49 % 
 2018-11-14 00:16:50  22 C   49 % 
 2018-11-13 23:57:38  22 C   49 % 
 2018-11-13 23:48:02  22 C   49 % 
 2018-11-13 23:28:47  22 C   49 % 
 2018-11-13 23:09:35  22 C   49 % 
 2018-11-13 22:20:21  22 C   49 % 
 2018-11-13 21:50:41  22 C   49 % 
 2018-11-13 21:41:02  22 C   49 % 
 2018-11-13 21:12:16  22 C   49 % 
 2018-11-13 21:02:43  22 C   49 % 
 2018-11-13 20:42:44  22 C   49 % 
 2018-11-13 20:33:09  22 C   49 % 
 2018-11-13 20:23:33  22 C   49 % 
 2018-11-13 20:13:55  22 C   49 % 
 2018-11-13 20:04:19  22 C   49 % 
 2018-11-13 19:54:44  22 C   50 % 
 2018-11-13 19:35:38  22 C   50 % 
 2018-11-13 19:25:33  22 C   50 % 
 2018-11-13 19:05:45  22 C   50 % 
 2018-11-13 18:56:10  22 C   50 % 
 2018-11-13 18:36:55  22 C   50 % 
 2018-11-13 18:08:07  22 C   50 % 
 2018-11-13 17:58:01  22 C   50 % 
 2018-11-13 17:27:52  22 C   50 % 
 2018-11-13 17:08:34  22 C   49 % 
 2018-11-13 16:49:14  22 C   49 % 
 2018-11-13 16:39:37  22 C   49 % 
 2018-11-13 16:20:10  22 C   50 % 
 2018-11-13 16:10:34  22 C   50 % 
 2018-11-13 16:00:56  22 C   50 % 
 2018-11-13 15:51:20  22 C   50 % 
 2018-11-13 15:32:09  22 C   50 % 
 2018-11-13 15:22:34  22 C   50 % 
 2018-11-13 15:03:07  22 C   50 % 
 2018-11-13 14:53:30  22 C   50 % 
 2018-11-13 14:43:54  22 C   50 % 
 2018-11-13 14:34:20  22 C   50 % 
 2018-11-13 14:24:42  22 C   50 % 
 2018-11-13 14:15:07  22 C   50 % 
 2018-11-13 14:05:32  22 C   50 % 
 2018-11-13 13:55:54  22 C   50 % 
 2018-11-13 13:46:19  22 C   50 % 
 2018-11-13 13:26:21  22 C   50 % 
 2018-11-13 13:16:45  22 C   50 % 
 2018-11-13 13:07:16  22 C   50 % 
 2018-11-13 12:27:00  22 C   50 % 
 2018-11-13 12:17:22  22 C   50 % 
 2018-11-13 11:57:53  22 C   49 % 
 2018-11-13 11:38:41  22 C   49 % 
 2018-11-13 11:29:15  22 C   49 % 
 2018-11-13 11:19:01  22 C   49 % 
 2018-11-13 11:09:24  22 C   49 % 
 2018-11-13 10:50:17  22 C   49 % 
 2018-11-13 10:20:52  22 C   49 % 
 2018-11-13 10:11:08  22 C   49 % 
 2018-11-13 10:01:33  22 C   49 % 
 2018-11-13 09:31:52  22 C   49 % 
 2018-11-13 09:12:32  22 C   49 % 
 2018-11-13 09:02:44  22 C   49 % 
 2018-11-13 08:43:15  22 C   49 % 
 2018-11-13 08:33:39  22 C   49 % 
 2018-11-13 08:13:46  22 C   49 % 
 2018-11-13 07:44:21  22 C   49 % 
 2018-11-13 07:34:46  22 C   49 % 
 2018-11-13 06:25:13  22 C   49 % 
 2018-11-13 06:15:33  22 C   49 % 
 2018-11-13 06:06:02  22 C   49 % 
 2018-11-13 05:46:16  22 C   49 % 
 2018-11-13 05:36:47  22 C   49 % 
 2018-11-13 05:07:29  22 C   49 % 
 2018-11-13 04:37:54  22 C   49 % 
 2018-11-13 04:28:17  22 C   49 % 
 2018-11-13 04:18:40  22 C   49 % 
 2018-11-13 02:50:05  22 C   49 % 
 2018-11-13 02:19:56  22 C   49 % 
 2018-11-13 01:21:34  22 C   49 % 
 2018-11-13 01:11:49  22 C   49 % 
 2018-11-13 00:52:36  23 C   49 % 
 2018-11-13 00:42:56  23 C   49 % 
 2018-11-13 00:03:55  23 C   49 % 
 2018-11-12 23:44:34  23 C   49 % 
 2018-11-12 23:34:59  23 C   50 % 
 2018-11-12 23:06:06  23 C   50 % 
 2018-11-12 22:06:43  23 C   49 % 
 2018-11-12 21:27:13  23 C   50 % 
 2018-11-12 21:17:39  23 C   50 % 
 2018-11-12 20:58:18  23 C   50 % 
 2018-11-12 20:48:38  23 C   50 % 
 2018-11-12 20:39:02  23 C   50 % 
 2018-11-12 20:10:09  23 C   50 % 
 2018-11-12 20:00:33  23 C   50 % 
 2018-11-12 19:50:55  23 C   50 % 
 2018-11-12 19:11:27  23 C   50 % 
 2018-11-12 18:21:59  23 C   50 % 
 2018-11-12 17:52:53  23 C   50 % 
 2018-11-12 17:43:19  23 C   50 % 
 2018-11-12 16:44:00  23 C   50 % 
 2018-11-12 16:24:45  23 C   50 % 
 2018-11-12 16:15:06  23 C   50 % 
 2018-11-12 16:05:30  23 C   50 % 
 2018-11-12 15:55:53  23 C   49 % 
 2018-11-12 15:46:17  23 C   50 % 
 2018-11-12 15:36:41  23 C   49 % 
 2018-11-12 15:27:05  23 C   49 % 
 2018-11-12 15:07:17  23 C   49 % 
 2018-11-12 14:19:00  23 C   49 % 
 2018-11-12 13:30:10  23 C   49 % 
 2018-11-12 13:20:33  23 C   49 % 
 2018-11-12 12:51:39  23 C   49 % 
 2018-11-12 12:12:17  23 C   50 % 
 2018-11-12 11:43:07  23 C   49 % 
 2018-11-12 10:55:02  23 C   49 % 
 2018-11-12 10:35:44  23 C   49 % 
 2018-11-12 06:14:39  23 C   50 % 
 2018-11-12 05:04:31  23 C   50 % 
 2018-11-12 03:55:41  23 C   51 % 
 2018-11-12 03:35:57  23 C   51 % 
 2018-11-12 03:26:21  23 C   51 % 
 2018-11-12 03:16:45  23 C   51 % 
 2018-11-12 02:28:33  23 C   51 % 
 2018-11-12 01:59:44  23 C   51 % 
 2018-11-12 01:39:59  23 C   51 % 
 2018-11-12 01:10:33  23 C   51 % 
 2018-11-12 00:41:37  23 C   51 % 
 2018-11-12 00:32:01  23 C   51 % 
 2018-11-11 23:52:59  23 C   51 % 
 2018-11-11 23:24:11  23 C   51 % 
 2018-11-11 23:14:16  23 C   51 % 
 2018-11-11 22:45:24  23 C   52 % 
 2018-11-11 22:35:49  23 C   51 % 
 2018-11-11 22:26:13  23 C   51 % 
 2018-11-11 21:46:56  23 C   51 % 
 2018-11-11 21:37:20  23 C   51 % 
 2018-11-11 21:27:43  23 C   51 % 
 2018-11-11 21:18:04  23 C   51 % 
 2018-11-11 20:18:15  23 C   51 % 
 2018-11-11 20:08:39  23 C   51 % 
 2018-11-11 19:59:04  23 C   49 % 
 2018-11-11 19:49:28  23 C   49 % 
 2018-11-11 19:39:51  23 C   49 % 
 2018-11-11 19:30:16  23 C   49 % 
 2018-11-11 19:20:40  23 C   49 % 
 2018-11-11 19:11:05  23 C   49 % 
 2018-11-11 19:01:27  23 C   49 % 
 2018-11-11 18:51:50  23 C   50 % 
 2018-11-11 18:42:14  23 C   50 % 
 2018-11-11 18:32:38  23 C   49 % 
 2018-11-11 18:23:01  23 C   49 % 
 2018-11-11 18:13:25  23 C   50 % 
 2018-11-11 18:03:50  23 C   49 % 
 2018-11-11 17:54:16  23 C   49 % 
 2018-11-11 17:44:39  23 C   49 % 
 2018-11-11 17:35:05  23 C   49 % 
 2018-11-11 17:25:28  23 C   50 % 
 2018-11-11 17:15:53  23 C   50 % 
 2018-11-11 17:06:16  23 C   49 % 
 2018-11-11 16:56:42  23 C   50 % 
 2018-11-11 16:47:06  23 C   49 % 
 2018-11-11 16:37:29  23 C   49 % 
 2018-11-11 16:27:53  23 C   49 % 
 2018-11-11 16:18:16  23 C   49 % 
 2018-11-11 16:08:42  23 C   49 % 
 2018-11-11 15:59:06  23 C   49 % 
 2018-11-11 15:49:30  23 C   49 % 
 2018-11-11 15:39:55  23 C   49 % 
 2018-11-11 15:30:20  23 C   49 % 
 2018-11-11 15:11:01  23 C   49 % 
 2018-11-11 14:51:01  23 C   49 % 
 2018-11-11 13:03:14  23 C   49 % 
 2018-11-11 12:53:40  23 C   49 % 
 2018-11-11 12:24:35  23 C   49 % 
 2018-11-11 11:54:59  23 C   50 % 
 2018-11-11 11:25:22  23 C   50 % 
 2018-11-11 11:06:05  23 C   50 % 
 2018-11-11 10:37:04  22 C   49 % 
 2018-11-11 10:27:28  22 C   49 % 
 2018-11-11 09:57:52  22 C   49 % 
 2018-11-11 09:27:24  22 C   49 % 
 2018-11-11 09:08:09  22 C   49 % 
 2018-11-11 08:08:41  22 C   49 % 
 2018-11-11 07:20:08  22 C   49 % 
 2018-11-11 07:10:31  22 C   49 % 
 2018-11-11 07:00:56  22 C   49 % 
 2018-11-11 06:51:18  22 C   49 % 
 2018-11-11 06:41:40  22 C   49 % 
 2018-11-11 06:02:19  23 C   49 % 
 2018-11-11 05:32:54  23 C   49 % 
 2018-11-11 05:13:34  23 C   49 % 
 2018-11-11 05:03:59  23 C   49 % 
 2018-11-11 04:44:12  23 C   49 % 
 2018-11-11 04:34:19  23 C   49 % 
 2018-11-11 04:24:43  23 C   49 % 
 2018-11-11 04:15:06  23 C   49 % 
 2018-11-11 04:05:30  23 C   49 % 
 2018-11-11 03:55:56  23 C   49 % 
 2018-11-11 03:46:19  23 C   49 % 
 2018-11-11 03:36:44  23 C   49 % 
 2018-11-11 03:27:07  23 C   49 % 
 2018-11-11 03:17:32  23 C   49 % 
 2018-11-11 03:07:56  23 C   49 % 
 2018-11-11 02:58:21  23 C   49 % 
 2018-11-11 02:48:45  23 C   49 % 
 2018-11-11 02:39:10  23 C   49 % 
 2018-11-11 02:29:34  23 C   49 % 
 2018-11-11 02:19:58  23 C   49 % 
 2018-11-11 02:10:23  23 C   49 % 
 2018-11-11 02:00:43  23 C   49 % 
 2018-11-11 01:51:07  23 C   49 % 
 2018-11-11 01:41:31  23 C   49 % 
 2018-11-11 01:31:57  23 C   49 % 
 2018-11-11 01:22:18  23 C   49 % 
 2018-11-11 01:03:06  23 C   49 % 
 2018-11-11 00:53:30  23 C   49 % 
 2018-11-11 00:43:53  23 C   49 % 
 2018-11-11 00:34:18  23 C   49 % 
 2018-11-11 00:24:44  23 C   49 % 
 2018-11-11 00:15:04  23 C   49 % 
 2018-11-11 00:05:28  23 C   49 % 
 2018-11-10 23:55:52  23 C   49 % 
 2018-11-10 23:46:15  23 C   49 % 
 2018-11-10 23:36:41  23 C   49 % 
 2018-11-10 23:27:11  23 C   49 % 
 2018-11-10 23:17:21  23 C   49 % 
 2018-11-10 23:07:45  23 C   49 % 
 2018-11-10 22:58:09  23 C   49 % 
 2018-11-10 22:48:34  23 C   49 % 
 2018-11-10 22:38:59  23 C   49 % 
 2018-11-10 22:29:23  23 C   49 % 
 2018-11-10 21:50:13  23 C   49 % 
 2018-11-10 21:30:26  23 C   49 % 
 2018-11-10 21:20:49  23 C   49 % 
 2018-11-10 21:11:11  23 C   49 % 
 2018-11-10 21:01:30  23 C   48 % 
 2018-11-10 20:42:14  23 C   48 % 
 2018-11-10 20:32:45  23 C   48 % 
 2018-11-10 20:12:29  23 C   48 % 
 2018-11-10 18:55:29  23 C   48 % 
 2018-11-10 18:36:06  23 C   48 % 
 2018-11-10 18:26:29  23 C   48 % 
 2018-11-10 18:16:52  23 C   48 % 
 2018-11-10 17:19:04  23 C   49 % 
 2018-11-10 17:09:20  23 C   49 % 
 2018-11-10 16:50:04  23 C   49 % 
 2018-11-10 16:40:28  23 C   49 % 
 2018-11-10 16:21:08  23 C   49 % 
 2018-11-10 16:01:37  23 C   49 % 
 2018-11-10 15:52:01  23 C   49 % 
 2018-11-10 15:03:35  23 C   50 % 
 2018-11-10 14:34:38  23 C   50 % 
 2018-11-10 13:46:02  23 C   48 % 
 2018-11-10 13:26:28  23 C   48 % 
 2018-11-10 13:16:52  23 C   49 % 
 2018-11-10 12:57:09  23 C   49 % 
 2018-11-10 12:26:53  23 C   48 % 
 2018-11-10 11:27:51  23 C   49 % 
 2018-11-10 11:07:44  23 C   49 % 
 2018-11-10 10:58:03  23 C   50 % 
 2018-11-10 09:58:31  22 C   49 % 
 2018-11-10 09:48:49  22 C   49 % 
 2018-11-10 09:39:14  22 C   49 % 
 2018-11-10 09:00:30  22 C   50 % 
 2018-11-10 08:21:19  22 C   49 % 
 2018-11-10 07:03:07  22 C   48 % 
 2018-11-10 06:53:34  22 C   48 % 
 2018-11-10 06:43:53  22 C   48 % 
 2018-11-10 06:24:02  22 C   48 % 
 2018-11-10 06:03:58  22 C   49 % 
 2018-11-10 05:54:17  22 C   49 % 
 2018-11-10 05:44:42  22 C   48 % 
 2018-11-10 05:35:06  22 C   48 % 
 2018-11-10 05:15:07  22 C   49 % 
 2018-11-10 04:35:43  22 C   49 % 
 2018-11-10 04:16:08  23 C   48 % 
 2018-11-10 03:56:51  23 C   49 % 
 2018-11-10 03:37:23  23 C   49 % 
 2018-11-10 03:08:08  23 C   48 % 
 2018-11-10 02:58:15  23 C   48 % 
 2018-11-10 02:38:40  23 C   49 % 
 2018-11-10 02:29:05  23 C   48 % 
 2018-11-10 02:19:27  23 C   48 % 
 2018-11-10 01:59:32  23 C   48 % 
 2018-11-10 01:49:51  23 C   48 % 
 2018-11-10 00:51:09  23 C   48 % 
 2018-11-10 00:11:38  23 C   48 % 
 2018-11-10 00:02:00  23 C   48 % 
 2018-11-09 23:42:48  23 C   48 % 
 2018-11-09 23:33:08  23 C   48 % 
 2018-11-09 23:23:32  23 C   48 % 
 2018-11-09 23:13:55  23 C   48 % 
 2018-11-09 23:04:19  23 C   48 % 
 2018-11-09 22:54:42  23 C   48 % 
 2018-11-09 22:45:11  23 C   48 % 
 2018-11-09 22:25:40  23 C   48 % 
 2018-11-09 22:16:04  23 C   48 % 
 2018-11-09 22:06:28  23 C   48 % 
 2018-11-09 21:56:50  23 C   47 % 
 2018-11-09 21:47:17  23 C   47 % 
 2018-11-09 21:08:21  24 C   48 % 
 2018-11-09 20:58:44  24 C   48 % 
 2018-11-09 20:49:09  23 C   48 % 
 2018-11-09 20:39:30  23 C   49 % 
 2018-11-09 20:30:00  23 C   48 % 
 2018-11-09 20:20:02  23 C   47 % 
 2018-11-09 20:10:26  23 C   47 % 
 2018-11-09 20:00:54  23 C   47 % 
 2018-11-09 19:41:25  23 C   47 % 
 2018-11-09 19:31:48  23 C   47 % 
 2018-11-09 19:22:12  23 C   47 % 
 2018-11-09 19:12:37  23 C   47 % 
 2018-11-09 19:03:00  23 C   47 % 
 2018-11-09 18:53:26  23 C   47 % 
 2018-11-09 18:43:51  23 C   47 % 
 2018-11-09 18:34:16  23 C   47 % 
 2018-11-09 18:24:40  23 C   47 % 
 2018-11-09 18:15:04  23 C   47 % 
 2018-11-09 18:05:30  23 C   47 % 
 2018-11-09 17:55:53  23 C   47 % 
 2018-11-09 17:46:18  23 C   47 % 
 2018-11-09 17:36:41  23 C   47 % 
 2018-11-09 17:27:05  23 C   47 % 
 2018-11-09 17:17:29  23 C   47 % 
 2018-11-09 17:07:54  23 C   47 % 
 2018-11-09 16:58:18  23 C   47 % 
 2018-11-09 16:48:44  23 C   47 % 
 2018-11-09 16:39:07  23 C   46 % 
 2018-11-09 16:29:32  23 C   46 % 
 2018-11-09 16:19:56  23 C   46 % 
 2018-11-09 16:10:21  23 C   46 % 
 2018-11-09 16:00:44  23 C   46 % 
 2018-11-09 15:51:09  23 C   46 % 
 2018-11-09 15:41:33  23 C   45 % 
 2018-11-09 15:22:18  24 C   45 % 
 2018-11-09 15:12:42  24 C   45 % 
 2018-11-09 15:03:06  24 C   44 % 
 2018-11-09 14:53:30  24 C   44 % 
 2018-11-09 14:43:55  24 C   44 % 
 2018-11-09 14:34:19  25 C   43 % 
 2018-11-09 14:24:44  25 C   43 % 
 2018-11-09 14:15:11  25 C   42 % 
 2018-11-09 13:55:58  26 C   40 % 
 2018-11-09 13:46:25  27 C   39 % 
 2018-11-09 13:36:50  28 C   36 % 
 2018-11-09 13:27:17  30 C   33 % 
 2018-11-09 13:17:45  34 C   30 % 
 2018-11-09 13:08:06  34 C   30 % 
 2018-11-09 12:58:18  30 C   39 % 
 2018-11-09 12:48:38  23 C   47 % 
 2018-11-09 12:39:02  23 C   47 % 
 2018-11-09 12:29:26  23 C   47 % 
 2018-11-09 12:19:50  23 C   47 % 
 2018-11-09 12:10:13  23 C   48 % 
 2018-11-09 12:00:36  23 C   48 % 
 2018-11-09 11:50:59  23 C   48 % 
 2018-11-09 11:41:23  23 C   48 % 
 2018-11-09 11:31:52  23 C   48 % 
 2018-11-09 11:11:55  23 C   48 % 
 2018-11-09 10:52:16  23 C   48 % 
 2018-11-09 10:42:41  23 C   48 % 
 2018-11-09 10:33:01  23 C   48 % 
 2018-11-09 10:23:31  23 C   48 % 
 2018-11-09 10:13:41  23 C   48 % 
 2018-11-09 10:04:05  23 C   48 % 
 2018-11-09 09:54:39  23 C   48 % 
 2018-11-09 09:44:30  23 C   48 % 
 2018-11-09 09:34:38  23 C   48 % 
 2018-11-09 09:25:00  23 C   48 % 
 2018-11-09 09:15:23  23 C   48 % 
 2018-11-09 08:55:39  23 C   48 % 
 2018-11-09 08:45:58  23 C   48 % 
 2018-11-09 08:16:42  23 C   48 % 
 2018-11-09 07:57:06  23 C   48 % 
 2018-11-09 07:37:40  23 C   48 % 
 2018-11-09 07:17:55  23 C   48 % 
 2018-11-09 07:08:20  23 C   48 % 
 2018-11-09 06:58:41  23 C   48 % 
 2018-11-09 06:49:05  23 C   48 % 
 2018-11-09 06:39:27  23 C   48 % 
 2018-11-09 06:29:51  23 C   47 % 
 2018-11-09 06:20:15  23 C   47 % 
 2018-11-09 06:00:57  23 C   47 % 
 2018-11-09 05:51:21  23 C   47 % 
 2018-11-09 05:21:53  23 C   47 % 
 2018-11-09 05:01:38  23 C   47 % 
 2018-11-09 04:32:17  23 C   47 % 
 2018-11-09 04:22:40  23 C   47 % 
 2018-11-09 04:13:03  23 C   47 % 
 2018-11-09 03:43:20  23 C   47 % 
 2018-11-09 03:33:40  23 C   47 % 
 2018-11-09 03:14:01  23 C   47 % 
 2018-11-09 02:54:16  23 C   47 % 
 2018-11-09 02:24:30  23 C   47 % 
 2018-11-09 02:14:55  23 C   47 % 
 2018-11-09 02:05:18  23 C   47 % 
 2018-11-09 01:55:42  23 C   47 % 
 2018-11-09 01:46:05  23 C   47 % 
 2018-11-09 01:36:27  23 C   47 % 
 2018-11-09 01:26:50  23 C   47 % 
 2018-11-09 01:17:14  23 C   47 % 
 2018-11-09 01:07:36  23 C   47 % 
 2018-11-09 00:58:00  23 C   47 % 
 2018-11-09 00:38:43  23 C   46 % 
 2018-11-09 00:29:06  23 C   46 % 
 2018-11-09 00:19:31  23 C   46 % 
 2018-11-09 00:10:04  23 C   46 % 
 2018-11-08 23:59:58  23 C   46 % 
 2018-11-08 23:50:22  23 C   46 % 
 2018-11-08 23:40:47  23 C   46 % 
 2018-11-08 23:31:10  23 C   46 % 
 2018-11-08 23:21:35  23 C   46 % 
 2018-11-08 23:11:58  24 C   46 % 
 2018-11-08 23:02:21  24 C   45 % 
 2018-11-08 22:52:45  24 C   45 % 
 2018-11-08 22:43:10  24 C   45 % 
 2018-11-08 22:33:36  24 C   45 % 
 2018-11-08 22:23:57  24 C   45 % 
 2018-11-08 22:14:30  24 C   44 % 
 2018-11-08 22:04:22  24 C   44 % 
 2018-11-08 21:45:06  24 C   43 % 
 2018-11-08 21:35:31  25 C   43 % 
 2018-11-08 21:25:57  25 C   43 % 
 2018-11-08 21:16:18  25 C   42 % 
 2018-11-08 21:06:42  25 C   42 % 
 2018-11-08 20:57:07  26 C   41 % 
 2018-11-08 20:47:31  26 C   40 % 
 2018-11-08 20:37:56  27 C   39 % 
 2018-11-08 20:28:21  27 C   38 % 
 2018-11-08 20:18:47  29 C   36 % 
 2018-11-08 20:09:14  30 C   33 % 
 2018-11-08 19:59:42  33 C   30 % 
 2018-11-08 19:50:04  35 C   29 % 
 2018-11-08 19:40:16  27 C   43 % 
 2018-11-08 19:30:42  27 C   38 % 
 2018-11-08 19:21:07  28 C   36 % 
 2018-11-08 19:11:35  30 C   34 % 
 2018-11-08 19:02:04  33 C   30 % 
 2018-11-08 18:52:34  37 C   25 % 
 2018-11-08 18:42:56  40 C   25 % 
 2018-11-08 18:33:09  33 C   32 % 
 2018-11-08 18:23:21  23 C   51 % 
 2018-11-08 18:13:44  22 C   53 % 
 2018-11-08 18:04:10  22 C   48 % 
 2018-11-08 17:54:33  22 C   48 % 
 2018-11-08 17:45:01  22 C   48 % 
 2018-11-08 17:35:27  22 C   48 % 
 2018-11-08 17:25:45  22 C   48 % 
 2018-11-08 17:15:59  22 C   48 % 
 2018-11-08 17:06:20  22 C   48 % 
 2018-11-08 16:56:46  22 C   48 % 
 2018-11-08 16:37:33  22 C   48 % 
 2018-11-08 16:27:57  22 C   48 % 
 2018-11-08 16:18:23  22 C   48 % 
 2018-11-08 16:08:45  22 C   48 % 
 2018-11-08 15:58:53  22 C   48 % 
 2018-11-08 15:49:18  22 C   48 % 
 2018-11-08 15:39:43  22 C   48 % 
 2018-11-08 15:30:08  22 C   48 % 
 2018-11-08 15:20:33  22 C   48 % 
 2018-11-08 15:10:57  22 C   48 % 
 2018-11-08 15:01:21  22 C   48 % 
 2018-11-08 14:51:46  22 C   48 % 
 2018-11-08 14:42:09  22 C   48 % 
 2018-11-08 14:32:39  22 C   48 % 
 2018-11-08 14:22:50  22 C   48 % 
 2018-11-08 14:13:11  22 C   48 % 
 2018-11-08 14:03:35  22 C   48 % 
 2018-11-08 13:54:00  22 C   48 % 
 2018-11-08 13:44:25  22 C   48 % 
 2018-11-08 13:34:49  22 C   48 % 
 2018-11-08 13:25:14  22 C   47 % 
 2018-11-08 13:05:43  22 C   47 % 
 2018-11-08 12:56:08  22 C   47 % 
 2018-11-08 12:46:27  22 C   47 % 
 2018-11-08 12:36:50  22 C   47 % 
 2018-11-08 12:17:29  22 C   47 % 
 2018-11-08 12:07:50  22 C   47 % 
 2018-11-08 11:58:14  22 C   48 % 
 2018-11-08 11:48:38  22 C   48 % 
 2018-11-08 11:39:02  22 C   47 % 
 2018-11-08 11:29:27  22 C   48 % 
 2018-11-08 11:19:47  22 C   48 % 
 2018-11-08 11:10:11  22 C   48 % 
 2018-11-08 11:00:38  22 C   48 % 
 2018-11-08 10:50:54  22 C   48 % 
 2018-11-08 10:20:49  22 C   47 % 
 2018-11-08 10:01:04  22 C   48 % 
 2018-11-08 09:51:29  22 C   48 % 
 2018-11-08 09:41:51  22 C   48 % 
 2018-11-08 09:32:17  22 C   48 % 
 2018-11-08 09:22:36  22 C   48 % 
 2018-11-08 09:12:59  22 C   48 % 
 2018-11-08 08:53:12  22 C   48 % 
 2018-11-08 08:43:36  22 C   48 % 
 2018-11-08 08:34:00  22 C   48 % 
 2018-11-08 08:24:20  22 C   48 % 
 2018-11-08 08:14:51  22 C   48 % 
 2018-11-08 07:35:44  22 C   48 % 
 2018-11-08 07:16:08  22 C   48 % 
 2018-11-08 07:06:43  22 C   49 % 
 2018-11-08 06:56:21  22 C   49 % 
 2018-11-08 06:46:46  22 C   49 % 
 2018-11-08 06:37:07  22 C   49 % 
 2018-11-08 06:27:30  22 C   48 % 
 2018-11-08 06:17:52  22 C   48 % 
 2018-11-08 06:08:16  22 C   48 % 
 2018-11-08 05:58:39  22 C   48 % 
 2018-11-08 05:49:03  22 C   48 % 
 2018-11-08 05:39:26  22 C   48 % 
 2018-11-08 05:29:50  22 C   48 % 
 2018-11-08 05:20:14  22 C   48 % 
 2018-11-08 05:00:17  22 C   48 % 
 2018-11-08 04:50:40  22 C   48 % 
 2018-11-08 04:41:04  22 C   48 % 
 2018-11-08 04:31:29  22 C   48 % 
 2018-11-08 04:21:52  22 C   48 % 
 2018-11-08 04:02:23  22 C   48 % 
 2018-11-08 03:52:44  22 C   48 % 
 2018-11-08 03:43:09  22 C   47 % 
 2018-11-08 03:23:32  22 C   47 % 
 2018-11-08 03:13:54  22 C   47 % 
 2018-11-08 03:04:21  22 C   47 % 
 2018-11-08 02:54:37  22 C   47 % 
 2018-11-08 02:45:05  22 C   47 % 
 2018-11-08 02:35:18  22 C   48 % 
 2018-11-08 02:25:43  23 C   47 % 
 2018-11-08 02:16:06  23 C   47 % 
 2018-11-08 02:06:30  23 C   47 % 
 2018-11-08 01:56:53  23 C   47 % 
 2018-11-08 01:47:17  23 C   47 % 
 2018-11-08 01:37:41  23 C   47 % 
 2018-11-08 01:28:07  23 C   47 % 
 2018-11-08 01:18:29  23 C   47 % 
 2018-11-08 01:08:54  23 C   47 % 
 2018-11-08 00:59:18  23 C   47 % 
 2018-11-08 00:49:43  23 C   47 % 
 2018-11-08 00:40:06  23 C   47 % 
 2018-11-08 00:30:30  23 C   47 % 
 2018-11-08 00:20:54  23 C   47 % 
 2018-11-08 00:11:18  23 C   47 % 
 2018-11-08 00:01:42  23 C   47 % 
 2018-11-07 23:52:06  23 C   47 % 
 2018-11-07 23:42:31  23 C   47 % 
 2018-11-07 23:32:54  23 C   47 % 
 2018-11-07 23:23:18  23 C   47 % 
 2018-11-07 23:13:42  23 C   47 % 
 2018-11-07 23:04:07  23 C   47 % 
 2018-11-07 22:54:32  23 C   47 % 
 2018-11-07 22:44:54  23 C   47 % 
 2018-11-07 22:35:18  23 C   47 % 
 2018-11-07 22:25:43  23 C   47 % 
 2018-11-07 22:06:17  23 C   47 % 
 2018-11-07 21:56:41  23 C   47 % 
 2018-11-07 21:47:05  23 C   47 % 
 2018-11-07 21:37:29  23 C   47 % 
 2018-11-07 21:27:54  23 C   47 % 
 2018-11-07 21:18:17  23 C   47 % 
 2018-11-07 21:08:41  23 C   47 % 
 2018-11-07 20:59:04  23 C   47 % 
 2018-11-07 20:49:29  23 C   47 % 
 2018-11-07 20:39:52  23 C   47 % 
 2018-11-07 20:30:16  23 C   47 % 
 2018-11-07 20:20:39  23 C   47 % 
 2018-11-07 20:11:05  23 C   47 % 
 2018-11-07 20:01:27  23 C   47 % 
 2018-11-07 19:51:51  23 C   47 % 
 2018-11-07 19:42:16  23 C   47 % 
 2018-11-07 19:32:40  23 C   47 % 
 2018-11-07 19:23:04  23 C   47 % 
 2018-11-07 19:13:27  23 C   47 % 
 2018-11-07 19:03:51  23 C   47 % 
 2018-11-07 18:54:15  23 C   47 % 
 2018-11-07 18:44:39  23 C   47 % 
 2018-11-07 18:24:45  23 C   48 % 
 2018-11-07 18:15:10  23 C   47 % 
 2018-11-07 17:55:50  22 C   47 % 
 2018-11-07 17:46:14  23 C   47 % 
 2018-11-07 17:36:38  23 C   48 % 
 2018-11-07 17:27:02  23 C   49 % 
 2018-11-07 17:17:27  23 C   51 % 
 2018-11-07 17:07:53  22 C   48 % 
 2018-11-07 16:58:14  22 C   47 % 
 2018-11-07 16:48:39  22 C   47 % 
 2018-11-07 16:39:02  22 C   47 % 
 2018-11-07 16:29:26  22 C   47 % 
 2018-11-07 16:19:50  22 C   47 % 
 2018-11-07 16:10:15  22 C   47 % 
 2018-11-07 16:00:39  22 C   47 % 
 2018-11-07 15:51:05  22 C   47 % 
 2018-11-07 15:41:28  22 C   47 % 
 2018-11-07 15:31:52  22 C   47 % 
 2018-11-07 15:22:17  22 C   47 % 
 2018-11-07 15:12:41  22 C   47 % 
 2018-11-07 15:03:05  22 C   47 % 
 2018-11-07 14:53:29  22 C   47 % 
 2018-11-07 14:43:53  22 C   47 % 
 2018-11-07 14:34:18  22 C   47 % 
 2018-11-07 14:24:37  22 C   47 % 
 2018-11-07 14:14:53  22 C   47 % 
 2018-11-07 13:55:30  22 C   47 % 
 2018-11-07 13:45:55  22 C   47 % 
 2018-11-07 13:16:21  22 C   47 % 
 2018-11-07 13:06:27  22 C   47 % 
 2018-11-07 12:56:46  22 C   47 % 
 2018-11-07 12:47:11  22 C   47 % 
 2018-11-07 12:27:59  22 C   47 % 
 2018-11-07 12:18:25  22 C   47 % 
 2018-11-07 11:59:12  22 C   47 % 
 2018-11-07 11:49:34  22 C   47 % 
 2018-11-07 11:39:58  22 C   47 % 
 2018-11-07 11:30:22  22 C   47 % 
 2018-11-07 11:20:46  22 C   47 % 
 2018-11-07 11:11:09  22 C   47 % 
 2018-11-07 11:01:34  22 C   47 % 
 2018-11-07 10:51:58  22 C   47 % 
 2018-11-07 10:42:24  22 C   47 % 
 2018-11-07 10:32:46  22 C   47 % 
 2018-11-07 10:22:35  22 C   47 % 
 2018-11-07 10:12:58  22 C   47 % 
 2018-11-07 10:03:23  22 C   47 % 
 2018-11-07 09:53:46  22 C   47 % 
 2018-11-07 09:34:16  22 C   48 % 
 2018-11-07 09:24:39  22 C   48 % 
 2018-11-07 09:15:04  22 C   48 % 
 2018-11-07 09:05:17  22 C   48 % 
 2018-11-07 08:55:43  22 C   48 % 
 2018-11-07 08:45:53  22 C   48 % 
 2018-11-07 08:26:35  23 C   48 % 
 2018-11-07 08:17:06  23 C   48 % 
 2018-11-07 08:07:08  23 C   48 % 
 2018-11-07 07:57:24  23 C   49 % 
 2018-11-07 07:27:29  22 C   48 % 
 2018-11-07 07:07:31  22 C   49 % 
 2018-11-07 06:57:54  22 C   49 % 
 2018-11-07 06:48:18  22 C   48 % 
 2018-11-07 06:38:41  22 C   48 % 
 2018-11-07 06:29:04  22 C   48 % 
 2018-11-07 06:19:30  22 C   48 % 
 2018-11-07 06:00:16  22 C   48 % 
 2018-11-07 05:40:12  22 C   48 % 
 2018-11-07 05:30:37  22 C   48 % 
 2018-11-07 05:20:56  22 C   48 % 
 2018-11-07 05:11:20  22 C   48 % 
 2018-11-07 05:01:44  22 C   48 % 
 2018-11-07 04:52:06  22 C   48 % 
 2018-11-07 04:42:35  22 C   48 % 
 2018-11-07 04:32:46  22 C   48 % 
 2018-11-07 04:03:18  22 C   48 % 
 2018-11-07 03:53:41  22 C   48 % 
 2018-11-07 03:34:31  22 C   48 % 
 2018-11-07 03:24:33  22 C   48 % 
 2018-11-07 03:14:57  22 C   48 % 
 2018-11-07 03:05:20  22 C   48 % 
 2018-11-07 02:55:47  23 C   47 % 
 2018-11-07 02:36:27  23 C   48 % 
 2018-11-07 02:26:53  23 C   48 % 
 2018-11-07 02:17:23  23 C   48 % 
 2018-11-07 01:57:22  23 C   48 % 
 2018-11-07 01:47:48  23 C   48 % 
 2018-11-07 01:28:00  23 C   48 % 
 2018-11-07 01:18:24  23 C   48 % 
 2018-11-07 00:49:26  23 C   48 % 
 2018-11-07 00:39:50  23 C   48 % 
 2018-11-07 00:30:14  23 C   48 % 
 2018-11-07 00:20:39  23 C   48 % 
 2018-11-07 00:11:01  23 C   48 % 
 2018-11-06 23:51:49  23 C   47 % 
 2018-11-06 23:32:30  23 C   47 % 
 2018-11-06 23:13:03  23 C   47 % 
 2018-11-06 22:53:56  23 C   47 % 
 2018-11-06 22:44:12  23 C   47 % 
 2018-11-06 22:34:35  23 C   47 % 
 2018-11-06 22:15:19  23 C   47 % 
 2018-11-06 22:05:41  23 C   47 % 
 2018-11-06 21:56:06  23 C   47 % 
 2018-11-06 21:46:27  23 C   47 % 
 2018-11-06 21:36:52  23 C   47 % 
 2018-11-06 21:27:16  23 C   47 % 
 2018-11-06 21:17:38  23 C   47 % 
 2018-11-06 21:07:49  23 C   47 % 
 2018-11-06 20:58:12  23 C   47 % 
 2018-11-06 20:48:37  23 C   47 % 
 2018-11-06 20:38:59  23 C   47 % 
 2018-11-06 20:19:04  23 C   47 % 
 2018-11-06 20:09:28  23 C   47 % 
 2018-11-06 19:59:53  23 C   47 % 
 2018-11-06 19:50:24  23 C   48 % 
 2018-11-06 19:30:40  23 C   47 % 
 2018-11-06 19:11:24  23 C   46 % 
 2018-11-06 19:01:49  23 C   47 % 
 2018-11-06 18:51:54  23 C   46 % 
 2018-11-06 18:42:15  23 C   46 % 
 2018-11-06 18:32:37  22 C   47 % 
 2018-11-06 18:22:59  22 C   48 % 
 2018-11-06 18:13:23  22 C   47 % 
 2018-11-06 18:03:52  22 C   47 % 
 2018-11-06 17:54:03  22 C   47 % 
 2018-11-06 17:44:27  22 C   47 % 
 2018-11-06 17:34:51  22 C   47 % 
 2018-11-06 17:25:16  22 C   47 % 
 2018-11-06 17:15:39  22 C   47 % 
 2018-11-06 17:06:04  22 C   47 % 
 2018-11-06 16:56:28  22 C   47 % 
 2018-11-06 16:46:53  22 C   47 % 
 2018-11-06 16:37:19  22 C   47 % 
 2018-11-06 16:27:42  22 C   47 % 
 2018-11-06 16:18:06  22 C   47 % 
 2018-11-06 16:08:30  23 C   47 % 
 2018-11-06 15:58:53  22 C   47 % 
 2018-11-06 15:30:06  23 C   47 % 
 2018-11-06 15:20:31  23 C   47 % 
 2018-11-06 14:51:11  23 C   46 % 
 2018-11-06 14:41:36  23 C   47 % 
 2018-11-06 14:31:55  23 C   47 % 
 2018-11-06 14:12:43  23 C   47 % 
 2018-11-06 14:03:05  23 C   47 % 
 2018-11-06 13:53:30  23 C   47 % 
 2018-11-06 13:43:51  23 C   47 % 
 2018-11-06 13:34:15  23 C   47 % 
 2018-11-06 13:24:38  23 C   47 % 
 2018-11-06 13:15:01  23 C   47 % 
 2018-11-06 12:55:45  23 C   47 % 
 2018-11-06 12:46:09  23 C   47 % 
 2018-11-06 12:36:35  23 C   47 % 
 2018-11-06 12:26:54  23 C   47 % 
 2018-11-06 12:17:18  23 C   47 % 
 2018-11-06 12:07:43  23 C   47 % 
 2018-11-06 11:28:48  23 C   47 % 
 2018-11-06 10:38:49  23 C   47 % 
 2018-11-06 10:18:53  23 C   47 % 
 2018-11-06 09:59:01  23 C   47 % 
 2018-11-06 09:49:28  23 C   47 % 
 2018-11-06 09:39:46  23 C   47 % 
 2018-11-06 09:30:10  23 C   47 % 
 2018-11-06 09:10:24  23 C   47 % 
 2018-11-06 09:00:48  23 C   47 % 
 2018-11-06 08:51:13  23 C   47 % 
 2018-11-06 08:11:16  24 C   47 % 
 2018-11-06 07:41:17  24 C   48 % 
 2018-11-06 07:31:26  24 C   48 % 
 2018-11-06 07:01:59  24 C   48 % 
 2018-11-06 06:42:44  23 C   47 % 
 2018-11-06 06:13:50  23 C   47 % 
 2018-11-06 04:54:01  24 C   47 % 
 2018-11-06 04:44:25  24 C   47 % 
 2018-11-06 04:34:50  24 C   47 % 
 2018-11-06 04:15:22  24 C   47 % 
 2018-11-06 03:55:30  24 C   47 % 
 2018-11-06 03:45:54  24 C   47 % 
 2018-11-06 03:36:18  24 C   47 % 
 2018-11-06 03:26:43  24 C   47 % 
 2018-11-06 03:07:28  24 C   47 % 
 2018-11-06 02:47:42  24 C   47 % 
 2018-11-06 02:38:04  24 C   47 % 
 2018-11-06 02:28:28  24 C   47 % 
 2018-11-06 02:18:54  24 C   47 % 
 2018-11-06 02:09:14  24 C   47 % 
 2018-11-06 01:50:01  24 C   46 % 
 2018-11-06 01:30:42  24 C   46 % 
 2018-11-06 01:21:05  24 C   46 % 
 2018-11-06 01:01:47  24 C   46 % 
 2018-11-06 00:41:54  24 C   45 % 
 2018-11-06 00:02:31  24 C   46 % 
 2018-11-05 23:33:41  24 C   45 % 
 2018-11-05 23:04:51  24 C   45 % 
 2018-11-05 22:35:57  24 C   45 % 
 2018-11-05 22:16:05  24 C   45 % 
 2018-11-05 22:06:30  25 C   45 % 
 2018-11-05 21:47:21  25 C   45 % 
 2018-11-05 21:27:43  24 C   45 % 
 2018-11-05 19:02:16  25 C   49 % 
 2018-11-05 18:52:37  23 C   49 % 
 2018-11-05 18:42:54  23 C   46 % 
 2018-11-05 18:33:15  23 C   46 % 
 2018-11-05 17:33:08  22 C   46 % 
 2018-11-05 17:23:30  22 C   46 % 
 2018-11-05 17:13:55  22 C   46 % 
 2018-11-05 17:04:21  22 C   46 % 
 2018-11-05 15:27:13  22 C   47 % 
 2018-11-05 15:08:03  22 C   47 % 
 2018-11-05 14:58:11  22 C   47 % 
 2018-11-05 13:59:55  22 C   47 % 
 2018-11-05 13:50:06  22 C   47 % 
 2018-11-05 13:30:29  22 C   47 % 
 2018-11-05 13:11:14  22 C   47 % 
 2018-11-05 13:01:39  22 C   46 % 
 2018-11-05 12:21:59  22 C   46 % 
 2018-11-05 12:02:47  22 C   46 % 
 2018-11-05 11:53:11  22 C   46 % 
 2018-11-05 11:43:33  22 C   46 % 
 2018-11-05 11:33:57  22 C   45 % 
 2018-11-05 11:14:43  22 C   45 % 
 2018-11-05 10:54:44  22 C   44 % 
 2018-11-05 10:45:08  22 C   44 % 
 2018-11-05 10:35:34  22 C   44 % 
 2018-11-05 10:16:18  22 C   44 % 
 2018-11-05 09:57:00  22 C   44 % 
 2018-11-05 09:46:58  22 C   44 % 
 2018-11-05 08:58:16  22 C   44 % 
 2018-11-05 08:48:39  23 C   44 % 
 2018-11-05 08:39:02  23 C   44 % 
 2018-11-05 08:29:26  23 C   44 % 
 2018-11-05 08:19:48  23 C   44 % 
 2018-11-05 08:10:12  23 C   44 % 
 2018-11-05 08:00:36  23 C   44 % 
 2018-11-05 07:10:36  23 C   45 % 
 2018-11-05 06:41:24  23 C   45 % 
 2018-11-05 06:22:11  23 C   45 % 
 2018-11-05 06:02:20  23 C   45 % 
 2018-11-05 05:43:05  23 C   45 % 
 2018-11-05 05:03:48  23 C   45 % 
 2018-11-05 04:24:11  23 C   45 % 
 2018-11-05 03:45:03  23 C   45 % 
 2018-11-05 02:56:09  23 C   45 % 
 2018-11-05 02:17:43  23 C   45 % 
 2018-11-05 01:29:30  23 C   45 % 
 2018-11-05 01:19:56  23 C   45 % 
 2018-11-05 01:10:14  23 C   45 % 
 2018-11-05 00:22:11  23 C   45 % 
 2018-11-05 00:12:36  23 C   45 % 
 2018-11-05 00:02:52  23 C   45 % 
 2018-11-04 23:43:01  23 C   45 % 
 2018-11-04 23:33:17  23 C   45 % 
 2018-11-04 23:14:05  23 C   45 % 
 2018-11-04 22:35:37  23 C   45 % 
 2018-11-04 22:25:54  23 C   45 % 
 2018-11-04 22:16:18  23 C   45 % 
 2018-11-04 21:57:04  23 C   45 % 
 2018-11-04 21:47:30  23 C   45 % 
 2018-11-04 21:37:56  23 C   45 % 
 2018-11-04 21:18:32  23 C   45 % 
 2018-11-04 20:59:06  23 C   45 % 
 2018-11-04 20:49:28  23 C   45 % 
 2018-11-04 20:39:48  23 C   45 % 
 2018-11-04 20:30:10  23 C   45 % 
 2018-11-04 20:20:35  23 C   44 % 
 2018-11-04 20:01:20  23 C   44 % 
 2018-11-04 19:51:43  23 C   45 % 
 2018-11-04 19:12:50  23 C   45 % 
 2018-11-04 19:02:20  23 C   44 % 
 2018-11-04 18:23:34  23 C   44 % 
 2018-11-04 17:34:48  23 C   44 % 
 2018-11-04 17:25:11  23 C   44 % 
 2018-11-04 17:15:34  23 C   44 % 
 2018-11-04 17:05:58  23 C   44 % 
 2018-11-04 16:46:43  23 C   44 % 
 2018-11-04 16:17:21  23 C   44 % 
 2018-11-04 16:07:44  23 C   44 % 
 2018-11-04 15:58:06  23 C   44 % 
 2018-11-04 15:48:30  23 C   44 % 
 2018-11-04 15:38:54  23 C   44 % 
 2018-11-04 15:19:42  24 C   44 % 
 2018-11-04 14:21:26  24 C   43 % 
 2018-11-04 13:52:30  23 C   45 % 
 2018-11-04 13:42:53  23 C   45 % 
 2018-11-04 13:33:15  23 C   45 % 
 2018-11-04 13:23:38  23 C   45 % 
 2018-11-04 13:14:05  23 C   45 % 
 2018-11-04 12:54:43  23 C   45 % 
 2018-11-04 12:45:07  23 C   45 % 
 2018-11-04 12:35:32  23 C   45 % 
 2018-11-04 12:16:02  23 C   45 % 
 2018-11-04 10:57:52  23 C   45 % 
 2018-11-04 10:37:54  23 C   45 % 
 2018-11-04 10:28:17  23 C   45 % 
 2018-11-04 09:59:13  23 C   45 % 
 2018-11-04 09:49:36  23 C   45 % 
 2018-11-04 09:30:17  23 C   45 % 
 2018-11-04 09:20:38  23 C   44 % 
 2018-11-04 09:11:01  23 C   44 % 
 2018-11-04 08:51:53  23 C   45 % 
 2018-11-04 08:41:52  23 C   45 % 
 2018-11-04 08:32:16  23 C   44 % 
 2018-11-04 08:22:40  23 C   44 % 
 2018-11-04 08:13:03  23 C   44 % 
 2018-11-04 07:53:05  23 C   44 % 
 2018-11-04 07:43:29  23 C   44 % 
 2018-11-04 07:33:52  23 C   44 % 
 2018-11-04 07:24:16  23 C   44 % 
 2018-11-04 07:14:40  23 C   44 % 
 2018-11-04 07:05:02  23 C   44 % 
 2018-11-04 06:55:26  23 C   44 % 
 2018-11-04 06:36:14  23 C   44 % 
 2018-11-04 06:26:38  23 C   44 % 
 2018-11-04 05:47:38  24 C   44 % 
 2018-11-04 05:27:38  24 C   44 % 
 2018-11-04 05:18:00  24 C   44 % 
 2018-11-04 05:08:24  24 C   44 % 
 2018-11-04 04:49:07  24 C   44 % 
 2018-11-04 04:39:30  24 C   44 % 
 2018-11-04 04:10:34  24 C   44 % 
 2018-11-04 04:00:58  24 C   44 % 
 2018-11-04 03:32:05  24 C   44 % 
 2018-11-04 03:22:24  24 C   44 % 
 2018-11-04 03:03:08  24 C   44 % 
 2018-11-04 02:43:35  24 C   44 % 
 2018-11-04 02:33:59  24 C   44 % 
 2018-11-04 02:24:23  24 C   44 % 
 2018-11-04 01:14:54  24 C   44 % 
 2018-11-04 01:05:17  24 C   44 % 
 2018-11-04 00:35:35  24 C   44 % 
 2018-11-04 00:25:53  23 C   44 % 
 2018-11-04 00:06:38  23 C   44 % 
 2018-11-03 23:37:19  23 C   44 % 
 2018-11-03 23:27:41  23 C   44 % 
 2018-11-03 23:08:28  23 C   44 % 
 2018-11-03 22:38:52  23 C   44 % 
 2018-11-03 21:40:15  23 C   45 % 
 2018-11-03 21:30:47  23 C   45 % 
 2018-11-03 20:41:53  23 C   45 % 
 2018-11-03 20:22:21  22 C   45 % 
 2018-11-03 20:12:37  22 C   45 % 
 2018-11-03 19:52:45  22 C   45 % 
 2018-11-03 19:43:09  22 C   45 % 
 2018-11-03 19:33:31  22 C   45 % 
 2018-11-03 19:04:43  22 C   45 % 
 2018-11-03 18:54:51  22 C   45 % 
 2018-11-03 18:45:15  22 C   45 % 
 2018-11-03 18:16:24  22 C   45 % 
 2018-11-03 17:47:23  22 C   45 % 
 2018-11-03 17:37:46  22 C   45 % 
 2018-11-03 17:28:01  22 C   45 % 
 2018-11-03 17:18:27  22 C   45 % 
 2018-11-03 17:08:47  22 C   45 % 
 2018-11-03 16:39:24  22 C   45 % 
 2018-11-03 16:29:44  22 C   46 % 
 2018-11-03 16:10:30  22 C   45 % 
 2018-11-03 15:51:14  22 C   46 % 
 2018-11-03 15:31:41  22 C   46 % 
 2018-11-03 14:43:19  22 C   45 % 
 2018-11-03 14:04:36  22 C   45 % 
 2018-11-03 13:35:38  22 C   45 % 
 2018-11-03 12:47:14  22 C   44 % 
 2018-11-03 12:27:47  22 C   44 % 
 2018-11-03 11:58:44  22 C   44 % 
 2018-11-03 11:10:24  22 C   45 % 
 2018-11-03 10:31:23  22 C   44 % 
 2018-11-03 10:11:40  22 C   44 % 
 2018-11-03 10:02:10  22 C   44 % 
 2018-11-03 09:52:21  22 C   44 % 
 2018-11-03 09:23:28  22 C   44 % 
 2018-11-03 09:13:44  22 C   44 % 
 2018-11-03 08:54:29  22 C   44 % 
 2018-11-03 08:35:05  22 C   44 % 
 2018-11-03 08:25:27  22 C   44 % 
 2018-11-03 08:15:52  22 C   44 % 
 2018-11-03 08:06:16  22 C   44 % 
 2018-11-03 07:56:37  22 C   44 % 
 2018-11-03 07:47:02  22 C   44 % 
 2018-11-03 07:37:26  22 C   44 % 
 2018-11-03 07:27:47  22 C   44 % 
 2018-11-03 07:18:10  22 C   44 % 
 2018-11-03 07:08:34  22 C   44 % 
 2018-11-03 06:58:56  22 C   44 % 
 2018-11-03 06:49:22  22 C   44 % 
 2018-11-03 06:39:45  22 C   44 % 
 2018-11-03 06:30:07  22 C   44 % 
 2018-11-03 06:20:26  22 C   44 % 
 2018-11-03 06:01:10  22 C   44 % 
 2018-11-03 05:41:42  22 C   44 % 
 2018-11-03 05:32:04  22 C   44 % 
 2018-11-03 05:22:28  22 C   44 % 
 2018-11-03 05:02:33  22 C   44 % 
 2018-11-03 04:52:56  22 C   44 % 
 2018-11-03 04:43:22  22 C   44 % 
 2018-11-03 04:33:42  22 C   44 % 
 2018-11-03 04:24:06  22 C   44 % 
 2018-11-03 04:14:30  22 C   44 % 
 2018-11-03 04:04:54  22 C   44 % 
 2018-11-03 03:55:17  22 C   44 % 
 2018-11-03 03:45:42  22 C   44 % 
 2018-11-03 03:36:06  22 C   44 % 
 2018-11-03 03:16:28  22 C   44 % 
 2018-11-03 03:06:51  22 C   44 % 
 2018-11-03 02:37:47  22 C   44 % 
 2018-11-03 02:18:28  22 C   44 % 
 2018-11-03 02:08:52  22 C   44 % 
 2018-11-03 01:49:37  22 C   44 % 
 2018-11-03 01:30:22  22 C   44 % 
 2018-11-03 01:20:48  22 C   44 % 
 2018-11-03 01:01:23  22 C   44 % 
 2018-11-03 00:51:47  22 C   44 % 
 2018-11-03 00:32:32  22 C   44 % 
 2018-11-03 00:13:03  22 C   44 % 
 2018-11-03 00:03:26  22 C   44 % 
 2018-11-02 23:53:50  22 C   44 % 
 2018-11-02 23:44:15  22 C   44 % 
 2018-11-02 23:34:37  22 C   44 % 
 2018-11-02 23:25:07  22 C   44 % 
 2018-11-02 23:15:14  22 C   44 % 
 2018-11-02 22:26:26  22 C   44 % 
 2018-11-02 22:07:10  22 C   44 % 
 2018-11-02 21:57:33  22 C   44 % 
 2018-11-02 21:47:57  22 C   44 % 
 2018-11-02 21:38:21  22 C   44 % 
 2018-11-02 21:28:44  22 C   44 % 
 2018-11-02 21:19:09  22 C   44 % 
 2018-11-02 20:29:32  22 C   43 % 
 2018-11-02 20:09:32  22 C   44 % 
 2018-11-02 19:59:55  22 C   44 % 
 2018-11-02 19:40:25  22 C   43 % 
 2018-11-02 19:30:47  22 C   43 % 
 2018-11-02 19:21:11  22 C   44 % 
 2018-11-02 19:01:36  22 C   44 % 
 2018-11-02 18:52:02  22 C   44 % 
 2018-11-02 18:12:50  22 C   44 % 
 2018-11-02 17:52:54  22 C   44 % 
 2018-11-02 17:33:25  22 C   43 % 
 2018-11-02 17:23:29  23 C   43 % 
 2018-11-02 17:13:52  23 C   43 % 
 2018-11-02 16:16:11  23 C   41 % 
 2018-11-02 15:37:03  24 C   40 % 
 2018-11-02 15:17:30  25 C   39 % 
 2018-11-02 14:28:09  22 C   45 % 
 2018-11-02 14:08:58  22 C   44 % 
 2018-11-02 13:49:18  22 C   45 % 
 2018-11-02 13:39:16  22 C   44 % 
 2018-11-02 12:12:34  22 C   44 % 
 2018-11-02 11:53:27  22 C   44 % 
 2018-11-02 11:33:54  22 C   44 % 
 2018-11-02 11:14:40  22 C   44 % 
 2018-11-02 10:45:13  22 C   45 % 
 2018-11-02 10:25:59  22 C   44 % 
 2018-11-02 10:16:24  22 C   44 % 
 2018-11-02 10:06:50  21 C   44 % 
 2018-11-02 08:48:36  22 C   44 % 
 2018-11-02 08:00:01  22 C   44 % 
 2018-11-02 07:50:23  22 C   44 % 
 2018-11-02 07:00:19  22 C   44 % 
 2018-11-02 06:20:42  22 C   43 % 
 2018-11-02 06:01:14  22 C   43 % 
 2018-11-02 05:41:24  22 C   43 % 
 2018-11-02 05:21:57  22 C   43 % 
 2018-11-02 04:52:45  22 C   43 % 
 2018-11-02 04:43:09  22 C   43 % 
 2018-11-02 04:33:33  22 C   43 % 
 2018-11-02 04:14:01  22 C   43 % 
 2018-11-02 03:33:44  22 C   43 % 
 2018-11-02 03:24:07  22 C   43 % 
 2018-11-02 03:14:32  22 C   43 % 
 2018-11-02 02:54:37  22 C   43 % 
 2018-11-02 02:45:00  22 C   43 % 
 2018-11-02 02:35:22  22 C   43 % 
 2018-11-02 02:06:21  22 C   43 % 
 2018-11-02 01:56:43  22 C   43 % 
 2018-11-02 01:47:08  22 C   43 % 
 2018-11-02 01:27:34  22 C   44 % 
 2018-11-02 01:08:19  22 C   43 % 
 2018-11-02 00:58:42  22 C   43 % 
 2018-11-02 00:39:25  22 C   44 % 
 2018-11-02 00:29:50  22 C   44 % 
 2018-11-01 23:31:11  22 C   44 % 
 2018-11-01 23:11:25  22 C   44 % 
 2018-11-01 23:01:50  22 C   44 % 
 2018-11-01 22:32:23  22 C   44 % 
 2018-11-01 22:13:06  22 C   44 % 
 2018-11-01 22:03:23  22 C   44 % 
 2018-11-01 21:53:45  22 C   44 % 
 2018-11-01 21:34:31  22 C   44 % 
 2018-11-01 21:24:55  22 C   46 % 
 2018-11-01 21:05:25  22 C   45 % 
 2018-11-01 20:55:48  21 C   44 % 
 2018-11-01 20:46:06  21 C   44 % 
 2018-11-01 20:36:35  21 C   44 % 
 2018-11-01 20:26:45  21 C   44 % 
 2018-11-01 19:47:52  21 C   44 % 
 2018-11-01 19:38:06  21 C   44 % 
 2018-11-01 19:18:53  21 C   44 % 
 2018-11-01 18:59:35  21 C   44 % 
 2018-11-01 18:40:15  21 C   43 % 
 2018-11-01 18:30:40  21 C   43 % 
 2018-11-01 18:21:03  21 C   43 % 
 2018-11-01 18:01:29  21 C   43 % 
 2018-11-01 17:42:19  21 C   44 % 
 2018-11-01 17:03:12  21 C   44 % 
 2018-11-01 16:43:13  21 C   44 % 
 2018-11-01 16:33:38  21 C   44 % 
 2018-11-01 16:24:01  21 C   44 % 
 2018-11-01 16:14:23  21 C   44 % 
 2018-11-01 15:55:05  21 C   44 % 
 2018-11-01 15:35:11  21 C   44 % 
 2018-11-01 15:15:56  21 C   44 % 
 2018-11-01 14:56:31  21 C   44 % 
 2018-11-01 14:46:54  21 C   44 % 
 2018-11-01 14:37:18  21 C   45 % 
 2018-11-01 14:27:42  21 C   44 % 
 2018-11-01 14:08:26  21 C   44 % 
 2018-11-01 13:58:52  21 C   44 % 
 2018-11-01 13:39:01  21 C   44 % 
 2018-11-01 13:29:14  21 C   44 % 
 2018-11-01 13:19:35  21 C   44 % 
 2018-11-01 13:09:59  21 C   43 % 
 2018-11-01 13:00:23  21 C   43 % 
 2018-11-01 12:50:45  21 C   43 % 
 2018-11-01 12:41:09  21 C   43 % 
 2018-11-01 12:31:42  21 C   43 % 
 2018-11-01 12:11:53  21 C   43 % 
 2018-11-01 12:02:14  21 C   43 % 
 2018-11-01 11:52:38  21 C   43 % 
 2018-11-01 11:43:03  21 C   43 % 
 2018-11-01 11:33:22  21 C   43 % 
 2018-11-01 11:23:45  21 C   43 % 
 2018-11-01 11:04:23  21 C   43 % 
 2018-11-01 10:54:51  21 C   43 % 
 2018-11-01 10:45:06  21 C   43 % 
 2018-11-01 10:35:28  21 C   43 % 
 2018-11-01 10:25:50  21 C   43 % 
 2018-11-01 10:06:31  21 C   43 % 
 2018-11-01 09:56:55  21 C   43 % 
 2018-11-01 09:47:22  21 C   43 % 
 2018-11-01 09:37:32  21 C   43 % 
 2018-11-01 09:27:36  21 C   43 % 
 2018-11-01 09:17:57  21 C   43 % 
 2018-11-01 09:08:15  21 C   43 % 
 2018-11-01 08:58:38  21 C   43 % 
 2018-11-01 08:20:13  21 C   43 % 
 2018-11-01 08:10:37  21 C   43 % 
 2018-11-01 07:50:50  21 C   43 % 
 2018-11-01 07:41:17  21 C   43 % 
 2018-11-01 07:31:38  21 C   43 % 
 2018-11-01 07:21:51  21 C   43 % 
 2018-11-01 07:12:16  21 C   43 % 
 2018-11-01 07:02:37  21 C   43 % 
 2018-11-01 06:53:01  21 C   43 % 
 2018-11-01 06:43:05  21 C   43 % 
 2018-11-01 06:33:18  21 C   43 % 
 2018-11-01 06:23:40  21 C   43 % 
 2018-11-01 06:14:03  21 C   43 % 
 2018-11-01 06:04:26  21 C   43 % 
 2018-11-01 05:54:49  21 C   43 % 
 2018-11-01 05:45:09  21 C   43 % 
 2018-11-01 05:35:30  21 C   43 % 
 2018-11-01 05:25:57  21 C   43 % 
 2018-11-01 05:16:20  21 C   43 % 
 2018-11-01 05:06:27  21 C   43 % 
 2018-11-01 04:56:51  21 C   43 % 
 2018-11-01 04:47:16  21 C   43 % 
 2018-11-01 04:27:45  21 C   43 % 
 2018-11-01 04:18:09  21 C   43 % 
 2018-11-01 04:08:25  21 C   43 % 
 2018-11-01 03:58:48  21 C   43 % 
 2018-11-01 03:29:33  21 C   43 % 
 2018-11-01 03:00:39  21 C   43 % 
 2018-11-01 02:41:21  21 C   43 % 
 2018-11-01 02:31:47  21 C   43 % 
 2018-11-01 02:12:30  21 C   43 % 
 2018-11-01 02:02:48  21 C   43 % 
 2018-11-01 01:53:10  21 C   43 % 
 2018-11-01 01:43:31  21 C   43 % 
 2018-11-01 01:33:56  21 C   44 % 
 2018-11-01 01:04:50  21 C   44 % 
 2018-11-01 00:35:18  21 C   44 % 
 2018-11-01 00:16:00  21 C   44 % 
 2018-11-01 00:05:40  21 C   44 % 
 2018-10-31 23:46:22  21 C   44 % 
 2018-10-31 23:36:47  21 C   44 % 
 2018-10-31 22:37:41  21 C   44 % 
 2018-10-31 22:28:05  21 C   44 % 
 2018-10-31 22:18:29  21 C   44 % 
 2018-10-31 22:08:53  21 C   44 % 
 2018-10-31 21:59:18  21 C   44 % 
 2018-10-31 21:30:10  21 C   44 % 
 2018-10-31 21:20:35  21 C   44 % 
 2018-10-31 21:01:16  21 C   44 % 
 2018-10-31 20:51:31  21 C   45 % 
 2018-10-31 20:41:56  21 C   44 % 
 2018-10-31 20:32:17  21 C   45 % 
 2018-10-31 20:22:42  21 C   45 % 
 2018-10-31 20:13:01  21 C   44 % 
 2018-10-31 20:03:24  21 C   45 % 
 2018-10-31 19:53:47  21 C   44 % 
 2018-10-31 19:44:11  21 C   44 % 
 2018-10-31 19:34:35  21 C   45 % 
 2018-10-31 19:15:19  21 C   45 % 
 2018-10-31 19:05:41  21 C   45 % 
 2018-10-31 18:56:04  21 C   44 % 
 2018-10-31 18:46:27  21 C   45 % 
 2018-10-31 18:36:52  21 C   44 % 
 2018-10-31 18:27:22  21 C   43 % 
 2018-10-31 18:17:16  21 C   43 % 
 2018-10-31 18:07:39  21 C   43 % 
 2018-10-31 17:57:57  21 C   43 % 
 2018-10-31 17:38:42  21 C   43 % 
 2018-10-31 17:29:05  21 C   43 % 
 2018-10-31 17:19:28  21 C   43 % 
 2018-10-31 16:59:38  21 C   43 % 
 2018-10-31 16:49:56  21 C   43 % 
 2018-10-31 16:40:20  21 C   43 % 
 2018-10-31 16:30:43  21 C   43 % 
 2018-10-31 16:11:29  21 C   43 % 
 2018-10-31 16:01:49  21 C   43 % 
 2018-10-31 15:52:13  21 C   43 % 
 2018-10-31 15:32:19  21 C   43 % 
 2018-10-31 15:22:50  21 C   43 % 
 2018-10-31 15:13:00  21 C   43 % 
 2018-10-31 15:03:07  21 C   43 % 
 2018-10-31 14:43:50  21 C   43 % 
 2018-10-31 14:34:23  21 C   43 % 
 2018-10-31 14:24:18  21 C   43 % 
 2018-10-31 14:05:00  21 C   43 % 
 2018-10-31 13:55:25  21 C   43 % 
 2018-10-31 13:45:47  21 C   43 % 
 2018-10-31 13:36:09  21 C   43 % 
 2018-10-31 13:16:57  21 C   43 % 
 2018-10-31 13:07:19  21 C   43 % 
 2018-10-31 12:57:41  22 C   43 % 
 2018-10-31 12:48:02  22 C   43 % 
 2018-10-31 12:38:26  22 C   43 % 
 2018-10-31 12:28:52  22 C   43 % 
 2018-10-31 12:19:16  21 C   43 % 
 2018-10-31 12:09:35  21 C   43 % 
 2018-10-31 11:59:40  21 C   43 % 
 2018-10-31 11:40:28  21 C   43 % 
 2018-10-31 11:30:48  21 C   43 % 
 2018-10-31 11:11:43  21 C   43 % 
 2018-10-31 11:01:50  21 C   43 % 
 2018-10-31 10:52:11  21 C   44 % 
 2018-10-31 10:32:25  21 C   43 % 
 2018-10-31 10:22:33  21 C   43 % 
 2018-10-31 10:03:19  21 C   42 % 
 2018-10-31 09:53:42  21 C   42 % 
 2018-10-31 09:44:03  21 C   42 % 
 2018-10-31 09:34:26  21 C   42 % 
 2018-10-31 09:24:50  21 C   42 % 
 2018-10-31 08:55:13  21 C   42 % 
 2018-10-31 08:45:37  21 C   42 % 
 2018-10-31 08:36:00  21 C   42 % 
 2018-10-31 08:26:21  21 C   42 % 
 2018-10-31 08:16:43  21 C   42 % 
 2018-10-31 07:57:26  21 C   42 % 
 2018-10-31 07:47:57  21 C   42 % 
 2018-10-31 07:38:03  21 C   42 % 
 2018-10-31 07:28:23  21 C   42 % 
 2018-10-31 07:18:46  21 C   42 % 
 2018-10-31 07:09:10  21 C   42 % 
 2018-10-31 06:59:34  21 C   42 % 
 2018-10-31 06:49:56  21 C   42 % 
 2018-10-31 06:30:39  21 C   42 % 
 2018-10-31 06:21:01  21 C   42 % 
 2018-10-31 06:01:27  21 C   42 % 
 2018-10-31 05:42:16  21 C   42 % 
 2018-10-31 05:32:36  21 C   42 % 
 2018-10-31 05:23:01  21 C   42 % 
 2018-10-31 05:03:03  21 C   42 % 
 2018-10-31 04:53:29  21 C   42 % 
 2018-10-31 04:43:48  21 C   42 % 
 2018-10-31 04:34:15  21 C   42 % 
 2018-10-31 04:24:32  21 C   42 % 
 2018-10-31 03:55:33  21 C   42 % 
 2018-10-31 03:45:59  21 C   42 % 
 2018-10-31 03:36:17  21 C   42 % 
 2018-10-31 03:26:37  21 C   42 % 
 2018-10-31 03:17:02  21 C   42 % 
 2018-10-31 03:07:25  22 C   42 % 
 2018-10-31 02:57:50  21 C   42 % 
 2018-10-31 02:48:08  21 C   42 % 
 2018-10-31 02:28:52  21 C   42 % 
 2018-10-31 02:19:17  22 C   42 % 
 2018-10-31 01:59:32  22 C   42 % 
 2018-10-31 01:49:56  22 C   42 % 
 2018-10-31 01:40:25  22 C   42 % 
 2018-10-31 01:11:22  22 C   42 % 
 2018-10-31 01:01:47  22 C   42 % 
 2018-10-31 00:42:31  22 C   42 % 
 2018-10-31 00:32:55  22 C   42 % 
 2018-10-31 00:04:03  22 C   42 % 
 2018-10-30 23:54:27  22 C   42 % 
 2018-10-30 23:44:46  22 C   42 % 
 2018-10-30 23:35:11  22 C   42 % 
 2018-10-30 23:25:32  22 C   42 % 
 2018-10-30 23:16:02  22 C   42 % 
 2018-10-30 23:06:06  22 C   41 % 
 2018-10-30 22:56:29  22 C   41 % 
 2018-10-30 22:26:56  22 C   42 % 
 2018-10-30 22:17:17  22 C   41 % 
 2018-10-30 22:07:40  22 C   41 % 
 2018-10-30 21:58:04  22 C   41 % 
 2018-10-30 21:29:14  22 C   41 % 
 2018-10-30 21:09:57  22 C   42 % 
 2018-10-30 21:00:19  22 C   41 % 
 2018-10-30 20:50:44  22 C   41 % 
 2018-10-30 20:41:06  22 C   41 % 
 2018-10-30 20:31:27  22 C   41 % 
 2018-10-30 20:01:54  22 C   41 % 
 2018-10-30 19:52:18  22 C   41 % 
 2018-10-30 19:42:41  22 C   41 % 
 2018-10-30 19:23:00  22 C   41 % 
 2018-10-30 19:13:23  22 C   41 % 
 2018-10-30 18:54:10  22 C   41 % 
 2018-10-30 18:34:28  22 C   41 % 
 2018-10-30 18:24:53  22 C   41 % 
 2018-10-30 18:05:39  22 C   41 % 
 2018-10-30 17:56:03  22 C   41 % 
 2018-10-30 17:46:21  22 C   41 % 
 2018-10-30 17:36:45  22 C   41 % 
 2018-10-30 17:27:08  22 C   42 % 
 2018-10-30 17:17:31  22 C   42 % 
 2018-10-30 16:58:18  22 C   42 % 
 2018-10-30 16:48:42  22 C   42 % 
 2018-10-30 16:39:05  22 C   42 % 
 2018-10-30 16:29:29  22 C   42 % 
 2018-10-30 16:19:54  22 C   42 % 
 2018-10-30 16:10:16  22 C   42 % 
 2018-10-30 16:00:41  22 C   42 % 
 2018-10-30 15:51:03  22 C   43 % 
 2018-10-30 15:41:25  22 C   43 % 
 2018-10-30 15:31:46  22 C   42 % 
 2018-10-30 15:22:10  22 C   42 % 
 2018-10-30 15:12:33  22 C   41 % 
 2018-10-30 14:53:09  22 C   40 % 
 2018-10-30 14:43:32  22 C   40 % 
 2018-10-30 14:33:55  22 C   40 % 
 2018-10-30 14:24:22  21 C   40 % 
 2018-10-30 14:14:37  21 C   40 % 
 2018-10-30 14:05:00  21 C   40 % 
 2018-10-30 13:55:23  21 C   40 % 
 2018-10-30 13:35:28  21 C   40 % 
 2018-10-30 13:25:49  21 C   40 % 
 2018-10-30 13:16:12  21 C   41 % 
 2018-10-30 13:06:38  21 C   41 % 
 2018-10-30 12:57:00  21 C   41 % 
 2018-10-30 12:47:20  21 C   41 % 
 2018-10-30 12:37:43  21 C   41 % 
 2018-10-30 12:28:07  21 C   41 % 
 2018-10-30 12:18:30  21 C   42 % 
 2018-10-30 12:08:54  21 C   42 % 
 2018-10-30 11:59:19  21 C   41 % 
 2018-10-30 11:49:37  21 C   41 % 
 2018-10-30 11:40:01  21 C   41 % 
 2018-10-30 11:30:25  21 C   41 % 
 2018-10-30 11:20:50  21 C   41 % 
 2018-10-30 10:42:12  21 C   41 % 
 2018-10-30 10:32:12  21 C   41 % 
 2018-10-30 10:22:39  21 C   41 % 
 2018-10-30 10:03:08  21 C   41 % 
 2018-10-30 09:53:26  21 C   41 % 
 2018-10-30 09:43:51  21 C   41 % 
 2018-10-30 09:24:32  21 C   41 % 
 2018-10-30 09:14:53  21 C   41 % 
 2018-10-30 09:05:16  21 C   41 % 
 2018-10-30 08:55:48  21 C   41 % 
 2018-10-30 08:45:43  21 C   41 % 
 2018-10-30 08:36:06  21 C   41 % 
 2018-10-30 08:26:30  21 C   41 % 
 2018-10-30 08:16:53  21 C   41 % 
 2018-10-30 08:07:12  21 C   41 % 
 2018-10-30 07:57:35  21 C   41 % 
 2018-10-30 07:48:00  21 C   41 % 
 2018-10-30 07:28:41  21 C   40 % 
 2018-10-30 07:09:13  21 C   40 % 
 2018-10-30 06:59:38  21 C   41 % 
 2018-10-30 06:40:26  21 C   41 % 
 2018-10-30 06:30:29  21 C   40 % 
 2018-10-30 06:20:58  21 C   40 % 
 2018-10-30 06:11:12  21 C   41 % 
 2018-10-30 06:01:38  21 C   41 % 
 2018-10-30 05:51:52  21 C   41 % 
 2018-10-30 05:42:15  21 C   41 % 
 2018-10-30 05:32:37  21 C   41 % 
 2018-10-30 05:22:59  21 C   40 % 
 2018-10-30 05:13:23  21 C   41 % 
 2018-10-30 05:03:46  21 C   41 % 
 2018-10-30 04:54:12  21 C   41 % 
 2018-10-30 04:44:29  22 C   41 % 
 2018-10-30 04:34:53  22 C   40 % 
 2018-10-30 04:14:57  22 C   41 % 
 2018-10-30 03:55:44  22 C   41 % 
 2018-10-30 03:46:04  22 C   40 % 
 2018-10-30 03:26:52  22 C   40 % 
 2018-10-30 03:17:15  22 C   40 % 
 2018-10-30 03:07:39  22 C   41 % 
 2018-10-30 02:57:59  22 C   40 % 
 2018-10-30 02:38:44  22 C   40 % 
 2018-10-30 02:29:07  22 C   40 % 
 2018-10-30 02:19:30  22 C   40 % 
 2018-10-30 02:00:17  22 C   40 % 
 2018-10-30 01:50:41  22 C   40 % 
 2018-10-30 01:41:03  22 C   40 % 
 2018-10-30 01:02:06  22 C   40 % 
 2018-10-30 00:52:32  22 C   40 % 
 2018-10-29 23:32:48  22 C   40 % 
 2018-10-29 23:23:12  22 C   40 % 
 2018-10-29 23:13:36  23 C   40 % 
 2018-10-29 22:53:44  23 C   40 % 
 2018-10-29 22:24:27  23 C   40 % 
 2018-10-29 22:14:50  23 C   40 % 
 2018-10-29 21:36:18  23 C   40 % 
 2018-10-29 21:07:14  23 C   40 % 
 2018-10-29 20:37:53  23 C   39 % 
 2018-10-29 19:47:58  23 C   40 % 
 2018-10-29 19:28:09  23 C   40 % 
 2018-10-29 18:47:57  23 C   40 % 
 2018-10-29 17:10:19  23 C   42 % 
 2018-10-29 15:41:50  23 C   41 % 
 2018-10-29 14:23:17  23 C   41 % 
 2018-10-29 12:44:28  23 C   40 % 
 2018-10-29 11:27:16  23 C   40 % 
 2018-10-29 11:17:39  23 C   40 % 
 2018-10-29 07:33:37  23 C   44 % 
 2018-10-29 07:24:06  23 C   43 % 
 2018-10-29 06:05:50  23 C   42 % 
 2018-10-29 05:17:03  23 C   42 % 
 2018-10-29 04:48:11  23 C   42 % 
 2018-10-29 03:40:26  23 C   42 % 
 2018-10-29 02:32:41  23 C   42 % 
 2018-10-29 01:53:33  24 C   41 % 
 2018-10-29 01:44:00  24 C   41 % 
 2018-10-28 21:04:38  24 C   41 % 
 2018-10-28 19:38:06  23 C   42 % 
 2018-10-28 19:28:08  23 C   43 % 
 2018-10-28 19:08:52  23 C   41 % 
 2018-10-28 18:59:17  23 C   41 % 
 2018-10-28 18:11:18  23 C   41 % 
 2018-10-28 18:01:35  23 C   41 % 
 2018-10-28 17:42:24  23 C   41 % 
 2018-10-28 17:32:50  23 C   41 % 
 2018-10-28 17:23:18  23 C   41 % 
 2018-10-28 17:13:29  23 C   42 % 
 2018-10-28 16:54:18  23 C   41 % 
 2018-10-28 16:15:09  23 C   42 % 
 2018-10-28 16:05:37  23 C   43 % 
 2018-10-28 15:56:03  23 C   43 % 
 2018-10-28 15:36:44  23 C   43 % 
 2018-10-28 14:58:18  23 C   42 % 
 2018-10-28 14:38:57  23 C   42 % 
 2018-10-28 14:29:14  23 C   42 % 
 2018-10-28 14:19:40  23 C   42 % 
 2018-10-28 13:50:50  23 C   42 % 
 2018-10-28 13:31:38  23 C   41 % 
 2018-10-28 13:02:50  23 C   42 % 
 2018-10-28 12:33:24  23 C   43 % 
 2018-10-28 12:14:13  23 C   45 % 
 2018-10-28 11:54:34  22 C   46 % 
 2018-10-28 11:45:06  22 C   47 % 
 2018-10-28 11:35:14  22 C   44 % 
 2018-10-28 11:25:34  22 C   44 % 
 2018-10-28 11:15:59  22 C   44 % 
 2018-10-28 10:56:43  22 C   54 % 
 2018-10-28 10:47:08  22 C   46 % 
 2018-10-28 10:37:32  21 C   44 % 
 2018-10-28 10:27:51  21 C   42 % 
 2018-10-28 09:58:59  21 C   43 % 
 2018-10-28 09:49:25  21 C   43 % 
 2018-10-28 09:39:49  21 C   43 % 
 2018-10-28 09:30:08  21 C   42 % 
 2018-10-28 09:20:34  21 C   42 % 
 2018-10-28 09:10:53  21 C   42 % 
 2018-10-28 09:01:15  21 C   42 % 
 2018-10-28 08:51:36  21 C   42 % 
 2018-10-28 08:41:58  21 C   42 % 
 2018-10-28 08:32:19  21 C   42 % 
 2018-10-28 08:22:46  21 C   42 % 
 2018-10-28 08:13:06  21 C   42 % 
 2018-10-28 08:03:33  21 C   42 % 
 2018-10-28 07:53:54  21 C   42 % 
 2018-10-28 07:44:14  21 C   42 % 
 2018-10-28 07:34:41  21 C   42 % 
 2018-10-28 07:25:02  21 C   42 % 
 2018-10-28 07:15:25  21 C   42 % 
 2018-10-28 07:05:45  21 C   42 % 
 2018-10-28 06:56:08  21 C   42 % 
 2018-10-28 06:46:29  21 C   42 % 
 2018-10-28 06:36:51  21 C   42 % 
 2018-10-28 06:27:12  21 C   42 % 
 2018-10-28 06:17:35  22 C   42 % 
 2018-10-28 06:08:00  22 C   42 % 
 2018-10-28 05:58:24  22 C   42 % 
 2018-10-28 05:48:42  22 C   42 % 
 2018-10-28 05:39:04  22 C   42 % 
 2018-10-28 05:29:25  22 C   42 % 
 2018-10-28 05:19:45  22 C   42 % 
 2018-10-28 05:10:09  22 C   42 % 
 2018-10-28 05:00:30  22 C   43 % 
 2018-10-28 04:50:53  22 C   43 % 
 2018-10-28 04:41:13  22 C   43 % 
 2018-10-28 04:31:34  22 C   43 % 
 2018-10-28 04:21:56  22 C   43 % 
 2018-10-28 04:02:41  22 C   43 % 
 2018-10-28 03:53:04  22 C   42 % 
 2018-10-28 03:43:28  22 C   42 % 
 2018-10-28 03:33:47  22 C   42 % 
 2018-10-28 03:24:07  22 C   43 % 
 2018-10-28 03:14:30  22 C   43 % 
 2018-10-28 03:04:50  22 C   42 % 
 2018-10-28 02:55:10  22 C   42 % 
 2018-10-28 02:45:32  22 C   42 % 
 2018-10-28 02:35:54  22 C   42 % 
 2018-10-28 02:26:15  22 C   42 % 
 2018-10-28 02:16:36  22 C   42 % 
 2018-10-28 02:06:58  22 C   42 % 
 2018-10-28 02:57:24  22 C   42 % 
 2018-10-28 02:47:47  22 C   42 % 
 2018-10-28 02:38:10  22 C   42 % 
 2018-10-28 02:28:29  23 C   42 % 
 2018-10-28 02:18:50  23 C   42 % 
 2018-10-28 02:09:15  23 C   42 % 
 2018-10-28 01:59:35  23 C   42 % 
 2018-10-28 01:49:55  23 C   42 % 
 2018-10-28 01:40:21  23 C   42 % 
 2018-10-28 01:30:44  23 C   42 % 
 2018-10-28 01:21:03  23 C   42 % 
 2018-10-28 01:11:24  23 C   42 % 
 2018-10-28 01:01:45  23 C   42 % 
 2018-10-28 00:52:17  23 C   42 % 
 2018-10-28 00:42:26  23 C   42 % 
 2018-10-28 00:23:10  23 C   42 % 
 2018-10-28 00:03:56  23 C   42 % 
 2018-10-27 23:34:32  23 C   41 % 
 2018-10-27 23:24:54  23 C   41 % 
 2018-10-27 23:15:14  23 C   41 % 
 2018-10-27 22:36:41  23 C   41 % 
 2018-10-27 22:17:30  23 C   41 % 
 2018-10-27 21:57:44  23 C   42 % 
 2018-10-27 21:48:02  23 C   42 % 
 2018-10-27 21:28:31  23 C   42 % 
 2018-10-27 21:09:21  22 C   43 % 
 2018-10-27 20:59:26  22 C   42 % 
 2018-10-27 20:49:46  22 C   42 % 
 2018-10-27 20:40:07  22 C   42 % 
 2018-10-27 20:30:27  22 C   42 % 
 2018-10-27 20:20:49  22 C   42 % 
 2018-10-27 20:01:33  22 C   42 % 
 2018-10-27 19:51:55  22 C   42 % 
 2018-10-27 19:42:16  22 C   42 % 
 2018-10-27 19:32:37  22 C   42 % 
 2018-10-27 19:22:58  22 C   42 % 
 2018-10-27 19:13:19  22 C   42 % 
 2018-10-27 19:03:39  22 C   41 % 
 2018-10-27 18:54:02  22 C   41 % 
 2018-10-27 18:44:24  22 C   41 % 
 2018-10-27 18:34:45  22 C   41 % 
 2018-10-27 18:25:05  22 C   41 % 
 2018-10-27 18:15:26  22 C   41 % 
 2018-10-27 18:05:47  23 C   41 % 
 2018-10-27 17:56:13  23 C   41 % 
 2018-10-27 17:46:35  23 C   41 % 
 2018-10-27 17:36:53  23 C   41 % 
 2018-10-27 17:27:13  22 C   42 % 
 2018-10-27 17:07:58  22 C   43 % 
 2018-10-27 16:58:19  22 C   43 % 
 2018-10-27 16:48:40  22 C   43 % 
 2018-10-27 16:39:02  22 C   43 % 
 2018-10-27 16:29:23  22 C   43 % 
 2018-10-27 16:19:44  22 C   43 % 
 2018-10-27 16:10:07  22 C   43 % 
 2018-10-27 16:00:27  22 C   43 % 
 2018-10-27 15:50:52  22 C   43 % 
 2018-10-27 15:41:17  22 C   43 % 
 2018-10-27 15:31:36  22 C   43 % 
 2018-10-27 15:21:56  22 C   43 % 
 2018-10-27 15:12:17  22 C   44 % 
 2018-10-27 15:02:38  22 C   44 % 
 2018-10-27 14:53:03  22 C   43 % 
 2018-10-27 14:43:22  22 C   43 % 
 2018-10-27 14:33:43  22 C   43 % 
 2018-10-27 14:24:04  22 C   43 % 
 2018-10-27 14:14:26  22 C   43 % 
 2018-10-27 14:04:46  22 C   43 % 
 2018-10-27 13:55:07  22 C   43 % 
 2018-10-27 13:45:28  22 C   43 % 
 2018-10-27 13:35:49  22 C   43 % 
 2018-10-27 13:26:09  22 C   43 % 
 2018-10-27 13:16:31  22 C   43 % 
 2018-10-27 13:06:51  22 C   43 % 
 2018-10-27 12:57:12  22 C   43 % 
 2018-10-27 12:47:33  22 C   43 % 
 2018-10-27 12:37:53  22 C   44 % 
 2018-10-27 12:28:14  22 C   44 % 
 2018-10-27 12:18:35  22 C   45 % 
 2018-10-27 12:08:56  22 C   45 % 
 2018-10-27 11:59:18  22 C   45 % 
 2018-10-27 11:49:38  22 C   46 % 
 2018-10-27 11:39:59  22 C   46 % 
 2018-10-27 11:30:19  22 C   46 % 
 2018-10-27 11:20:40  22 C   47 % 
 2018-10-27 11:11:05  22 C   48 % 
 2018-10-27 11:01:27  22 C   50 % 
 2018-10-27 10:51:48  22 C   50 % 
 2018-10-27 10:42:09  22 C   50 % 
 2018-10-27 10:32:30  22 C   47 % 
 2018-10-27 10:22:51  22 C   45 % 
 2018-10-27 10:13:13  22 C   44 % 
 2018-10-27 10:03:33  22 C   44 % 
 2018-10-27 09:53:55  22 C   44 % 
 2018-10-27 09:44:21  22 C   44 % 
 2018-10-27 09:34:44  22 C   44 % 
 2018-10-27 09:25:03  22 C   44 % 
 2018-10-27 09:15:24  22 C   44 % 
 2018-10-27 09:05:46  22 C   43 % 
 2018-10-27 08:56:07  22 C   44 % 
 2018-10-27 08:46:28  22 C   43 % 
 2018-10-27 08:36:49  22 C   43 % 
 2018-10-27 08:27:11  22 C   43 % 
 2018-10-27 08:17:34  22 C   43 % 
 2018-10-27 08:07:56  22 C   43 % 
 2018-10-27 07:58:24  22 C   43 % 
 2018-10-27 07:48:41  22 C   43 % 
 2018-10-27 07:39:01  22 C   43 % 
 2018-10-27 07:29:23  22 C   43 % 
 2018-10-27 07:19:45  22 C   43 % 
 2018-10-27 07:10:05  22 C   43 % 
 2018-10-27 07:00:26  22 C   43 % 
 2018-10-27 06:50:47  22 C   43 % 
 2018-10-27 06:41:08  22 C   43 % 
 2018-10-27 06:31:29  22 C   43 % 
 2018-10-27 06:21:49  22 C   43 % 
 2018-10-27 06:12:11  22 C   43 % 
 2018-10-27 06:02:31  22 C   43 % 
 2018-10-27 05:52:52  22 C   43 % 
 2018-10-27 05:43:13  22 C   43 % 
 2018-10-27 05:33:34  22 C   43 % 
 2018-10-27 05:23:55  22 C   43 % 
 2018-10-27 05:14:17  22 C   43 % 
 2018-10-27 05:04:37  23 C   43 % 
 2018-10-27 04:54:58  23 C   43 % 
 2018-10-27 04:45:18  23 C   43 % 
 2018-10-27 04:35:44  23 C   43 % 
 2018-10-27 04:26:03  23 C   43 % 
 2018-10-27 04:16:29  23 C   43 % 
 2018-10-27 04:06:49  23 C   43 % 
 2018-10-27 03:57:10  23 C   43 % 
 2018-10-27 03:47:32  23 C   43 % 
 2018-10-27 03:37:54  23 C   43 % 
 2018-10-27 03:28:19  23 C   43 % 
 2018-10-27 03:18:38  23 C   43 % 
 2018-10-27 03:09:04  23 C   43 % 
 2018-10-27 02:59:28  23 C   43 % 
 2018-10-27 02:49:50  23 C   43 % 
 2018-10-27 02:40:09  23 C   44 % 
 2018-10-27 02:30:41  23 C   43 % 
 2018-10-27 02:20:50  23 C   43 % 
 2018-10-27 02:11:11  23 C   43 % 
 2018-10-27 02:01:33  23 C   43 % 
 2018-10-27 01:51:54  23 C   43 % 
 2018-10-27 01:42:15  23 C   43 % 
 2018-10-27 01:32:36  23 C   43 % 
 2018-10-27 01:23:02  23 C   43 % 
 2018-10-27 01:13:21  23 C   43 % 
 2018-10-27 00:53:56  23 C   44 % 
 2018-10-27 00:44:21  23 C   44 % 
 2018-10-27 00:34:44  23 C   44 % 
 2018-10-27 00:25:11  23 C   43 % 
 2018-10-27 00:15:28  23 C   43 % 
 2018-10-27 00:05:50  23 C   43 % 
 2018-10-26 23:56:12  23 C   43 % 
 2018-10-26 23:46:34  23 C   43 % 
 2018-10-26 23:37:03  23 C   43 % 
 2018-10-26 23:27:18  23 C   43 % 
 2018-10-26 23:17:40  23 C   43 % 
 2018-10-26 22:58:29  23 C   42 % 
 2018-10-26 22:48:51  23 C   42 % 
 2018-10-26 22:39:15  23 C   43 % 
 2018-10-26 22:29:33  23 C   43 % 
 2018-10-26 22:19:56  23 C   42 % 
 2018-10-26 22:10:16  23 C   42 % 
 2018-10-26 22:00:40  23 C   42 % 
 2018-10-26 21:51:00  23 C   42 % 
 2018-10-26 21:41:22  23 C   43 % 
 2018-10-26 21:31:41  23 C   41 % 
 2018-10-26 21:22:02  22 C   40 % 
 2018-10-26 21:12:23  22 C   42 % 
 2018-10-26 21:02:45  23 C   46 % 
 2018-10-26 20:53:06  23 C   54 % 
 2018-10-26 20:43:29  23 C   53 % 
 2018-10-26 20:33:49  23 C   52 % 
 2018-10-26 20:24:09  22 C   44 % 
 2018-10-26 20:14:30  22 C   44 % 
 2018-10-26 20:04:50  22 C   46 % 
 2018-10-26 19:55:10  22 C   43 % 
 2018-10-26 19:45:31  22 C   43 % 
 2018-10-26 19:35:52  22 C   43 % 
 2018-10-26 19:26:13  22 C   43 % 
 2018-10-26 19:16:34  22 C   43 % 
 2018-10-26 19:06:54  22 C   43 % 
 2018-10-26 18:57:14  22 C   44 % 
 2018-10-26 18:47:35  22 C   45 % 
 2018-10-26 18:37:56  21 C   42 % 
 2018-10-26 18:28:17  21 C   43 % 
 2018-10-26 18:18:38  21 C   43 % 
 2018-10-26 18:09:01  21 C   42 % 
 2018-10-26 17:59:29  21 C   42 % 
 2018-10-26 17:49:46  21 C   42 % 
 2018-10-26 17:40:07  21 C   42 % 
 2018-10-26 17:30:30  21 C   42 % 
 2018-10-26 17:20:57  21 C   41 % 
 2018-10-26 17:11:21  21 C   41 % 
 2018-10-26 17:01:42  21 C   41 % 
 2018-10-26 16:52:03  21 C   41 % 
 2018-10-26 16:42:26  21 C   41 % 
 2018-10-26 16:32:47  21 C   41 % 
 2018-10-26 16:23:14  21 C   40 % 
 2018-10-26 16:13:33  21 C   41 % 
 2018-10-26 16:03:56  21 C   41 % 
 2018-10-26 15:54:18  21 C   41 % 
 2018-10-26 15:44:39  21 C   40 % 
 2018-10-26 15:35:12  21 C   41 % 
 2018-10-26 15:15:45  21 C   44 % 
 2018-10-26 15:06:06  21 C   46 % 
 2018-10-26 14:56:33  21 C   46 % 
 2018-10-26 14:46:53  22 C   46 % 
 2018-10-26 14:37:14  21 C   46 % 
 2018-10-26 14:17:59  21 C   46 % 
 2018-10-26 13:58:49  22 C   46 % 
 2018-10-26 13:49:13  21 C   45 % 
 2018-10-26 13:39:33  21 C   45 % 
 2018-10-26 13:29:55  21 C   45 % 
 2018-10-26 13:20:16  21 C   45 % 
 2018-10-26 13:10:38  21 C   45 % 
 2018-10-26 13:01:00  21 C   45 % 
 2018-10-26 12:51:21  21 C   45 % 
 2018-10-26 12:41:42  21 C   45 % 
 2018-10-26 12:32:04  21 C   45 % 
 2018-10-26 12:22:43  21 C   45 % 
 2018-10-26 12:12:28  21 C   45 % 
 2018-10-26 12:02:50  21 C   45 % 
 2018-10-26 11:53:14  21 C   45 % 
 2018-10-26 11:43:34  21 C   46 % 
 2018-10-26 11:33:59  21 C   45 % 
 2018-10-26 11:24:23  21 C   46 % 
 2018-10-26 11:14:42  21 C   46 % 
 2018-10-26 11:05:04  21 C   46 % 
 2018-10-26 10:55:25  21 C   46 % 
 2018-10-26 10:45:47  21 C   46 % 
 2018-10-26 10:36:07  21 C   46 % 
 2018-10-26 10:26:29  21 C   46 % 
 2018-10-26 10:16:51  21 C   46 % 
 2018-10-26 10:07:11  21 C   46 % 
 2018-10-26 09:57:33  22 C   46 % 
 2018-10-26 09:47:54  22 C   46 % 
 2018-10-26 09:38:17  22 C   46 % 
 2018-10-26 09:28:38  22 C   46 % 
 2018-10-26 09:19:01  22 C   47 % 
 2018-10-26 09:09:26  22 C   47 % 
 2018-10-26 08:59:45  22 C   47 % 
 2018-10-26 08:50:06  22 C   47 % 
 2018-10-26 08:40:27  22 C   47 % 
 2018-10-26 08:30:49  22 C   47 % 
 2018-10-26 08:21:11  22 C   47 % 
 2018-10-26 08:11:31  22 C   47 % 
 2018-10-26 08:01:57  22 C   47 % 
 2018-10-26 07:52:17  22 C   47 % 
 2018-10-26 07:42:38  22 C   47 % 
 2018-10-26 07:32:59  22 C   46 % 
 2018-10-26 07:23:20  22 C   46 % 
 2018-10-26 07:13:45  22 C   46 % 
 2018-10-26 07:04:11  22 C   46 % 
 2018-10-26 06:54:28  22 C   48 % 
 2018-10-26 06:44:50  22 C   46 % 
 2018-10-26 06:35:18  22 C   46 % 
 2018-10-26 06:25:35  22 C   46 % 
 2018-10-26 06:15:58  22 C   46 % 
 2018-10-26 05:56:47  22 C   46 % 
 2018-10-26 05:47:05  22 C   46 % 
 2018-10-26 05:37:26  22 C   46 % 
 2018-10-26 05:27:47  22 C   46 % 
 2018-10-26 05:18:14  22 C   46 % 
 2018-10-26 05:08:32  22 C   46 % 
 2018-10-26 04:58:58  22 C   46 % 
 2018-10-26 04:49:22  22 C   46 % 
 2018-10-26 04:39:48  22 C   46 % 
 2018-10-26 04:30:15  22 C   46 % 
 2018-10-26 04:20:28  22 C   46 % 
 2018-10-26 04:10:52  22 C   46 % 
 2018-10-26 03:51:36  22 C   46 % 
 2018-10-26 03:41:57  22 C   46 % 
 2018-10-26 03:32:23  22 C   46 % 
 2018-10-26 03:22:42  22 C   46 % 
 2018-10-26 03:13:04  22 C   46 % 
 2018-10-26 03:03:26  22 C   46 % 
 2018-10-26 02:53:46  22 C   46 % 
 2018-10-26 02:44:08  22 C   46 % 
 2018-10-26 02:34:41  22 C   46 % 
 2018-10-26 02:24:50  22 C   46 % 
 2018-10-26 02:05:36  22 C   46 % 
 2018-10-26 01:55:57  22 C   46 % 
 2018-10-26 01:46:19  22 C   46 % 
 2018-10-26 01:36:41  22 C   46 % 
 2018-10-26 01:27:03  22 C   46 % 
 2018-10-26 01:17:25  22 C   46 % 
 2018-10-26 01:07:50  22 C   46 % 
 2018-10-26 00:58:09  22 C   47 % 
 2018-10-26 00:48:33  22 C   47 % 
 2018-10-26 00:39:04  22 C   46 % 
 2018-10-26 00:29:16  22 C   46 % 
 2018-10-26 00:19:43  22 C   47 % 
 2018-10-26 00:10:00  22 C   47 % 
 2018-10-26 00:00:22  22 C   47 % 
 2018-10-25 23:50:47  22 C   47 % 
 2018-10-25 23:41:05  22 C   47 % 
 2018-10-25 23:31:38  22 C   47 % 
 2018-10-25 23:21:49  22 C   47 % 
 2018-10-25 23:12:10  22 C   47 % 
 2018-10-25 23:02:36  22 C   47 % 
 2018-10-25 22:52:54  22 C   47 % 
 2018-10-25 22:43:16  22 C   47 % 
 2018-10-25 22:33:37  22 C   47 % 
 2018-10-25 22:24:03  22 C   47 % 
 2018-10-25 22:04:51  22 C   47 % 
 2018-10-25 21:55:09  22 C   47 % 
 2018-10-25 21:45:30  22 C   47 % 
 2018-10-25 21:35:51  22 C   47 % 
 2018-10-25 21:26:13  22 C   47 % 
 2018-10-25 21:16:33  22 C   47 % 
 2018-10-25 21:06:55  22 C   47 % 
 2018-10-25 20:57:19  22 C   47 % 
 2018-10-25 20:47:42  22 C   47 % 
 2018-10-25 20:38:05  22 C   47 % 
 2018-10-25 20:28:31  22 C   47 % 
 2018-10-25 20:18:51  22 C   47 % 
 2018-10-25 20:09:20  22 C   47 % 
 2018-10-25 19:59:36  22 C   47 % 
 2018-10-25 19:49:56  22 C   47 % 
 2018-10-25 19:40:18  22 C   47 % 
 2018-10-25 19:30:42  22 C   47 % 
 2018-10-25 19:21:02  22 C   48 % 
 2018-10-25 19:11:23  22 C   48 % 
 2018-10-25 19:01:45  22 C   48 % 
 2018-10-25 18:52:08  22 C   48 % 
 2018-10-25 18:42:29  22 C   48 % 
 2018-10-25 18:32:54  22 C   48 % 
 2018-10-25 18:13:36  22 C   48 % 
 2018-10-25 18:04:03  22 C   56 % 
 2018-10-25 17:54:25  22 C   48 % 
 2018-10-25 17:44:44  22 C   48 % 
 2018-10-25 17:35:08  22 C   48 % 
 2018-10-25 17:25:30  22 C   48 % 
 2018-10-25 17:15:52  22 C   48 % 
 2018-10-25 16:56:35  22 C   49 % 
 2018-10-25 16:46:57  21 C   49 % 
 2018-10-25 16:37:23  21 C   49 % 
 2018-10-25 16:27:43  22 C   49 % 
 2018-10-25 16:18:12  22 C   49 % 
 2018-10-25 16:08:29  22 C   49 % 
 2018-10-25 15:58:52  22 C   49 % 
 2018-10-25 15:49:19  22 C   49 % 
 2018-10-25 15:39:38  22 C   49 % 
 2018-10-25 15:29:58  21 C   50 % 
 2018-10-25 15:10:43  21 C   50 % 
 2018-10-25 15:01:11  21 C   50 % 
 2018-10-25 14:51:33  22 C   50 % 
 2018-10-25 14:41:59  22 C   50 % 
 2018-10-25 14:32:17  22 C   50 % 
 2018-10-25 14:22:38  22 C   49 % 
 2018-10-25 14:13:06  21 C   50 % 
 2018-10-25 14:03:24  21 C   50 % 
 2018-10-25 13:53:44  21 C   50 % 
 2018-10-25 13:44:09  21 C   49 % 
 2018-10-25 13:34:32  22 C   49 % 
 2018-10-25 13:24:52  22 C   48 % 
 2018-10-25 13:15:17  22 C   47 % 
 2018-10-25 12:56:00  21 C   47 % 
 2018-10-25 12:46:24  21 C   48 % 
 2018-10-25 12:36:44  21 C   48 % 
 2018-10-25 12:27:06  21 C   47 % 
 2018-10-25 12:17:27  21 C   48 % 
 2018-10-25 12:07:48  21 C   48 % 
 2018-10-25 11:58:09  21 C   48 % 
 2018-10-25 11:48:30  21 C   48 % 
 2018-10-25 11:38:53  21 C   48 % 
 2018-10-25 11:29:14  21 C   48 % 
 2018-10-25 11:19:41  21 C   48 % 
 2018-10-25 11:09:59  21 C   48 % 
 2018-10-25 11:00:22  21 C   48 % 
 2018-10-25 10:50:46  21 C   48 % 
 2018-10-25 10:41:06  22 C   48 % 
 2018-10-25 10:31:30  22 C   48 % 
 2018-10-25 10:21:51  22 C   48 % 
 2018-10-25 10:12:18  22 C   48 % 
 2018-10-25 10:02:38  21 C   49 % 
 2018-10-25 09:53:01  21 C   49 % 
 2018-10-25 09:43:21  21 C   49 % 
 2018-10-25 09:33:48  22 C   49 % 
 2018-10-25 09:24:10  22 C   49 % 
 2018-10-25 09:14:30  22 C   49 % 
 2018-10-25 09:04:55  22 C   49 % 
 2018-10-25 08:45:45  21 C   49 % 
 2018-10-25 08:36:06  21 C   49 % 
 2018-10-25 08:26:26  21 C   48 % 
 2018-10-25 08:16:49  22 C   49 % 
 2018-10-25 08:07:15  22 C   48 % 
 2018-10-25 07:57:34  22 C   48 % 
 2018-10-25 07:47:56  22 C   48 % 
 2018-10-25 07:38:16  22 C   48 % 
 2018-10-25 07:28:41  21 C   48 % 
 2018-10-25 07:19:02  21 C   49 % 
 2018-10-25 07:09:24  21 C   49 % 
 2018-10-25 06:59:44  21 C   48 % 
 2018-10-25 06:50:11  21 C   47 % 
 2018-10-25 06:40:32  21 C   46 % 
 2018-10-25 06:30:55  21 C   46 % 
 2018-10-25 06:21:16  21 C   46 % 
 2018-10-25 06:11:37  21 C   46 % 
 2018-10-25 06:01:58  21 C   46 % 
 2018-10-25 05:52:19  21 C   46 % 
 2018-10-25 05:42:41  21 C   46 % 
 2018-10-25 05:33:03  21 C   47 % 
 2018-10-25 05:23:23  21 C   46 % 
 2018-10-25 05:13:49  21 C   46 % 
 2018-10-25 05:04:08  21 C   46 % 
 2018-10-25 04:54:29  21 C   46 % 
 2018-10-25 04:44:55  21 C   46 % 
 2018-10-25 04:35:18  21 C   46 % 
 2018-10-25 04:25:37  21 C   46 % 
 2018-10-25 04:15:59  21 C   46 % 
 2018-10-25 04:06:24  21 C   46 % 
 2018-10-25 03:47:09  21 C   46 % 
 2018-10-25 03:37:29  21 C   46 % 
 2018-10-25 03:27:51  21 C   46 % 
 2018-10-25 03:18:17  21 C   46 % 
 2018-10-25 03:08:37  21 C   46 % 
 2018-10-25 02:58:59  22 C   46 % 
 2018-10-25 02:49:20  22 C   46 % 
 2018-10-25 02:39:41  22 C   46 % 
 2018-10-25 02:30:08  22 C   46 % 
 2018-10-25 02:20:27  22 C   46 % 
 2018-10-25 02:10:48  22 C   46 % 
 2018-10-25 02:01:09  22 C   46 % 
 2018-10-25 01:51:36  22 C   46 % 
 2018-10-25 01:41:58  22 C   46 % 
 2018-10-25 01:32:17  22 C   46 % 
 2018-10-25 01:22:38  22 C   46 % 
 2018-10-25 01:12:59  22 C   46 % 
 2018-10-25 01:03:20  22 C   46 % 
 2018-10-25 00:53:41  22 C   46 % 
 2018-10-25 00:44:05  22 C   46 % 
 2018-10-25 00:34:26  22 C   46 % 
 2018-10-25 00:24:47  22 C   46 % 
 2018-10-25 00:15:09  22 C   46 % 
 2018-10-25 00:05:32  22 C   46 % 
 2018-10-24 23:55:53  22 C   46 % 
 2018-10-24 23:46:26  22 C   46 % 
 2018-10-24 23:36:16  22 C   46 % 
 2018-10-24 23:26:37  22 C   46 % 
 2018-10-24 23:16:59  22 C   46 % 
 2018-10-24 23:07:22  22 C   46 % 
 2018-10-24 22:38:31  22 C   46 % 
 2018-10-24 22:28:55  22 C   46 % 
 2018-10-24 22:19:18  22 C   46 % 
 2018-10-24 22:00:11  22 C   46 % 
 2018-10-24 21:50:31  22 C   46 % 
 2018-10-24 21:40:50  22 C   46 % 
 2018-10-24 21:31:12  22 C   46 % 
 2018-10-24 21:21:33  22 C   46 % 
 2018-10-24 20:52:50  22 C   46 % 
 2018-10-24 20:43:06  22 C   46 % 
 2018-10-24 20:33:27  22 C   46 % 
 2018-10-24 20:23:55  22 C   46 % 
 2018-10-24 20:14:12  22 C   46 % 
 2018-10-24 19:54:58  22 C   46 % 
 2018-10-24 19:45:19  22 C   46 % 
 2018-10-24 19:35:42  22 C   46 % 
 2018-10-24 19:26:03  22 C   46 % 
 2018-10-24 19:16:24  22 C   47 % 
 2018-10-24 19:06:45  22 C   47 % 
 2018-10-24 18:57:10  22 C   47 % 
 2018-10-24 18:37:53  22 C   48 % 
 2018-10-24 18:28:13  22 C   48 % 
 2018-10-24 18:18:35  22 C   49 % 
 2018-10-24 18:08:56  22 C   49 % 
 2018-10-24 17:59:16  22 C   49 % 
 2018-10-24 17:49:38  22 C   48 % 
 2018-10-24 17:40:12  21 C   49 % 
 2018-10-24 17:30:16  21 C   47 % 
 2018-10-24 17:11:02  21 C   47 % 
 2018-10-24 17:01:22  21 C   47 % 
 2018-10-24 16:51:54  21 C   46 % 
 2018-10-24 16:42:07  21 C   47 % 
 2018-10-24 16:32:32  21 C   46 % 
 2018-10-24 16:22:56  21 C   46 % 
 2018-10-24 16:13:15  21 C   47 % 
 2018-10-24 16:03:36  21 C   46 % 
 2018-10-24 15:53:57  21 C   46 % 
 2018-10-24 15:44:19  21 C   46 % 
 2018-10-24 15:34:45  21 C   46 % 
 2018-10-24 15:25:08  21 C   46 % 
 2018-10-24 15:15:27  21 C   46 % 
 2018-10-24 15:05:48  21 C   46 % 
 2018-10-24 14:56:14  21 C   46 % 
 2018-10-24 14:46:34  21 C   46 % 
 2018-10-24 14:36:59  21 C   46 % 
 2018-10-24 14:27:22  21 C   46 % 
 2018-10-24 14:17:47  21 C   46 % 
 2018-10-24 13:58:30  21 C   46 % 
 2018-10-24 13:49:00  21 C   46 % 
 2018-10-24 13:39:14  21 C   46 % 
 2018-10-24 13:29:37  21 C   46 % 
 2018-10-24 13:20:03  21 C   46 % 
 2018-10-24 13:10:22  21 C   46 % 
 2018-10-24 13:00:49  21 C   46 % 
 2018-10-24 12:51:09  21 C   46 % 
 2018-10-24 12:41:30  21 C   46 % 
 2018-10-24 12:31:51  21 C   47 % 
 2018-10-24 12:22:12  21 C   47 % 
 2018-10-24 12:12:33  21 C   47 % 
 2018-10-24 12:02:58  21 C   47 % 
 2018-10-24 11:53:18  21 C   47 % 
 2018-10-24 11:43:45  21 C   47 % 
 2018-10-24 11:34:04  21 C   47 % 
 2018-10-24 11:24:25  21 C   46 % 
 2018-10-24 11:14:50  21 C   46 % 
 2018-10-24 11:05:10  21 C   46 % 
 2018-10-24 10:55:31  21 C   47 % 
 2018-10-24 10:46:00  21 C   47 % 
 2018-10-24 10:36:18  21 C   47 % 
 2018-10-24 10:26:39  21 C   47 % 
 2018-10-24 10:17:08  21 C   47 % 
 2018-10-24 10:07:26  21 C   47 % 
 2018-10-24 09:57:50  21 C   47 % 
 2018-10-24 09:48:08  21 C   47 % 
 2018-10-24 09:38:31  21 C   47 % 
 2018-10-24 09:28:56  21 C   47 % 
 2018-10-24 09:19:18  21 C   47 % 
 2018-10-24 09:09:43  21 C   47 % 
 2018-10-24 09:00:08  21 C   47 % 
 2018-10-24 08:50:27  21 C   47 % 
 2018-10-24 08:40:47  21 C   47 % 
 2018-10-24 08:31:08  21 C   47 % 
 2018-10-24 08:21:29  21 C   47 % 
 2018-10-24 08:11:51  21 C   47 % 
 2018-10-24 08:02:13  21 C   48 % 
 2018-10-24 07:52:33  21 C   48 % 
 2018-10-24 07:42:54  21 C   48 % 
 2018-10-24 07:33:19  21 C   48 % 
 2018-10-24 07:23:44  21 C   48 % 
 2018-10-24 07:04:24  21 C   48 % 
 2018-10-24 06:54:51  21 C   48 % 
 2018-10-24 06:45:12  21 C   48 % 
 2018-10-24 06:35:36  21 C   47 % 
 2018-10-24 06:25:56  21 C   47 % 
 2018-10-24 06:16:26  21 C   47 % 
 2018-10-24 05:57:07  21 C   47 % 
 2018-10-24 05:47:32  21 C   47 % 
 2018-10-24 05:37:52  21 C   48 % 
 2018-10-24 05:28:14  21 C   47 % 
 2018-10-24 05:18:35  21 C   47 % 
 2018-10-24 05:08:56  21 C   48 % 
 2018-10-24 04:59:19  21 C   47 % 
 2018-10-24 04:40:04  21 C   48 % 
 2018-10-24 04:30:25  21 C   48 % 
 2018-10-24 04:20:47  21 C   48 % 
 2018-10-24 04:11:14  21 C   48 % 
 2018-10-24 04:01:38  21 C   47 % 
 2018-10-24 03:52:02  21 C   48 % 
 2018-10-24 03:42:24  21 C   48 % 
 2018-10-24 03:32:43  21 C   48 % 
 2018-10-24 03:23:05  21 C   47 % 
 2018-10-24 03:13:26  21 C   47 % 
 2018-10-24 03:03:51  21 C   47 % 
 2018-10-24 02:54:11  21 C   47 % 
 2018-10-24 02:44:33  21 C   47 % 
 2018-10-24 02:34:54  21 C   48 % 
 2018-10-24 02:25:18  21 C   48 % 
 2018-10-24 02:15:40  21 C   48 % 
 2018-10-24 01:56:24  21 C   48 % 
 2018-10-24 01:46:51  21 C   48 % 
 2018-10-24 01:37:09  21 C   48 % 
 2018-10-24 01:27:30  21 C   47 % 
 2018-10-24 01:17:52  21 C   48 % 
 2018-10-24 01:08:15  21 C   47 % 
 2018-10-24 00:58:38  21 C   48 % 
 2018-10-24 00:48:59  21 C   48 % 
 2018-10-24 00:29:44  22 C   48 % 
 2018-10-24 00:20:05  22 C   48 % 
 2018-10-24 00:10:29  22 C   48 % 
 2018-10-24 00:00:54  22 C   48 % 
 2018-10-23 23:51:17  22 C   48 % 
 2018-10-23 23:41:38  22 C   48 % 
 2018-10-23 23:32:00  22 C   48 % 
 2018-10-23 23:22:22  22 C   48 % 
 2018-10-23 23:12:43  22 C   48 % 
 2018-10-23 23:03:17  22 C   48 % 
 2018-10-23 22:53:26  22 C   48 % 
 2018-10-23 22:43:46  22 C   48 % 
 2018-10-23 22:34:11  22 C   48 % 
 2018-10-23 22:24:31  22 C   48 % 
 2018-10-23 22:14:58  22 C   48 % 
 2018-10-23 21:46:03  22 C   48 % 
 2018-10-23 21:36:24  22 C   48 % 
 2018-10-23 21:26:47  22 C   48 % 
 2018-10-23 21:07:50  22 C   48 % 
 2018-10-23 20:57:39  22 C   48 % 
 2018-10-23 20:47:58  22 C   48 % 
 2018-10-23 20:38:22  22 C   48 % 
 2018-10-23 20:28:43  22 C   48 % 
 2018-10-23 20:19:08  22 C   49 % 
 2018-10-23 20:09:31  22 C   49 % 
 2018-10-23 19:50:14  22 C   49 % 
 2018-10-23 19:40:36  22 C   49 % 
 2018-10-23 19:30:58  22 C   49 % 
 2018-10-23 19:21:23  22 C   49 % 
 2018-10-23 19:11:44  22 C   48 % 
 2018-10-23 19:02:15  22 C   49 % 
 2018-10-23 18:52:38  22 C   47 % 
 2018-10-23 18:42:48  22 C   46 % 
 2018-10-23 18:33:11  22 C   46 % 
 2018-10-23 18:23:37  22 C   45 % 
 2018-10-23 18:14:07  22 C   45 % 
 2018-10-23 18:04:20  21 C   44 % 
 2018-10-23 17:54:52  21 C   43 % 
 2018-10-23 17:45:01  21 C   43 % 
 2018-10-23 17:35:25  21 C   42 % 
 2018-10-23 17:25:48  21 C   41 % 
 2018-10-23 17:16:09  22 C   48 % 
 2018-10-23 17:06:31  22 C   49 % 
 2018-10-23 16:56:59  22 C   49 % 
 2018-10-23 16:47:22  22 C   49 % 
 2018-10-23 16:37:53  22 C   49 % 
 2018-10-23 16:28:04  22 C   49 % 
 2018-10-23 16:18:31  22 C   49 % 
 2018-10-23 16:08:49  22 C   49 % 
 2018-10-23 15:59:12  22 C   49 % 
 2018-10-23 15:49:36  22 C   49 % 
 2018-10-23 15:39:55  22 C   48 % 
 2018-10-23 15:30:22  22 C   49 % 
 2018-10-23 15:20:46  22 C   49 % 
 2018-10-23 14:42:17  22 C   48 % 
 2018-10-23 14:32:39  22 C   48 % 
 2018-10-23 14:23:00  22 C   48 % 
 2018-10-23 14:13:21  22 C   47 % 
 2018-10-23 13:54:09  23 C   46 % 
 2018-10-23 13:44:31  24 C   44 % 
 2018-10-23 13:24:50  22 C   49 % 
 2018-10-23 13:15:11  22 C   49 % 
 2018-10-23 13:05:36  22 C   49 % 
 2018-10-23 12:55:57  22 C   48 % 
 2018-10-23 12:36:49  22 C   48 % 
 2018-10-23 12:27:10  22 C   48 % 
 2018-10-23 12:17:35  22 C   48 % 
 2018-10-23 11:58:27  22 C   48 % 
 2018-10-23 11:48:43  22 C   48 % 
 2018-10-23 11:29:30  22 C   48 % 
 2018-10-23 11:19:55  22 C   48 % 
 2018-10-23 11:10:19  22 C   48 % 
 2018-10-23 10:51:08  22 C   48 % 
 2018-10-23 10:41:31  22 C   48 % 
 2018-10-23 10:31:49  22 C   48 % 
 2018-10-23 10:22:10  22 C   48 % 
 2018-10-23 10:12:32  22 C   48 % 
 2018-10-23 10:02:53  22 C   48 % 
 2018-10-23 09:53:25  22 C   48 % 
 2018-10-23 09:43:45  22 C   48 % 
 2018-10-23 09:33:54  22 C   48 % 
 2018-10-23 09:24:18  22 C   48 % 
 2018-10-23 09:14:47  22 C   48 % 
 2018-10-23 09:05:09  22 C   48 % 
 2018-10-23 08:55:35  22 C   48 % 
 2018-10-23 08:46:01  22 C   48 % 
 2018-10-23 08:36:19  22 C   48 % 
 2018-10-23 08:26:42  22 C   48 % 
 2018-10-23 08:17:13  22 C   48 % 
 2018-10-23 07:57:59  22 C   48 % 
 2018-10-23 07:48:21  22 C   49 % 
 2018-10-23 07:38:50  22 C   48 % 
 2018-10-23 07:19:32  22 C   49 % 
 2018-10-23 07:09:57  22 C   49 % 
 2018-10-23 07:00:22  22 C   49 % 
 2018-10-23 06:50:47  22 C   50 % 
 2018-10-23 06:31:38  22 C   49 % 
 2018-10-23 06:12:22  22 C   49 % 
 2018-10-23 06:02:52  22 C   49 % 
 2018-10-23 05:53:13  22 C   49 % 
 2018-10-23 05:43:39  22 C   49 % 
 2018-10-23 05:24:29  22 C   49 % 
 2018-10-23 05:14:50  22 C   49 % 
 2018-10-23 05:05:20  22 C   49 % 
 2018-10-23 04:55:42  22 C   49 % 
 2018-10-23 04:46:07  22 C   49 % 
 2018-10-23 04:26:57  22 C   49 % 
 2018-10-23 04:07:42  22 C   49 % 
 2018-10-23 03:48:33  22 C   49 % 
 2018-10-23 03:38:49  22 C   49 % 
 2018-10-23 03:29:13  22 C   49 % 
 2018-10-23 03:19:32  22 C   49 % 
 2018-10-23 03:09:59  22 C   49 % 
 2018-10-23 03:00:18  22 C   49 % 
 2018-10-23 02:50:42  22 C   49 % 
 2018-10-23 02:41:02  22 C   49 % 
 2018-10-23 02:31:24  22 C   49 % 
 2018-10-23 02:21:46  22 C   49 % 
 2018-10-23 02:12:08  22 C   49 % 
 2018-10-23 02:02:29  22 C   49 % 
 2018-10-23 01:52:56  22 C   49 % 
 2018-10-23 01:43:15  22 C   49 % 
 2018-10-23 01:33:47  22 C   49 % 
 2018-10-23 01:24:09  22 C   49 % 
 2018-10-23 01:14:22  22 C   49 % 
 2018-10-23 00:55:09  22 C   49 % 
 2018-10-23 00:45:29  22 C   49 % 
 2018-10-23 00:26:14  22 C   49 % 
 2018-10-23 00:16:35  22 C   49 % 
 2018-10-23 00:07:00  22 C   49 % 
 2018-10-22 23:57:20  22 C   49 % 
 2018-10-22 23:47:42  22 C   49 % 
 2018-10-22 23:38:02  22 C   49 % 
 2018-10-22 23:28:23  22 C   49 % 
 2018-10-22 23:18:46  22 C   48 % 
 2018-10-22 23:09:07  22 C   48 % 
 2018-10-22 22:59:28  22 C   48 % 
 2018-10-22 22:49:49  22 C   48 % 
 2018-10-22 22:40:10  22 C   48 % 
 2018-10-22 22:30:31  22 C   48 % 
 2018-10-22 22:20:52  22 C   48 % 
 2018-10-22 22:11:14  22 C   48 % 
 2018-10-22 22:01:35  22 C   48 % 
 2018-10-22 21:51:56  22 C   48 % 
 2018-10-22 21:42:21  22 C   48 % 
 2018-10-22 21:32:41  22 C   48 % 
 2018-10-22 21:23:10  22 C   48 % 
 2018-10-22 21:13:27  22 C   48 % 
 2018-10-22 21:03:55  22 C   48 % 
 2018-10-22 20:54:16  22 C   48 % 
 2018-10-22 20:44:36  22 C   48 % 
 2018-10-22 20:35:01  22 C   48 % 
 2018-10-22 20:25:27  22 C   48 % 
 2018-10-22 20:15:50  22 C   48 % 
 2018-10-22 20:06:14  22 C   48 % 
 2018-10-22 19:47:01  22 C   47 % 
 2018-10-22 19:37:25  22 C   45 % 
 2018-10-22 19:27:44  23 C   51 % 
 2018-10-22 19:18:05  22 C   50 % 
 2018-10-22 19:08:33  22 C   50 % 
 2018-10-22 18:49:25  22 C   52 % 
 2018-10-22 18:39:39  22 C   51 % 
 2018-10-22 18:29:58  22 C   51 % 
 2018-10-22 18:20:20  22 C   50 % 
 2018-10-22 18:10:41  22 C   50 % 
 2018-10-22 18:01:01  22 C   50 % 
 2018-10-22 17:51:22  22 C   49 % 
 2018-10-22 17:41:43  22 C   50 % 
 2018-10-22 17:32:05  22 C   50 % 
 2018-10-22 17:12:49  22 C   50 % 
 2018-10-22 17:03:10  22 C   50 % 
 2018-10-22 16:53:31  22 C   49 % 
 2018-10-22 16:43:51  22 C   49 % 
 2018-10-22 16:34:13  22 C   49 % 
 2018-10-22 16:24:34  22 C   49 % 
 2018-10-22 16:14:58  22 C   49 % 
 2018-10-22 16:05:23  22 C   49 % 
 2018-10-22 15:55:46  22 C   49 % 
 2018-10-22 15:46:06  22 C   49 % 
 2018-10-22 15:36:31  22 C   49 % 
 2018-10-22 15:26:54  22 C   49 % 
 2018-10-22 15:17:17  22 C   49 % 
 2018-10-22 15:07:37  22 C   49 % 
 2018-10-22 14:58:04  22 C   49 % 
 2018-10-22 14:48:23  22 C   49 % 
 2018-10-22 14:38:44  22 C   49 % 
 2018-10-22 14:29:06  22 C   49 % 
 2018-10-22 14:19:27  22 C   49 % 
 2018-10-22 14:09:50  22 C   49 % 
 2018-10-22 14:00:11  22 C   49 % 
 2018-10-22 13:50:32  22 C   49 % 
 2018-10-22 13:40:59  22 C   49 % 
 2018-10-22 13:31:22  22 C   49 % 
 2018-10-22 13:21:42  22 C   49 % 
 2018-10-22 13:12:03  22 C   49 % 
 2018-10-22 13:02:24  22 C   49 % 
 2018-10-22 12:52:49  22 C   49 % 
 2018-10-22 12:43:09  22 C   48 % 
 2018-10-22 12:33:30  22 C   49 % 
 2018-10-22 12:14:30  22 C   49 % 
 2018-10-22 12:04:27  22 C   49 % 
 2018-10-22 11:54:53  22 C   49 % 
 2018-10-22 11:45:11  22 C   49 % 
 2018-10-22 11:35:32  22 C   49 % 
 2018-10-22 11:25:54  22 C   49 % 
 2018-10-22 11:16:15  22 C   49 % 
 2018-10-22 11:06:35  22 C   50 % 
 2018-10-22 10:56:57  22 C   50 % 
 2018-10-22 10:47:18  22 C   50 % 
 2018-10-22 10:37:40  22 C   50 % 
 2018-10-22 10:28:01  22 C   50 % 
 2018-10-22 10:18:22  22 C   50 % 
 2018-10-22 10:08:46  22 C   50 % 
 2018-10-22 09:59:07  22 C   50 % 
 2018-10-22 09:49:27  22 C   49 % 
 2018-10-22 09:39:50  22 C   50 % 
 2018-10-22 09:30:11  22 C   50 % 
 2018-10-22 09:20:37  22 C   50 % 
 2018-10-22 09:10:57  22 C   49 % 
 2018-10-22 09:01:18  22 C   49 % 
 2018-10-22 08:51:39  22 C   49 % 
 2018-10-22 08:42:00  22 C   49 % 
 2018-10-22 08:32:22  22 C   49 % 
 2018-10-22 08:22:42  22 C   50 % 
 2018-10-22 08:13:07  22 C   50 % 
 2018-10-22 08:03:27  22 C   50 % 
 2018-10-22 07:53:54  22 C   50 % 
 2018-10-22 07:44:17  22 C   50 % 
 2018-10-22 07:34:36  22 C   50 % 
 2018-10-22 07:24:57  22 C   50 % 
 2018-10-22 07:15:22  22 C   50 % 
 2018-10-22 07:05:42  22 C   50 % 
 2018-10-22 06:56:03  22 C   50 % 
 2018-10-22 06:46:24  22 C   50 % 
 2018-10-22 06:36:45  22 C   50 % 
 2018-10-22 06:27:10  22 C   50 % 
 2018-10-22 06:17:30  22 C   50 % 
 2018-10-22 05:58:15  22 C   50 % 
 2018-10-22 05:48:36  22 C   50 % 
 2018-10-22 05:38:57  22 C   50 % 
 2018-10-22 05:29:23  22 C   50 % 
 2018-10-22 05:19:42  22 C   50 % 
 2018-10-22 05:10:04  22 C   50 % 
 2018-10-22 05:00:26  22 C   50 % 
 2018-10-22 04:50:47  22 C   50 % 
 2018-10-22 04:41:09  22 C   50 % 
 2018-10-22 04:31:29  22 C   50 % 
 2018-10-22 04:21:55  22 C   50 % 
 2018-10-22 03:53:02  22 C   50 % 
 2018-10-22 03:43:23  22 C   50 % 
 2018-10-22 03:33:44  22 C   50 % 
 2018-10-22 03:24:05  22 C   50 % 
 2018-10-22 03:14:25  22 C   50 % 
 2018-10-22 03:04:46  22 C   50 % 
 2018-10-22 02:55:07  22 C   50 % 
 2018-10-22 02:45:27  22 C   50 % 
 2018-10-22 02:35:49  22 C   50 % 
 2018-10-22 02:26:10  22 C   50 % 
 2018-10-22 02:16:35  22 C   50 % 
 2018-10-22 01:57:18  22 C   50 % 
 2018-10-22 01:47:39  22 C   50 % 
 2018-10-22 01:38:00  22 C   50 % 
 2018-10-22 01:28:21  22 C   50 % 
 2018-10-22 01:18:42  22 C   50 % 
 2018-10-22 01:09:03  22 C   50 % 
 2018-10-22 00:59:24  22 C   50 % 
 2018-10-22 00:49:44  22 C   50 % 
 2018-10-22 00:40:10  22 C   50 % 
 2018-10-22 00:30:32  22 C   50 % 
 2018-10-22 00:20:51  22 C   50 % 
 2018-10-22 00:11:12  22 C   50 % 
 2018-10-22 00:01:33  23 C   50 % 
 2018-10-21 23:51:57  23 C   50 % 
 2018-10-21 23:42:17  23 C   50 % 
 2018-10-21 23:32:37  23 C   50 % 
 2018-10-21 23:13:30  23 C   50 % 
 2018-10-21 23:03:47  23 C   50 % 
 2018-10-21 22:54:08  23 C   50 % 
 2018-10-21 22:44:28  23 C   50 % 
 2018-10-21 22:34:49  23 C   50 % 
 2018-10-21 22:25:12  23 C   50 % 
 2018-10-21 22:15:32  23 C   50 % 
 2018-10-21 21:56:16  23 C   50 % 
 2018-10-21 21:46:41  23 C   50 % 
 2018-10-21 21:37:00  23 C   50 % 
 2018-10-21 21:27:22  23 C   50 % 
 2018-10-21 21:17:42  23 C   50 % 
 2018-10-21 21:08:07  23 C   50 % 
 2018-10-21 20:48:50  23 C   50 % 
 2018-10-21 20:39:12  23 C   50 % 
 2018-10-21 20:19:40  23 C   50 % 
 2018-10-21 20:00:23  23 C   50 % 
 2018-10-21 19:50:49  23 C   50 % 
 2018-10-21 19:41:14  23 C   50 % 
 2018-10-21 19:31:31  23 C   50 % 
 2018-10-21 19:21:53  23 C   50 % 
 2018-10-21 19:12:14  23 C   51 % 
 2018-10-21 19:02:43  23 C   51 % 
 2018-10-21 18:52:54  23 C   51 % 
 2018-10-21 18:43:13  22 C   51 % 
 2018-10-21 18:33:34  22 C   51 % 
 2018-10-21 18:24:00  22 C   51 % 
 2018-10-21 18:14:23  22 C   52 % 
 2018-10-21 18:04:41  22 C   53 % 
 2018-10-21 17:55:03  22 C   54 % 
 2018-10-21 17:45:23  22 C   55 % 
 2018-10-21 17:35:49  22 C   56 % 
 2018-10-21 17:26:12  22 C   51 % 
 2018-10-21 17:16:32  22 C   51 % 
 2018-10-21 17:06:57  22 C   51 % 
 2018-10-21 16:57:20  22 C   51 % 
 2018-10-21 16:47:45  22 C   51 % 
 2018-10-21 16:38:05  22 C   51 % 
 2018-10-21 16:18:56  22 C   51 % 
 2018-10-21 16:09:18  22 C   51 % 
 2018-10-21 15:59:42  22 C   51 % 
 2018-10-21 15:50:01  22 C   51 % 
 2018-10-21 15:40:25  22 C   51 % 
 2018-10-21 15:30:45  22 C   51 % 
 2018-10-21 15:21:08  22 C   51 % 
 2018-10-21 15:11:40  22 C   51 % 
 2018-10-21 14:42:37  22 C   51 % 
 2018-10-21 14:32:59  22 C   51 % 
 2018-10-21 14:23:23  22 C   51 % 
 2018-10-21 14:13:42  22 C   51 % 
 2018-10-21 13:44:39  21 C   50 % 
 2018-10-21 13:35:06  21 C   50 % 
 2018-10-21 13:06:24  21 C   50 % 
 2018-10-21 12:46:58  21 C   50 % 
 2018-10-21 12:37:19  21 C   50 % 
 2018-10-21 11:58:52  21 C   50 % 
 2018-10-21 11:49:20  21 C   49 % 
 2018-10-21 11:30:02  21 C   49 % 
 2018-10-21 11:10:48  21 C   49 % 
 2018-10-21 11:01:10  21 C   49 % 
 2018-10-21 10:51:37  21 C   49 % 
 2018-10-21 10:42:06  21 C   49 % 
 2018-10-21 10:32:16  21 C   49 % 
 2018-10-21 10:22:41  21 C   49 % 
 2018-10-21 10:13:01  21 C   49 % 
 2018-10-21 09:44:16  21 C   49 % 
 2018-10-21 09:34:34  21 C   49 % 
 2018-10-21 09:24:56  21 C   49 % 
 2018-10-21 09:15:16  21 C   49 % 
 2018-10-21 09:05:43  21 C   49 % 
 2018-10-21 08:56:02  21 C   49 % 
 2018-10-21 08:46:29  21 C   49 % 
 2018-10-21 08:36:48  21 C   49 % 
 2018-10-21 08:27:09  21 C   49 % 
 2018-10-21 08:17:31  21 C   49 % 
 2018-10-21 08:07:52  21 C   49 % 
 2018-10-21 07:58:15  21 C   49 % 
 2018-10-21 07:48:35  21 C   49 % 
 2018-10-21 07:39:00  21 C   49 % 
 2018-10-21 07:29:27  21 C   49 % 
 2018-10-21 07:19:44  21 C   49 % 
 2018-10-21 07:10:10  21 C   49 % 
 2018-10-21 07:00:29  21 C   49 % 
 2018-10-21 06:50:51  21 C   49 % 
 2018-10-21 06:41:15  21 C   49 % 
 2018-10-21 06:31:36  21 C   49 % 
 2018-10-21 06:21:57  21 C   49 % 
 2018-10-21 06:12:19  21 C   49 % 
 2018-10-21 06:02:42  21 C   49 % 
 2018-10-21 05:53:02  21 C   49 % 
 2018-10-21 05:43:24  21 C   49 % 
 2018-10-21 05:33:50  21 C   49 % 
 2018-10-21 05:24:13  21 C   49 % 
 2018-10-21 05:14:34  21 C   49 % 
 2018-10-21 05:04:58  21 C   49 % 
 2018-10-21 04:55:17  21 C   49 % 
 2018-10-21 04:45:39  21 C   49 % 
 2018-10-21 04:36:00  21 C   49 % 
 2018-10-21 04:26:22  21 C   49 % 
 2018-10-21 04:16:43  21 C   49 % 
 2018-10-21 04:07:09  21 C   49 % 
 2018-10-21 03:57:33  21 C   49 % 
 2018-10-21 03:47:57  21 C   49 % 
 2018-10-21 03:38:22  21 C   49 % 
 2018-10-21 03:28:47  21 C   49 % 
 2018-10-21 03:19:05  21 C   49 % 
 2018-10-21 03:09:30  21 C   49 % 
 2018-10-21 02:59:53  21 C   49 % 
 2018-10-21 02:50:17  21 C   49 % 
 2018-10-21 02:40:38  21 C   49 % 
 2018-10-21 02:31:00  21 C   49 % 
 2018-10-21 02:21:25  21 C   49 % 
 2018-10-21 02:11:49  21 C   49 % 
 2018-10-21 02:02:08  21 C   49 % 
 2018-10-21 01:52:32  21 C   49 % 
 2018-10-21 01:42:56  21 C   49 % 
 2018-10-21 01:33:17  21 C   49 % 
 2018-10-21 01:23:37  21 C   49 % 
 2018-10-21 01:13:58  21 C   49 % 
 2018-10-21 01:04:19  21 C   49 % 
 2018-10-21 00:54:40  21 C   49 % 
 2018-10-21 00:45:02  21 C   49 % 
 2018-10-21 00:35:31  21 C   49 % 
 2018-10-21 00:25:48  21 C   49 % 
 2018-10-21 00:16:12  21 C   49 % 
 2018-10-21 00:06:33  21 C   49 % 
 2018-10-20 23:56:56  21 C   49 % 
 2018-10-20 23:47:17  21 C   49 % 
 2018-10-20 23:37:43  21 C   49 % 
 2018-10-20 23:18:29  21 C   49 % 
 2018-10-20 23:08:49  21 C   49 % 
 2018-10-20 22:49:34  21 C   49 % 
 2018-10-20 22:40:00  21 C   49 % 
 2018-10-20 22:30:24  21 C   49 % 
 2018-10-20 22:20:43  21 C   49 % 
 2018-10-20 22:11:09  21 C   49 % 
 2018-10-20 22:01:32  21 C   49 % 
 2018-10-20 21:51:52  21 C   49 % 
 2018-10-20 21:42:13  21 C   49 % 
 2018-10-20 21:32:38  21 C   49 % 
 2018-10-20 21:23:02  21 C   49 % 
 2018-10-20 21:13:28  21 C   50 % 
 2018-10-20 21:03:47  21 C   50 % 
 2018-10-20 20:44:04  21 C   50 % 
 2018-10-20 20:15:16  21 C   50 % 
 2018-10-20 20:05:35  21 C   50 % 
 2018-10-20 19:46:25  21 C   49 % 
 2018-10-20 19:36:57  21 C   49 % 
 2018-10-20 19:27:00  21 C   49 % 
 2018-10-20 19:17:21  21 C   49 % 
 2018-10-20 18:58:06  21 C   49 % 
 2018-10-20 18:48:31  21 C   48 % 
 2018-10-20 18:38:55  21 C   48 % 
 2018-10-20 18:29:13  21 C   48 % 
 2018-10-20 18:19:34  21 C   48 % 
 2018-10-20 18:09:55  21 C   48 % 
 2018-10-20 18:00:17  21 C   48 % 
 2018-10-20 17:50:40  21 C   48 % 
 2018-10-20 17:41:00  21 C   48 % 
 2018-10-20 17:31:22  21 C   49 % 
 2018-10-20 17:21:48  21 C   49 % 
 2018-10-20 17:12:08  21 C   48 % 
 2018-10-20 17:02:28  21 C   49 % 
 2018-10-20 16:52:53  21 C   49 % 
 2018-10-20 16:43:17  21 C   49 % 
 2018-10-20 16:33:41  21 C   49 % 
 2018-10-20 16:24:02  21 C   49 % 
 2018-10-20 16:14:26  21 C   49 % 
 2018-10-20 16:04:50  21 C   49 % 
 2018-10-20 15:55:10  21 C   49 % 
 2018-10-20 15:45:34  21 C   49 % 
 2018-10-20 15:26:08  21 C   49 % 
 2018-10-20 15:16:30  21 C   48 % 
 2018-10-20 15:06:52  21 C   48 % 
 2018-10-20 14:57:19  21 C   48 % 
 2018-10-20 14:47:40  21 C   49 % 
 2018-10-20 14:37:59  21 C   48 % 
 2018-10-20 14:28:21  21 C   49 % 
 2018-10-20 14:18:42  21 C   49 % 
 2018-10-20 14:09:04  21 C   50 % 
 2018-10-20 13:49:52  21 C   47 % 
 2018-10-20 13:40:13  21 C   47 % 
 2018-10-20 13:30:34  21 C   47 % 
 2018-10-20 13:20:55  21 C   47 % 
 2018-10-20 13:01:45  21 C   48 % 
 2018-10-20 12:52:05  21 C   48 % 
 2018-10-20 12:42:30  21 C   48 % 
 2018-10-20 12:23:19  21 C   48 % 
 2018-10-20 12:13:42  21 C   48 % 
 2018-10-20 12:04:01  21 C   48 % 
 2018-10-20 11:54:35  21 C   48 % 
 2018-10-20 11:44:44  21 C   48 % 
 2018-10-20 11:35:19  21 C   48 % 
 2018-10-20 11:25:22  21 C   48 % 
 2018-10-20 11:15:44  21 C   48 % 
 2018-10-20 11:06:10  21 C   48 % 
 2018-10-20 10:46:55  21 C   48 % 
 2018-10-20 10:37:20  21 C   48 % 
 2018-10-20 10:27:46  21 C   49 % 
 2018-10-20 10:17:59  21 C   49 % 
 2018-10-20 09:58:52  21 C   48 % 
 2018-10-20 09:39:25  21 C   48 % 
 2018-10-20 09:29:47  21 C   48 % 
 2018-10-20 09:20:10  21 C   48 % 
 2018-10-20 09:10:34  21 C   48 % 
 2018-10-20 09:00:57  21 C   48 % 
 2018-10-20 08:51:22  21 C   48 % 
 2018-10-20 08:32:10  21 C   48 % 
 2018-10-20 08:22:31  21 C   48 % 
 2018-10-20 08:12:52  21 C   48 % 
 2018-10-20 07:53:37  21 C   48 % 
 2018-10-20 07:44:03  21 C   48 % 
 2018-10-20 07:34:21  21 C   48 % 
 2018-10-20 07:24:51  21 C   48 % 
 2018-10-20 07:15:07  21 C   48 % 
 2018-10-20 07:05:33  21 C   48 % 
 2018-10-20 06:55:52  21 C   48 % 
 2018-10-20 06:46:17  21 C   48 % 
 2018-10-20 06:36:37  21 C   48 % 
 2018-10-20 06:26:58  21 C   48 % 
 2018-10-20 06:17:25  21 C